GFSCGP_sfc_wetblb_000.txt.gz
Wetbulb
49.00 46.54 45.37 49.65 50.15 50.64 50.90 51.90 52.49 55.02 56.10 58.31 57.70 58.12 60.70 62.91 63.28 63.22 63.59 64.03 64.79 65.31 67.05 67.94 69.05 69.66 70.30 70.58 70.47 70.32 70.91 71.98 73.24 72.08 71.18 70.80 70.05 70.70 71.26 71.67 72.48 72.59 71.82 72.04
46.39 45.42 51.17 54.17 53.75 51.55 49.86 50.43 51.87 54.92 56.36 54.50 57.55 57.81 60.79 62.41 63.26 63.92 64.05 64.65 65.39 66.07 66.28 67.86 69.01 69.99 70.11 70.11 70.20 71.05 70.86 72.45 72.64 72.41 71.29 71.56 71.29 71.54 71.98 72.59 72.97 72.40 71.88 72.10
44.33 48.64 54.83 54.49 52.82 51.18 47.88 50.86 51.82 52.75 56.07 56.14 57.31 54.13 56.54 61.71 63.34 63.87 64.93 66.02 66.14 66.39 66.10 67.06 68.35 68.89 70.21 69.97 71.25 71.48 72.26 72.63 72.98 72.74 72.35 72.26 71.42 70.39 69.15 69.67 70.05 68.98 68.03 68.20
46.63 51.33 52.73 53.06 51.95 50.99 44.13 51.58 55.40 55.21 53.98 47.88 54.83 46.13 52.09 58.08 58.48 60.05 62.45 63.82 65.12 65.75 67.82 68.10 68.42 67.91 69.70 71.08 72.90 72.47 73.23 73.48 73.34 72.47 72.36 70.43 67.82 63.58 64.79 66.68 67.36 65.69 65.81 67.00
46.20 49.25 49.68 50.05 52.12 51.61 48.99 51.37 50.43 55.58 52.90 49.12 50.77 47.10 52.71 53.83 52.29 55.11 60.71 63.48 64.90 65.75 68.01 68.21 68.69 69.05 70.53 72.20 73.29 73.33 73.51 73.23 73.37 71.85 72.26 66.21 61.41 62.44 65.29 65.21 64.26 63.36 63.63 65.46
48.38 53.17 51.71 51.77 53.87 52.54 53.58 50.01 47.33 47.13 45.02 41.34 48.85 47.06 46.25 51.54 55.29 56.93 58.99 63.71 64.69 65.50 67.73 68.95 70.01 69.11 70.92 72.58 73.34 73.61 72.32 71.30 69.11 67.99 64.30 61.42 62.13 61.89 63.00 62.79 61.26 61.96 60.68 64.92
47.17 49.36 51.88 53.38 48.21 50.58 48.98 42.99 38.31 37.83 37.52 37.72 43.11 47.99 50.17 55.83 58.60 57.91 58.47 62.93 64.60 65.59 65.99 67.31 67.37 67.91 70.72 71.55 72.13 72.96 71.87 69.55 65.81 64.41 62.57 61.29 62.55 61.99 61.77 61.53 61.93 61.64 63.24 63.07
42.05 42.16 49.53 51.39 48.94 47.06 45.97 44.27 39.11 35.58 37.49 40.11 45.04 41.78 47.67 57.52 60.45 59.93 61.26 63.72 64.94 64.56 65.70 66.36 66.60 67.79 70.04 71.33 71.62 72.18 70.32 69.00 65.84 64.12 63.13 63.16 63.68 62.41 62.11 62.72 62.91 59.69 60.89 62.99
40.29 42.53 51.01 51.59 52.17 49.85 46.66 43.27 47.18 42.43 41.73 40.29 42.46 47.21 53.83 56.46 58.13 58.87 59.18 60.75 62.27 64.03 65.19 65.69 66.78 67.94 69.40 70.72 71.46 71.86 69.76 68.43 66.68 64.93 63.93 63.33 63.47 63.97 64.70 64.42 62.34 60.84 62.48 63.43
44.07 40.70 47.23 51.71 50.96 50.73 49.39 49.54 43.15 40.62 36.68 34.99 41.16 43.54 45.63 52.83 55.47 57.75 58.05 57.98 59.84 63.53 65.08 65.84 66.54 67.46 69.77 70.48 71.57 72.35 70.29 68.74 67.31 66.51 64.87 64.46 64.58 64.35 64.05 63.16 62.45 62.99 62.39 62.93
46.73 43.00 45.83 47.64 45.97 46.32 47.62 45.21 44.03 43.62 41.20 37.71 36.66 41.14 50.13 55.17 57.03 57.35 58.69 60.28 58.71 61.76 63.84 65.54 66.36 67.48 69.71 70.48 71.24 71.77 70.35 69.40 67.81 67.28 65.99 65.77 65.74 64.93 63.80 63.33 62.93 63.10 62.89 63.71
46.18 42.46 42.67 45.18 49.90 50.60 49.63 47.13 44.78 41.06 39.48 39.65 40.25 42.54 54.20 55.41 56.28 59.32 59.87 60.96 59.86 60.88 63.43 64.99 65.98 66.61 68.46 69.20 70.61 71.01 70.77 69.76 69.02 68.44 66.84 66.51 66.40 65.15 64.04 63.58 63.36 63.39 63.36 62.94
48.53 41.47 41.00 41.94 44.69 46.80 47.64 47.56 46.68 43.42 41.85 40.22 40.05 43.18 53.70 54.13 54.13 55.40 55.15 56.30 58.27 60.38 60.80 64.32 64.72 65.33 67.20 68.62 69.91 70.40 70.84 70.29 69.79 68.79 67.02 64.38 63.41 63.11 63.36 63.42 63.13 63.11 62.61 62.14
54.50 42.04 42.66 41.81 42.75 46.21 45.03 47.87 48.19 45.17 40.98 40.59 42.61 45.40 49.71 53.24 54.19 54.93 55.97 57.55 58.80 60.40 60.90 63.34 64.21 64.81 66.80 68.35 69.40 70.16 70.44 70.74 69.48 68.36 67.30 63.76 62.36 62.27 62.91 63.35 62.96 62.82 62.74 62.00
48.33 42.17 44.11 45.50 49.09 49.68 49.43 48.85 48.42 45.19 45.71 44.49 45.10 46.99 49.90 52.91 54.75 55.83 57.34 58.61 58.92 58.98 61.17 62.29 64.08 65.03 66.70 67.71 68.70 69.78 70.19 69.83 68.66 67.74 66.72 64.81 64.32 63.12 62.67 63.19 63.12 62.91 62.83 62.46
45.83 43.16 45.34 46.18 48.75 49.37 47.75 50.30 50.82 50.73 49.59 48.36 47.63 48.22 53.36 55.50 57.18 55.88 57.65 57.99 57.80 59.38 63.32 62.19 64.24 66.10 67.23 67.91 68.37 68.66 69.06 68.88 68.25 67.01 66.39 65.69 64.97 63.92 63.60 64.29 63.71 62.92 62.64 62.07
45.65 44.34 42.48 41.22 47.12 48.50 45.89 48.36 49.13 50.07 52.30 50.00 45.22 49.01 52.90 53.31 55.29 54.88 55.10 55.83 56.20 57.72 59.74 63.70 64.74 65.46 68.13 69.00 68.80 67.47 67.73 67.78 66.63 66.02 65.54 65.14 65.14 64.43 64.59 64.65 63.33 62.99 62.74 61.78
46.06 43.44 41.69 41.82 42.04 38.88 46.93 52.83 54.77 53.00 53.38 53.35 51.62 52.83 54.25 55.40 55.61 55.15 55.09 55.73 56.66 57.39 57.44 58.66 62.99 65.55 68.57 70.33 69.10 67.17 65.63 66.13 65.79 65.08 64.99 65.70 65.63 64.92 64.84 63.78 63.24 63.16 62.91 62.76
51.03 48.49 44.09 39.69 38.63 42.79 48.81 51.90 52.49 51.23 51.09 55.06 53.23 54.96 55.19 55.69 56.37 54.59 55.83 56.63 57.10 57.01 57.83 59.47 60.47 63.73 66.31 69.11 68.66 65.73 65.14 65.48 65.08 64.41 64.54 65.28 65.57 64.99 63.91 63.02 62.89 63.71 62.85 62.01
51.39 50.31 47.71 44.47 40.25 38.19 44.91 53.99 56.23 54.18 46.24 55.29 55.36 54.66 54.17 55.00 50.68 52.97 57.04 57.96 58.68 60.39 60.96 61.62 62.43 66.86 66.06 67.00 66.05 65.31 64.37 64.16 64.00 64.54 64.99 65.57 65.40 64.59 63.73 63.67 63.93 64.74 63.49 62.63
45.76 46.89 43.39 42.31 41.02 43.85 51.69 55.52 56.14 44.51 46.05 54.95 55.38 54.40 53.81 54.06 54.52 56.24 56.72 58.42 59.53 61.62 62.89 63.42 67.23 67.67 65.95 65.51 65.85 63.98 63.59 63.78 64.69 65.21 64.79 64.61 65.64 65.08 64.71 64.89 64.90 64.06 62.94 60.47
47.48 45.77 44.16 44.02 41.52 39.29 55.29 54.87 50.98 51.72 53.64 55.77 56.25 56.79 56.70 56.04 57.02 57.89 58.33 57.32 57.59 57.42 60.97 63.05 66.12 66.51 65.97 65.70 65.85 63.86 62.85 63.56 64.10 63.20 62.65 61.83 59.80 64.50 66.54 65.28 64.02 62.37 61.18 60.06
47.32 50.05 49.04 48.70 47.21 52.72 54.84 53.76 53.96 54.53 53.65 55.46 55.71 56.80 56.90 57.26 57.84 59.85 58.56 58.25 57.76 58.81 60.12 62.25 64.14 65.49 64.88 65.32 63.59 60.73 60.44 62.46 62.77 61.61 61.87 59.92 60.90 60.47 61.31 64.17 63.14 61.39 59.75 58.26
52.74 55.06 50.88 50.13 53.06 54.80 55.71 55.54 56.16 56.33 55.88 56.38 57.45 57.88 57.75 56.53 58.96 58.95 58.94 61.47 62.67 62.51 60.83 64.36 62.90 61.61 60.39 62.27 62.08 62.11 63.97 62.80 61.15 60.59 60.67 60.30 59.39 59.32 61.98 62.90 62.03 60.53 58.95 57.16
52.21 52.13 52.01 51.20 54.05 54.06 54.80 55.03 55.64 56.87 57.58 57.20 57.35 57.73 57.55 59.53 62.70 63.70 62.78 62.11 61.32 60.65 60.63 61.46 62.24 61.05 59.96 61.48 61.76 62.50 61.93 61.08 60.35 60.47 60.97 60.53 61.20 61.98 59.32 55.23 54.47 55.82 49.97 52.30
50.80 51.41 49.73 48.40 52.90 52.15 52.35 54.54 55.88 53.57 54.05 54.71 54.07 54.43 56.29 58.34 62.33 64.45 62.72 61.46 59.99 59.55 60.01 60.82 61.71 61.56 59.78 59.76 59.50 59.87 61.07 60.05 58.24 56.98 59.70 59.68 61.44 58.75 54.47 51.97 49.62 45.86 44.63 43.29

GFSCGP_sfc_wetblb_003.txt.gz
Wetbulb
46.96 44.90 43.62 46.14 49.48 49.58 50.64 49.01 52.27 55.65 56.54 56.44 55.35 56.12 59.49 62.22 62.01 61.84 62.51 63.27 63.95 64.95 66.63 67.32 68.79 69.91 69.00 69.54 70.80 70.71 70.91 72.37 72.89 71.71 71.08 70.47 70.37 70.37 70.51 71.36 71.83 71.38 70.65 71.58
44.05 43.04 47.37 50.61 51.52 50.15 48.50 46.10 48.81 52.54 56.88 56.48 54.65 55.26 59.14 60.58 60.95 61.87 62.04 62.53 63.49 64.48 65.16 66.01 67.31 68.20 68.19 68.57 69.70 69.62 70.35 71.31 72.94 71.75 70.67 70.89 70.31 70.19 70.61 71.04 71.94 72.06 71.31 71.08
41.66 45.21 51.09 52.13 50.87 50.21 46.42 45.97 47.29 50.47 55.00 56.92 56.31 53.05 55.99 60.04 61.28 62.40 63.06 63.72 64.28 64.03 64.16 65.20 66.09 66.87 68.35 68.36 69.14 69.97 69.91 71.45 72.58 71.80 70.98 71.14 71.01 70.29 69.43 69.49 70.76 70.91 71.22 71.23
44.49 48.58 50.53 50.71 50.07 50.14 42.83 49.80 51.11 52.25 51.88 47.51 55.39 45.98 51.86 57.20 58.95 61.15 62.55 63.35 64.13 64.85 65.51 65.65 66.36 67.12 67.99 68.63 70.17 70.34 70.41 71.74 72.26 71.91 70.70 69.85 69.20 67.17 65.60 66.54 68.61 68.04 67.29 66.42
43.86 47.11 47.09 48.39 50.76 51.19 49.33 50.72 49.25 51.30 50.52 48.65 49.58 46.54 49.85 55.90 54.65 58.55 61.46 62.98 64.74 65.74 65.77 65.51 66.58 67.60 68.97 69.68 70.51 70.83 71.25 71.77 72.23 72.00 71.93 70.33 66.43 63.94 63.58 64.75 66.08 63.95 63.80 64.70
46.27 49.90 49.24 49.13 51.39 52.13 52.66 48.28 45.41 44.76 44.94 42.09 49.25 46.66 45.54 52.53 56.28 58.70 60.54 62.58 65.00 65.32 66.71 66.77 67.60 68.34 68.59 70.30 71.33 71.87 71.35 71.96 72.14 72.10 71.70 68.91 64.35 62.41 63.44 62.91 62.40 60.61 60.27 61.62
45.45 46.88 48.59 51.53 47.67 49.26 47.41 42.17 36.94 37.84 39.43 40.01 45.64 45.87 48.18 54.67 59.52 60.23 60.08 61.13 64.32 65.58 66.50 66.74 67.14 67.30 68.03 69.69 71.11 72.13 71.80 71.44 71.60 71.09 69.09 66.55 62.37 62.63 63.38 62.34 60.94 61.05 61.32 62.26
39.35 40.18 46.97 49.37 48.49 46.11 44.56 43.15 37.93 33.41 34.58 40.32 43.55 43.90 50.55 56.12 59.81 61.47 61.72 61.67 64.02 64.74 65.69 67.11 67.84 67.81 68.27 70.16 70.94 71.83 71.83 71.26 69.26 67.68 65.23 61.78 61.88 61.44 61.89 61.50 61.22 60.05 60.85 61.89
38.02 40.23 48.00 50.00 50.10 49.49 45.33 41.01 44.61 39.00 37.90 37.50 39.65 43.93 50.34 54.91 55.75 59.40 58.82 59.57 61.87 64.16 64.67 66.95 68.10 67.92 68.67 69.97 70.77 71.53 71.86 71.51 68.48 65.60 63.56 61.45 62.24 61.48 61.01 61.88 61.80 58.84 59.58 62.20
43.31 38.81 45.31 49.63 49.69 49.02 48.25 47.32 40.78 38.38 34.90 33.95 38.87 41.06 43.43 50.46 52.74 56.26 57.36 57.63 60.93 63.91 64.31 65.92 67.80 67.19 69.16 70.54 71.29 71.70 72.10 71.37 68.89 65.39 63.80 63.24 62.97 62.76 63.10 62.89 61.03 59.99 60.94 61.51
43.29 40.99 42.48 46.15 44.67 45.05 45.25 42.35 41.00 41.38 38.73 36.29 35.63 39.65 47.66 51.02 54.09 55.02 57.22 59.02 60.53 62.23 63.47 64.86 66.42 67.18 68.28 70.29 70.92 71.05 71.05 70.56 68.71 66.06 64.38 63.28 63.27 63.87 63.32 62.44 61.44 61.23 61.05 60.68
44.49 41.35 40.96 42.46 46.54 48.20 46.59 45.73 44.83 42.35 37.67 36.61 38.51 40.72 50.43 52.92 55.54 56.90 57.53 58.39 58.38 60.99 63.08 64.80 65.86 66.60 66.85 68.07 69.54 70.33 70.56 69.90 68.94 67.13 64.95 64.03 64.31 64.02 62.92 62.02 61.92 61.59 60.90 61.20
44.26 38.79 36.50 39.01 41.55 44.30 44.41 45.61 42.69 41.35 40.08 38.82 39.41 41.50 51.55 53.21 54.57 57.41 57.37 57.74 57.99 59.46 61.20 63.96 64.94 65.52 66.07 67.32 68.65 69.69 70.47 70.05 69.17 67.19 65.78 65.10 64.68 64.42 63.10 63.12 62.37 61.92 61.48 61.33
52.18 38.41 42.91 40.55 41.33 44.46 43.68 46.23 45.73 43.83 39.79 39.01 40.86 43.79 48.44 52.05 53.97 54.57 55.87 57.90 58.84 59.14 60.25 62.15 63.83 64.91 65.84 66.51 68.13 68.96 70.42 70.68 69.60 68.00 66.68 65.36 65.50 65.36 64.87 64.27 63.04 61.88 61.28 60.25
47.26 41.48 40.65 45.67 46.22 46.28 46.41 46.48 46.47 44.49 44.73 44.11 44.36 45.39 49.79 52.39 53.61 55.17 56.44 56.15 56.85 58.16 58.71 60.28 62.14 63.31 64.44 65.10 67.12 68.70 70.11 70.58 69.80 68.66 67.45 66.02 65.48 65.13 64.73 63.99 63.03 62.15 61.75 61.97
43.90 41.33 43.10 41.80 45.49 46.24 45.54 47.77 48.58 48.86 45.31 45.10 44.97 45.25 50.58 55.08 54.00 54.32 55.95 56.26 56.55 57.27 59.01 59.58 61.72 62.82 63.02 64.44 66.39 68.02 69.41 70.19 70.02 68.94 68.01 66.49 64.59 63.83 63.19 63.16 62.64 61.64 62.62 61.80
41.56 44.33 39.54 41.78 43.74 46.07 42.20 46.32 48.07 48.99 49.68 48.39 44.56 47.87 50.88 51.37 54.34 55.03 55.53 57.00 57.65 58.09 60.21 58.51 59.88 61.00 62.74 64.25 66.66 67.11 68.82 70.08 69.49 69.20 67.73 65.88 65.44 63.84 62.85 63.08 62.03 61.92 62.13 61.48
44.69 41.03 39.49 42.35 42.06 38.74 44.20 50.76 52.11 51.58 53.33 51.89 51.55 49.77 51.62 53.34 56.77 57.04 55.15 56.44 56.13 57.91 59.40 61.73 61.37 61.34 63.87 65.38 66.46 66.98 68.22 68.82 68.57 67.94 66.99 66.41 65.43 64.48 63.38 61.64 61.97 62.57 62.32 61.48
47.57 42.26 40.68 38.72 38.58 44.45 48.38 51.58 50.92 50.82 49.32 53.18 51.48 53.17 54.04 53.98 54.25 52.94 55.26 55.44 56.99 56.77 56.90 58.81 63.15 64.16 63.45 65.39 67.24 66.86 66.67 67.50 67.39 66.24 65.84 66.14 66.01 64.64 63.12 62.89 63.53 63.67 61.74 60.98
47.65 46.52 44.69 39.17 38.42 39.06 47.12 52.59 55.57 52.82 46.56 54.31 54.48 53.18 52.93 53.01 50.91 50.76 55.97 55.78 55.63 55.91 58.34 58.95 60.11 62.92 63.35 63.92 66.73 65.31 64.73 65.50 65.59 66.18 65.98 66.44 66.09 64.88 63.40 63.71 63.77 63.69 62.71 61.89
44.86 44.86 43.34 41.70 40.66 44.04 51.23 53.38 55.12 45.62 45.13 54.21 53.19 52.76 53.48 51.57 51.76 53.64 56.04 56.95 57.66 58.96 60.92 61.05 63.05 65.20 64.73 65.10 64.78 63.84 64.03 64.55 66.03 65.81 65.30 64.84 63.72 63.81 64.11 62.94 62.11 62.29 63.18 61.81
44.18 45.29 45.38 44.41 41.59 40.15 53.90 53.25 49.53 50.68 51.19 52.55 53.71 53.77 53.75 54.69 55.89 56.41 57.20 56.76 57.07 57.17 58.61 60.66 62.21 65.21 64.97 64.60 63.84 61.79 62.63 63.78 64.33 64.72 63.82 60.93 61.66 63.63 62.45 59.68 59.64 60.87 62.18 61.68
45.91 49.48 47.16 46.49 44.12 50.18 52.56 51.92 53.85 53.18 53.58 52.68 54.65 54.68 55.47 56.77 55.58 56.72 56.26 58.35 60.35 60.49 61.11 61.76 61.43 65.44 63.18 63.02 63.23 61.96 62.15 63.81 63.44 63.29 61.48 61.25 62.15 62.51 61.68 60.02 58.73 59.00 60.65 60.49
51.93 53.38 48.14 48.52 48.92 51.42 52.20 52.98 53.47 53.55 53.34 54.21 54.91 54.86 54.94 55.39 60.10 60.10 60.92 61.11 60.51 60.94 60.74 62.22 62.69 61.42 60.57 61.88 62.99 62.65 63.64 63.43 63.37 61.59 60.80 61.17 61.24 60.62 61.97 61.08 60.08 62.02 60.65 59.12
50.61 53.00 49.84 48.89 51.91 52.16 51.15 52.11 53.12 53.02 53.82 54.06 55.04 55.47 55.39 57.17 58.56 61.12 60.97 61.15 61.13 60.51 60.68 62.06 61.08 60.54 60.73 62.55 62.51 62.31 62.13 62.47 61.69 61.32 61.06 60.21 61.41 59.81 60.56 55.53 53.94 57.42 53.48 53.50
47.85 51.15 48.31 46.09 52.18 49.69 49.72 52.01 53.48 51.91 52.01 52.54 52.72 52.37 52.43 53.43 54.07 59.69 60.57 60.78 59.32 58.62 59.70 60.38 59.34 59.59 60.04 60.89 60.60 61.46 61.55 61.13 60.19 59.20 59.77 59.29 59.35 61.52 60.05 53.64 49.37 46.22 46.43 43.51

GFSCGP_sfc_wetblb_006.txt.gz
Wetbulb
45.09 43.78 41.69 45.90 48.35 52.40 50.91 51.19 52.42 53.76 56.46 54.61 53.97 54.87 59.76 61.62 61.50 61.52 61.98 62.74 64.16 64.94 67.04 68.09 68.76 69.79 69.56 69.91 71.10 71.79 72.28 73.00 73.01 72.15 71.66 71.66 71.36 71.99 71.99 72.12 72.61 72.32 72.01 72.52
43.34 41.60 46.00 49.08 49.96 50.09 51.69 48.61 50.22 51.64 55.84 55.28 53.90 54.51 59.61 61.26 61.23 61.61 61.85 62.25 63.04 64.34 64.30 65.72 67.19 68.80 68.06 68.50 70.47 71.12 72.04 72.43 73.06 72.06 71.88 72.09 71.69 71.60 72.02 72.22 72.41 72.61 72.33 72.28
40.31 43.76 48.79 50.42 48.45 47.48 45.68 45.51 45.64 51.11 54.83 55.51 54.99 52.26 54.73 60.13 61.38 62.16 62.69 63.35 63.83 63.82 63.86 64.65 65.66 67.38 68.35 67.75 69.22 70.46 71.04 72.10 72.78 72.47 71.61 71.66 71.81 71.45 70.93 71.47 72.12 72.56 72.05 72.18
42.38 46.63 48.33 48.22 48.77 48.55 43.09 48.91 49.42 51.48 51.45 45.90 53.12 43.44 51.08 55.99 58.06 59.58 60.92 61.81 62.83 63.73 65.02 65.16 65.14 65.84 67.38 68.00 69.33 70.21 70.68 71.11 71.77 72.23 71.44 71.03 70.10 69.40 69.62 69.46 71.22 71.30 71.40 70.92
42.88 44.39 46.19 47.20 48.42 50.10 47.70 50.00 49.37 51.10 48.60 47.68 49.40 45.00 48.00 55.41 54.07 57.12 59.82 61.26 62.67 63.71 64.52 64.76 65.47 66.49 67.34 68.59 68.86 69.74 69.89 70.07 71.55 72.02 72.07 71.00 69.49 69.37 65.61 66.63 68.74 68.63 67.66 67.06
45.92 47.65 47.91 47.81 50.59 52.10 50.54 46.23 44.88 43.78 44.29 40.03 46.83 47.62 44.85 50.90 55.70 58.11 60.44 62.19 63.43 64.06 64.79 65.49 66.28 67.07 67.35 68.61 69.24 69.74 69.67 70.15 71.47 71.65 71.57 70.91 69.73 66.10 64.55 65.08 66.63 65.30 64.39 64.56
42.89 44.54 46.88 49.55 46.10 48.11 45.64 42.10 36.59 36.09 37.71 38.17 44.06 45.76 49.84 52.90 58.18 59.59 59.88 61.66 63.73 64.98 65.20 65.02 65.06 66.01 66.98 67.74 68.77 69.76 69.72 69.76 71.36 71.81 71.57 71.32 69.90 65.63 64.72 64.89 65.16 62.60 62.24 64.08
37.80 37.63 44.98 47.82 46.72 44.94 43.86 43.20 37.48 33.14 34.20 40.11 45.11 43.83 50.09 57.07 57.67 60.03 60.56 62.41 63.32 64.50 65.50 65.77 65.69 66.35 66.98 68.21 68.93 69.84 69.88 69.87 71.39 72.07 71.77 71.42 68.96 65.16 64.83 64.68 63.51 62.85 63.22 64.54
36.95 38.38 45.92 47.78 48.68 48.51 42.69 40.26 43.52 37.55 34.35 36.48 39.71 43.91 50.01 52.76 53.83 56.99 58.98 60.42 61.21 63.69 65.07 66.08 66.59 66.86 67.27 68.11 68.89 69.91 70.33 70.69 70.97 71.34 71.14 68.47 66.50 63.75 63.66 64.01 63.62 63.11 63.38 63.84
41.89 36.52 43.45 47.05 47.89 47.22 46.19 45.93 40.79 36.80 33.27 32.45 37.79 39.72 43.27 48.08 51.89 53.66 56.36 58.46 60.61 62.80 64.77 65.88 66.99 67.32 67.88 68.58 69.54 70.24 71.01 70.83 71.08 70.67 69.40 67.74 65.20 63.42 62.87 63.14 63.06 61.95 62.07 63.31
42.01 39.05 40.48 44.20 44.13 44.13 42.87 40.86 39.47 39.60 37.13 34.67 33.96 38.13 46.09 49.18 52.04 53.82 55.79 59.06 59.85 61.26 63.65 64.85 67.08 68.30 68.58 69.03 69.42 70.13 70.81 71.16 70.86 69.63 68.06 65.93 63.59 63.38 63.19 63.35 63.68 62.55 62.07 62.66
43.11 41.46 39.16 40.80 44.24 46.92 46.74 43.48 42.45 40.83 35.83 35.77 36.90 39.42 49.37 51.20 52.01 55.12 56.13 58.77 57.81 60.89 63.37 64.46 66.70 67.90 68.12 68.47 69.11 69.94 70.74 71.18 71.68 70.34 67.10 64.96 63.86 63.79 63.59 63.49 63.66 63.33 62.74 62.63
43.58 37.38 37.62 37.42 39.86 42.88 42.47 43.14 40.53 39.56 38.60 36.53 37.87 40.35 49.93 50.90 53.09 55.48 55.58 56.46 57.49 60.02 61.57 63.43 65.23 66.55 67.20 67.46 68.75 69.74 70.53 70.98 71.70 70.57 66.10 64.71 63.83 64.26 64.08 63.99 63.69 63.25 62.55 62.35
54.03 38.14 40.54 39.26 41.01 42.62 41.91 44.68 43.64 41.99 37.39 38.05 39.79 43.42 47.72 51.84 53.00 54.58 56.13 56.54 56.57 59.04 61.12 62.42 63.51 64.86 66.08 66.44 67.47 69.14 70.13 70.87 70.84 69.17 66.31 65.05 64.28 64.41 64.70 64.50 63.84 63.31 63.09 62.70
42.17 40.63 40.95 45.36 43.61 44.67 44.62 44.90 44.33 42.50 42.65 42.13 44.90 43.77 48.26 51.73 53.06 54.51 57.44 57.54 57.38 56.82 58.31 61.03 62.83 63.63 64.35 64.88 65.86 67.93 69.32 70.37 70.28 67.94 66.79 65.98 65.71 65.47 64.94 64.63 64.57 64.17 63.01 63.11
42.94 39.59 38.99 43.22 44.75 44.59 44.05 45.35 46.38 45.97 45.21 45.07 44.85 44.87 49.41 52.98 54.06 54.41 56.02 56.99 57.14 57.64 58.41 59.49 61.71 62.74 63.24 64.19 64.52 67.21 68.42 69.48 70.37 68.79 67.37 67.56 66.37 65.93 65.54 65.50 65.36 63.88 63.16 62.59
43.27 38.98 36.79 39.37 41.29 41.31 38.69 44.85 45.01 45.98 46.48 46.71 43.61 48.36 49.73 51.39 53.60 54.39 54.53 56.59 57.96 58.10 58.90 58.34 59.13 60.84 61.95 62.71 64.52 66.05 67.91 69.78 70.00 69.42 68.65 67.90 66.42 65.30 64.12 64.55 64.97 63.72 62.85 62.52
46.95 39.79 37.46 40.73 38.11 33.24 43.95 48.11 48.82 48.42 50.68 50.50 50.46 49.90 51.12 52.95 54.88 55.29 55.61 56.51 56.93 57.56 58.67 58.63 58.51 60.01 61.31 62.21 63.92 65.85 67.40 68.85 69.74 69.29 69.03 67.41 66.10 65.14 64.15 63.41 63.12 64.19 62.80 62.17
48.59 40.55 38.30 36.42 35.40 40.35 47.43 50.24 50.60 50.19 49.10 52.88 52.02 53.94 54.14 54.07 54.84 54.22 55.43 57.60 57.27 59.00 59.87 61.36 61.61 61.17 61.55 63.17 64.76 65.72 66.91 68.32 69.07 68.78 68.13 67.12 66.43 65.36 65.23 64.69 63.23 63.60 63.13 62.88
49.20 47.34 41.84 37.01 36.03 37.34 44.55 51.19 54.40 52.60 45.78 52.45 53.09 52.35 52.27 52.58 48.80 50.69 54.54 56.48 56.30 57.81 59.36 60.96 63.02 63.38 64.01 64.08 65.86 65.65 66.00 67.24 67.78 68.24 67.90 67.46 67.30 65.47 63.80 64.51 64.25 63.46 64.00 63.45
45.48 46.12 43.48 40.42 39.27 42.55 49.98 51.85 54.42 45.63 44.50 51.98 52.96 53.57 53.83 51.16 52.77 55.21 57.33 57.45 58.47 59.83 61.51 62.88 63.74 64.52 64.65 65.28 66.09 65.32 64.86 65.90 67.46 67.50 67.74 67.90 67.37 66.45 65.34 63.82 63.26 62.60 63.56 63.49
45.31 45.18 44.53 43.44 41.31 39.11 51.76 52.26 47.80 51.13 51.82 53.15 54.28 53.44 53.44 53.99 55.24 56.80 57.99 58.17 59.16 59.63 60.86 61.76 62.01 64.22 66.22 65.56 65.82 64.55 64.76 65.80 66.21 66.09 65.18 64.75 64.68 65.17 63.05 61.39 61.62 62.08 61.59 60.60
45.68 48.78 45.35 45.27 43.98 49.71 51.73 49.86 52.15 53.81 53.97 53.84 52.93 54.24 56.39 56.02 56.64 58.10 58.24 58.80 59.75 60.87 61.46 63.46 63.85 64.34 64.37 64.81 65.74 63.88 63.24 64.81 64.27 62.52 62.17 62.75 62.89 63.02 62.45 61.43 61.27 60.93 61.22 60.36
51.27 51.14 48.28 47.73 49.39 49.72 49.88 51.72 52.08 52.83 52.34 53.28 54.08 54.92 56.44 56.50 58.94 59.06 60.59 60.25 59.88 60.87 61.48 62.58 62.64 61.62 61.47 62.81 63.27 63.23 63.97 63.82 62.64 61.64 61.96 62.50 62.32 61.37 61.03 61.56 62.06 60.95 60.00 59.80
49.06 51.21 48.60 46.97 49.63 51.71 50.77 51.93 52.79 52.40 52.66 52.51 52.80 53.55 53.83 53.84 53.49 54.10 56.16 60.21 60.00 59.83 61.22 61.72 61.23 61.16 62.05 62.74 62.24 63.50 63.30 62.72 61.92 61.54 61.33 61.20 60.75 61.52 61.44 60.75 58.08 59.70 56.81 56.89
47.56 48.09 46.35 44.35 49.95 49.64 48.83 52.15 54.63 51.57 51.56 52.38 51.52 51.06 51.76 52.21 51.98 53.44 52.33 57.36 59.40 59.93 60.92 60.04 60.00 61.32 61.29 61.60 61.77 62.59 63.41 63.97 63.13 61.73 60.73 60.10 60.40 60.92 60.44 54.22 51.76 45.73 44.69 44.64

GFSCGP_sfc_wetblb_009.txt.gz
Wetbulb
52.32 49.32 47.16 50.93 55.41 56.82 57.34 57.34 56.51 58.56 60.73 60.01 59.62 59.87 62.27 64.84 65.44 65.60 66.86 67.67 68.13 68.83 71.11 72.52 73.39 73.90 74.28 74.81 75.00 75.53 75.68 76.70 77.12 76.10 75.78 75.87 74.97 76.34 76.19 77.65 77.14 76.74 76.38 76.44
48.86 46.80 50.94 53.12 54.22 55.20 57.52 56.71 56.79 58.11 60.42 60.21 59.09 58.86 62.39 64.37 64.49 65.52 66.10 66.97 67.64 68.92 70.16 71.34 72.47 72.93 73.21 74.01 74.42 75.29 75.97 76.73 77.23 76.38 76.71 76.58 76.32 76.41 76.40 76.92 76.96 76.89 76.27 76.57
47.06 48.58 51.05 51.90 52.22 51.96 55.81 55.98 56.61 56.39 58.31 59.63 59.28 57.24 59.36 63.50 65.25 65.61 66.20 67.15 67.78 67.95 68.56 69.78 70.76 71.82 72.68 72.95 73.81 74.81 76.26 77.02 77.23 77.55 76.91 76.34 76.59 76.58 75.74 75.77 75.71 76.17 76.35 76.25
48.67 50.19 49.39 50.35 51.74 53.26 51.40 56.93 57.97 57.08 56.05 52.50 58.91 50.47 57.65 61.11 62.47 64.03 65.15 65.87 66.56 67.28 68.62 69.30 70.04 70.75 72.05 72.57 73.74 74.88 75.84 76.82 77.00 77.58 76.27 76.04 74.50 73.81 74.78 74.97 75.47 75.82 76.42 75.66
48.60 47.47 48.55 48.93 51.10 54.12 53.27 56.19 55.61 56.68 55.88 54.50 55.05 52.38 55.78 59.94 59.67 62.47 64.64 65.76 66.55 67.55 67.99 68.56 69.51 70.64 71.91 72.84 72.90 73.87 75.69 76.60 76.95 77.16 77.31 75.75 75.38 75.28 75.25 74.24 74.85 76.32 75.91 75.63
51.31 51.33 50.71 51.41 53.92 54.97 54.17 53.54 53.26 54.86 54.23 48.07 52.77 53.15 52.49 57.07 59.60 61.96 64.53 65.58 66.57 67.31 68.21 69.12 70.35 70.82 71.15 72.45 72.67 73.40 74.98 75.98 76.12 76.23 76.58 76.20 75.73 75.57 73.79 72.74 71.98 73.12 73.99 73.27
50.13 49.86 51.20 51.93 51.47 54.69 53.54 51.83 46.50 45.90 45.99 45.54 52.32 52.91 54.31 59.09 61.82 63.06 63.71 64.92 66.23 67.34 67.81 68.55 69.20 69.62 70.66 71.55 72.25 72.91 74.46 74.86 74.59 75.26 75.68 75.90 75.98 76.11 74.80 73.80 71.99 72.10 72.19 71.36
45.97 43.80 49.53 52.03 50.83 50.93 51.26 51.68 47.79 42.46 43.69 46.44 50.72 49.32 53.73 60.75 62.24 63.56 65.18 65.84 66.44 66.84 67.77 68.32 69.23 70.47 70.75 71.35 72.11 72.68 74.00 74.65 74.37 74.66 76.11 76.41 76.61 75.60 74.80 74.06 72.22 71.78 71.94 71.31
45.71 45.78 49.37 51.02 52.83 53.72 50.73 48.60 53.71 50.02 46.48 46.65 49.91 53.44 55.83 59.11 59.67 61.14 62.86 64.68 65.42 66.64 67.95 68.43 69.67 70.22 71.25 71.81 72.74 73.50 74.10 74.66 74.43 74.50 76.02 75.78 76.23 75.64 74.57 73.64 72.35 71.97 72.30 70.34
49.50 44.88 49.14 50.22 52.26 52.31 51.85 53.28 47.51 48.37 44.41 42.37 46.72 48.15 50.05 56.80 58.75 61.30 61.51 63.51 65.37 67.17 68.14 68.92 70.24 70.61 71.80 72.09 73.06 73.69 74.36 74.60 74.88 74.66 75.53 75.41 75.67 75.38 75.23 73.44 70.95 70.97 71.06 70.46
51.98 48.27 46.54 48.97 48.46 48.07 48.99 48.51 49.15 50.94 48.88 45.83 43.96 47.40 56.78 58.99 61.95 61.34 61.93 63.65 65.30 66.66 68.21 69.47 70.51 71.14 71.96 72.42 72.79 73.24 73.44 74.47 74.33 74.72 75.72 75.68 74.96 74.11 74.40 72.57 69.57 69.05 70.31 69.94
51.32 49.49 45.90 47.14 50.52 51.18 51.47 50.45 51.17 47.36 46.76 47.75 48.02 48.32 56.80 58.26 60.35 61.43 62.54 63.19 65.05 67.45 68.51 69.22 70.07 70.82 71.15 71.74 72.18 72.62 73.18 73.34 74.85 75.60 75.54 74.57 74.25 73.65 70.83 71.74 69.22 70.65 66.23 69.47
49.80 47.36 43.93 45.20 48.94 50.19 48.44 49.97 51.47 51.42 51.63 49.82 45.58 47.93 57.54 57.77 57.94 59.79 61.03 63.69 64.46 65.70 67.10 68.79 69.49 70.59 70.85 71.61 72.83 72.62 73.51 73.41 74.21 75.16 74.30 73.74 72.36 71.38 72.59 68.56 68.51 68.34 68.26 68.79
55.92 51.18 48.67 44.88 47.15 49.57 47.12 48.20 50.05 49.72 47.08 48.03 48.13 50.42 55.04 57.47 58.88 61.04 62.07 63.68 64.24 64.58 66.91 67.90 68.88 70.87 71.96 72.76 73.08 73.33 73.52 73.94 74.26 74.24 73.95 73.10 71.96 72.37 69.43 68.29 69.64 68.46 67.10 68.23
54.85 48.71 49.86 51.04 52.43 50.32 49.13 47.52 48.76 48.41 50.35 48.34 50.14 50.77 55.00 59.64 61.00 62.68 64.02 64.60 63.13 63.82 65.33 67.34 68.35 70.57 71.99 72.66 72.94 73.22 73.30 74.51 74.94 74.86 73.97 73.21 72.43 71.93 72.08 69.70 66.70 64.84 65.47 65.81
51.19 50.54 47.89 46.85 50.45 50.09 47.82 49.35 49.17 49.70 50.03 50.66 51.58 52.38 57.60 60.76 61.81 61.87 62.31 63.82 63.06 63.45 64.89 66.64 68.35 68.88 69.71 71.03 71.47 71.65 72.69 73.56 74.73 74.50 73.51 73.35 72.93 71.55 70.76 68.94 67.52 65.07 64.62 64.79
54.78 50.53 49.74 46.57 48.63 48.09 45.11 49.06 49.65 50.65 52.01 51.58 49.45 54.40 59.38 57.69 59.15 61.32 63.37 64.14 64.54 64.84 65.17 66.36 68.01 69.22 69.43 69.99 70.89 70.65 71.81 73.15 73.56 73.84 73.47 73.05 72.55 70.88 70.02 68.93 68.31 66.86 65.58 64.74
53.99 52.06 47.95 47.14 47.09 39.70 48.53 52.95 52.60 51.42 52.39 53.84 54.48 56.48 59.42 60.34 62.64 62.21 63.16 64.53 65.34 66.45 66.77 66.73 66.41 67.87 69.39 70.05 70.25 71.21 71.87 72.91 73.43 73.36 73.17 72.98 72.16 70.71 69.66 69.32 68.74 67.44 65.49 67.21
56.41 50.79 45.47 44.22 44.81 48.60 49.94 53.03 50.72 49.70 50.40 54.92 54.81 57.41 58.33 58.66 60.46 60.16 61.02 62.61 64.38 64.71 65.78 66.89 67.23 67.73 68.71 68.78 69.90 70.54 71.04 72.05 72.40 72.64 73.02 72.80 71.94 70.26 69.71 69.22 67.43 68.82 66.97 66.32
53.90 53.95 49.70 47.57 42.92 41.39 51.04 54.58 56.72 56.44 49.31 57.78 58.38 58.85 59.44 58.94 55.11 59.62 60.88 62.08 63.85 65.37 66.88 67.68 67.93 68.35 68.65 69.52 70.22 70.14 70.54 71.22 71.54 72.46 72.99 73.42 71.84 70.98 69.61 68.49 67.08 68.03 67.37 65.96
49.71 49.14 47.36 47.99 45.72 48.57 53.10 54.55 56.78 49.12 52.81 57.70 58.75 59.20 59.09 58.58 60.07 60.89 63.14 64.31 66.02 66.42 67.28 69.20 70.07 69.84 70.20 70.65 71.53 71.23 71.25 70.99 72.71 73.51 73.28 72.33 71.44 70.83 70.57 68.04 67.91 67.36 66.95 64.54
48.67 46.92 45.67 48.23 46.21 44.74 53.98 54.86 53.04 56.15 58.23 58.89 59.41 59.66 59.22 60.38 61.29 62.49 63.32 64.16 65.29 65.57 65.81 67.86 68.45 69.21 70.72 71.28 71.81 71.13 70.59 70.96 72.39 72.31 71.76 70.21 70.30 68.52 67.11 66.25 66.30 67.75 66.82 64.17
47.37 50.37 48.06 49.34 48.92 53.41 54.25 53.48 56.90 60.09 58.78 59.64 60.56 60.91 61.29 61.32 62.33 63.31 63.37 64.50 65.31 66.41 66.98 68.43 68.81 68.75 69.39 70.33 71.28 69.95 69.98 70.58 70.95 70.93 69.46 68.82 69.17 67.59 66.32 65.94 65.27 64.26 64.27 64.22
52.61 55.38 50.89 50.09 51.30 51.53 53.56 55.02 55.85 56.86 56.80 58.56 60.49 59.64 60.45 59.94 62.62 63.86 64.71 65.00 65.31 66.47 66.80 67.81 67.99 67.78 67.45 68.66 69.03 69.09 68.35 70.05 69.50 68.79 68.04 68.62 68.25 66.82 66.83 66.12 65.81 65.81 64.33 63.27
50.48 51.53 50.92 50.79 50.98 52.52 53.18 54.45 55.33 55.89 56.30 56.24 57.14 57.86 57.02 57.93 58.06 62.24 63.44 64.34 65.08 65.80 66.12 67.17 67.75 67.48 66.84 68.24 68.27 68.78 68.91 69.00 67.90 67.92 67.26 66.60 66.14 66.37 65.56 62.09 61.76 63.90 64.08 59.33
48.84 48.95 49.58 49.32 52.50 53.36 52.93 54.23 54.16 52.45 52.88 55.07 55.45 55.28 56.38 57.93 57.93 58.54 59.14 61.95 62.31 63.70 66.12 66.25 66.96 66.94 66.35 67.44 67.34 67.84 68.69 68.32 67.53 66.22 65.35 64.60 64.07 63.95 63.74 60.64 56.41 44.44 44.93 44.28

GFSCGP_sfc_wetblb_012.txt.gz
Wetbulb
54.20 51.61 50.17 53.90 56.37 57.25 57.42 57.05 56.73 59.02 63.32 62.40 61.26 61.26 64.10 67.17 67.45 67.27 68.44 68.73 68.65 68.85 71.23 73.01 74.15 74.85 75.17 76.13 76.54 77.10 77.16 77.95 78.83 75.91 75.19 75.50 75.05 75.92 76.45 77.14 77.96 78.20 77.88 77.73
51.79 49.17 53.31 55.20 55.97 56.05 56.80 56.15 56.48 59.55 62.82 62.37 61.20 60.94 63.39 65.80 67.02 67.62 68.03 68.87 69.53 69.55 70.32 72.20 73.74 74.40 74.62 75.55 76.52 77.25 77.58 78.25 78.46 76.84 78.91 77.06 76.73 76.18 76.81 77.44 77.80 78.06 77.87 77.96
50.33 51.22 53.75 53.42 53.45 54.47 56.56 55.76 56.52 58.14 61.31 62.58 60.87 59.63 61.60 63.99 66.67 67.92 68.60 69.21 70.36 70.04 69.96 71.14 72.25 73.43 74.46 74.79 76.20 77.04 78.00 78.47 78.75 78.84 78.17 77.94 77.80 77.99 76.16 76.37 76.57 77.56 78.09 78.02
51.26 53.48 51.70 51.50 51.67 55.06 53.89 57.55 57.67 58.14 58.28 54.98 61.12 53.32 58.89 61.97 63.76 66.06 67.67 68.24 68.45 70.27 71.13 71.67 71.99 72.75 73.76 74.62 76.15 77.31 78.08 78.62 78.91 79.49 79.17 78.33 75.40 73.57 73.93 74.76 75.13 75.71 77.02 77.01
51.00 50.66 50.33 49.94 51.45 54.57 54.68 58.21 57.74 57.65 57.66 57.27 57.83 55.76 57.50 61.02 61.01 63.95 66.81 68.24 68.52 68.81 70.31 71.03 71.84 72.48 73.91 74.82 75.47 76.80 78.05 78.49 79.12 79.27 79.68 77.35 77.12 75.12 74.95 74.72 75.27 76.15 76.67 76.21
53.24 54.75 52.59 51.96 53.17 54.80 57.05 56.69 57.44 57.61 56.33 51.95 56.22 55.75 54.91 57.70 61.12 62.40 65.75 67.84 68.82 68.18 69.09 70.45 71.85 72.72 73.30 74.56 75.11 75.81 77.52 78.91 78.91 78.80 78.89 78.55 77.49 76.37 74.33 74.99 73.67 73.04 73.68 74.79
51.70 51.61 52.71 53.06 51.39 53.96 55.50 54.81 50.35 49.39 49.66 49.51 56.64 54.89 56.22 59.04 60.96 62.34 62.52 66.45 68.91 68.78 68.78 69.31 70.37 71.46 72.70 73.50 74.32 75.14 76.69 77.60 78.09 78.26 78.04 78.30 78.22 77.82 76.87 76.28 74.01 73.59 72.03 72.18
48.06 45.73 51.47 52.83 51.83 51.94 53.16 54.49 50.62 45.99 47.20 49.75 55.83 51.98 55.31 61.11 62.23 62.62 64.33 65.51 68.57 68.81 68.51 69.21 70.50 71.36 72.50 73.10 74.17 75.01 75.85 77.34 77.54 77.46 77.82 79.17 78.83 77.33 76.73 77.05 73.87 72.62 71.54 71.88
49.43 48.48 53.47 53.00 53.51 54.09 52.87 52.18 56.50 52.75 53.56 50.49 52.58 55.64 58.65 60.45 61.08 62.58 63.05 65.43 67.04 68.77 68.22 68.97 70.43 71.52 72.45 73.30 74.86 76.12 77.51 76.86 77.08 77.04 77.84 78.55 78.50 78.10 77.31 77.75 76.64 74.26 74.63 72.24
53.29 48.54 52.94 52.80 53.76 53.96 54.06 56.37 51.30 52.91 48.00 46.32 50.16 52.33 53.47 57.75 58.37 60.24 62.95 64.58 66.73 68.77 69.30 68.69 70.28 71.41 72.59 73.73 74.36 75.40 76.11 76.73 76.89 76.89 77.01 77.26 77.59 78.11 78.15 77.80 76.48 75.99 74.29 73.92
55.13 51.74 50.35 52.57 50.17 50.00 51.35 51.79 53.66 54.16 52.41 48.24 47.53 50.48 58.30 58.27 59.83 59.72 61.33 64.97 65.97 68.36 69.52 69.92 70.05 71.45 72.87 73.51 74.01 74.79 75.43 76.21 76.28 76.66 77.74 77.50 77.17 77.44 77.85 77.58 77.06 76.06 74.91 74.00
55.93 53.18 48.69 48.44 52.44 53.41 53.61 52.76 54.24 50.03 50.48 52.28 51.18 51.12 59.26 60.16 60.00 60.50 60.98 62.11 64.94 68.02 69.99 70.85 71.39 71.76 72.19 73.23 73.63 74.11 74.84 75.24 75.95 77.83 78.18 77.03 77.58 77.56 77.06 77.71 76.84 76.42 74.44 73.33
55.74 52.15 47.98 48.75 50.49 52.01 50.27 52.17 53.54 54.00 54.42 53.03 49.12 50.88 58.98 59.94 60.74 62.41 63.10 64.21 65.97 67.92 69.93 71.14 71.61 72.09 72.42 72.87 74.24 74.18 74.93 74.93 75.39 77.15 76.26 76.11 76.86 76.64 77.29 77.04 76.65 73.11 73.63 71.37
56.78 52.58 50.34 47.07 49.68 51.71 49.41 49.75 51.57 51.97 50.36 51.19 51.41 53.89 56.84 57.97 59.04 60.20 61.33 64.45 65.56 68.44 69.65 70.89 71.44 72.45 73.13 74.45 76.10 76.30 74.93 75.48 75.67 75.72 76.02 77.00 76.73 76.59 76.28 76.87 75.03 72.26 69.66 70.25
53.18 51.79 53.56 52.50 52.60 52.50 51.35 50.43 50.12 49.69 51.14 50.18 52.64 53.24 56.66 58.74 59.57 60.38 61.50 62.54 65.53 68.09 68.75 70.05 71.02 73.91 75.27 75.73 76.55 76.10 75.57 76.27 76.69 76.57 76.02 76.81 77.59 77.18 76.34 76.91 74.41 72.37 70.51 70.14
55.61 52.70 54.50 52.11 53.33 53.18 51.48 52.64 51.86 50.76 50.72 51.27 52.06 52.44 57.91 59.82 60.69 60.33 61.05 62.18 64.19 68.07 68.70 70.11 71.51 72.76 73.54 74.34 75.06 75.27 75.67 75.87 76.67 76.71 76.24 77.67 78.04 77.15 75.87 76.62 73.74 71.50 69.42 69.38
54.17 53.29 53.15 49.43 52.56 52.68 49.37 52.70 53.57 53.40 52.53 51.60 49.79 54.01 57.20 57.85 58.70 60.38 61.06 63.42 65.24 67.89 69.07 69.95 70.94 72.32 73.82 74.35 75.33 74.91 75.62 76.21 76.15 76.26 76.57 77.08 77.65 76.45 75.54 75.54 73.15 71.41 70.27 69.00
55.19 55.02 54.17 50.70 52.46 44.91 53.00 56.48 56.22 54.60 54.24 53.66 54.10 55.60 57.31 59.15 60.69 62.08 63.85 63.47 64.27 68.43 69.54 70.50 71.10 72.54 73.77 74.38 74.74 75.13 75.29 75.97 76.06 76.06 76.21 76.66 76.75 75.67 74.56 73.16 72.11 71.87 70.08 68.20
56.96 55.18 52.12 48.96 47.77 51.71 53.35 56.65 55.21 53.79 52.67 55.54 54.88 56.23 57.32 59.05 60.87 62.79 66.32 66.87 67.67 69.48 71.10 71.53 72.03 73.11 73.83 73.63 74.29 74.49 74.22 74.68 74.77 74.88 75.63 75.97 76.06 75.12 74.01 71.83 69.90 70.37 69.59 67.83
56.85 57.13 53.33 51.25 46.76 45.00 53.78 56.52 58.92 58.91 51.94 57.14 57.19 56.97 57.72 58.63 56.20 58.63 66.78 66.08 66.55 68.99 70.99 71.35 71.27 72.11 72.69 73.00 73.70 73.36 73.14 73.61 73.98 74.58 75.45 76.26 76.23 75.20 72.82 72.48 71.57 69.77 67.95 66.88
52.84 53.68 50.46 50.76 48.97 51.55 55.92 56.66 59.78 50.55 52.75 60.85 58.43 58.44 58.22 57.92 62.18 65.84 67.08 67.41 68.70 69.50 70.37 71.44 71.56 71.59 72.30 72.80 72.76 72.71 73.02 73.18 74.49 75.39 75.97 76.28 76.23 74.93 73.37 73.01 71.25 68.93 67.19 66.76
51.49 50.60 49.92 51.42 49.24 47.31 56.40 56.88 53.87 58.18 62.60 62.73 63.29 63.09 63.12 65.09 65.59 66.45 67.56 68.38 69.51 70.32 70.82 71.59 71.41 71.62 72.77 73.69 73.88 73.64 73.72 75.34 76.00 76.14 75.72 75.82 73.97 72.49 71.95 69.58 68.71 67.78 68.09 69.31
50.83 54.10 52.15 53.26 53.12 56.31 57.61 54.89 58.12 61.44 62.83 63.49 63.85 64.70 65.11 64.74 65.27 66.35 66.62 67.48 68.06 68.44 68.71 69.82 70.58 71.58 72.63 73.92 74.17 73.89 74.81 75.07 75.29 75.09 74.57 71.66 72.00 70.86 69.94 67.57 66.84 66.29 67.57 66.62
55.80 58.52 55.00 54.45 55.08 55.80 56.62 57.74 58.85 60.65 62.10 63.75 64.91 65.21 65.55 64.51 65.55 66.23 67.22 68.01 68.14 68.67 68.73 69.77 69.99 70.49 71.41 73.16 73.87 74.09 74.07 74.29 74.17 71.95 69.96 69.87 68.18 67.45 67.76 67.08 66.83 67.08 66.96 66.20
54.52 56.41 55.58 54.07 54.59 54.62 54.88 56.81 58.10 58.89 60.42 60.63 61.99 62.85 64.42 65.78 66.16 66.23 66.69 67.90 68.10 68.70 69.60 69.98 69.72 70.55 71.43 72.41 72.88 72.95 72.81 73.09 72.23 70.37 69.84 69.46 68.22 68.97 68.02 58.74 59.32 66.57 65.69 59.52
49.95 52.28 54.59 52.56 54.54 55.30 53.22 53.89 55.11 56.28 57.04 58.02 58.60 58.30 60.44 61.20 60.96 61.53 62.50 63.91 65.84 68.35 69.77 69.91 70.08 70.38 71.07 71.29 71.94 72.57 72.90 73.07 71.78 69.91 70.07 69.51 69.43 68.85 67.73 65.93 63.70 44.71 46.20 45.40

GFSCGP_sfc_wetblb_015.txt.gz
Wetbulb
55.77 52.23 50.65 53.75 56.52 57.28 57.84 57.52 55.94 59.44 61.35 61.33 61.15 61.45 63.56 66.66 66.72 65.88 66.51 66.90 67.61 68.40 71.07 72.39 73.47 74.07 74.35 75.20 75.96 76.70 77.55 80.01 78.09 76.28 76.82 75.37 75.23 75.87 76.26 76.41 78.39 78.76 78.04 78.40
53.07 50.45 54.05 56.22 57.04 56.67 56.90 56.75 56.92 59.48 60.27 61.30 60.88 60.86 63.91 66.24 66.33 67.14 67.14 67.17 67.57 68.32 69.47 71.15 72.80 73.51 74.22 74.67 76.41 78.22 78.64 80.28 79.40 77.30 77.85 76.78 76.35 75.90 75.96 76.10 78.57 78.15 78.16 78.68
51.37 52.45 54.78 54.85 55.61 55.56 56.34 55.95 56.85 57.20 61.35 62.24 60.66 58.71 61.26 64.14 66.95 67.63 67.82 68.82 68.84 68.41 68.05 70.16 71.54 73.03 74.00 74.71 76.21 78.44 79.92 80.53 80.16 80.11 78.93 78.48 79.77 77.47 75.91 75.41 76.56 77.36 77.74 77.74
53.09 54.93 53.04 52.96 53.33 55.65 54.01 57.82 57.70 57.54 56.78 55.55 60.04 53.45 60.14 61.73 63.19 65.88 67.56 68.10 68.77 68.84 69.26 69.75 71.45 72.62 73.44 74.79 76.31 79.01 80.07 80.71 80.33 80.84 78.61 79.20 75.56 73.45 73.43 74.73 75.02 76.40 76.97 76.59
52.35 52.66 52.45 51.46 52.98 55.92 54.81 58.49 57.89 57.71 57.76 58.10 56.83 54.58 57.59 61.31 60.77 62.92 66.12 68.04 68.91 69.19 69.67 69.45 70.88 72.42 73.63 74.69 75.32 77.52 80.35 80.83 81.12 81.20 79.71 77.30 77.12 74.58 74.74 74.21 77.63 78.27 78.09 76.24
54.12 56.65 54.43 53.82 54.63 56.06 57.07 56.73 57.71 57.46 56.37 52.03 56.99 55.05 56.68 58.21 60.95 62.76 64.71 67.31 69.18 69.83 69.46 70.85 71.65 72.70 73.08 74.40 75.23 77.03 79.84 80.87 81.12 81.27 80.50 80.39 79.93 77.40 75.00 75.69 74.38 73.29 73.69 74.49
53.23 53.33 55.36 54.96 52.36 54.75 55.19 53.86 50.27 50.02 49.89 49.62 57.23 55.51 58.13 61.39 62.40 63.06 63.11 65.28 68.16 70.29 69.85 69.61 71.25 71.36 73.30 74.50 75.80 77.19 79.19 80.02 80.81 79.71 79.72 79.68 80.01 80.03 78.53 77.48 74.22 75.43 72.63 73.11
49.89 47.94 53.41 54.63 52.87 51.61 52.68 53.26 50.11 46.65 48.29 50.62 56.19 53.09 56.41 62.90 63.36 63.30 63.82 64.13 66.32 69.11 70.32 69.10 70.18 72.00 73.62 73.99 76.54 77.20 78.25 79.60 80.44 79.90 80.39 80.81 81.04 77.24 76.45 77.71 75.29 73.06 72.72 73.88
51.02 50.38 55.32 54.86 54.67 53.45 51.98 50.77 55.68 52.67 54.33 51.60 53.70 56.47 59.97 62.15 62.44 62.70 62.79 63.14 63.91 68.20 69.85 69.63 69.89 70.72 72.75 73.90 75.94 76.95 78.44 79.37 80.01 78.17 80.63 80.62 80.53 80.07 77.22 78.81 78.71 75.52 76.43 73.69
54.19 50.68 54.53 54.48 55.09 54.29 52.40 54.96 50.89 53.95 49.21 48.45 51.42 53.44 54.34 59.04 60.25 61.64 62.00 62.29 63.87 67.27 69.77 69.93 69.78 70.55 72.68 73.13 75.01 77.07 78.26 78.95 78.82 79.31 79.65 79.31 79.89 80.74 80.40 80.68 79.82 77.79 77.51 76.74
54.53 53.44 52.82 55.03 52.46 51.14 50.88 50.67 53.48 53.96 53.37 49.30 48.76 52.51 59.69 60.76 61.69 61.14 62.05 62.72 63.63 66.02 69.19 70.04 69.96 70.66 72.02 72.68 73.90 75.12 76.34 78.04 78.35 78.88 79.12 79.19 78.81 79.38 80.28 79.88 79.53 79.34 76.77 77.41
55.43 53.61 50.89 51.99 55.40 55.50 53.82 51.87 52.44 51.50 51.72 52.92 52.96 52.58 60.11 60.93 61.42 61.63 62.12 62.93 64.43 65.86 68.66 70.29 70.44 70.72 71.27 72.25 72.32 73.45 74.78 74.66 77.01 78.17 79.18 78.97 79.55 79.28 78.91 79.55 79.88 79.88 78.11 77.26
55.63 52.26 49.31 50.84 52.72 54.27 52.06 52.65 52.92 53.13 54.84 54.40 50.64 52.31 60.41 61.54 61.64 62.48 62.19 62.96 64.43 65.79 67.18 69.79 70.71 70.76 71.38 72.02 73.29 72.58 74.25 73.61 74.86 77.54 77.59 78.63 78.45 79.19 78.66 79.59 79.80 79.68 78.22 77.46
59.00 54.21 51.75 49.09 51.32 52.96 50.62 50.90 52.17 52.15 50.33 51.97 52.37 54.62 58.25 59.76 60.38 61.31 62.28 63.71 64.13 64.88 69.28 69.26 70.69 72.38 73.02 74.05 74.63 74.70 74.15 73.76 74.50 75.43 75.73 77.19 78.22 78.51 78.89 79.91 79.47 79.56 78.96 76.65
54.71 51.69 53.73 53.62 54.12 53.97 51.91 50.41 50.74 50.48 52.34 51.19 53.18 54.13 57.71 60.06 60.93 61.68 62.35 62.99 63.27 63.71 67.38 70.23 71.10 74.66 75.79 75.57 76.12 76.33 75.85 76.28 75.67 76.46 76.24 77.08 78.70 79.24 79.43 79.17 79.69 79.49 77.93 76.09
54.88 51.44 53.74 51.82 53.55 53.01 51.54 52.99 52.13 51.60 51.39 51.85 52.78 53.19 58.77 60.62 63.15 62.07 61.98 62.55 62.61 63.34 64.68 70.18 71.47 72.90 76.08 76.23 77.13 77.38 77.24 77.66 77.50 78.04 77.45 78.53 79.69 79.32 79.13 79.47 79.56 79.17 77.80 75.97
53.67 52.97 51.48 49.18 53.40 53.19 49.64 52.57 53.24 53.90 54.16 53.11 50.45 54.04 57.70 58.35 60.72 61.61 62.58 62.86 63.04 63.42 65.25 67.83 71.11 72.34 75.01 75.47 77.95 77.57 78.42 78.34 78.53 78.82 80.18 79.64 80.48 79.90 79.98 79.67 79.23 78.08 77.07 74.76
52.94 53.66 52.61 50.02 52.42 44.98 54.09 57.69 55.92 54.32 55.16 56.42 56.11 56.40 57.20 60.56 61.90 62.87 62.77 62.90 64.02 65.68 66.76 67.47 70.71 72.72 75.60 75.51 75.71 77.48 77.34 79.07 79.31 79.76 79.36 80.62 80.48 80.46 80.02 78.97 78.31 76.96 74.62 72.14
56.06 53.75 50.51 48.71 48.73 52.40 54.32 56.03 56.86 56.17 56.31 58.08 57.00 58.57 58.28 58.23 58.54 60.70 62.51 64.27 65.10 64.82 66.79 67.69 71.96 73.19 76.93 76.63 78.16 78.14 77.30 78.19 78.49 78.64 79.11 79.71 79.96 79.44 79.31 77.77 76.77 74.55 72.76 71.23
55.50 56.93 53.37 51.54 47.30 46.12 53.98 58.79 60.70 59.82 52.69 58.87 60.00 60.34 58.55 58.17 53.40 57.84 62.89 62.57 64.12 67.41 67.89 68.89 72.83 73.71 75.66 77.22 76.35 76.85 75.59 76.20 76.53 77.60 77.81 79.26 79.24 78.89 77.77 76.68 75.03 74.65 73.41 70.74
49.57 51.62 49.26 50.26 49.39 52.03 58.10 59.01 60.40 51.64 54.07 63.29 63.61 63.82 63.11 59.93 59.27 62.44 66.26 64.97 66.39 68.49 69.33 73.33 73.89 75.29 76.51 76.49 75.97 76.59 76.29 75.39 75.98 76.49 76.57 77.67 78.17 78.41 78.11 77.04 74.95 73.66 72.57 70.51
49.07 49.69 49.30 51.13 48.51 46.18 59.87 59.70 55.63 59.91 63.42 64.09 64.67 64.82 64.56 65.45 61.64 66.36 68.17 68.45 69.14 69.38 71.07 72.87 73.60 74.12 75.54 76.55 76.48 76.83 76.13 77.52 78.22 78.09 77.36 77.52 78.16 76.61 75.38 74.75 73.46 72.28 69.84 67.48
49.81 53.46 51.48 52.92 52.47 60.20 61.10 60.80 62.21 63.00 64.06 64.64 65.33 66.04 66.21 64.79 66.73 68.24 69.05 70.06 70.87 71.42 71.72 72.49 72.89 73.50 74.74 76.28 76.45 76.26 78.66 78.95 78.56 77.32 77.74 77.35 76.01 74.32 74.00 72.63 70.89 69.45 68.34 66.47
53.19 58.66 55.80 57.16 58.37 58.72 60.02 61.94 62.82 64.02 63.65 65.88 67.12 66.54 66.67 66.80 67.61 68.11 68.73 69.27 70.07 71.16 71.60 72.40 72.48 72.64 74.66 76.73 76.79 76.77 76.39 76.95 76.56 76.27 73.91 73.32 72.22 71.03 71.25 70.99 69.75 67.83 67.19 66.80
50.44 54.24 57.78 57.22 58.20 59.01 59.51 60.60 61.80 62.32 63.37 63.83 64.14 64.01 65.64 66.44 66.40 67.20 67.94 68.59 68.76 69.30 69.81 70.99 71.08 71.62 72.41 73.98 74.34 74.87 75.40 76.01 74.39 71.75 70.24 70.02 69.60 69.92 67.55 63.80 64.55 67.84 62.67 62.59
50.70 50.82 52.70 53.04 58.74 58.89 57.27 58.90 60.59 59.25 59.62 60.87 61.41 60.90 61.81 63.81 63.49 64.80 65.98 68.57 68.86 68.73 69.50 69.71 70.62 71.54 72.68 73.37 73.49 74.33 75.19 74.32 72.29 70.94 69.98 70.07 69.47 67.42 66.07 63.54 62.44 45.74 47.53 44.62

GFSCGP_sfc_wetblb_018.txt.gz
Wetbulb
57.12 52.62 50.42 52.94 54.05 55.20 55.03 55.73 55.02 58.26 60.96 59.22 60.79 57.91 58.94 63.21 64.53 63.77 64.65 65.23 66.43 67.72 70.17 71.73 72.38 72.90 73.52 74.89 76.08 76.36 76.99 78.90 78.98 77.98 75.47 76.30 75.86 77.66 77.21 78.72 77.74 77.11 79.35 79.58
53.35 50.32 53.68 55.00 55.58 54.58 55.01 54.50 55.52 58.91 61.20 60.72 60.21 60.33 61.91 64.15 64.55 64.64 64.61 64.73 65.32 66.45 68.51 70.82 72.10 72.46 73.06 74.57 75.34 76.48 76.91 79.26 78.51 77.98 77.67 77.14 76.30 76.29 77.02 74.20 77.93 78.30 78.05 78.95
50.94 52.24 54.25 53.41 53.93 53.52 54.19 54.14 55.13 55.68 59.58 60.61 59.14 57.41 60.38 63.58 64.99 65.81 65.95 66.54 66.24 66.40 66.75 69.96 71.19 72.01 73.37 74.01 75.35 76.59 77.45 78.28 77.91 79.04 77.66 78.18 78.34 76.39 75.86 76.30 77.38 76.38 78.65 78.15
53.22 54.63 52.97 51.85 52.07 54.35 52.01 56.66 56.29 56.10 56.66 53.45 59.40 51.90 59.69 61.51 63.47 64.53 65.43 66.49 67.06 67.19 68.20 69.43 70.86 72.18 72.87 74.27 76.28 77.24 77.78 77.93 78.67 78.18 77.53 76.94 74.44 74.26 76.55 77.72 77.13 77.87 77.81 77.86
51.73 52.74 51.82 50.75 51.48 54.78 54.26 57.33 56.41 56.11 55.25 56.91 57.70 54.30 58.56 61.89 60.99 63.68 64.91 66.20 67.20 69.12 68.44 68.50 70.51 72.01 73.24 74.77 75.49 76.99 78.06 78.53 78.48 78.91 77.74 77.07 76.31 75.64 75.59 75.50 78.18 76.92 78.91 77.81
53.52 56.35 54.52 53.08 53.97 54.32 56.58 55.53 55.76 55.88 54.84 50.63 55.58 54.83 55.66 59.00 59.63 61.01 64.75 66.45 67.74 68.66 69.67 69.72 70.83 72.27 72.97 74.40 75.79 76.16 77.97 78.09 78.36 78.87 78.16 78.26 75.84 74.90 75.12 77.03 75.36 75.99 75.39 75.83
53.06 53.02 54.99 55.22 52.19 53.82 53.27 51.60 48.78 48.24 49.26 48.74 56.03 55.21 56.83 61.23 62.71 62.76 61.93 65.54 68.05 69.43 69.89 69.83 69.88 71.18 72.62 73.35 74.75 76.06 77.53 77.50 78.18 78.72 78.40 77.64 78.44 77.48 78.06 79.00 75.69 74.33 72.20 73.64
48.58 47.42 52.67 55.26 52.63 51.22 51.38 51.14 49.38 44.75 46.76 49.28 55.46 51.90 56.90 63.37 63.91 63.67 65.12 66.08 67.29 68.85 69.58 70.09 70.78 71.17 72.60 73.03 74.70 75.55 77.05 77.20 78.38 77.76 78.68 78.68 78.57 78.48 77.01 78.17 76.61 75.50 74.48 74.56
49.36 49.24 55.49 54.84 55.26 53.49 51.36 48.91 53.34 50.02 52.03 50.15 52.67 55.24 58.33 61.46 63.13 62.68 62.99 64.52 64.51 67.92 69.43 70.16 71.20 71.91 73.06 73.15 73.85 75.29 77.07 77.70 78.39 78.33 78.38 78.92 78.13 78.09 77.45 77.63 77.57 76.24 76.11 77.35
52.94 49.53 54.18 55.05 55.42 54.87 52.22 54.16 47.78 49.39 45.51 45.85 50.68 53.02 54.24 59.23 61.38 63.12 62.13 63.15 64.16 65.28 69.65 70.29 70.65 72.00 72.94 74.05 74.41 75.90 76.83 77.39 78.56 78.51 78.39 78.28 78.48 78.19 77.80 77.76 77.45 75.71 76.72 75.94
53.13 52.57 52.06 54.89 52.71 51.24 50.79 49.66 50.40 50.72 50.29 47.73 47.79 51.76 60.65 61.51 63.46 63.42 63.56 63.95 64.11 65.13 68.57 69.69 70.88 71.15 73.10 74.01 74.36 74.98 75.71 77.28 78.03 78.34 78.20 78.42 78.31 78.73 78.16 78.50 77.47 76.84 77.24 75.56
54.18 52.01 50.17 51.32 55.59 55.72 53.71 51.22 50.70 47.13 48.76 50.37 50.65 52.50 60.43 61.99 62.17 64.03 63.73 64.51 65.04 65.88 67.66 69.68 71.06 70.84 71.36 72.35 73.23 74.52 75.53 76.47 77.45 78.18 77.78 77.97 78.58 78.44 78.35 77.44 78.58 78.05 76.73 77.24
55.68 51.11 48.55 48.97 52.81 55.34 52.34 52.50 52.64 51.24 51.48 50.19 48.51 51.16 60.04 62.60 61.25 63.61 63.95 64.24 66.04 67.92 69.36 69.82 70.61 70.46 70.81 71.48 72.62 73.99 74.96 75.60 77.26 77.51 77.13 77.46 77.25 77.64 77.54 78.24 77.49 78.55 77.37 75.82
58.83 52.44 50.68 47.91 50.74 53.24 51.49 52.14 52.77 51.18 47.74 49.40 51.06 53.89 57.50 60.68 61.51 61.81 63.69 64.26 66.13 69.49 71.63 69.98 69.96 71.29 71.13 71.82 72.36 73.03 73.97 74.97 75.90 76.83 76.64 76.39 76.64 76.89 77.00 77.67 78.19 78.00 77.94 76.22
54.69 51.18 52.80 52.16 52.81 53.78 53.12 51.55 51.85 51.01 52.07 49.68 51.73 53.70 58.04 59.70 62.72 62.98 65.05 64.34 65.77 67.91 68.77 71.12 71.56 73.17 72.27 72.30 72.56 72.86 73.27 73.69 74.36 75.01 75.55 75.87 76.95 77.19 77.50 77.36 77.90 77.95 78.08 76.99
54.13 51.33 52.72 51.13 53.20 52.87 52.02 53.24 52.64 51.78 51.65 52.14 52.58 52.40 57.72 61.10 62.71 64.79 61.05 63.02 65.13 66.46 68.24 70.64 71.96 75.12 75.32 73.38 73.01 72.76 72.89 73.27 74.06 73.69 74.58 75.63 76.18 77.08 76.80 77.59 77.20 78.04 77.81 77.36
53.25 51.33 51.50 48.08 52.19 52.29 49.35 52.85 53.33 52.20 52.93 51.93 49.92 54.80 59.07 58.38 59.69 62.64 64.73 64.12 65.03 65.46 66.83 70.23 71.98 72.83 74.15 76.16 74.73 73.18 73.19 74.43 73.71 74.51 74.93 75.10 75.89 76.33 76.78 77.01 77.40 77.15 77.19 77.30
53.96 52.14 51.59 48.93 50.92 43.81 52.81 56.34 55.40 53.92 54.67 55.13 55.27 56.84 57.99 58.63 60.28 61.41 62.56 63.88 64.35 66.27 66.88 69.32 67.96 72.76 74.38 74.32 75.65 75.85 75.27 74.73 75.17 74.87 75.58 75.97 76.33 76.61 77.04 76.90 76.82 77.34 77.51 76.88
54.44 53.08 50.05 48.04 47.09 50.08 52.05 54.96 54.84 53.72 54.05 57.00 57.03 59.46 59.15 59.93 59.85 59.86 61.78 62.61 64.06 65.63 69.86 69.37 67.30 69.06 74.92 74.56 76.15 76.11 76.50 75.57 75.77 76.01 77.02 77.33 78.72 77.81 77.60 77.24 77.46 77.63 77.58 76.79
52.35 56.24 51.23 49.65 45.87 44.48 53.53 56.62 60.65 59.45 52.05 60.85 61.46 60.97 60.88 61.68 57.20 60.20 62.12 62.58 62.73 63.68 65.17 68.42 70.07 72.01 75.32 75.72 76.36 76.61 75.79 76.42 75.37 76.30 77.54 78.84 79.80 79.74 78.76 78.84 78.17 78.37 76.28 73.85
49.08 50.74 48.14 48.21 47.16 49.41 58.19 59.69 60.79 50.98 54.05 62.65 63.24 63.31 62.75 61.19 63.95 67.43 67.51 65.45 70.47 66.61 65.23 68.00 75.81 74.08 75.38 77.02 76.54 75.99 75.83 76.39 77.31 78.09 79.30 79.17 79.80 79.45 79.71 79.24 77.58 74.15 72.69 72.07
47.40 46.44 47.47 50.55 47.25 45.77 60.43 58.64 53.48 60.58 63.63 62.47 63.50 63.78 64.05 65.75 65.89 66.80 67.47 68.65 69.59 70.92 67.75 71.24 76.51 76.84 77.51 77.27 77.85 76.57 76.51 78.51 78.94 79.01 78.48 78.62 79.09 77.92 78.11 77.19 75.22 72.86 71.89 70.21
45.84 50.56 48.39 51.51 51.57 62.23 62.21 62.20 63.59 64.05 63.85 65.31 65.98 65.96 64.80 64.42 65.59 66.48 69.38 69.83 69.57 72.06 73.23 73.86 75.37 76.58 77.98 78.62 78.94 76.66 78.68 77.87 77.81 77.33 77.45 77.86 78.05 77.10 75.16 73.50 72.09 71.02 70.07 68.18
52.90 55.40 52.34 53.32 58.14 60.00 61.50 63.11 64.36 65.05 65.11 65.45 66.77 67.56 67.60 66.43 67.70 68.23 69.29 70.22 71.91 72.64 73.15 74.84 74.51 74.72 75.99 77.71 77.93 77.47 77.06 77.89 77.29 77.27 76.73 74.92 73.99 72.78 72.67 71.82 71.16 69.18 67.91 67.05
51.72 52.64 53.69 56.98 59.82 60.01 61.20 62.35 63.11 63.60 64.28 63.37 63.98 63.73 64.04 63.90 63.95 67.97 68.44 69.93 71.11 72.15 73.04 73.97 73.89 74.42 76.21 76.98 76.67 77.14 77.39 77.58 75.60 74.37 72.92 71.12 70.05 70.31 64.80 58.90 61.29 68.32 63.23 65.52
49.48 51.25 52.09 53.79 54.95 57.27 59.10 61.06 61.50 60.23 60.83 61.70 61.28 60.51 61.84 60.90 59.37 62.36 63.37 66.66 69.39 69.77 71.16 70.04 70.32 71.23 73.55 74.53 74.95 76.28 76.56 74.80 72.89 70.72 70.05 69.40 67.90 67.20 66.37 63.84 59.75 46.44 47.72 45.30

GFSCGP_sfc_wetblb_021.txt.gz
Wetbulb
52.09 48.11 46.93 48.02 49.12 50.54 50.65 49.59 49.71 53.08 58.36 57.96 57.58 57.29 58.98 59.59 59.56 59.61 62.83 63.47 64.43 65.51 67.25 69.09 69.67 70.56 71.39 73.00 72.41 72.77 72.44 73.66 73.66 73.83 73.52 72.70 71.46 73.36 72.21 73.18 74.39 74.65 74.83 74.97
48.77 46.97 50.98 52.81 52.01 50.48 50.38 49.15 49.41 53.35 58.60 58.23 57.87 56.92 59.00 58.77 59.29 60.45 62.24 63.20 64.15 65.15 66.15 68.00 68.79 69.61 70.61 71.74 72.32 72.07 72.89 75.03 74.20 74.13 72.83 72.78 72.59 73.11 73.23 73.58 75.16 75.83 74.87 74.73
47.27 49.81 54.27 52.25 50.85 50.17 49.43 48.32 49.45 50.61 56.87 58.60 58.01 54.69 55.72 58.09 60.61 62.04 63.03 63.88 65.00 64.75 65.17 66.95 67.91 68.62 69.74 71.06 72.05 72.51 72.94 74.97 74.92 74.18 73.98 73.75 73.42 73.15 71.82 72.94 73.83 74.96 75.27 75.48
49.34 52.84 52.16 50.54 49.11 50.06 46.78 52.45 52.63 52.25 51.89 49.39 58.06 49.15 54.46 56.74 59.59 61.44 61.87 62.24 63.48 64.87 66.10 67.14 68.01 68.18 69.22 71.17 73.03 73.04 73.58 75.25 74.14 74.85 73.05 71.72 70.35 69.92 71.77 73.54 73.26 75.00 75.05 74.58
48.07 50.64 50.01 48.85 48.85 50.25 49.11 53.45 52.54 52.57 50.54 52.68 53.44 49.31 53.64 58.37 57.74 59.80 61.24 62.64 62.98 64.07 65.23 66.58 68.19 68.81 70.11 71.92 72.50 73.78 73.85 74.11 74.32 74.46 73.49 72.76 71.44 71.63 72.65 70.98 72.04 73.87 73.31 73.48
49.95 53.22 52.12 51.26 52.20 51.34 52.04 51.14 51.29 51.40 49.93 45.62 50.87 51.23 49.82 54.91 58.26 59.96 62.21 63.49 63.77 63.90 64.87 66.72 68.53 69.53 69.53 71.99 72.97 74.21 73.89 73.76 75.04 73.49 73.96 73.46 72.17 71.70 70.90 70.87 72.40 72.96 72.96 71.71
50.17 50.38 51.86 53.43 49.16 50.06 49.25 43.52 42.44 41.68 42.77 41.48 50.03 49.94 51.90 57.97 59.62 62.32 62.79 63.41 64.99 65.43 64.93 64.81 67.16 68.49 69.30 70.73 72.63 73.88 73.76 73.67 74.67 74.96 74.29 73.98 73.41 71.71 70.50 71.93 71.96 71.03 70.23 69.64
43.53 43.35 50.81 52.66 50.09 46.63 46.71 45.41 41.97 36.18 39.76 42.75 48.41 47.17 52.39 59.85 61.21 63.94 64.32 63.40 65.10 65.56 66.07 65.60 67.08 68.25 69.34 70.38 72.04 73.83 74.02 73.88 75.12 75.14 75.06 74.54 74.67 73.29 72.91 73.18 71.35 70.08 70.24 70.32
43.72 44.54 52.94 53.50 53.23 51.13 46.20 43.97 46.93 40.19 43.03 41.41 45.73 48.37 53.35 59.64 59.81 61.35 61.17 62.49 63.37 63.36 66.71 66.41 66.79 67.98 69.19 70.04 71.94 72.50 74.45 74.38 74.83 75.32 75.63 74.94 74.42 75.08 74.75 72.91 73.63 71.07 69.29 71.45
46.93 42.68 50.70 53.07 53.28 52.11 48.77 48.37 41.86 44.13 37.12 38.15 44.09 45.35 48.07 51.93 57.66 59.20 59.55 60.68 62.06 63.16 66.17 67.08 67.02 67.90 69.51 70.47 72.04 73.06 74.96 74.66 75.17 74.54 75.89 76.06 75.40 74.95 74.95 73.43 72.86 72.21 70.20 71.95
49.68 46.87 47.11 50.81 49.11 47.50 47.39 45.88 44.47 43.07 43.72 39.60 39.19 44.22 50.74 54.19 59.12 59.08 60.10 61.27 60.36 63.96 65.21 67.26 67.86 68.42 69.92 70.85 71.64 72.56 74.33 74.70 75.12 75.45 74.92 75.74 76.26 75.38 75.13 74.39 73.43 72.66 72.29 71.18
50.71 46.88 43.66 46.30 51.45 53.01 50.61 47.08 44.60 41.84 37.50 41.19 41.84 43.57 53.57 53.91 59.24 61.05 60.78 60.92 60.46 61.43 66.56 67.65 68.07 68.54 69.92 70.14 70.61 72.26 74.72 74.80 75.52 76.17 75.62 74.98 75.73 75.90 74.81 74.34 74.30 73.95 72.10 71.76
51.32 47.13 41.29 43.48 47.32 50.39 48.67 49.36 47.51 46.53 42.53 40.45 38.89 43.79 52.75 53.60 58.15 59.81 60.30 61.60 61.52 61.55 64.66 67.23 67.49 68.50 69.55 70.17 70.43 71.89 73.77 74.96 75.74 76.18 75.77 75.50 75.03 75.53 75.40 74.58 74.78 75.17 73.28 72.98
55.81 48.79 45.46 42.12 44.62 47.22 47.22 49.06 49.36 46.53 42.70 42.70 43.42 44.18 48.33 53.78 56.45 57.24 59.81 60.42 61.67 62.87 63.21 65.39 67.11 68.02 69.22 70.12 70.67 71.14 72.62 74.84 75.54 76.04 75.52 75.15 75.28 75.42 75.65 75.83 74.72 74.97 75.09 73.23
47.37 46.25 47.80 48.14 49.26 49.92 49.16 49.98 49.47 46.69 46.33 43.40 44.58 45.09 48.04 50.95 57.02 57.82 59.83 59.96 60.27 61.58 64.47 64.25 66.40 66.80 68.11 68.98 69.95 71.14 72.04 72.86 74.87 75.02 75.16 74.68 75.36 75.85 75.80 75.42 75.93 74.91 74.96 74.07
45.04 44.95 47.83 46.79 49.43 49.15 47.70 50.44 51.19 49.59 49.19 48.53 48.52 47.64 50.16 52.65 59.13 59.46 59.16 59.81 57.82 59.98 64.82 65.35 66.51 66.95 67.28 67.99 68.84 70.13 71.44 72.21 73.24 74.27 74.25 74.69 74.40 74.82 74.62 74.97 74.81 75.55 74.32 74.67
42.42 41.82 43.60 41.16 47.70 47.59 44.75 48.04 49.86 50.77 51.23 49.96 46.23 49.37 51.24 51.78 54.79 58.47 60.03 59.07 58.42 59.93 64.71 65.11 65.23 68.36 67.84 68.65 69.35 69.70 70.93 72.24 72.37 72.50 73.74 73.86 73.91 73.83 74.12 74.39 74.27 74.80 74.90 75.08
43.23 42.74 44.73 41.77 44.28 38.95 47.01 52.93 53.30 52.10 53.05 51.88 50.73 51.29 53.05 53.46 54.56 56.63 56.81 56.07 56.57 61.74 63.21 66.53 67.68 67.28 70.13 70.01 69.97 70.37 70.53 70.96 71.32 71.02 72.13 73.28 73.27 73.48 74.14 74.16 74.28 74.20 75.28 74.64
48.29 44.41 42.30 39.80 41.62 44.00 48.74 50.68 50.85 50.00 50.05 54.11 54.47 55.59 57.33 58.71 53.59 52.29 57.56 58.21 57.50 57.00 59.58 61.43 66.55 68.39 69.20 71.12 70.91 70.21 69.77 70.35 70.10 69.98 70.56 72.22 72.95 73.17 73.50 73.71 73.80 74.66 74.49 74.72
48.15 47.81 45.43 40.71 38.50 38.19 45.20 52.79 55.48 57.05 47.56 59.07 59.24 58.45 58.53 58.12 51.38 54.17 61.08 62.18 61.21 60.76 60.22 60.84 62.67 65.50 69.71 69.01 72.04 70.46 69.72 69.83 69.75 70.05 71.57 72.30 72.78 73.09 73.39 74.07 74.06 74.84 74.87 74.33
43.31 46.09 43.96 42.46 39.92 43.53 50.84 53.24 58.27 47.13 48.25 59.05 59.99 59.43 59.36 56.35 58.00 60.44 62.66 61.63 62.29 63.18 59.97 60.76 61.80 64.29 69.47 69.43 72.05 71.39 70.55 69.91 71.61 72.51 72.71 73.45 74.30 74.02 74.72 74.51 75.03 74.71 73.20 71.11
42.92 39.02 41.48 43.92 39.93 38.83 57.09 56.14 51.59 53.45 58.53 60.64 59.86 59.62 58.03 58.22 60.20 60.35 61.73 62.24 61.47 62.89 64.16 61.95 60.85 66.92 69.57 71.07 72.39 71.69 71.67 72.56 72.32 75.36 74.77 76.66 76.64 76.79 76.88 75.49 74.07 72.61 71.21 69.99
41.67 45.80 45.12 47.09 49.46 55.72 59.40 58.75 59.59 62.53 61.84 62.43 62.99 63.71 64.06 63.76 63.45 64.57 66.56 65.87 66.96 67.01 68.49 71.25 71.60 71.95 72.07 72.39 73.25 72.06 74.15 75.29 75.49 75.23 75.45 75.57 75.13 75.73 74.56 72.79 71.09 69.93 69.60 68.28
47.77 51.94 48.31 49.61 53.17 55.80 58.06 59.76 62.55 62.07 61.06 61.42 62.87 63.11 63.25 60.69 61.51 62.05 64.17 66.27 68.76 69.87 69.76 71.03 71.91 72.33 73.02 74.27 74.53 74.90 74.65 75.01 74.77 74.44 74.06 72.94 72.73 71.63 71.64 71.00 70.04 68.78 67.54 66.66
48.22 49.68 49.40 50.25 54.31 54.96 59.03 60.50 60.88 60.90 60.64 60.32 60.16 59.73 60.10 60.13 59.61 60.54 61.18 64.16 66.89 68.23 69.89 71.62 72.71 72.58 72.45 73.68 73.86 74.13 74.55 74.85 72.92 72.02 70.99 70.29 69.12 65.69 60.33 54.40 59.76 66.75 61.07 64.13
49.13 49.53 48.45 48.82 51.52 52.06 53.38 57.78 59.80 58.57 58.34 58.37 57.58 56.96 57.88 57.34 56.56 57.84 58.70 60.92 63.35 67.02 68.01 67.94 70.04 71.14 72.00 73.21 72.47 72.42 73.06 72.16 70.12 68.60 68.40 66.64 65.96 63.66 61.77 59.69 55.75 46.77 46.56 46.25

GFSCGP_sfc_wetblb_024.txt.gz
Wetbulb
49.06 46.63 45.82 46.26 46.92 47.97 47.86 46.32 45.80 48.97 52.79 55.77 55.64 55.66 57.22 63.30 63.55 63.19 63.79 64.64 65.11 65.75 67.92 67.40 70.16 70.60 69.97 71.03 71.74 71.69 71.88 71.94 72.17 72.43 72.03 71.18 70.10 71.44 71.72 72.14 71.76 72.11 73.68 74.13
45.31 44.16 48.09 50.59 49.51 48.09 47.43 46.37 46.48 48.90 51.82 55.31 55.24 56.20 57.43 60.32 61.63 63.03 63.30 63.78 64.58 65.71 66.42 67.15 67.87 70.03 69.90 71.14 71.55 71.58 71.68 71.61 71.34 72.69 72.64 71.85 71.35 71.71 71.97 72.02 73.09 72.55 73.89 74.07
43.95 46.62 51.33 50.71 49.48 47.26 46.49 45.26 46.12 46.49 50.41 57.52 55.27 52.44 54.95 58.26 57.90 61.16 63.68 64.35 64.88 65.10 65.09 66.20 67.01 68.60 69.64 70.71 70.95 71.20 71.94 72.10 71.94 72.24 72.44 71.71 72.02 71.77 71.32 71.60 72.97 74.44 74.14 74.23
45.91 50.48 49.80 49.09 48.83 48.30 41.83 49.29 49.29 48.78 46.64 45.34 54.84 44.28 52.87 56.41 54.93 58.13 61.01 62.55 63.68 64.63 65.67 66.27 67.16 67.24 69.09 70.35 71.51 71.60 72.44 72.71 72.72 73.12 72.95 71.66 70.88 69.67 70.07 70.76 71.92 73.06 74.32 73.87
45.88 48.63 48.52 48.06 49.11 50.29 46.56 50.06 49.35 49.47 46.39 43.39 48.00 46.01 49.64 56.05 55.04 55.83 58.74 62.03 63.44 64.61 65.41 65.55 67.12 67.69 69.12 70.65 70.94 71.21 71.97 73.67 73.53 73.17 72.84 72.13 70.01 70.26 70.14 70.89 71.60 71.91 73.04 73.40
48.76 51.79 50.57 49.87 51.42 51.52 51.38 47.00 46.80 46.49 45.90 40.10 45.76 48.89 47.08 51.82 55.51 56.92 59.95 61.28 63.17 64.17 65.25 66.05 67.61 68.38 68.24 70.32 71.25 71.42 71.07 72.81 73.52 72.96 72.73 72.07 70.91 69.62 69.33 69.59 70.01 71.97 72.59 72.66
48.02 48.83 49.00 51.78 47.02 49.01 47.22 40.48 37.47 37.14 38.40 38.95 45.39 46.42 50.25 55.11 58.71 59.37 60.44 61.68 62.45 64.38 64.83 65.37 66.12 66.98 67.77 68.73 70.37 71.25 71.03 71.25 72.66 73.09 72.23 72.06 71.59 70.57 70.04 69.37 70.76 70.76 70.95 69.30
42.66 41.46 48.33 50.29 47.71 46.57 43.68 43.09 38.69 32.50 33.97 38.03 44.34 42.47 49.82 56.64 60.52 61.89 62.91 63.03 62.97 63.02 64.59 65.43 66.07 67.23 67.56 68.50 70.08 71.39 71.11 70.87 72.46 72.41 72.73 72.51 72.13 72.22 71.74 70.93 70.91 71.99 71.88 70.36
38.89 42.40 49.67 51.95 51.15 49.23 44.57 40.30 44.41 37.54 37.11 36.83 41.00 44.85 50.04 55.14 57.13 60.53 61.89 62.38 62.55 63.02 63.75 64.81 66.54 67.34 67.84 68.64 70.14 71.39 71.42 71.36 72.58 72.65 72.22 72.79 73.24 72.57 71.94 71.07 71.12 71.19 70.92 69.92
44.79 38.29 46.14 50.10 51.00 51.90 46.42 46.39 39.98 35.60 34.94 34.74 37.59 40.99 44.99 48.64 53.46 56.61 59.84 61.84 62.98 63.75 63.92 64.70 65.01 66.89 68.45 69.00 70.73 71.85 72.31 71.85 72.62 73.47 73.22 72.85 72.70 73.68 73.15 72.55 71.76 70.46 69.38 70.12
47.16 42.80 43.11 46.40 45.83 46.22 46.33 43.90 39.09 40.66 39.93 37.13 33.28 40.83 46.75 49.27 51.77 54.86 60.53 62.76 63.35 64.14 64.62 64.93 65.00 66.92 68.11 69.27 70.84 71.87 72.28 71.99 72.80 73.34 73.63 73.67 73.28 72.87 73.73 73.94 72.57 71.81 69.95 69.72
46.23 43.76 40.98 43.46 48.00 50.77 49.58 46.05 42.33 40.44 35.69 38.99 41.57 41.94 50.20 50.59 52.01 56.35 58.86 61.78 63.61 64.37 63.79 65.82 65.65 65.97 67.35 68.60 70.25 71.21 72.98 72.62 73.07 74.01 74.13 73.95 73.89 73.72 73.15 73.49 73.45 72.48 70.94 70.07
46.42 40.84 38.57 38.49 42.48 45.32 44.81 47.54 47.04 39.02 38.25 40.09 37.09 39.40 48.61 48.46 50.76 57.99 57.97 59.61 59.61 60.48 60.93 64.29 66.09 65.65 66.75 68.20 69.41 70.96 72.70 73.13 73.58 73.74 73.70 74.19 74.36 74.02 73.39 72.91 73.45 72.63 72.04 70.44
45.79 41.95 41.49 40.48 42.63 43.96 42.29 46.60 46.76 45.06 42.30 41.12 41.89 41.21 44.49 46.91 49.73 52.72 53.57 58.98 60.08 60.70 62.37 64.27 65.83 65.86 67.09 68.31 69.20 70.59 71.83 73.78 73.99 74.07 73.60 73.02 73.96 74.67 74.41 73.94 73.24 73.19 72.97 70.92
40.22 33.92 39.25 43.06 46.03 47.38 46.53 46.52 47.24 44.77 45.79 42.88 45.07 41.26 44.08 46.27 47.20 50.47 53.41 56.97 59.13 59.20 61.77 64.33 64.90 66.05 67.30 68.01 68.92 70.27 71.89 73.39 74.11 73.86 73.84 73.41 73.84 74.43 74.98 74.31 73.64 73.18 73.77 72.55
39.11 34.59 38.51 41.22 47.14 47.32 45.88 47.80 48.44 47.78 47.50 46.16 43.72 42.41 46.94 49.28 49.03 52.18 54.85 58.62 57.39 59.96 61.22 63.82 66.22 66.87 67.01 68.29 68.62 69.61 71.08 73.34 74.13 73.96 73.97 74.42 74.37 74.03 74.01 74.37 74.32 73.42 72.89 74.11
36.11 35.13 35.45 34.29 44.01 45.80 43.07 46.97 47.29 47.76 48.49 47.42 43.50 45.89 48.30 48.60 51.36 53.31 55.21 56.97 56.50 56.33 61.47 62.76 65.15 66.41 67.81 68.89 69.46 69.16 70.56 73.03 73.58 73.78 74.28 74.23 74.13 74.04 74.09 74.24 74.11 74.30 73.23 72.88
38.50 37.74 35.73 35.01 38.69 36.80 45.32 50.48 50.40 47.31 49.27 49.42 48.51 49.31 49.81 50.96 51.84 53.75 56.49 56.60 55.70 57.92 59.86 62.43 65.50 66.44 68.22 69.28 69.72 70.34 70.51 71.37 72.65 72.97 73.47 74.19 73.78 73.62 73.97 74.09 73.83 73.82 74.67 73.09
43.69 40.79 37.09 33.77 35.28 41.57 46.79 48.45 48.43 45.85 46.68 51.48 49.11 50.21 51.27 53.56 52.24 55.82 58.25 55.62 54.52 56.95 58.74 61.74 65.62 66.68 67.08 67.32 68.67 69.23 69.69 70.43 70.91 71.50 72.72 73.49 73.76 72.99 73.40 72.89 73.23 73.74 74.03 74.24
45.16 44.57 40.52 38.99 36.26 35.47 43.43 50.29 53.66 52.45 43.90 56.58 56.09 55.44 55.38 53.86 47.53 50.75 58.47 59.79 58.65 58.72 58.46 57.47 64.28 66.12 66.87 67.15 68.28 68.37 68.51 69.65 69.75 70.86 71.33 73.26 73.70 73.09 72.67 73.07 73.10 73.87 74.11 74.03
42.08 41.81 38.04 38.78 39.08 40.53 47.25 50.84 55.09 45.64 45.84 56.55 56.94 56.32 55.62 54.63 53.93 57.16 58.98 59.24 59.50 59.93 61.57 58.62 56.67 61.95 67.16 69.11 68.28 67.38 68.01 68.34 70.49 71.18 71.32 71.60 73.02 72.83 73.00 72.95 73.41 73.50 73.41 73.68
40.86 40.60 40.13 41.10 38.88 36.92 52.69 54.09 47.98 50.99 56.71 57.58 58.81 56.60 56.47 58.68 63.15 64.84 64.66 62.44 60.52 59.68 61.85 63.04 57.39 56.23 60.20 67.33 69.21 67.77 67.20 69.10 69.97 70.13 69.85 69.81 71.32 72.45 72.57 72.69 73.17 73.18 73.17 72.56
40.05 44.36 43.20 43.68 45.31 49.85 55.26 55.79 59.71 61.11 59.91 59.90 60.79 61.71 62.49 61.67 62.46 63.94 64.77 66.38 67.84 68.06 68.54 69.28 60.95 57.24 58.34 65.03 69.78 68.59 68.52 69.09 68.95 69.27 68.96 70.33 70.83 71.51 72.73 72.72 73.05 73.01 71.72 70.39
46.72 50.42 46.08 46.91 50.89 51.72 51.78 53.75 58.65 59.19 58.23 59.21 60.20 60.07 61.06 60.50 61.57 62.68 64.41 65.16 66.53 67.84 68.83 70.07 70.02 68.61 69.53 68.71 67.86 70.01 70.56 70.07 70.62 70.12 71.01 73.07 73.50 73.66 74.02 73.80 73.00 71.94 70.23 68.45
46.80 49.01 48.17 48.04 50.62 52.53 52.09 52.67 55.86 57.75 58.00 57.41 57.22 57.33 57.44 58.64 58.09 59.44 59.71 60.78 64.07 66.31 67.41 68.42 68.81 70.35 70.53 71.44 72.08 73.15 73.68 72.21 72.97 73.26 73.70 73.85 72.67 71.12 65.42 58.25 64.37 68.65 64.85 66.57
48.34 47.59 45.68 46.94 51.25 48.40 50.90 53.62 57.80 55.22 55.12 55.58 55.70 55.19 56.24 56.48 55.54 56.61 56.37 57.51 60.01 63.38 65.95 65.53 65.49 65.95 67.95 69.13 70.71 73.14 73.98 73.40 72.03 70.80 68.76 66.79 64.40 62.59 60.96 60.46 56.48 50.36 51.20 51.20

GFSCGP_sfc_wetblb_027.txt.gz
Wetbulb
49.19 46.56 42.16 45.54 45.43 46.52 46.10 44.84 44.94 47.46 52.30 53.95 53.87 53.40 60.66 62.76 62.67 62.44 64.12 64.98 65.79 66.39 68.11 68.98 69.34 69.93 69.94 69.91 69.97 70.35 70.35 70.53 71.36 70.30 70.77 69.75 68.98 69.84 71.11 71.39 72.01 72.51 73.27 73.39
44.07 44.51 48.09 49.44 48.06 47.17 46.20 44.49 44.71 47.12 51.74 53.00 52.25 53.51 57.62 62.22 62.44 62.79 63.10 63.98 65.04 66.34 66.57 66.58 68.50 69.03 68.95 69.05 69.81 70.34 70.34 70.37 71.21 71.88 71.70 71.12 70.06 70.06 70.67 71.49 71.37 71.51 72.99 73.12
44.63 44.78 49.28 49.18 47.23 45.51 43.57 43.31 45.04 44.99 48.36 52.57 52.50 50.25 53.50 61.31 63.07 63.82 64.35 64.83 65.13 65.20 64.95 64.71 66.72 68.42 68.97 68.11 69.43 70.20 70.50 70.77 71.28 71.97 71.55 70.70 70.98 70.78 70.51 70.39 70.86 71.99 71.99 73.29
43.26 47.52 47.86 46.59 46.41 46.68 40.35 46.50 47.35 46.47 44.18 40.27 51.71 43.40 50.26 57.21 59.96 61.68 62.61 63.81 64.44 65.19 65.99 65.88 66.18 67.62 68.49 68.59 69.85 70.89 71.00 70.96 71.02 71.84 71.62 71.00 69.83 68.96 69.52 70.36 71.02 72.51 73.85 73.23
42.99 45.25 45.79 45.43 47.19 47.65 46.12 48.60 47.23 46.70 43.20 40.26 44.62 44.14 47.06 55.01 55.20 57.29 60.69 62.83 64.04 65.33 65.79 65.86 65.95 67.71 68.97 69.63 69.97 70.82 70.92 71.16 71.15 70.71 71.59 70.92 69.93 70.54 69.48 69.60 70.47 70.96 72.09 72.63
47.42 49.42 48.17 47.04 49.42 49.48 50.04 46.55 44.19 43.55 41.13 36.64 43.94 43.05 43.99 50.81 54.15 56.53 57.88 61.72 63.56 64.38 65.38 66.24 67.16 67.36 68.39 69.74 70.45 70.65 70.32 70.67 71.10 70.89 71.16 71.13 70.58 69.31 68.92 68.49 69.27 70.16 71.09 71.97
44.66 46.35 47.85 49.77 46.12 47.31 46.18 40.03 35.56 33.31 34.59 36.79 42.43 41.32 45.99 51.06 57.38 58.65 58.38 59.23 62.84 64.06 64.81 65.19 65.32 66.37 66.89 68.20 69.67 70.29 70.04 70.59 71.34 71.35 71.33 71.54 71.12 70.32 69.53 68.93 69.35 69.55 70.05 69.80
40.36 39.01 46.42 47.77 46.56 44.57 42.82 41.88 33.45 29.54 30.81 37.21 41.28 39.10 44.83 54.00 57.03 59.91 60.92 61.08 61.49 63.34 64.28 65.04 65.48 66.12 66.99 67.78 69.11 69.81 69.52 70.47 71.72 71.77 71.47 71.75 71.76 70.98 70.72 69.39 69.48 70.29 71.17 71.06
39.86 41.15 47.91 50.56 48.51 48.81 42.67 40.30 43.92 35.16 34.51 33.92 38.14 42.65 47.62 52.54 54.50 56.65 58.29 59.82 60.60 61.98 63.76 64.45 65.52 66.03 66.91 67.27 68.42 69.43 69.34 70.21 71.82 71.92 71.79 71.55 71.68 71.20 70.47 69.73 70.30 70.85 70.95 71.37
41.96 37.18 44.14 48.74 49.67 47.76 46.25 44.07 38.91 32.68 32.89 32.69 35.04 38.22 40.71 47.03 51.09 53.33 57.24 58.35 60.50 61.96 63.03 64.42 65.05 65.88 66.89 67.59 68.32 69.77 70.21 69.84 70.90 72.15 72.09 71.67 71.54 71.73 71.30 70.49 70.31 70.38 70.47 69.93
40.20 38.87 41.23 45.19 43.41 45.06 43.35 41.43 37.61 38.58 35.72 35.22 32.04 38.32 44.97 47.70 50.40 52.06 55.24 59.52 61.15 61.70 62.49 63.62 64.85 66.08 66.69 67.67 67.85 69.16 69.93 70.00 70.11 71.26 71.87 71.97 72.03 71.96 71.63 71.11 70.99 70.89 69.71 69.05
42.64 35.52 39.69 42.88 45.58 48.91 47.60 45.79 40.35 36.58 35.54 36.70 39.88 39.07 46.39 48.96 50.99 51.58 53.13 57.75 60.70 62.97 63.09 63.76 64.18 65.06 66.04 66.91 67.44 68.75 70.13 70.16 70.59 71.53 71.40 71.34 71.62 72.08 72.15 71.80 71.52 71.51 70.09 68.96
42.81 35.66 32.90 35.70 39.03 41.88 42.40 45.27 45.86 43.04 37.78 40.56 36.58 37.91 46.15 48.50 49.68 53.31 53.46 56.80 58.16 61.39 62.96 63.48 63.48 63.31 65.13 66.48 67.22 69.03 70.06 70.54 71.04 71.53 71.70 71.60 71.56 71.45 71.38 72.14 72.71 71.87 71.18 69.18
42.19 34.25 34.46 34.34 36.73 40.93 39.87 43.79 45.62 43.64 40.13 41.65 41.58 40.26 42.61 45.79 46.66 49.05 52.23 54.98 57.24 59.18 60.55 61.51 62.20 62.84 64.64 66.22 67.33 68.81 70.04 71.17 71.22 71.61 71.76 71.55 71.94 72.14 71.99 71.91 71.88 72.46 72.26 70.09
37.74 31.93 34.85 38.16 41.46 43.03 43.37 42.95 45.03 42.43 44.69 42.11 43.91 40.61 43.74 45.56 46.58 47.79 49.61 50.71 54.39 56.26 59.10 61.11 63.35 63.53 64.09 65.52 67.09 68.84 70.16 71.36 71.62 71.59 71.82 71.84 72.45 72.84 72.68 72.24 71.91 72.15 72.14 71.24
36.25 33.55 35.16 36.22 42.56 43.66 42.97 44.88 45.59 45.79 46.04 44.43 44.81 41.10 45.60 48.66 47.90 46.76 48.60 49.70 53.08 56.24 59.05 60.60 63.13 64.10 64.18 65.64 66.66 68.07 69.56 71.43 71.99 71.57 71.58 72.34 72.70 72.99 73.01 72.74 72.24 71.80 71.65 71.91
34.06 33.83 32.78 30.42 38.89 40.00 38.62 44.07 45.25 45.93 46.83 46.23 42.70 45.03 46.25 45.97 46.64 47.48 48.59 49.60 52.63 54.13 57.97 60.28 63.31 64.35 65.04 66.07 67.59 67.56 69.42 70.87 71.99 71.89 72.04 72.07 72.16 72.15 73.04 73.31 72.94 72.00 71.39 72.04
33.95 33.22 33.56 30.91 34.23 31.45 43.15 48.04 48.87 47.13 47.66 46.69 45.29 47.03 47.85 48.28 50.17 50.74 50.94 52.14 54.15 55.54 56.43 59.88 60.70 61.98 65.65 67.07 67.82 68.42 69.52 70.60 71.54 71.73 71.98 72.56 72.30 71.92 72.29 72.71 72.98 72.72 72.19 71.78
39.13 36.49 32.25 30.69 31.06 38.09 44.22 46.69 46.04 44.88 44.19 48.46 48.23 48.57 48.61 48.99 50.46 50.14 54.39 54.03 55.56 56.51 57.01 60.66 62.87 63.60 63.76 65.87 67.80 68.16 68.54 70.07 71.27 71.51 71.99 72.62 73.10 72.52 72.49 72.07 72.52 72.99 73.08 72.04
38.74 39.16 37.65 33.73 30.48 31.58 40.00 49.75 53.23 51.11 43.56 49.92 50.04 49.42 49.26 49.36 44.92 49.40 55.82 55.97 55.72 55.24 55.00 58.15 61.99 62.50 63.26 66.17 67.89 67.73 67.65 69.09 70.56 71.64 72.23 72.94 73.33 73.18 72.61 72.86 72.81 73.21 73.37 73.38
34.47 35.39 33.60 34.93 34.22 38.33 47.19 52.76 55.02 41.32 44.44 54.70 53.08 51.25 50.84 49.13 50.34 52.84 57.98 57.67 57.53 57.24 58.13 57.37 60.68 63.54 63.75 63.90 66.93 67.28 67.66 67.84 70.02 71.91 72.65 72.61 73.38 73.07 73.13 73.01 73.31 73.17 73.01 73.20
36.40 37.12 35.36 36.11 35.73 32.48 52.19 52.20 48.48 51.47 56.23 55.81 55.00 54.84 54.61 56.72 60.40 61.01 61.00 61.79 62.81 62.56 64.57 63.54 54.71 57.68 61.13 63.77 65.82 66.22 66.58 68.94 69.64 70.16 70.87 71.58 72.46 73.17 72.99 72.59 72.69 72.75 72.55 72.71
34.89 40.67 39.13 40.77 41.15 48.57 51.40 53.55 54.05 54.79 55.87 58.02 57.47 60.03 62.92 62.57 62.65 63.60 63.90 65.21 66.58 67.05 67.73 68.36 67.34 65.28 62.67 58.41 64.18 63.88 66.52 67.93 68.47 69.27 69.60 70.11 71.27 72.69 72.74 71.89 71.99 71.82 72.43 72.18
41.18 45.48 42.73 45.47 48.71 51.31 53.73 54.92 55.03 56.61 54.98 55.74 57.96 59.95 61.89 62.09 62.60 62.47 63.37 64.56 65.90 67.07 67.43 68.61 69.26 69.37 68.76 70.43 68.00 64.35 65.64 65.73 65.88 67.06 68.35 69.19 69.17 70.97 72.03 72.24 72.29 72.14 72.45 72.16
42.14 44.92 43.31 45.87 49.99 52.06 54.39 53.53 55.17 55.73 55.79 56.27 56.63 56.26 56.58 58.33 57.29 58.19 58.71 60.30 62.67 64.15 64.32 64.70 65.26 65.12 64.09 64.17 63.53 63.44 65.03 67.62 64.49 66.23 67.14 68.09 68.76 68.93 67.99 58.73 67.43 72.59 70.67 70.38
45.53 43.81 43.01 43.38 50.24 49.88 50.86 53.15 55.01 54.70 54.48 54.99 55.27 54.97 55.39 55.71 55.16 56.80 56.87 58.15 60.25 62.30 63.67 64.01 64.29 64.29 61.87 57.53 56.87 58.51 58.32 58.67 62.19 68.39 67.85 69.46 66.80 62.90 61.39 62.48 58.58 49.82 56.01 55.64

GFSCGP_sfc_wetblb_030.txt.gz
Wetbulb
48.10 44.28 42.27 43.77 43.78 44.87 44.94 43.84 43.79 46.22 50.00 53.01 52.67 52.15 58.77 61.81 62.65 63.00 63.43 64.24 64.73 65.35 67.31 68.44 68.89 69.69 69.95 69.96 70.15 70.43 70.73 71.25 71.25 70.17 69.52 69.92 69.85 70.65 71.35 71.65 72.55 73.04 73.47 74.11
42.82 43.37 47.31 48.22 46.37 46.02 45.06 43.25 43.13 45.87 49.03 50.52 49.69 51.78 58.47 61.40 62.02 63.18 63.55 63.94 64.81 65.66 66.42 67.67 68.14 68.55 69.22 69.09 69.44 69.87 70.45 70.80 71.12 71.28 70.96 70.96 70.95 70.64 71.74 72.54 72.72 73.18 73.60 73.94
44.32 44.32 49.60 48.64 45.51 44.63 41.87 43.30 43.68 43.78 46.63 49.12 50.07 48.04 52.09 60.36 61.57 63.17 64.65 65.07 65.65 65.69 65.90 66.76 67.67 68.01 68.86 68.46 69.14 69.62 70.21 70.67 71.02 71.70 71.32 70.99 71.19 71.43 70.94 71.43 71.83 72.12 73.12 73.89
42.77 47.64 48.71 46.04 45.98 45.30 38.42 45.54 46.59 45.57 42.36 39.33 48.58 40.10 48.30 54.69 59.03 60.97 61.60 63.53 64.96 65.73 67.07 66.91 67.18 67.82 68.07 68.60 69.51 70.08 70.35 70.33 70.85 71.51 70.98 70.84 70.13 69.48 70.52 70.87 71.69 72.25 72.68 72.99
42.93 43.78 45.06 45.08 46.01 46.49 44.71 47.48 45.66 45.16 41.79 39.12 42.33 41.41 45.05 51.85 55.48 58.98 61.36 62.68 63.79 65.20 66.23 66.57 66.09 67.22 68.85 69.14 69.06 69.88 70.16 70.33 70.60 70.99 71.34 70.77 70.20 70.63 70.22 70.82 71.44 72.06 73.09 73.57
44.93 47.10 47.72 45.73 47.44 48.05 48.49 45.09 42.05 40.63 39.09 35.42 40.84 42.07 39.58 48.98 54.03 58.73 61.85 63.18 64.20 65.01 65.58 66.25 66.98 67.00 67.70 69.26 68.97 69.54 69.72 70.01 70.58 70.72 71.27 70.83 70.42 69.71 69.38 69.64 70.31 71.05 71.97 72.83
43.31 45.14 45.65 47.02 43.97 45.42 45.02 40.21 33.69 32.60 33.60 35.58 40.23 39.87 44.87 49.42 56.35 58.87 60.37 62.22 63.81 65.25 65.58 65.76 65.80 65.36 67.22 67.93 68.33 68.63 69.43 69.29 70.31 70.28 70.60 71.12 70.97 70.53 70.04 69.78 70.55 70.21 70.82 71.89
39.05 36.77 45.15 46.60 44.47 42.48 41.24 39.60 33.17 29.27 30.05 35.52 39.26 37.61 42.26 50.01 55.73 59.15 60.80 61.95 62.51 63.85 65.33 65.80 66.23 66.40 66.17 67.81 68.40 69.04 69.28 69.32 70.18 70.13 70.23 71.04 71.24 71.03 71.04 70.56 70.72 70.79 71.06 71.73
37.56 39.25 46.77 47.48 47.08 47.34 40.36 40.17 41.75 34.32 32.96 32.17 36.08 40.33 46.49 49.92 50.75 56.02 58.08 59.61 60.12 61.05 63.95 65.00 66.20 66.69 66.90 66.90 68.11 69.10 69.40 69.55 70.04 70.50 70.63 70.75 71.19 71.29 71.00 70.90 71.01 71.09 71.59 72.08
40.25 36.79 43.85 47.36 47.63 47.20 43.75 43.55 37.80 32.33 30.60 28.76 33.85 35.86 40.74 46.01 49.60 51.79 54.90 57.48 59.57 60.85 61.62 64.17 65.44 66.17 66.93 67.40 68.22 69.43 69.97 69.56 70.21 70.81 71.23 71.22 71.36 71.96 71.88 71.18 70.49 70.85 71.42 72.53
38.84 37.63 38.42 44.60 43.53 44.21 40.99 39.42 36.45 39.02 34.47 32.33 29.82 36.68 42.92 46.83 49.52 51.25 53.44 57.64 59.18 59.88 61.09 62.59 64.61 66.05 66.65 67.33 67.59 68.48 69.44 69.63 69.93 71.33 71.55 71.48 71.50 71.85 71.98 71.00 71.20 71.06 71.49 71.63
40.86 33.01 36.87 39.00 43.21 47.82 48.04 43.91 38.31 36.87 34.12 32.61 33.62 38.35 45.94 46.87 50.09 51.43 52.63 54.75 58.69 60.13 61.39 62.24 63.96 65.24 65.89 66.20 66.95 67.63 69.05 69.30 69.94 71.23 71.68 71.60 71.73 71.81 71.64 71.20 71.53 71.73 70.96 71.14
41.10 33.66 31.00 34.69 40.45 41.60 40.77 44.31 40.90 43.09 36.29 38.02 35.52 38.42 48.78 47.43 48.31 50.25 50.68 52.21 55.03 58.76 60.28 61.51 62.19 63.61 64.83 65.53 66.46 67.07 68.39 69.30 69.98 70.46 71.40 71.56 71.32 71.34 71.34 71.43 71.78 71.68 71.26 70.68
41.74 32.92 32.18 31.65 34.62 39.12 37.60 41.70 43.24 42.97 40.10 40.69 40.08 40.61 43.10 45.83 47.04 48.65 50.72 53.09 55.76 57.40 58.68 59.79 61.01 62.58 64.23 65.32 66.24 66.74 67.92 69.53 70.03 70.04 70.42 70.66 71.15 71.43 71.70 72.23 72.23 71.85 71.95 70.39
36.97 32.24 33.64 35.87 39.52 40.72 40.75 41.05 42.36 40.58 43.41 40.92 43.61 43.49 45.15 45.93 46.46 48.98 50.36 52.81 53.36 55.89 57.68 59.06 60.54 61.62 62.76 64.62 65.94 66.79 68.00 69.10 70.18 69.84 69.98 70.33 71.02 71.51 71.75 71.86 72.30 72.52 72.39 71.48
34.89 32.13 33.34 34.24 40.22 40.77 39.05 41.97 43.38 43.51 42.82 42.07 44.30 42.77 45.56 48.51 47.80 48.38 49.37 50.28 50.75 52.14 54.88 57.57 61.16 62.44 61.93 64.35 65.42 66.78 67.98 68.92 70.20 69.76 69.74 70.81 71.18 71.34 71.32 71.58 71.58 71.90 72.34 72.53
31.94 32.65 31.43 29.49 36.98 37.81 35.66 40.98 42.74 43.03 44.17 43.88 40.89 44.69 47.29 46.29 47.08 48.24 49.47 49.94 50.10 51.09 54.24 56.97 58.98 62.36 63.11 63.94 65.70 66.40 67.82 69.86 69.99 69.96 70.21 70.81 71.26 71.34 71.65 72.07 71.70 71.33 71.47 72.05
31.42 31.39 31.81 29.47 32.85 28.05 38.56 44.65 46.07 44.86 46.01 45.70 45.30 46.88 48.32 49.62 51.13 50.92 51.15 51.73 51.09 51.67 52.97 56.28 59.01 61.33 64.26 65.02 65.60 67.04 68.38 69.53 69.98 69.94 70.22 71.17 71.54 71.39 71.90 72.13 71.89 71.84 71.74 71.47
36.88 32.36 29.34 28.83 29.15 35.97 40.07 46.27 47.26 45.51 44.78 48.01 47.30 47.98 48.14 49.58 49.72 50.27 50.91 51.01 52.09 53.26 54.90 56.08 59.33 61.86 63.02 63.66 65.42 66.36 67.41 68.96 70.25 70.32 70.30 71.31 71.98 71.63 71.98 72.02 72.21 72.31 72.08 71.68
35.88 36.95 32.45 30.00 28.54 28.42 38.92 49.91 53.21 52.47 42.23 50.46 50.82 48.88 49.23 47.74 44.17 49.02 52.13 55.49 53.62 55.18 55.83 57.11 59.34 61.57 61.75 63.83 65.55 66.04 66.59 68.26 69.10 70.88 71.15 71.87 72.20 71.88 71.65 72.00 72.45 73.09 73.11 72.32
29.13 31.51 28.92 30.20 31.09 35.47 43.55 50.83 54.32 41.08 42.99 53.62 54.19 54.70 49.42 47.86 51.35 52.92 55.00 57.98 56.61 56.82 58.96 59.48 60.54 61.74 62.13 64.20 66.11 65.97 66.56 67.25 69.53 71.22 71.98 72.39 72.69 72.40 72.35 72.27 72.55 72.64 72.97 72.95
29.41 29.55 29.21 30.36 30.34 29.05 49.36 50.05 47.58 49.33 53.50 54.94 55.17 56.58 56.29 49.66 52.12 56.58 58.34 60.74 61.67 64.58 67.32 65.19 61.96 61.79 57.59 63.69 65.67 65.63 65.69 68.31 70.12 71.43 71.80 72.15 72.67 72.96 73.05 72.69 72.83 72.85 72.77 72.68
30.46 35.96 34.67 34.17 34.12 43.08 50.75 51.33 53.23 53.95 54.63 55.29 55.19 56.40 58.32 55.64 60.27 62.93 64.21 65.64 66.69 67.60 67.98 68.26 68.77 69.13 69.74 64.86 65.00 64.64 64.82 68.51 68.87 69.20 70.51 71.70 72.50 73.19 73.49 72.66 72.39 72.15 72.67 72.30
37.64 40.12 38.28 39.94 43.20 47.02 50.81 53.19 53.95 55.63 55.23 55.73 56.38 57.45 60.94 61.75 62.77 63.21 64.46 64.62 64.77 65.47 67.13 68.43 68.04 66.35 65.98 66.88 66.13 66.44 68.19 70.18 67.41 67.68 68.42 69.98 71.02 71.79 73.09 73.09 72.87 72.21 72.02 71.86
36.48 37.65 36.94 39.02 44.18 49.75 52.04 52.13 52.82 55.43 56.22 55.85 56.21 55.90 56.10 59.33 58.47 60.60 60.94 62.31 63.16 63.39 63.31 63.70 62.40 60.48 59.64 59.88 59.58 60.05 61.24 66.55 67.59 66.24 66.48 67.76 69.28 69.59 71.91 68.03 69.04 72.51 73.20 70.96
37.30 35.66 34.83 35.83 44.34 47.78 49.23 52.23 53.97 55.22 55.38 56.30 56.07 56.35 56.57 57.61 57.54 59.24 59.09 60.60 61.54 60.48 60.61 62.35 63.96 64.48 62.82 60.59 59.06 58.95 61.64 61.39 64.90 67.89 68.41 67.09 67.99 66.22 63.28 63.48 60.61 50.40 54.41 52.59

GFSCGP_sfc_wetblb_033.txt.gz
Wetbulb
52.86 48.80 46.56 48.95 49.73 49.48 48.34 48.19 49.30 51.27 54.02 56.37 56.62 57.59 59.82 64.76 65.76 65.65 66.10 66.20 66.56 67.16 69.39 70.39 71.22 72.00 72.38 72.97 73.16 73.67 73.82 74.97 74.04 73.18 72.35 71.98 71.08 72.44 74.11 75.43 76.53 76.69 76.75 77.21
49.30 46.10 50.27 51.11 50.39 49.14 48.24 47.24 48.49 51.06 52.92 53.03 54.28 56.25 59.65 63.71 64.89 65.95 66.15 66.49 66.98 67.70 68.61 69.47 70.51 71.53 71.88 72.48 73.29 74.00 74.65 75.15 74.56 73.95 73.98 73.12 73.33 73.49 75.09 76.39 76.75 76.98 77.03 77.76
46.56 48.48 51.22 50.03 49.17 47.99 48.35 46.52 47.57 48.55 51.36 53.17 53.81 52.53 55.94 62.07 64.86 66.13 67.38 67.92 67.88 68.04 68.01 69.00 69.92 70.82 71.91 72.41 73.18 74.15 75.46 75.74 75.38 75.66 74.33 73.99 74.59 74.70 74.31 75.21 75.76 76.57 77.31 77.73
48.10 51.23 49.61 48.80 47.99 49.52 45.65 49.74 48.79 48.51 48.47 46.43 53.71 47.14 54.15 58.19 62.05 64.05 65.61 66.85 67.78 68.39 69.37 69.81 70.11 70.54 71.29 72.83 73.65 74.86 75.26 76.01 75.60 76.48 74.92 74.78 72.25 71.52 73.18 74.71 75.93 76.27 77.39 77.47
47.22 48.55 48.48 47.77 48.47 50.96 47.90 50.82 49.05 48.93 48.73 48.87 49.17 48.05 52.48 57.14 58.79 61.99 64.68 66.37 67.56 68.79 69.38 69.59 70.35 71.62 72.02 72.53 72.84 73.85 75.28 75.72 76.29 76.22 76.14 74.71 74.14 73.53 74.32 74.76 76.35 77.49 77.48 77.34
49.51 51.20 51.24 50.99 51.78 51.85 52.54 49.91 50.06 49.45 48.64 42.95 48.17 47.54 49.64 52.84 56.71 61.02 64.44 66.00 67.32 68.61 69.46 70.44 71.35 72.15 72.02 72.71 72.78 73.03 74.64 75.17 75.97 75.82 75.97 75.94 75.36 75.08 73.74 74.26 74.00 74.49 75.09 75.81
48.24 47.92 50.90 52.36 49.49 51.78 51.04 48.20 42.90 41.45 41.43 41.28 50.22 47.30 49.99 55.23 58.15 59.14 62.80 65.53 67.07 68.08 69.24 69.92 70.55 70.87 72.07 72.81 72.87 73.25 73.96 73.97 75.26 75.05 75.42 75.60 75.59 75.98 75.84 75.42 74.16 75.10 74.26 74.81
43.66 41.75 48.35 50.95 50.20 47.74 48.76 48.05 42.74 38.12 39.90 42.81 48.50 45.11 49.87 55.73 57.56 60.62 62.21 65.04 67.42 67.97 68.57 69.19 70.62 71.66 71.69 71.94 73.08 72.94 73.37 73.60 74.57 74.71 75.03 75.65 76.10 74.96 75.13 75.59 74.50 74.44 74.47 75.36
44.47 44.30 49.87 50.25 51.13 51.38 47.92 46.11 49.96 44.45 43.64 42.59 45.90 49.35 52.55 55.12 56.12 58.74 61.17 62.79 65.03 67.07 68.39 69.16 70.50 71.28 71.42 71.75 72.53 73.02 73.07 73.56 74.39 74.45 74.95 75.19 75.69 75.86 75.42 76.46 76.56 75.05 76.92 75.52
48.27 44.18 49.46 49.88 51.44 51.46 49.34 51.01 43.70 45.67 39.05 38.36 43.56 44.84 47.47 53.29 54.48 56.66 58.73 60.72 63.39 65.46 67.11 68.59 70.01 71.17 71.76 71.45 72.71 73.33 73.42 73.42 74.02 74.47 74.77 74.61 75.08 75.88 76.04 76.48 76.15 76.13 76.69 76.59
47.64 46.40 45.54 49.76 47.86 47.27 46.51 46.56 47.87 47.53 45.49 41.08 40.06 44.01 52.74 54.65 57.88 58.05 58.68 60.81 62.20 64.14 65.68 66.60 69.21 70.91 72.04 72.05 72.06 72.98 73.25 73.50 73.93 74.39 74.72 74.82 74.80 75.39 75.93 75.77 76.17 76.44 76.86 76.67
46.21 45.53 44.90 46.13 51.07 52.14 50.20 48.63 48.35 43.91 43.18 44.90 44.78 44.66 53.22 55.02 56.38 58.31 58.97 60.52 62.51 64.70 66.38 66.46 67.14 69.16 70.02 71.56 72.00 71.75 72.92 73.25 73.83 74.32 74.63 74.65 75.16 75.35 75.47 75.53 76.04 76.72 76.40 76.50
46.14 43.54 42.61 44.32 47.82 49.11 48.24 49.88 49.66 49.49 48.94 45.02 41.92 44.59 54.08 53.80 54.29 57.15 57.96 59.56 61.22 62.77 64.46 66.27 66.63 67.59 69.73 70.72 71.24 71.50 72.25 72.63 73.54 74.43 74.38 74.62 74.73 75.02 75.12 75.63 76.07 76.46 76.54 76.60
46.75 43.13 43.52 42.67 45.23 45.55 44.39 47.13 49.38 48.60 45.65 45.72 45.71 47.60 51.52 53.30 53.99 56.33 57.95 59.56 60.61 62.01 64.84 66.17 66.89 68.63 69.73 70.64 71.02 71.34 71.86 72.82 73.41 73.77 74.30 74.40 74.80 74.92 75.28 75.90 76.12 76.14 76.43 76.39
44.63 39.84 41.52 42.50 43.04 43.49 43.90 44.32 45.66 46.08 48.36 46.55 47.89 48.55 51.20 53.38 54.94 56.80 58.56 59.76 60.36 60.91 62.99 65.62 66.49 69.17 70.09 70.83 71.42 71.39 72.02 72.91 73.53 73.54 73.72 74.28 75.19 75.83 75.80 75.80 76.02 76.21 76.44 76.31
43.07 39.13 40.41 39.20 42.22 43.30 42.46 44.79 45.39 45.85 46.43 46.92 48.25 48.48 54.30 55.20 57.10 57.65 58.38 59.81 60.47 59.51 61.89 64.21 67.11 68.25 68.62 70.11 70.64 71.03 71.72 72.21 73.66 73.26 73.02 74.34 75.32 75.62 75.35 75.64 75.73 75.98 76.00 76.11
39.10 39.10 38.05 35.38 41.16 41.55 39.51 43.86 45.50 46.58 48.17 48.06 45.09 49.80 53.30 53.32 54.65 56.07 56.95 59.48 60.65 60.61 61.63 62.87 64.09 66.68 69.20 69.38 70.93 70.77 71.38 72.57 72.90 73.07 73.73 74.12 74.73 74.94 75.23 75.72 75.84 75.66 75.58 76.09
37.74 38.55 39.42 35.56 38.11 31.92 44.55 48.82 48.74 48.52 49.26 50.26 50.23 51.31 53.36 55.10 57.67 59.28 59.97 59.79 60.69 61.81 62.23 63.75 62.51 65.44 69.16 69.05 69.04 71.42 72.16 72.19 72.58 73.02 73.60 74.06 74.13 74.39 74.86 75.13 75.00 75.53 75.65 75.75
40.43 38.45 35.89 33.77 35.16 39.75 41.90 45.75 49.02 49.53 49.31 55.25 53.09 52.39 53.22 54.91 56.24 57.93 59.58 59.77 61.00 62.16 63.59 63.45 63.51 64.59 69.17 69.75 70.98 71.72 71.91 72.65 72.95 73.07 73.53 73.96 73.41 73.08 74.71 74.43 74.73 75.00 75.07 75.33
40.10 39.81 36.41 35.52 31.76 31.66 43.61 48.90 53.36 54.95 44.93 56.01 56.93 56.98 55.56 54.53 51.26 54.06 61.21 60.21 60.00 60.64 62.30 63.82 63.94 65.49 66.37 68.87 70.03 70.99 70.67 72.07 72.57 73.50 73.76 74.56 74.84 74.61 74.65 74.92 75.11 75.63 75.45 75.03
34.03 34.64 32.06 33.35 33.10 37.91 45.72 50.20 55.70 45.20 47.60 57.49 58.60 59.09 58.81 57.17 56.82 60.81 62.26 61.88 62.35 63.52 63.63 63.85 64.95 67.60 68.84 69.69 70.34 70.85 71.69 71.78 73.32 73.96 74.33 75.20 75.79 75.16 75.43 76.01 76.09 76.29 75.03 75.06
34.11 33.01 32.23 33.80 31.66 29.69 47.54 48.52 44.79 53.67 57.15 57.47 58.67 60.22 60.02 60.67 61.86 62.92 61.72 61.88 64.89 67.17 66.55 63.82 65.92 66.35 67.92 70.06 71.16 72.33 72.61 73.64 74.14 74.62 74.86 75.98 76.12 74.87 74.97 75.79 75.05 75.44 75.52 75.68
33.07 37.41 36.69 37.20 36.94 45.84 48.87 50.13 53.90 56.66 55.65 57.45 59.26 60.73 61.17 60.42 60.99 63.45 61.71 67.44 69.33 70.75 70.79 71.92 71.81 70.33 69.67 70.78 72.13 71.62 72.00 73.20 73.95 74.37 75.05 75.27 75.95 75.95 76.74 75.53 74.65 74.18 75.51 74.53
39.78 43.92 39.20 39.63 42.05 45.03 46.70 50.57 52.44 57.84 58.28 59.90 60.45 60.93 60.47 59.88 63.46 63.47 67.09 69.97 70.98 69.55 70.44 71.80 71.52 70.39 69.36 70.84 72.00 72.65 73.18 73.32 73.76 73.87 74.81 75.16 75.06 74.79 76.11 75.08 72.90 73.73 74.14 74.07
39.77 41.66 39.80 39.54 42.43 44.39 46.59 49.32 52.71 55.60 58.15 59.43 59.53 59.13 58.91 63.23 64.88 66.67 68.22 68.12 67.80 67.09 66.54 66.56 65.86 65.12 65.06 66.64 67.16 68.71 71.96 74.34 72.87 72.59 72.66 73.10 74.06 74.01 75.17 75.89 75.53 74.81 76.14 74.15
40.17 38.98 36.85 35.60 44.08 45.35 47.43 51.09 55.10 56.40 57.11 59.56 57.42 58.67 60.86 63.05 63.69 66.52 66.07 65.97 66.31 66.90 67.82 67.76 67.42 66.94 66.33 66.17 65.88 67.13 68.31 70.48 73.60 72.83 71.65 71.01 71.85 72.63 73.65 73.68 69.19 52.45 51.65 54.45

GFSCGP_sfc_wetblb_036.txt.gz
Wetbulb
55.41 51.80 50.09 52.65 54.56 54.89 54.84 53.79 53.46 56.47 58.36 56.66 57.22 58.36 59.72 64.83 66.67 66.96 68.40 68.99 69.33 69.75 71.34 72.28 72.79 73.23 73.71 74.29 74.57 75.13 75.17 76.41 76.14 75.29 74.48 73.89 73.02 73.51 73.58 74.89 76.52 77.81 78.13 78.94
51.62 48.94 52.58 53.93 53.80 52.69 52.70 51.33 52.59 56.10 57.24 55.93 57.34 57.53 60.25 63.55 66.06 67.52 68.01 68.58 69.42 70.32 70.77 71.43 72.52 73.03 73.29 73.83 74.84 75.65 75.81 76.60 76.79 75.87 75.96 74.51 73.82 73.01 73.78 75.54 77.21 78.86 79.18 79.27
49.50 50.94 53.19 52.04 51.71 51.06 51.33 51.22 52.26 53.03 55.39 56.05 55.56 55.05 57.64 60.97 65.18 66.96 68.46 69.49 69.83 70.20 70.46 70.84 71.47 72.23 73.01 73.43 74.33 75.69 76.90 77.30 77.22 77.96 75.97 75.30 74.56 73.94 73.51 75.18 76.59 78.55 78.99 79.27
51.28 53.46 51.54 51.22 50.32 51.51 49.37 52.99 52.58 52.00 51.99 49.54 56.43 50.37 57.12 59.15 61.14 63.74 65.91 68.48 69.35 70.33 71.53 71.43 71.27 71.93 72.68 73.74 75.00 76.50 77.25 77.67 77.65 78.34 76.71 77.16 73.03 71.97 73.10 75.27 76.60 77.16 79.21 79.15
49.66 50.41 50.43 49.73 50.27 52.41 49.96 53.09 52.10 51.97 50.81 51.59 52.58 51.20 54.96 58.96 57.82 61.21 64.21 67.02 69.33 70.92 71.48 71.48 71.55 71.83 72.99 74.13 74.58 75.80 77.31 78.59 79.35 78.48 78.21 75.84 75.79 73.70 74.34 74.91 78.89 79.71 79.22 79.24
51.63 54.17 52.43 52.29 52.95 52.76 53.02 51.75 51.38 51.66 50.35 46.26 51.64 51.78 52.79 55.88 58.70 60.63 63.80 66.30 68.72 70.19 71.22 72.20 73.08 72.90 72.78 73.91 74.83 75.67 77.55 78.71 78.98 78.34 77.66 78.95 78.17 76.97 74.66 76.05 75.40 76.07 76.55 77.31
50.06 50.86 53.02 53.73 51.44 53.50 52.05 50.32 45.24 43.93 44.16 44.39 52.44 50.98 53.40 57.50 59.98 61.02 61.89 64.73 68.40 70.65 70.94 71.69 72.52 72.93 72.74 73.31 74.39 75.27 77.06 77.68 77.97 77.60 77.75 77.95 78.59 78.53 78.55 77.91 76.04 77.63 75.40 75.53
46.79 44.90 50.73 53.40 52.17 50.99 50.67 50.23 45.72 41.61 43.04 45.51 51.56 48.46 52.92 58.77 60.49 61.19 62.53 63.08 67.10 69.64 71.09 71.35 72.52 73.41 73.72 73.84 75.33 75.69 76.82 77.53 77.92 77.63 78.91 79.50 80.01 76.92 76.79 78.15 76.86 76.34 75.72 76.47
48.34 48.13 52.62 53.26 53.73 53.62 51.08 48.16 52.11 47.56 49.22 46.53 49.14 51.73 55.29 57.84 58.96 60.23 60.75 62.32 63.72 68.66 70.45 71.46 72.35 73.28 74.08 74.74 75.99 76.61 77.52 77.78 77.45 77.10 78.95 79.28 79.29 78.84 77.59 79.01 79.29 77.50 79.34 77.16
52.15 48.36 52.10 52.24 53.97 53.94 52.95 53.71 47.18 48.27 43.20 42.47 46.53 48.87 50.33 54.99 56.45 59.03 59.95 61.72 63.51 66.78 69.69 70.79 72.06 73.06 74.15 75.05 75.82 76.77 77.61 77.79 78.10 77.76 77.78 77.84 78.39 79.48 79.53 79.88 79.41 79.29 79.15 79.47
52.61 51.29 50.94 52.27 50.15 50.00 50.33 50.06 50.70 50.33 48.53 45.06 44.36 47.48 55.57 56.11 58.22 58.54 60.37 62.35 63.65 65.80 68.31 70.14 71.04 72.44 73.46 74.63 75.23 75.50 76.39 77.45 77.36 77.81 78.45 78.45 77.75 78.22 78.56 78.95 79.77 80.01 79.28 80.20
52.81 51.36 48.98 49.54 53.05 53.70 52.86 51.13 51.29 46.70 46.88 48.29 48.44 49.24 55.10 56.41 57.76 59.74 60.18 61.92 63.82 65.49 66.89 68.69 69.94 71.22 72.56 73.45 74.10 74.55 75.30 75.62 76.11 77.82 78.68 78.35 78.40 78.55 77.98 78.67 79.37 80.40 79.91 80.02
52.15 49.06 46.48 48.48 51.19 52.87 50.69 51.87 52.37 51.58 51.56 49.04 45.71 48.68 56.35 57.44 57.38 59.05 59.88 61.49 63.09 64.48 66.26 67.78 68.70 69.22 70.84 72.66 73.78 73.87 74.46 74.92 75.74 77.30 76.54 76.79 77.11 77.44 78.39 79.33 79.32 79.95 79.89 80.23
49.19 50.31 49.08 46.64 49.25 51.52 49.34 50.81 51.70 51.01 48.41 48.88 49.76 51.02 53.91 54.55 56.66 57.26 58.38 60.00 61.27 64.14 65.21 66.12 67.45 68.69 69.72 72.29 74.52 75.53 74.02 74.78 75.24 75.64 75.89 77.16 77.64 78.12 78.31 79.19 79.41 79.64 80.09 79.96
48.62 47.00 47.76 50.50 48.39 48.31 50.68 50.20 51.08 50.39 51.33 49.08 51.18 51.72 54.41 56.17 57.12 58.29 59.37 60.09 60.38 61.57 63.18 65.16 67.56 69.51 71.70 72.53 74.09 75.61 74.50 75.33 75.52 76.90 75.54 77.16 78.21 78.93 79.08 79.14 79.36 79.73 79.94 79.86
47.06 45.20 46.25 45.47 47.41 46.94 46.51 49.33 50.28 51.15 51.89 51.90 52.31 52.47 57.25 57.97 58.81 58.81 59.42 60.07 60.26 61.31 61.82 62.93 65.47 69.87 71.80 72.58 73.25 73.82 75.25 75.06 75.87 77.23 76.87 77.94 78.66 79.12 78.97 79.07 79.29 79.71 79.60 79.69
43.29 43.89 43.25 43.07 47.38 46.32 43.89 48.05 49.57 50.60 52.33 52.16 49.98 54.16 57.06 56.90 57.36 58.44 59.10 59.96 60.41 61.37 62.78 63.88 65.03 67.77 69.87 71.61 73.35 73.51 75.41 75.56 76.29 76.65 77.68 78.06 78.90 78.69 78.98 79.42 79.43 79.16 79.07 79.52
42.46 42.64 43.48 42.37 44.86 37.10 48.95 53.38 52.62 50.88 52.28 53.63 53.73 55.02 56.35 57.19 58.54 59.45 60.27 60.30 60.66 61.31 62.25 64.12 64.33 65.75 68.09 69.61 69.17 72.25 73.82 76.57 76.46 76.72 77.17 77.97 78.26 78.42 79.15 79.04 78.63 78.98 79.26 79.00
44.69 43.04 40.70 39.10 40.28 45.22 47.20 48.53 49.07 49.58 50.70 54.43 54.22 55.59 56.11 57.13 57.57 58.05 60.03 61.03 62.31 63.07 63.79 64.57 65.06 65.53 68.91 68.36 69.60 70.53 72.45 74.26 74.99 76.41 76.96 77.70 78.08 77.07 77.69 78.36 78.48 78.56 77.89 78.20
43.61 44.10 40.65 40.82 36.99 37.20 47.20 51.16 52.85 53.06 47.71 56.16 57.40 57.67 58.93 60.39 53.31 55.85 60.56 61.35 62.69 63.38 64.29 64.52 65.32 65.63 66.40 69.15 69.99 71.35 71.64 73.15 74.83 76.14 76.47 77.70 78.15 78.14 77.71 78.51 78.79 78.96 78.08 77.74
38.23 39.26 36.86 37.82 37.61 42.60 49.15 52.91 56.01 45.51 52.16 59.29 59.65 60.14 60.36 60.05 62.27 64.99 66.45 66.15 66.77 66.33 65.63 66.83 67.46 66.93 68.47 70.23 71.30 71.44 72.34 72.62 74.84 75.50 75.72 77.27 78.48 78.55 78.75 79.29 79.09 78.67 78.14 77.53
38.40 36.61 36.74 38.00 36.58 35.03 49.03 48.60 46.22 53.05 55.69 58.20 58.64 59.08 59.64 61.11 62.48 63.85 65.33 66.95 67.69 67.41 65.55 67.53 68.63 68.04 70.15 73.15 73.11 73.11 75.29 75.55 76.17 76.63 75.98 77.47 78.42 76.66 76.54 79.00 79.11 78.83 78.04 77.67
36.43 40.60 39.29 40.46 40.52 48.03 50.72 50.19 53.22 53.65 53.36 54.83 57.40 58.75 60.52 60.93 62.03 63.45 64.76 67.29 68.56 67.64 68.37 70.90 69.19 70.38 71.93 74.18 74.00 73.67 76.43 76.61 76.59 76.41 77.02 77.29 77.40 77.41 78.23 78.05 77.40 76.39 77.16 75.49
42.30 45.52 41.49 41.87 44.55 46.10 48.61 50.62 51.88 52.46 52.92 56.05 57.26 57.69 59.23 59.90 61.54 62.80 66.26 68.90 68.40 70.48 72.18 73.22 73.46 72.04 72.94 74.80 75.22 75.69 76.45 76.36 76.12 75.96 76.43 77.09 76.97 76.63 77.30 76.73 76.82 76.15 75.59 75.23
43.11 44.74 42.49 42.73 45.72 47.31 48.34 49.55 50.91 52.08 52.79 53.15 55.00 57.93 58.47 59.33 61.20 63.57 67.42 69.43 70.53 72.67 73.42 73.89 73.27 72.63 72.92 74.20 75.18 75.98 76.07 75.95 75.52 76.01 76.13 76.36 76.34 76.30 76.73 77.47 76.60 76.23 77.52 74.37
43.15 41.89 39.89 39.49 46.32 46.58 47.88 50.63 51.99 50.82 50.55 55.31 56.24 58.21 59.66 60.42 62.12 65.25 67.77 69.98 71.40 71.07 70.77 70.35 70.21 70.12 69.82 70.35 70.90 72.10 74.38 76.41 75.43 74.38 74.21 73.92 74.56 75.62 75.58 75.87 76.08 56.54 55.21 50.88

GFSCGP_sfc_wetblb_039.txt.gz
Wetbulb
59.69 56.65 54.95 56.27 59.54 58.53 56.60 56.70 55.98 59.20 59.83 59.29 58.93 59.39 61.01 63.53 65.85 66.81 68.87 69.62 69.87 70.18 71.29 72.13 72.84 73.00 73.18 73.82 74.45 76.32 76.44 78.54 77.04 75.42 74.55 74.55 73.30 74.52 74.22 74.74 76.90 77.73 77.92 78.71
56.86 54.07 57.19 57.07 57.18 57.91 57.50 55.93 56.54 58.51 59.98 59.26 58.91 58.45 60.80 62.79 65.47 67.00 68.18 69.15 69.88 70.49 70.97 71.19 72.23 72.65 72.58 73.43 75.28 77.14 77.79 79.16 78.46 76.57 77.08 75.75 75.87 74.06 74.08 74.40 78.21 77.69 78.30 79.31
52.47 54.43 56.55 54.05 54.71 55.66 55.71 54.99 55.36 55.73 58.55 59.18 57.91 56.83 59.39 61.95 64.91 67.41 68.62 69.60 70.21 70.65 70.73 71.14 71.28 72.19 72.73 73.53 75.92 76.70 78.28 79.04 78.75 78.99 77.84 77.58 76.81 75.77 73.35 73.96 75.04 77.16 78.45 79.14
53.04 54.95 53.34 52.60 51.88 53.61 51.32 55.86 55.79 54.99 55.32 52.89 57.84 50.89 57.28 59.61 61.75 64.71 67.36 68.69 69.30 70.56 71.75 71.98 71.53 71.82 72.46 73.80 75.32 77.83 78.96 79.45 79.20 79.65 77.07 77.20 73.35 71.54 72.25 73.62 74.38 77.12 79.24 78.95
52.55 52.07 51.94 51.20 51.71 53.56 51.85 55.08 54.76 54.68 53.83 54.38 54.92 53.30 55.97 59.54 58.50 61.75 64.48 67.37 68.96 70.34 71.45 71.77 72.06 72.08 72.77 73.74 74.18 76.70 79.41 79.82 79.84 79.51 78.75 76.32 75.70 73.02 73.51 73.66 77.65 79.12 80.73 79.40
54.41 55.98 54.54 53.66 54.14 54.31 54.81 53.10 53.48 53.78 52.76 48.58 52.87 52.84 53.88 56.34 59.26 61.26 63.50 64.79 67.78 69.64 70.95 72.31 73.19 73.14 72.45 73.24 74.10 76.03 78.60 79.45 80.24 80.05 79.48 79.88 77.21 76.32 73.93 74.54 74.49 75.32 76.10 77.97
52.32 53.27 54.72 55.11 52.80 54.28 53.07 50.81 45.88 45.11 46.18 46.09 53.79 52.13 54.60 58.84 60.14 61.70 62.27 64.53 66.35 69.52 71.08 71.83 72.35 72.34 72.73 73.65 75.02 76.02 78.29 78.95 80.13 80.10 79.43 79.23 79.31 78.64 79.86 78.83 74.89 76.82 75.03 74.99
48.19 46.70 52.57 54.62 53.05 51.85 51.61 50.69 46.25 42.50 43.76 46.39 52.61 50.09 53.73 59.55 61.44 62.45 63.76 64.82 66.37 67.79 70.60 71.70 72.59 72.89 73.83 74.24 75.52 75.96 77.81 78.98 79.85 79.57 79.90 80.15 80.50 77.59 77.18 78.38 76.18 75.70 75.39 75.82
49.37 49.16 54.78 54.60 54.85 54.39 52.22 49.67 52.57 49.33 50.62 47.91 49.53 52.71 56.09 59.05 59.73 61.15 62.30 63.78 64.64 66.82 70.13 71.19 72.48 73.36 74.60 74.66 75.97 76.49 77.66 78.92 79.77 79.51 80.05 80.33 80.24 79.65 77.87 78.94 79.65 78.11 78.77 76.86
53.50 50.47 54.25 54.00 55.28 54.78 53.94 54.94 48.25 49.57 45.57 45.21 48.73 50.90 51.04 55.80 57.99 60.20 61.17 62.36 63.88 66.04 69.44 71.27 72.11 73.21 74.98 74.86 75.68 77.17 77.95 78.85 79.68 79.71 80.17 80.13 80.64 80.69 80.16 80.31 79.91 78.84 79.86 80.72
54.30 53.49 53.17 55.07 51.79 51.13 51.43 51.62 51.81 51.40 49.90 46.67 46.53 49.38 56.91 57.70 59.07 58.99 61.19 62.63 63.45 64.64 68.36 70.88 72.19 73.21 74.69 75.29 75.45 76.27 77.23 78.80 79.28 79.81 80.04 80.04 80.23 80.40 80.96 80.16 80.55 80.59 80.83 81.68
54.75 53.06 50.03 52.24 54.57 55.47 54.32 52.43 53.13 48.17 49.00 50.01 50.15 51.02 57.53 58.18 59.10 60.37 60.77 62.69 63.89 65.59 67.69 70.52 71.40 72.74 73.40 74.46 75.27 75.85 76.82 76.53 78.77 79.12 80.02 79.71 80.40 80.26 79.99 80.24 80.57 81.18 81.00 81.14
54.32 51.14 48.17 50.74 52.87 54.29 52.43 53.21 53.91 53.48 52.81 50.63 47.63 50.08 58.03 58.28 58.32 60.93 61.12 62.80 64.55 65.79 66.82 68.59 70.31 71.59 71.94 73.07 75.42 75.38 76.72 76.54 76.92 78.51 78.74 79.74 79.73 79.91 79.69 80.28 80.59 81.12 81.10 81.22
52.19 51.47 50.54 48.93 51.66 52.96 50.71 52.31 53.24 53.01 50.26 50.79 51.04 52.64 55.54 56.94 58.66 59.75 61.44 62.59 63.69 64.69 64.79 67.31 68.62 70.04 70.91 73.07 75.93 76.64 75.59 76.44 77.01 77.49 77.63 78.45 79.34 79.47 79.73 80.28 80.79 80.69 81.28 80.96
51.59 48.71 51.81 52.86 53.77 53.61 52.71 51.58 52.13 51.68 52.96 50.44 52.74 53.16 56.07 57.50 58.62 59.51 61.04 62.12 62.65 64.02 64.68 65.72 66.65 69.15 72.75 74.44 76.71 77.48 75.80 77.08 76.71 78.15 78.04 78.50 79.76 80.50 80.56 80.18 80.50 80.64 81.07 81.05
51.13 46.97 51.14 50.72 53.15 51.84 50.38 53.00 52.70 52.67 52.76 53.18 53.61 54.05 58.49 59.74 60.12 59.56 60.03 60.60 60.83 61.62 62.41 64.51 66.54 68.29 69.90 71.81 73.82 76.12 77.44 77.03 77.33 78.44 77.89 78.93 79.88 80.26 80.31 80.46 80.39 80.86 80.60 80.80
46.32 47.45 48.69 46.56 51.45 50.54 47.27 51.39 52.99 53.57 54.43 54.01 51.76 55.68 58.91 58.63 59.08 59.50 60.08 60.76 61.22 61.86 62.77 63.83 64.77 65.50 68.85 71.21 73.52 73.90 77.07 77.77 77.56 77.66 79.20 78.76 79.76 79.63 80.31 80.64 80.66 80.25 80.38 80.72
44.66 46.00 46.83 45.27 48.64 41.98 51.50 55.85 54.85 53.60 54.74 55.94 56.27 57.43 58.73 59.48 60.67 61.22 61.98 61.65 61.86 62.52 63.24 64.21 63.89 65.55 69.20 68.72 68.68 73.68 74.58 78.59 78.18 78.58 77.92 79.24 79.21 79.67 80.10 80.29 80.33 80.53 80.67 80.21
46.84 45.06 43.48 42.34 45.08 48.81 50.92 53.05 53.56 52.51 52.39 56.24 55.99 57.09 57.72 58.82 59.24 59.66 61.51 62.22 62.53 63.14 63.89 64.90 65.38 65.68 70.30 67.58 69.25 70.49 72.24 76.75 78.07 77.92 78.39 78.54 79.72 79.55 80.04 79.63 79.71 80.30 80.22 80.13
45.82 46.42 42.83 43.96 41.41 41.80 50.16 53.82 54.80 55.78 49.33 57.00 57.14 57.17 57.46 58.56 54.71 57.08 63.12 65.80 67.47 67.98 68.02 68.23 66.86 66.20 66.69 68.82 67.82 68.59 68.81 71.66 77.04 77.61 78.70 79.46 80.08 79.88 79.77 80.26 80.58 80.73 80.47 79.89
40.28 41.69 39.74 40.66 41.05 46.25 52.36 55.19 55.88 46.80 52.85 58.72 58.80 59.25 60.47 59.88 62.52 65.30 66.20 66.25 67.45 68.71 69.65 70.01 69.82 68.22 70.37 71.09 69.61 72.93 73.06 72.74 75.49 78.17 79.05 79.91 80.14 80.25 80.33 80.53 81.01 80.70 80.25 79.11
40.51 39.15 39.31 41.45 39.57 38.55 52.55 51.60 49.80 54.27 57.54 57.47 59.09 60.14 59.66 61.43 62.82 63.97 64.96 65.87 67.03 67.91 69.63 70.19 69.42 70.16 71.28 71.97 72.14 75.11 75.71 77.15 79.44 78.95 78.76 79.38 80.13 79.05 78.88 80.53 80.58 80.78 80.03 79.21
38.59 42.84 41.83 43.13 43.28 51.13 52.83 52.30 54.70 54.96 54.02 54.82 55.80 57.51 58.84 58.97 60.25 61.98 63.41 64.76 66.02 68.87 70.96 70.99 69.07 71.54 72.38 73.40 74.37 76.22 78.54 80.85 80.09 79.62 79.75 79.84 80.23 80.10 80.14 79.71 80.03 78.57 79.28 77.55
44.73 47.45 43.18 43.95 46.98 48.33 50.17 52.06 52.98 53.64 53.33 54.50 55.08 56.02 56.68 56.06 58.35 60.40 61.66 64.05 65.65 68.95 71.19 72.00 72.52 72.50 73.83 75.00 75.71 76.43 78.28 78.71 79.60 79.42 80.04 80.08 79.77 79.21 79.68 78.36 77.94 77.14 76.56 76.44
44.07 45.50 44.00 43.87 46.39 48.44 49.60 51.23 52.15 52.58 53.23 53.44 54.44 55.28 54.52 55.64 57.42 60.35 61.32 64.16 65.84 69.27 72.37 74.01 74.34 74.53 74.31 75.90 76.49 77.02 77.54 78.04 76.79 77.32 77.08 77.67 77.43 77.61 78.54 78.60 77.37 77.02 78.54 73.51
44.84 43.17 41.91 41.56 47.98 48.49 49.56 51.98 53.48 52.47 52.24 53.24 53.72 53.82 54.90 58.49 59.21 61.22 62.13 65.55 67.19 70.64 73.75 73.32 73.45 73.66 73.07 73.94 74.42 76.13 77.71 77.55 77.14 76.25 76.35 76.13 76.56 77.39 77.10 77.28 77.27 55.79 58.91 49.78

GFSCGP_sfc_wetblb_042.txt.gz
Wetbulb
58.89 54.56 52.86 54.73 57.73 58.69 58.13 56.20 54.88 58.73 61.47 58.75 58.27 58.48 61.06 63.00 63.32 66.83 66.34 68.50 68.32 68.95 70.79 72.03 72.11 72.55 73.17 74.09 74.94 74.74 75.46 77.05 76.02 75.16 74.58 74.49 73.34 75.04 76.35 77.17 78.75 79.21 79.50 79.55
56.02 53.04 56.36 57.65 57.87 57.58 57.37 55.38 54.29 57.70 60.24 59.58 58.45 57.65 59.92 62.47 63.60 66.95 67.30 68.72 68.73 68.86 69.66 71.20 71.83 72.03 72.13 73.11 74.49 75.15 75.51 76.94 76.66 75.79 75.66 75.47 76.05 75.04 75.45 76.61 78.77 79.19 79.02 80.11
53.83 55.10 57.64 56.52 56.08 54.91 56.28 55.12 54.61 55.17 58.59 59.47 58.48 56.25 58.76 61.49 62.56 65.16 68.02 68.98 69.51 69.66 69.53 70.24 71.04 71.51 72.05 73.26 74.20 75.07 75.66 77.21 77.13 76.78 76.94 77.38 77.41 77.61 75.50 74.83 75.35 77.45 79.07 79.30
55.28 57.69 55.57 55.23 54.80 54.85 52.74 58.16 56.96 56.04 55.40 52.49 58.00 50.55 58.02 58.96 60.56 63.96 65.94 66.74 68.99 70.12 70.94 70.90 71.21 71.42 72.02 73.04 74.40 75.61 76.11 76.40 77.25 77.56 75.88 75.99 73.23 72.17 73.17 74.36 75.14 76.28 77.63 78.24
54.61 54.75 54.23 53.77 54.32 55.38 52.59 56.09 56.69 56.29 54.23 54.07 54.29 52.10 55.64 58.93 58.32 62.14 64.87 66.26 68.35 70.40 70.81 70.85 70.94 71.76 72.52 73.50 74.30 75.36 76.02 76.63 77.58 76.34 77.57 75.19 74.51 73.66 74.06 74.87 75.39 77.07 77.82 79.13
56.48 58.04 55.44 53.90 55.30 54.66 55.07 54.48 54.45 54.29 53.07 48.76 52.38 52.81 53.93 56.18 58.68 60.40 63.98 67.02 68.17 69.69 71.15 71.97 72.26 72.56 72.44 73.86 74.77 75.18 76.09 76.28 77.44 77.31 76.35 77.76 74.78 74.93 72.86 73.35 74.19 75.76 77.42 77.60
54.77 55.18 55.39 55.18 52.22 53.95 52.76 50.25 45.91 45.05 46.11 45.56 52.81 51.35 54.69 58.57 60.85 61.34 63.71 64.89 68.31 69.67 70.75 71.85 72.06 71.94 72.08 72.82 73.96 74.82 76.10 75.86 76.98 77.41 76.58 75.95 77.79 75.23 75.85 77.32 73.26 74.56 74.89 76.37
48.57 47.53 54.13 54.49 52.46 51.16 50.95 49.82 45.94 41.59 43.48 45.65 52.05 48.97 53.07 59.32 61.07 62.15 64.17 64.82 66.46 68.20 70.24 71.45 72.62 72.58 72.25 72.64 73.65 74.39 75.80 76.15 77.23 77.18 77.32 76.82 77.44 77.00 74.75 76.69 75.23 74.19 75.15 75.88
49.17 48.63 55.30 55.40 54.83 54.21 50.84 48.39 52.01 47.79 49.09 46.42 48.84 51.74 55.40 59.12 59.56 60.83 61.26 64.05 65.05 67.15 68.99 70.76 72.91 73.17 72.71 72.52 73.24 73.98 74.96 76.22 77.13 76.97 77.67 77.78 76.39 77.67 76.00 75.44 77.53 77.20 76.56 77.70
51.97 48.45 53.21 54.41 55.40 54.22 52.92 53.87 47.30 48.62 43.47 43.53 47.03 50.51 50.81 55.23 58.33 60.13 61.27 62.07 64.80 66.56 68.69 71.22 72.57 73.24 73.38 73.34 73.77 74.62 75.49 75.99 77.11 77.72 77.58 77.85 77.70 77.43 77.21 76.69 77.19 76.47 78.69 77.73
52.18 51.35 51.07 54.04 52.01 50.73 50.85 50.67 50.59 50.12 48.63 44.98 44.90 48.75 57.76 57.88 58.91 60.13 61.20 62.77 64.07 66.51 68.41 70.24 72.41 73.71 74.18 74.05 73.86 74.21 74.76 76.31 77.21 77.89 78.08 78.00 78.31 77.84 77.57 77.05 77.39 78.56 77.64 80.28
54.12 50.63 47.94 50.40 55.08 55.24 53.62 51.35 52.28 48.15 47.89 49.58 49.85 49.40 57.70 59.32 60.20 61.00 61.27 63.09 64.35 66.64 68.99 70.33 72.15 73.17 74.00 73.95 73.99 74.15 74.94 75.65 77.22 78.26 78.37 77.86 78.31 78.76 78.08 77.29 77.53 78.14 78.80 78.31
50.29 49.91 46.24 48.34 53.07 54.45 52.22 52.48 52.66 52.98 51.63 50.07 47.42 49.06 58.39 59.57 60.69 61.72 61.69 63.27 64.78 66.88 69.31 70.26 71.36 72.25 73.55 74.23 74.44 74.41 74.85 75.31 77.35 78.07 78.46 78.30 78.28 78.09 78.25 78.21 77.72 78.29 77.80 78.98
51.81 49.28 48.87 47.07 50.70 53.95 51.26 51.50 52.71 51.49 49.53 49.85 50.22 52.27 55.45 57.03 57.89 61.61 62.68 64.36 65.34 67.74 68.66 69.68 70.27 72.03 73.18 74.34 74.79 75.16 75.23 75.78 76.15 77.67 77.91 77.64 78.38 78.44 78.56 78.76 78.83 78.12 78.62 77.62
51.31 47.69 50.84 51.97 53.35 54.11 51.93 51.08 51.84 51.29 53.03 50.25 51.88 52.75 55.85 58.75 59.50 61.39 62.90 64.95 65.60 67.39 68.03 70.11 70.24 72.57 73.16 74.26 75.03 75.57 76.01 76.23 76.59 75.88 77.11 77.06 77.91 78.87 78.69 78.57 78.87 79.29 78.70 78.87
49.72 46.40 50.38 49.73 52.68 53.02 51.83 52.27 52.22 52.39 52.11 52.95 53.47 53.46 58.36 60.52 62.01 61.78 63.19 63.56 64.20 65.81 66.45 68.34 69.06 73.22 74.52 76.20 75.36 75.61 75.86 76.68 76.89 76.52 76.38 77.30 77.55 77.91 78.48 78.40 78.37 78.77 78.97 78.73
45.46 46.01 46.36 45.09 51.04 51.60 48.99 52.54 52.72 53.05 54.04 53.40 52.05 56.44 59.27 59.36 60.03 61.08 61.69 62.60 62.43 61.92 64.62 67.01 69.08 71.86 73.89 74.06 77.54 76.50 76.13 76.60 77.04 76.57 77.53 77.49 77.66 77.74 78.09 78.40 78.44 77.99 78.39 78.86
43.34 44.21 45.78 44.17 48.29 41.75 52.34 56.58 55.62 54.29 54.75 55.57 56.37 58.19 60.41 61.03 62.38 62.79 62.91 62.46 64.21 63.92 65.05 69.08 65.16 68.53 71.67 69.15 69.44 74.35 77.42 77.13 76.54 77.96 76.95 78.21 78.37 77.68 78.40 78.39 78.12 78.38 78.32 78.41
46.27 44.03 42.48 42.69 44.21 49.23 51.76 54.25 54.04 53.02 53.41 56.61 57.07 58.05 58.58 60.07 60.72 61.51 62.54 62.80 62.72 64.83 66.96 66.78 67.52 68.12 74.55 73.13 74.71 73.89 74.55 76.81 77.07 76.20 77.93 77.22 78.62 77.89 78.11 78.10 77.93 78.32 78.39 78.27
45.47 46.67 42.71 43.68 41.36 41.31 51.03 55.00 56.94 56.66 49.76 58.14 57.53 57.20 57.63 58.44 54.29 60.62 66.33 66.63 66.86 67.97 69.58 70.64 70.98 70.89 71.25 73.65 72.66 74.89 73.96 75.30 75.63 76.19 76.38 78.48 77.27 78.15 77.99 78.20 78.34 78.76 78.83 78.57
40.18 41.04 39.66 41.06 40.99 46.88 52.73 53.94 56.52 48.42 50.07 58.55 59.99 60.28 58.84 58.80 61.93 64.40 65.50 65.68 67.12 68.33 69.62 71.22 71.90 71.68 72.58 73.37 74.03 74.48 75.33 72.50 75.70 77.21 77.52 77.67 78.70 77.64 78.53 78.81 79.19 78.97 78.63 78.60
40.11 38.21 38.20 41.18 40.09 39.36 52.16 52.33 49.39 54.72 56.22 56.01 57.05 57.69 58.87 60.74 61.62 61.96 62.58 64.36 65.57 66.74 68.11 71.05 71.38 72.50 73.44 73.54 74.21 75.87 75.27 79.38 80.55 77.88 78.12 78.19 79.03 78.19 78.26 78.93 79.39 79.29 78.82 78.19
38.22 42.35 40.84 42.84 43.24 53.20 53.23 52.30 53.99 54.41 54.37 54.81 54.97 55.38 56.82 57.49 57.53 57.94 60.37 63.13 64.22 66.43 67.69 70.30 72.44 72.25 73.50 73.80 77.35 76.75 77.18 81.00 80.96 81.18 80.32 78.53 79.26 79.15 78.39 78.72 78.53 78.37 78.75 77.83
43.34 46.73 42.57 43.45 46.57 48.71 50.30 52.25 52.89 53.31 52.80 53.75 54.20 54.19 54.57 54.94 55.79 55.99 58.96 61.52 63.40 65.77 67.24 68.86 71.78 74.39 75.99 80.42 77.36 79.22 79.58 79.91 80.93 79.60 81.04 79.77 79.06 78.43 78.67 78.67 78.41 77.86 77.64 77.51
42.62 44.17 42.76 42.81 46.51 48.62 49.59 50.71 51.66 52.41 53.10 53.09 53.93 54.04 54.06 54.54 54.80 55.77 59.11 62.13 63.49 66.38 67.45 69.84 72.21 75.85 76.81 77.97 78.83 78.98 80.11 79.89 79.26 80.02 79.40 79.27 78.44 77.97 78.50 77.95 77.20 77.74 78.37 74.86
43.69 40.80 38.89 39.49 46.31 46.46 47.91 51.14 52.76 52.28 52.16 53.50 53.63 53.98 55.02 55.43 56.37 58.06 58.77 61.57 64.45 66.24 67.67 70.45 74.51 74.71 75.49 75.33 76.49 77.30 78.39 79.83 79.73 78.20 77.45 76.96 76.73 77.55 77.31 77.53 76.61 51.00 53.57 50.61

GFSCGP_sfc_wetblb_045.txt.gz
Wetbulb
53.25 48.61 46.47 47.89 50.64 52.40 55.08 54.22 53.67 56.25 60.53 57.84 56.70 55.46 61.19 62.28 64.36 63.93 64.45 65.52 65.87 66.33 67.86 70.09 70.75 70.48 69.65 70.68 70.92 70.38 71.17 71.80 71.34 72.87 71.51 71.11 69.50 70.35 71.10 71.58 74.69 74.85 74.90 75.29
50.81 47.48 51.55 53.36 52.76 51.89 53.98 53.20 53.93 55.91 58.04 57.55 55.50 54.89 58.06 62.22 63.33 63.69 64.52 63.33 65.86 66.51 67.20 68.31 68.32 69.21 69.50 70.53 70.52 70.94 71.62 72.37 71.82 72.56 71.71 71.01 71.24 70.75 71.22 71.42 73.76 75.41 75.36 75.30
49.03 51.48 55.50 53.96 51.82 50.68 51.79 51.86 52.84 52.74 55.31 56.59 55.92 53.73 55.96 61.91 63.26 62.23 64.24 65.22 66.84 66.63 66.66 67.16 67.64 68.27 69.58 70.36 70.44 71.05 71.42 73.34 72.52 72.77 72.67 71.93 71.66 71.39 70.70 70.45 70.10 74.10 74.63 74.73
50.95 55.09 54.19 52.99 51.47 52.24 48.55 54.93 55.59 54.92 52.68 47.60 55.45 45.47 51.88 56.87 60.32 62.00 64.31 65.64 65.83 66.58 67.56 67.74 67.80 67.99 68.90 70.42 71.79 71.38 72.23 73.89 73.23 73.31 72.59 71.50 70.75 69.21 69.91 69.76 70.44 72.91 74.74 75.27
49.57 52.74 52.54 51.27 52.24 54.06 51.46 55.14 54.55 54.55 52.18 50.86 52.68 49.04 52.00 54.64 55.10 60.87 63.53 64.27 64.71 67.37 67.43 67.63 68.02 68.80 69.22 70.79 71.85 71.92 72.17 73.57 73.80 73.43 72.60 72.04 70.45 69.86 69.21 70.33 69.76 71.70 72.82 74.00
51.79 57.52 54.97 53.82 55.07 55.27 56.18 53.13 51.46 53.15 51.41 45.46 48.56 50.66 50.73 52.69 54.61 61.24 63.60 64.57 66.12 68.18 68.36 68.06 69.21 69.40 69.24 71.11 72.18 72.56 72.08 72.58 73.80 73.23 73.10 71.80 70.84 69.31 69.16 67.89 68.69 71.02 73.47 74.48
50.11 51.48 55.99 56.07 52.16 54.31 53.08 47.75 41.27 40.47 42.06 42.09 46.96 45.81 47.93 55.02 57.02 58.97 62.42 64.60 65.44 67.47 67.62 67.80 68.06 68.24 68.97 70.01 71.03 72.42 72.17 71.73 73.46 73.19 72.50 73.24 71.66 71.26 69.16 68.87 68.65 69.85 73.06 73.60
43.85 43.52 52.15 55.93 51.93 49.35 50.37 48.31 41.50 36.22 38.15 41.67 46.07 42.62 47.91 54.44 56.73 60.00 64.01 65.56 66.79 66.48 67.88 68.16 68.35 68.63 69.00 69.58 70.91 72.09 72.13 72.06 72.75 73.91 72.78 72.17 73.89 72.73 71.92 71.78 71.07 70.17 72.26 73.53
42.87 43.63 55.20 55.87 54.04 51.61 48.01 45.03 46.80 39.02 41.65 38.37 41.70 45.35 50.43 53.76 54.60 55.36 58.35 64.93 65.10 65.63 67.91 68.38 68.78 68.93 68.89 69.71 71.02 71.53 72.38 72.22 73.07 73.51 73.96 73.05 72.75 74.68 72.16 71.07 72.09 69.79 71.33 73.25
46.76 40.84 51.88 54.62 56.13 52.87 48.79 49.21 42.30 42.87 34.62 35.38 41.49 43.41 45.57 49.12 51.38 54.12 55.05 60.68 64.06 66.61 68.36 68.92 68.96 69.22 69.61 70.11 71.42 72.02 72.91 72.85 73.21 73.71 74.34 74.44 73.28 72.75 74.56 71.82 71.10 73.07 72.02 71.93
44.26 44.10 44.43 50.35 50.27 49.24 46.87 45.57 45.89 42.69 40.88 36.20 36.69 42.54 50.01 51.23 52.96 53.51 55.60 57.10 62.11 65.69 68.03 69.35 69.66 70.15 69.99 70.38 71.04 71.60 72.28 73.44 73.83 74.43 74.18 74.87 74.65 73.93 73.80 73.94 71.85 73.48 73.28 74.33
44.19 42.25 41.40 43.99 50.91 54.05 50.88 47.37 46.04 42.28 38.38 40.80 39.44 43.13 53.45 53.39 55.04 55.37 56.40 57.35 61.19 65.22 67.83 69.77 70.06 70.47 70.04 69.78 70.38 71.00 71.99 73.49 74.35 74.93 74.77 74.58 75.32 75.27 73.68 73.85 74.14 72.26 74.48 74.19
43.61 39.23 38.29 42.02 46.06 49.86 49.16 48.85 48.32 45.13 43.81 40.13 39.84 42.43 54.05 54.56 55.10 56.17 57.20 57.82 59.26 63.89 66.66 69.21 70.13 70.01 70.07 69.92 69.99 70.63 71.41 72.94 74.14 74.83 74.97 74.90 74.86 75.19 74.75 74.40 73.95 74.71 73.35 75.49
47.32 40.70 38.95 39.26 43.22 46.54 46.61 49.03 48.59 46.58 43.09 42.48 44.96 43.67 51.20 53.38 54.15 55.71 56.90 59.08 58.98 63.26 65.94 68.28 69.57 70.06 70.65 70.49 70.32 70.45 71.25 72.47 74.28 74.69 75.10 74.96 75.22 75.30 75.67 75.75 75.34 73.79 75.23 74.54
41.16 36.49 42.83 46.29 48.78 49.67 49.62 49.01 49.04 46.47 46.33 44.94 45.85 46.78 50.48 52.52 55.31 56.85 58.09 59.37 61.12 61.07 65.40 67.18 68.89 69.69 70.57 70.69 70.58 71.01 71.47 72.39 73.15 74.46 75.03 75.27 75.88 75.91 75.94 75.83 76.17 76.08 74.69 75.49
39.67 36.92 42.43 43.89 49.41 49.99 49.48 51.08 50.27 49.41 48.88 48.16 48.32 47.11 53.86 55.67 57.54 57.74 57.99 58.98 59.24 60.94 63.60 63.85 66.31 68.83 70.24 71.17 71.14 71.39 71.58 71.99 72.95 73.52 74.39 75.54 75.75 76.16 75.87 76.02 75.96 76.26 76.12 75.14
36.31 38.26 37.63 37.71 47.18 48.82 44.42 49.80 50.12 49.84 50.96 49.63 46.44 49.22 54.43 54.23 56.78 56.25 56.67 57.63 57.20 57.67 59.00 61.60 63.12 65.09 69.30 71.42 72.34 72.14 72.47 73.01 72.69 72.62 73.29 74.80 75.56 75.56 75.87 76.31 76.22 76.05 76.17 76.57
36.71 37.35 37.63 37.54 43.79 36.20 47.13 53.87 54.07 51.35 51.76 51.66 50.95 55.22 55.18 55.80 57.68 58.10 57.94 57.17 58.30 60.30 60.70 60.26 63.24 62.83 63.10 67.63 72.69 73.02 73.28 72.99 73.01 72.75 72.94 73.47 74.83 75.01 75.54 75.74 75.71 75.97 76.23 76.24
41.52 38.22 34.66 35.30 40.11 43.81 49.03 50.01 49.90 49.60 50.03 54.79 55.27 56.24 57.79 59.37 60.42 59.98 62.89 63.42 63.15 63.40 64.49 65.06 65.94 66.10 66.18 66.00 64.92 70.60 73.09 73.14 73.01 73.25 73.48 73.97 74.57 74.59 74.97 74.97 75.59 76.05 75.97 75.79
41.56 41.97 38.20 38.85 37.50 38.22 44.22 50.08 51.44 52.96 44.23 52.98 54.86 57.42 57.07 59.13 53.86 56.06 61.45 62.85 62.78 64.35 65.37 66.41 66.24 66.63 66.18 66.29 67.27 68.42 70.64 72.68 72.21 72.84 74.12 74.98 75.17 75.25 74.92 75.45 75.67 76.26 76.29 76.06
36.96 37.97 35.49 37.18 36.50 41.77 45.27 49.34 53.65 44.11 44.66 51.57 51.81 53.69 54.29 52.29 54.55 56.36 60.15 61.13 63.06 63.52 63.95 65.42 66.95 67.64 66.98 67.62 66.78 67.24 66.27 67.90 71.95 73.23 73.39 74.88 75.16 75.38 75.89 75.70 76.31 76.20 76.23 76.19
36.32 35.61 35.14 36.21 36.60 34.50 47.96 48.15 42.95 48.88 51.56 51.59 50.78 51.33 51.86 52.53 53.14 53.88 56.18 58.77 60.05 61.78 63.44 64.63 64.54 66.05 68.26 68.26 66.55 64.11 67.33 67.86 72.09 72.47 72.81 72.82 74.59 74.79 75.66 75.40 76.03 76.36 76.08 75.73
33.76 37.39 33.83 37.51 37.03 45.91 48.44 47.46 49.97 50.45 49.09 48.95 49.35 50.06 50.78 51.39 51.83 52.66 52.64 57.09 58.82 59.99 62.75 64.09 64.11 66.58 67.83 70.12 67.74 65.78 67.93 72.26 71.82 72.32 73.12 73.49 74.07 75.32 73.41 75.56 75.03 75.99 76.02 75.89
39.16 42.35 36.27 37.57 41.27 43.29 46.85 47.36 48.14 48.06 48.68 49.55 49.66 50.01 50.59 49.60 51.37 51.33 52.13 56.52 57.51 60.30 61.17 63.38 64.73 66.63 70.14 73.64 73.03 72.73 73.72 73.20 72.44 73.42 72.40 74.49 74.73 74.95 74.34 75.49 76.08 76.19 76.19 75.72
38.58 40.06 36.28 36.69 40.40 41.62 45.63 45.18 46.41 47.16 48.26 49.91 51.26 51.16 50.15 50.41 50.91 51.87 52.47 54.39 55.00 56.01 61.40 62.14 64.47 65.53 70.15 71.32 73.77 73.64 74.30 73.97 73.93 73.90 75.41 75.20 74.93 74.75 75.05 70.95 65.11 74.34 75.75 73.36
39.40 36.68 34.68 33.77 39.04 38.85 40.09 43.77 45.63 44.77 45.70 47.74 49.36 50.12 52.45 52.14 50.21 52.46 51.99 52.81 53.21 53.73 53.93 60.82 62.75 65.11 70.28 69.87 70.62 71.33 72.32 72.82 73.15 74.20 74.62 74.53 73.87 74.34 74.89 69.81 61.48 49.58 49.98 49.27

GFSCGP_sfc_wetblb_048.txt.gz
Wetbulb
47.95 43.57 41.79 44.67 46.43 47.12 49.61 49.78 50.26 54.10 58.76 59.29 57.94 58.05 59.87 64.15 63.95 63.82 64.09 64.55 64.87 65.41 67.52 68.55 69.24 69.62 69.52 69.35 69.45 69.37 69.29 70.48 71.01 70.50 69.29 68.10 67.53 68.23 69.45 70.40 72.63 73.14 73.44 74.32
45.45 43.22 47.13 50.09 48.57 47.48 48.25 47.41 49.82 54.41 57.26 56.98 57.67 56.91 59.97 63.27 63.32 64.01 64.34 64.63 65.31 66.03 66.56 68.18 68.69 69.07 69.07 68.85 69.37 69.42 69.56 69.62 71.20 71.09 70.82 69.24 68.27 68.57 69.39 70.06 73.12 73.65 73.73 74.31
45.43 48.31 51.81 50.46 49.00 47.19 47.06 46.30 47.59 50.83 54.59 55.98 55.86 54.00 57.62 61.29 63.80 64.68 65.35 66.04 66.45 65.88 66.17 67.16 68.25 68.68 69.53 68.26 69.11 69.42 69.82 69.73 70.59 71.49 70.27 70.08 70.20 69.13 68.94 68.93 70.39 73.23 73.98 74.50
47.50 51.47 50.86 49.70 48.40 48.81 43.73 50.52 50.51 51.55 50.32 45.77 54.74 46.82 52.98 58.28 60.08 62.62 63.65 64.63 65.33 66.24 66.82 67.67 68.19 68.55 68.74 68.37 69.61 70.15 70.65 70.39 70.31 71.59 70.36 70.05 69.72 69.20 68.58 68.43 68.67 72.43 73.81 73.95
45.28 48.81 49.06 48.27 49.35 51.49 47.59 51.34 50.45 51.33 48.63 45.62 50.27 47.49 51.80 57.69 57.87 59.31 61.31 61.81 63.05 66.31 66.82 66.38 68.08 68.65 68.78 69.35 69.63 69.95 71.28 70.74 70.81 71.60 70.95 69.96 69.09 69.30 68.50 68.88 68.49 69.99 72.99 73.29
47.65 52.34 51.55 51.28 53.40 53.53 53.42 50.90 50.23 48.60 46.07 42.82 47.71 48.32 48.41 54.82 58.07 59.41 61.08 61.96 63.29 65.87 66.92 67.44 68.02 67.98 68.43 69.73 69.65 70.17 70.90 70.90 71.33 71.62 71.13 70.38 69.38 68.45 68.43 67.59 67.54 68.23 70.69 72.06
46.22 47.15 51.76 54.18 50.40 52.59 51.41 45.27 40.49 37.14 38.72 38.90 46.89 43.95 49.08 57.56 60.98 60.72 61.10 62.57 64.41 66.27 66.76 66.98 66.85 67.12 67.70 69.04 69.46 69.59 70.10 70.84 71.62 71.57 71.52 71.13 70.70 69.66 68.95 67.85 67.51 67.38 70.59 70.86
39.57 38.52 47.43 52.30 50.62 49.28 48.57 46.33 38.46 33.87 34.89 39.35 44.21 42.01 48.25 53.51 57.39 63.56 63.73 64.73 66.14 64.26 66.03 66.94 67.30 67.48 67.52 68.91 69.91 69.81 69.59 70.25 71.69 71.77 71.27 71.55 70.84 71.16 70.33 69.31 67.92 68.17 70.23 71.95
32.74 40.38 50.46 52.06 53.25 52.58 47.69 45.11 46.74 38.00 36.20 37.13 40.69 43.75 49.25 51.53 51.65 61.81 63.32 65.18 64.76 64.90 65.65 67.04 67.62 67.95 68.16 68.61 69.84 70.23 69.78 69.96 71.54 71.83 71.88 72.00 72.00 71.43 71.34 69.63 69.29 67.56 69.63 72.77
37.97 32.48 46.33 50.99 52.18 52.96 49.53 49.21 40.61 36.94 34.79 30.76 37.29 39.53 44.37 47.39 48.98 51.09 62.05 63.74 65.13 65.44 66.82 66.60 67.42 68.06 68.56 68.92 69.95 71.00 70.80 70.12 70.76 72.19 72.10 71.55 71.74 73.38 72.27 70.63 69.45 71.91 68.90 71.51
38.76 34.96 40.35 46.25 44.79 47.83 44.91 45.98 43.79 43.34 37.26 36.67 32.62 40.39 46.08 47.81 49.57 50.01 56.26 63.93 64.69 65.57 66.91 66.33 67.80 68.51 68.80 69.28 69.98 70.59 70.96 70.63 70.93 71.49 72.63 72.35 71.57 71.24 73.59 71.68 70.03 70.39 71.36 69.93
40.25 37.47 33.67 40.45 47.66 48.49 52.44 43.73 43.47 40.73 35.63 36.16 36.43 41.18 50.00 50.31 51.24 51.58 52.85 63.02 65.11 66.16 66.56 66.72 68.17 68.34 68.38 68.63 69.54 69.92 71.15 70.93 71.39 72.17 72.29 72.74 72.82 72.31 70.98 73.21 72.20 71.14 70.83 71.83
40.12 37.63 31.25 36.51 39.52 44.27 42.89 48.68 43.89 41.21 39.47 36.89 39.07 41.76 48.77 49.74 51.15 53.28 53.67 54.73 64.20 65.66 66.06 66.84 68.03 67.83 68.16 68.20 69.29 70.09 70.80 71.58 71.80 72.24 72.31 72.63 73.15 73.14 72.44 71.50 73.17 72.81 71.27 71.49
43.47 37.85 33.97 30.63 35.79 40.96 41.17 45.59 45.72 44.37 40.00 39.57 40.88 42.34 46.59 49.62 50.45 54.14 52.62 54.65 59.18 64.98 65.56 67.24 67.74 67.86 68.31 68.45 68.77 69.88 70.60 72.29 72.41 72.77 72.69 72.26 72.93 73.71 73.83 73.38 72.31 73.07 73.16 70.82
38.96 32.80 33.71 35.98 39.11 41.73 42.55 46.56 46.91 43.38 43.69 41.84 43.49 43.37 46.51 47.82 51.27 52.61 53.49 55.31 60.24 64.49 66.40 67.59 67.76 68.09 68.44 68.34 68.66 69.79 70.75 71.49 73.07 72.97 72.92 73.10 73.36 73.96 74.50 74.31 73.58 73.16 72.86 73.66
37.98 31.36 32.76 31.95 41.83 44.19 43.95 49.04 48.80 46.70 46.58 44.96 44.44 44.30 48.35 51.82 54.58 55.26 56.70 57.88 59.94 63.45 66.61 67.95 68.40 68.59 68.69 68.76 68.67 69.33 69.95 71.02 72.41 72.68 72.96 73.52 73.88 73.94 73.91 74.53 74.48 73.93 73.51 72.50
34.64 31.42 29.34 30.40 42.47 45.54 41.86 43.93 48.00 47.34 46.98 46.17 43.70 46.09 51.28 52.99 55.76 56.93 53.43 55.93 57.58 59.95 65.55 67.85 68.43 68.84 69.34 69.39 69.50 68.88 69.65 70.76 71.43 72.43 72.90 73.56 73.74 74.15 74.33 74.49 74.55 74.41 74.31 74.01
34.42 31.98 30.21 31.11 38.17 34.88 43.40 47.18 47.52 47.84 48.12 48.74 50.95 52.60 54.50 57.80 58.76 59.38 60.85 61.25 61.60 62.34 62.55 62.46 62.59 64.47 68.25 70.16 70.34 70.16 70.13 70.15 70.47 70.81 72.76 73.43 74.05 74.13 74.75 74.52 74.27 74.45 74.98 74.96
38.72 35.86 28.03 32.00 36.38 42.19 43.33 44.35 43.88 41.91 43.71 47.80 48.95 54.88 58.36 58.83 58.48 57.32 59.88 61.36 61.27 62.50 63.21 63.20 63.91 63.87 64.56 66.02 69.50 70.58 70.25 70.21 70.10 70.29 70.70 73.01 73.71 74.38 74.51 74.30 74.55 74.95 75.10 75.00
38.57 38.80 32.55 32.88 34.86 34.52 39.76 45.79 49.01 49.65 38.41 47.68 48.58 48.97 52.49 55.65 49.48 51.65 56.66 60.32 60.77 62.28 63.16 63.95 65.59 66.66 64.97 64.25 65.72 68.82 70.38 70.62 70.27 70.62 71.02 71.80 72.81 73.99 74.18 74.53 74.64 75.47 75.40 75.24
32.88 34.86 33.69 34.74 36.78 39.44 42.14 45.79 50.27 38.72 40.80 47.57 48.18 48.78 48.19 46.33 48.04 50.78 56.70 57.60 60.46 61.32 62.60 63.28 64.17 64.99 65.84 66.33 63.35 64.74 67.54 69.59 71.58 71.84 72.18 72.54 72.48 72.73 74.14 74.34 74.86 74.81 74.92 75.10
34.00 33.32 31.72 33.34 34.79 33.05 44.32 44.65 38.73 41.42 45.90 46.80 47.40 47.93 47.32 48.10 50.32 51.20 55.14 55.73 58.14 59.60 61.63 63.76 64.69 65.72 67.21 68.29 64.69 62.99 63.78 65.47 68.93 71.57 71.67 72.52 73.48 73.47 74.06 73.68 74.08 74.40 74.43 74.33
31.74 35.26 34.02 34.23 35.61 43.57 44.93 45.53 47.49 46.12 44.37 44.15 45.47 47.72 47.95 48.00 49.15 50.92 52.34 52.94 53.50 57.37 58.70 62.24 63.34 65.81 68.83 72.58 67.54 69.17 70.37 70.66 71.68 68.55 70.00 70.80 72.39 72.99 73.56 73.66 73.45 73.68 74.27 74.21
37.19 39.53 34.51 32.95 37.37 39.12 41.59 44.97 44.88 44.77 44.14 44.63 45.99 46.90 48.85 47.34 49.61 49.94 51.00 51.30 51.82 52.79 53.16 58.83 61.83 62.97 65.50 70.23 71.53 71.66 71.92 72.25 72.28 69.92 69.74 70.92 71.09 70.97 71.93 74.06 74.23 74.33 74.38 74.28
37.14 37.85 35.94 34.83 36.40 39.77 42.76 43.81 43.97 44.80 45.92 45.67 46.29 46.30 48.24 48.66 48.38 49.60 49.37 49.86 50.53 51.22 52.68 55.94 59.55 61.44 63.21 68.39 69.08 70.05 70.28 71.37 71.04 71.76 72.37 72.01 72.28 70.60 71.44 63.13 63.51 71.93 72.18 71.44
39.14 36.39 34.44 33.83 39.09 39.20 39.55 42.55 45.10 44.83 44.82 45.80 45.31 45.30 47.00 49.04 48.34 50.05 49.01 49.39 50.14 50.90 51.99 53.79 57.57 61.43 63.02 65.08 68.08 68.90 69.34 70.35 69.76 69.36 70.57 72.46 73.07 71.85 68.89 61.97 58.17 49.14 47.89 46.35

GFSCGP_sfc_wetblb_051.txt.gz
Wetbulb
45.42 40.22 39.64 42.38 45.55 45.37 46.94 48.35 48.86 52.15 56.28 58.45 57.25 57.05 61.84 63.15 63.12 62.93 62.80 63.27 63.89 64.90 66.70 67.52 68.30 68.81 68.47 67.62 66.52 67.83 68.16 68.76 69.65 68.97 68.20 67.20 67.18 67.81 69.08 70.32 71.91 72.08 73.04 71.82
42.19 39.91 44.55 46.19 46.38 45.70 44.90 42.99 45.10 50.79 54.65 57.62 57.47 56.83 61.52 62.74 62.49 63.16 62.98 63.10 64.14 64.93 65.54 66.46 67.68 68.28 67.87 67.23 66.87 67.64 68.02 68.72 69.94 69.84 70.19 67.66 67.17 67.50 68.37 69.57 71.32 72.14 72.53 73.26
41.93 44.16 47.68 47.01 45.37 44.29 43.80 42.64 44.06 46.61 52.57 55.98 54.28 54.93 57.48 62.38 63.55 64.23 64.30 64.68 64.86 65.04 64.69 65.67 66.72 67.61 68.03 67.38 67.40 67.53 68.02 68.69 70.30 70.18 68.95 68.92 68.39 67.75 67.55 67.98 69.68 71.73 72.66 73.63
44.83 48.78 47.45 45.38 45.17 45.76 39.45 47.04 47.71 47.86 46.99 45.95 52.74 43.30 54.73 59.10 60.47 62.18 63.17 63.88 64.60 65.39 66.01 66.19 66.53 67.04 67.62 67.72 68.75 68.56 68.45 68.48 70.08 70.05 69.45 68.29 67.17 66.42 66.20 67.19 68.17 71.55 72.84 73.39
43.71 46.50 46.23 45.06 46.28 48.30 45.09 48.09 47.30 47.41 44.50 44.92 48.73 43.57 49.54 58.02 57.90 60.16 62.20 63.78 64.90 65.96 66.24 66.19 66.70 67.68 68.39 68.64 68.66 69.04 68.82 68.55 69.31 70.03 69.70 68.94 66.72 66.85 67.87 67.51 67.69 69.70 71.95 72.86
44.78 49.07 49.11 48.39 50.47 50.22 50.60 47.36 45.93 44.99 43.27 41.04 45.54 44.67 43.88 53.78 56.26 60.12 62.69 64.05 65.04 65.89 66.72 67.23 67.93 68.58 68.39 69.01 68.87 69.07 68.52 68.57 68.98 69.85 69.68 68.80 68.25 67.19 66.97 67.31 66.84 67.34 70.63 72.19
42.54 45.58 48.41 50.12 47.20 49.55 48.71 42.67 35.85 35.02 35.64 38.35 44.42 43.22 47.90 55.37 58.66 60.17 61.67 63.67 64.98 65.54 66.42 66.39 66.88 67.44 68.19 68.17 68.08 68.36 68.62 68.44 69.13 69.25 69.68 69.23 68.65 68.02 68.34 67.06 67.39 66.39 68.36 69.54
32.88 36.21 45.28 49.06 48.02 45.67 45.62 43.79 35.67 30.95 32.36 39.85 43.27 39.17 45.85 56.60 60.17 61.67 63.25 64.26 64.72 64.06 63.91 66.62 66.48 67.88 68.27 68.37 67.77 68.53 68.85 68.70 69.24 69.52 69.74 69.90 69.27 69.13 69.08 68.70 67.71 67.49 68.58 70.01
33.67 34.11 42.63 45.61 49.59 50.27 45.65 43.47 46.18 37.71 33.94 36.22 40.93 41.62 48.53 54.37 57.81 60.26 61.82 63.12 63.23 63.93 64.50 66.13 67.35 67.28 67.51 67.85 67.82 68.26 68.41 69.31 69.61 69.85 70.21 70.03 69.96 69.68 69.33 68.89 68.56 67.82 67.95 70.62
37.22 31.61 39.43 43.76 48.14 50.04 48.87 48.38 40.25 37.38 32.50 30.07 35.25 39.06 45.55 46.79 49.85 58.20 60.53 61.71 62.80 63.86 64.93 66.46 67.18 67.01 67.08 68.10 68.57 68.57 69.02 69.30 70.02 70.40 70.48 70.61 70.49 70.52 70.27 68.88 67.81 67.55 67.47 69.73
38.43 35.89 35.88 41.67 41.91 43.62 43.68 45.54 43.82 43.39 38.64 38.07 30.97 38.23 44.55 48.58 50.15 54.62 58.49 61.47 62.80 63.96 65.16 65.63 66.39 67.80 67.76 68.04 68.93 68.77 68.73 68.88 69.64 70.46 70.70 70.72 70.71 70.74 70.78 69.96 69.53 69.81 68.68 68.63
40.13 37.20 33.69 35.92 44.40 44.96 42.18 44.37 41.46 42.45 37.31 34.70 40.14 42.45 47.00 48.57 49.24 54.94 59.55 61.74 63.60 64.93 66.04 66.54 65.92 67.47 67.61 67.49 68.43 69.05 69.08 68.84 69.41 70.68 70.71 70.73 70.85 71.37 71.59 70.87 69.79 69.80 69.96 69.44
40.37 36.14 29.32 34.03 37.83 42.50 39.68 43.11 46.93 42.32 38.47 37.58 40.26 41.80 47.34 46.98 48.19 50.03 52.33 56.89 62.26 64.92 65.91 66.56 66.45 67.01 67.23 67.68 67.85 69.02 69.67 69.55 69.73 70.07 70.58 70.84 70.45 70.08 70.29 72.44 72.52 70.36 69.31 69.13
42.30 36.94 32.81 29.13 32.79 36.63 34.17 37.50 39.11 39.67 41.16 37.08 40.61 43.34 44.77 46.80 46.95 48.34 49.88 52.90 59.60 63.81 65.42 66.16 66.25 66.57 67.28 67.71 67.76 68.64 69.66 70.41 70.29 70.23 70.18 70.44 71.01 71.12 70.81 70.34 71.41 72.54 71.53 70.28
38.87 31.73 34.27 34.19 35.35 36.20 35.36 35.78 38.14 38.20 41.88 41.29 43.40 40.17 43.13 46.18 47.04 49.35 53.62 53.16 54.16 58.13 64.23 65.43 66.04 66.46 66.93 67.23 67.58 68.75 69.49 70.48 70.61 70.12 70.30 70.35 71.58 72.12 72.18 71.74 70.90 71.21 72.44 72.33
37.98 31.18 31.90 31.38 36.11 35.76 34.60 37.92 40.30 41.29 44.66 42.19 41.17 42.31 45.03 51.50 55.62 57.04 56.43 53.15 52.81 58.58 63.97 65.32 65.97 66.93 66.77 67.19 67.54 68.37 69.27 69.88 70.89 70.40 70.17 70.97 71.18 71.96 72.30 72.45 72.38 71.43 70.92 72.24
34.68 32.40 30.82 26.35 34.93 38.31 35.77 41.22 43.21 44.33 43.41 43.73 40.90 43.67 51.70 54.19 55.67 55.84 57.22 56.98 55.70 61.03 63.96 64.97 65.82 66.99 67.44 67.71 68.14 67.76 69.05 70.19 70.84 70.80 71.11 71.28 71.68 71.46 72.15 72.99 72.98 72.58 71.79 71.53
34.11 34.16 33.03 26.65 31.06 33.98 40.32 45.22 45.65 42.95 43.31 44.66 46.38 50.01 55.25 55.15 55.74 56.29 57.77 58.41 60.08 60.59 62.45 65.04 66.60 67.77 68.25 68.66 68.62 68.42 69.32 69.68 70.30 71.04 71.42 72.14 72.33 72.25 72.43 72.52 72.96 73.19 73.33 72.46
37.59 35.22 31.74 26.46 31.24 39.82 42.11 42.36 40.62 39.98 39.19 44.43 44.47 47.23 53.20 56.23 56.65 54.82 56.44 59.16 60.07 61.34 63.01 62.80 64.15 65.89 66.84 68.35 68.55 68.16 68.23 68.77 69.68 70.17 71.24 71.99 72.69 72.26 72.72 72.67 72.74 73.36 73.59 73.58
37.37 36.68 33.22 31.60 30.65 34.86 39.41 42.93 45.74 45.91 35.75 43.25 44.27 44.70 47.63 52.97 48.10 49.40 53.78 57.61 58.68 62.07 63.38 63.71 65.48 64.01 65.69 65.87 68.77 67.95 67.68 67.88 68.07 69.50 71.18 72.21 72.78 72.96 72.75 73.49 73.57 73.69 74.02 73.74
32.73 33.29 29.90 31.75 31.68 38.24 42.82 43.53 46.36 34.76 35.12 43.18 43.92 44.04 44.44 45.04 45.48 48.73 52.84 52.40 56.44 58.66 61.66 64.91 68.13 66.61 65.71 62.76 68.71 68.10 68.22 67.92 68.88 69.18 69.77 70.71 73.02 73.11 73.77 73.88 74.13 74.22 73.84 74.24
32.88 32.02 32.49 34.13 34.81 33.81 43.81 44.36 37.68 39.31 42.87 42.59 42.41 42.99 43.80 45.62 48.94 50.29 50.75 50.60 51.98 52.79 58.89 61.84 66.32 68.70 68.47 63.38 65.47 64.22 66.03 65.74 69.61 69.85 69.39 69.38 70.44 72.20 73.54 73.51 73.81 73.99 73.82 73.58
31.71 34.07 32.55 33.51 35.14 42.73 42.75 44.49 43.12 44.22 42.84 42.80 42.35 43.48 43.78 46.14 46.77 48.93 48.44 48.90 50.18 51.87 54.07 59.71 61.54 66.12 68.74 70.73 70.93 70.67 69.99 70.23 68.63 68.73 69.37 70.44 71.27 71.71 71.93 72.60 72.68 72.85 73.15 72.95
36.76 39.33 34.53 34.03 37.56 38.49 41.51 43.60 44.54 44.36 43.77 45.46 45.29 44.52 44.64 44.45 47.44 47.78 47.65 48.08 49.04 50.52 53.01 56.88 59.69 60.68 63.32 68.03 69.08 69.51 70.33 70.84 71.31 71.14 69.96 69.41 69.75 70.52 71.32 72.10 72.40 72.32 72.40 72.58
37.03 38.30 34.94 35.70 38.38 40.28 42.81 43.84 44.26 44.59 45.93 46.77 47.54 46.39 45.83 45.69 46.87 47.23 46.98 47.06 48.55 49.45 53.54 55.36 58.12 59.05 60.25 64.52 67.33 67.96 69.01 69.14 68.83 69.44 69.98 70.61 70.93 68.72 69.58 64.79 64.09 71.03 72.15 69.65
38.18 35.37 33.39 34.08 41.25 41.12 40.75 44.23 45.48 44.37 45.03 46.47 47.16 46.60 47.44 47.54 47.13 48.49 47.52 47.29 48.55 48.46 53.44 57.04 58.40 58.35 58.59 60.08 65.14 67.08 67.38 67.80 66.90 66.55 67.62 67.08 68.43 70.62 68.75 62.50 57.68 48.65 47.07 45.39

GFSCGP_sfc_wetblb_054.txt.gz
Wetbulb
43.54 38.92 38.59 41.28 44.41 44.60 45.06 45.74 46.86 50.45 54.45 56.42 55.66 56.25 61.11 62.01 61.52 60.80 60.19 59.76 60.01 60.57 64.27 67.42 68.26 68.97 69.02 68.49 67.45 67.78 67.92 68.19 68.69 68.54 67.97 68.46 68.38 69.62 70.63 71.42 72.77 73.06 73.47 73.65
39.91 37.99 42.66 43.68 43.12 44.09 43.89 41.43 43.49 48.97 53.27 56.00 54.87 55.43 61.16 61.78 61.28 61.70 61.69 62.09 62.42 63.32 63.98 66.12 67.27 68.08 68.40 67.46 66.57 67.30 67.88 67.98 69.36 69.40 69.32 69.31 68.60 69.06 70.41 70.91 72.46 73.18 73.78 73.49
38.49 41.54 45.84 44.19 42.55 41.30 41.88 40.09 41.35 45.19 49.56 53.61 53.65 52.29 57.30 61.80 62.69 63.05 63.28 63.90 64.30 64.38 64.24 65.09 66.31 67.27 67.95 67.73 66.39 66.89 67.72 67.99 69.45 69.53 69.28 68.75 68.78 68.78 69.01 69.88 71.26 72.31 73.39 74.28
42.64 46.43 44.70 43.07 42.05 42.66 36.74 45.77 46.68 44.96 44.33 41.18 52.12 41.64 50.93 59.15 60.00 61.51 62.37 63.21 63.50 64.32 65.46 65.69 66.00 66.80 67.20 67.49 67.80 67.18 67.79 67.94 69.34 69.70 69.29 68.89 67.96 67.15 67.42 68.71 69.94 72.23 73.16 73.66
42.38 44.23 44.04 41.60 42.76 44.85 41.36 45.88 44.84 44.97 42.89 40.81 44.64 42.96 45.70 56.66 57.65 59.67 61.87 63.01 63.73 64.73 65.55 65.63 65.91 66.88 68.05 68.19 67.80 67.69 67.60 67.64 68.91 69.62 69.71 69.18 68.42 67.48 67.78 68.50 69.12 71.07 72.73 73.35
42.72 47.13 46.66 46.61 47.45 46.58 47.95 44.66 43.41 42.41 40.42 37.24 42.51 44.62 43.19 51.62 56.57 59.75 62.32 63.50 64.26 64.84 65.66 66.61 66.92 67.52 67.70 68.79 68.43 68.18 67.33 67.40 68.39 69.62 69.59 69.10 68.49 67.24 67.56 67.47 67.66 68.66 71.50 72.53
41.02 42.89 45.88 47.47 43.62 46.32 46.11 40.46 32.54 31.51 33.27 36.29 43.14 41.73 45.38 50.74 57.97 60.57 61.63 63.32 64.75 65.53 65.57 66.10 66.15 66.40 67.20 67.60 67.56 68.29 67.72 67.00 67.91 69.10 69.43 69.23 69.04 68.10 67.91 68.06 67.44 67.53 69.00 71.33
32.40 34.55 42.86 46.32 44.31 42.24 43.65 40.93 32.84 27.77 30.57 37.80 41.44 38.37 44.76 53.11 56.99 62.11 62.93 64.23 65.09 65.65 65.88 66.28 66.65 66.74 67.28 67.71 67.73 68.18 67.74 67.60 67.91 68.25 69.13 69.55 69.56 68.88 68.96 68.68 68.65 68.45 68.78 70.44
31.36 33.61 42.71 44.48 45.81 45.26 42.16 40.08 43.64 35.76 34.04 33.84 41.74 41.90 49.10 51.74 54.06 57.51 59.89 61.81 63.54 65.06 65.83 66.61 67.39 67.49 67.60 67.97 67.82 67.72 68.00 68.05 68.32 68.32 68.88 69.24 69.49 69.19 69.11 69.11 69.29 69.20 69.53 70.67
35.38 30.20 38.67 42.86 45.52 46.07 43.36 46.72 38.61 36.12 31.32 27.93 35.44 38.05 44.08 48.10 51.09 54.94 57.28 59.34 62.34 64.92 65.60 66.40 67.27 67.83 68.19 68.77 68.78 68.27 68.50 68.26 68.66 68.92 69.26 69.41 69.59 69.78 69.83 69.66 69.20 68.85 69.02 70.86
33.84 33.51 34.97 39.99 39.65 40.44 41.16 41.46 40.98 41.86 37.94 33.88 31.61 38.50 45.66 49.57 52.60 53.59 56.85 59.99 62.01 63.86 64.88 65.07 65.86 67.81 68.28 68.96 69.06 68.04 68.27 68.33 68.71 69.18 69.46 69.68 69.86 70.13 70.25 69.64 69.60 69.59 69.14 69.54
37.11 36.46 31.43 33.95 41.73 43.57 41.06 38.58 40.04 39.85 36.21 37.42 35.96 40.04 48.14 50.21 51.48 53.80 54.53 59.75 62.37 63.84 64.59 65.44 66.02 66.80 67.06 67.91 68.55 67.91 68.37 68.45 69.28 69.58 69.78 69.85 70.37 70.50 70.13 70.19 69.98 70.22 69.53 69.44
36.32 35.45 26.23 31.66 34.52 39.99 38.01 37.38 35.49 34.90 37.81 38.95 38.69 39.42 49.17 47.94 48.24 50.29 51.98 55.94 59.57 62.70 64.20 64.77 65.70 66.23 66.97 66.46 67.38 67.82 68.26 68.62 69.62 70.01 69.79 69.94 70.10 70.25 70.15 70.32 70.68 70.79 70.77 70.54
40.80 31.49 30.92 27.43 31.03 34.75 33.49 36.68 37.38 34.09 30.36 38.33 41.76 43.44 45.62 49.24 47.45 48.39 49.63 51.15 53.99 61.46 63.20 64.08 65.28 65.49 67.03 66.95 67.03 67.97 68.23 68.88 69.31 69.68 70.01 69.76 70.00 70.47 70.82 71.33 71.45 70.59 70.66 70.71
34.73 28.57 30.35 33.12 35.27 35.63 34.66 35.07 36.14 34.13 35.65 33.51 41.16 42.15 45.11 47.47 49.11 47.88 50.77 53.17 53.23 54.11 61.96 64.01 65.12 65.16 66.21 66.95 66.88 68.11 68.75 69.05 69.23 68.88 69.67 69.74 70.49 70.79 71.01 71.37 72.22 72.57 71.19 70.81
34.08 28.67 33.32 30.73 34.57 34.94 34.02 37.66 38.51 38.88 38.80 38.44 39.85 40.33 47.03 54.63 55.73 55.51 56.38 57.76 57.98 54.53 55.68 63.59 65.68 66.46 66.15 66.91 66.87 67.98 68.82 69.29 69.67 68.80 69.02 70.28 70.77 70.91 70.76 70.67 70.56 71.41 72.54 72.47
32.84 31.39 31.63 26.13 33.11 33.33 32.56 37.54 41.37 40.77 40.29 41.70 39.03 43.03 48.34 53.19 53.59 53.21 54.48 56.85 58.23 59.74 57.95 55.78 64.15 66.12 66.49 67.19 67.71 67.55 68.73 69.99 69.61 69.40 69.70 69.91 70.45 71.01 71.25 71.70 71.42 70.66 70.45 71.85
31.26 31.29 32.94 27.94 32.80 26.58 38.40 45.39 44.38 40.71 40.98 41.45 42.30 44.84 54.27 53.92 54.32 54.17 53.78 54.28 56.61 59.65 61.19 60.34 62.99 66.59 67.31 68.06 68.25 68.61 69.14 69.51 69.64 69.49 69.74 70.47 70.68 70.68 71.64 71.93 71.84 71.98 71.74 70.99
33.79 33.39 30.96 27.06 28.98 34.59 41.45 41.33 40.02 38.60 38.37 41.95 40.79 43.04 46.29 51.96 54.93 54.40 52.13 52.61 53.98 57.16 62.27 63.27 65.13 66.72 67.21 67.67 68.09 68.30 68.59 69.10 69.74 69.69 70.03 70.65 71.21 71.06 71.49 71.65 72.32 72.87 72.82 72.57
35.35 36.24 31.43 32.07 28.58 34.13 38.82 40.95 44.88 44.19 35.18 42.80 41.60 41.16 43.47 52.04 44.15 45.90 50.75 52.23 53.81 56.10 62.00 66.47 64.94 65.86 66.28 66.82 67.92 67.57 68.04 68.64 69.25 70.27 70.82 71.80 72.15 72.09 71.87 72.04 72.27 73.24 73.56 73.56
31.68 32.60 28.41 29.27 31.22 35.26 39.50 41.61 45.76 36.66 35.50 41.81 41.79 41.48 41.77 43.18 45.48 50.00 51.19 52.20 54.88 56.72 60.17 66.97 67.15 64.58 65.14 67.47 67.83 66.94 67.69 67.93 69.66 70.88 71.94 72.32 72.96 72.58 73.13 73.34 73.59 73.37 73.46 73.75
32.00 30.13 31.64 32.95 31.86 32.44 40.74 42.11 37.62 39.64 41.89 42.27 42.43 42.61 41.93 44.16 47.11 48.71 49.42 50.87 55.01 56.40 58.42 61.83 68.17 68.83 68.05 66.58 67.82 66.80 66.82 68.28 69.15 69.81 70.97 71.87 72.54 73.25 73.43 73.26 73.64 74.19 73.73 73.42
31.93 34.52 31.27 33.12 33.40 40.18 42.05 41.19 43.21 43.19 41.90 42.38 42.77 44.39 43.86 43.51 46.06 48.07 47.63 49.67 55.11 57.38 58.44 59.86 61.05 66.50 68.51 70.28 70.20 69.26 70.35 69.11 70.07 69.12 69.42 69.95 72.06 72.89 73.44 73.37 73.63 73.44 73.91 73.49
37.25 38.82 34.55 34.65 38.23 40.45 42.22 44.08 44.81 44.67 43.24 44.66 46.07 45.42 44.96 43.74 45.48 47.07 47.94 49.00 51.13 55.17 57.43 58.96 58.25 58.20 60.41 66.88 68.68 69.50 71.26 72.46 71.20 70.16 70.33 71.21 70.48 70.57 71.98 73.20 73.65 73.51 73.43 73.17
36.86 37.72 34.02 34.67 39.49 41.49 44.08 45.89 45.59 45.67 45.99 46.62 47.12 47.16 46.07 46.88 46.07 46.85 47.29 48.47 50.05 54.04 56.27 57.30 57.07 56.86 57.70 60.23 66.41 67.93 68.64 69.00 69.40 70.41 71.24 71.93 71.84 70.58 72.04 71.15 69.18 72.72 73.54 70.36
39.98 36.07 34.05 33.99 41.21 42.35 43.00 46.31 47.57 46.00 45.87 46.73 47.17 46.66 48.11 48.78 47.82 47.98 47.21 48.34 49.59 52.42 55.45 55.84 55.82 55.73 56.38 57.87 59.97 64.35 68.00 67.91 67.52 67.41 68.24 67.91 69.65 72.19 70.12 65.53 60.99 49.02 49.16 47.33

GFSCGP_sfc_wetblb_057.txt.gz
Wetbulb
49.47 45.49 44.37 46.10 48.05 49.05 50.15 49.41 49.34 56.50 60.11 59.53 59.09 59.25 62.97 64.26 63.66 63.23 63.55 64.18 64.89 65.16 67.21 69.09 70.37 71.42 71.95 72.62 72.31 72.53 72.55 73.38 72.84 72.10 71.63 72.16 71.90 73.26 74.04 74.99 76.12 76.68 76.62 76.87
45.29 42.72 47.28 47.74 46.99 47.28 48.03 47.56 50.17 53.96 56.67 58.88 58.73 58.30 62.40 64.09 63.72 63.84 63.45 63.95 64.50 65.33 66.13 68.07 69.72 70.56 71.16 71.81 72.36 72.49 72.58 73.35 73.23 72.53 73.21 73.34 73.76 74.17 75.25 75.89 76.20 76.92 76.78 77.43
44.40 45.79 48.16 46.15 45.09 44.76 46.20 46.22 47.96 50.17 54.45 56.68 57.61 56.27 58.96 63.84 64.95 65.43 64.78 65.03 65.27 64.97 65.04 67.00 68.74 69.79 70.92 71.28 71.94 72.34 73.47 73.52 73.84 74.36 73.57 73.61 74.03 74.01 73.66 74.63 75.41 76.44 77.04 77.48
47.56 49.90 46.56 45.66 44.60 45.58 42.64 47.74 48.82 48.90 48.25 49.08 56.77 50.06 56.83 61.25 62.50 64.04 64.87 64.86 64.67 64.86 65.70 66.58 68.41 69.36 70.18 71.60 72.02 73.10 73.42 73.67 73.71 74.64 73.78 74.43 72.18 71.60 73.00 74.30 75.24 76.39 77.23 77.31
46.96 47.27 46.46 44.97 45.52 47.05 44.56 47.59 46.14 47.83 47.85 48.08 49.84 50.69 55.48 60.03 60.61 62.65 64.78 65.80 66.51 67.01 66.49 66.49 67.22 69.18 70.50 71.38 71.67 71.77 73.21 74.11 74.66 74.86 74.83 73.32 73.64 73.23 73.87 73.56 75.23 76.66 77.24 77.12
46.69 51.76 50.75 49.18 48.99 48.13 48.81 47.57 46.92 46.28 45.88 42.09 48.58 48.82 51.44 55.67 59.86 63.09 65.37 66.51 67.08 67.68 68.23 69.03 69.30 69.79 70.41 71.05 71.55 71.66 72.90 73.48 74.35 74.29 74.58 74.89 74.75 73.99 72.72 73.16 72.96 73.71 75.14 76.19
44.22 46.16 49.43 51.68 48.28 49.33 47.71 45.02 40.15 38.53 38.22 39.55 50.32 47.82 50.41 56.93 60.78 63.35 64.73 66.11 67.56 68.29 68.35 68.74 68.97 69.15 69.95 71.01 71.36 72.10 72.35 72.44 73.67 73.93 74.23 74.62 74.89 75.26 74.51 74.05 72.93 73.86 73.33 74.47
39.64 38.30 45.99 49.76 48.85 46.98 46.55 45.98 40.73 35.40 36.95 39.27 48.06 44.91 50.07 56.65 58.61 62.54 65.39 67.09 68.12 68.28 68.80 68.87 69.46 70.15 70.63 71.19 71.93 72.02 72.04 72.29 72.99 73.42 73.95 74.99 75.34 73.10 73.09 74.48 73.30 72.92 72.93 74.03
38.51 38.98 45.70 47.02 48.10 49.76 46.97 43.79 48.36 43.08 44.14 41.74 43.60 48.60 53.93 56.90 57.97 59.41 60.68 65.50 66.85 68.02 68.66 68.95 69.75 70.01 70.78 71.25 71.98 72.14 72.43 72.58 72.83 72.33 73.89 74.39 74.77 74.73 73.84 75.17 74.78 73.63 75.11 73.62
39.22 34.13 43.29 45.04 47.87 49.25 48.69 50.60 43.27 44.03 36.62 36.60 42.36 44.41 46.82 53.80 55.82 58.53 59.42 63.34 66.19 68.23 69.02 69.55 69.77 70.41 71.07 71.29 72.12 72.63 73.02 72.67 73.24 73.19 73.52 73.96 74.32 74.78 75.00 74.86 74.67 75.20 74.40 74.48
41.58 36.86 38.09 42.90 44.30 45.53 45.94 45.45 47.16 47.31 44.68 39.25 38.50 43.30 53.32 54.43 57.98 58.73 59.96 61.96 64.46 66.98 68.55 69.46 70.16 71.10 71.46 71.41 72.06 72.40 72.28 73.02 72.97 73.27 73.49 73.71 73.90 73.93 74.28 74.17 74.50 75.38 74.93 74.97
41.62 37.68 33.07 37.41 45.56 46.58 45.26 45.48 47.52 42.81 42.18 45.30 44.21 43.86 54.56 57.02 58.42 59.73 60.48 62.51 64.39 66.69 68.63 69.73 70.31 70.93 71.07 71.74 72.10 71.79 72.09 71.94 72.58 73.52 73.68 73.48 73.90 74.34 73.63 74.16 74.34 75.55 75.52 74.84
41.86 35.73 30.94 34.48 40.71 44.38 42.86 43.07 45.01 46.77 46.91 44.69 41.48 43.70 54.78 56.25 55.99 58.84 59.79 61.02 64.47 66.82 68.35 69.62 70.04 70.60 71.03 71.90 72.27 72.15 72.13 71.91 72.42 73.38 72.65 73.04 73.13 73.38 74.14 74.43 74.62 75.07 75.21 75.21
43.45 37.07 33.89 31.59 33.93 38.01 37.02 39.98 41.33 42.10 42.88 44.30 46.22 48.17 51.72 53.78 55.38 57.43 58.09 58.83 60.68 64.32 67.19 68.75 69.18 70.35 71.42 72.01 72.25 72.62 72.37 72.39 72.52 72.62 72.43 73.24 73.71 74.01 74.04 75.16 75.23 74.67 75.39 75.09
40.63 32.56 34.52 35.38 36.23 36.67 36.45 37.21 39.72 39.04 43.53 42.48 47.03 48.50 52.71 55.43 56.50 58.00 59.56 58.79 59.81 60.13 62.72 67.45 68.66 70.00 70.94 71.63 72.30 72.98 72.86 73.12 73.03 72.96 73.06 73.20 74.23 74.62 75.01 75.06 75.34 75.15 75.50 75.57
40.66 33.21 34.79 32.51 36.28 37.51 35.12 38.29 39.51 40.78 42.11 42.84 44.87 46.11 52.41 56.61 59.43 58.96 59.97 61.11 62.16 63.50 64.20 63.96 68.52 69.79 70.56 71.62 71.18 72.05 72.58 72.58 73.54 73.18 73.14 74.12 74.48 74.76 74.78 75.17 75.25 75.63 75.25 75.34
36.94 33.91 32.34 29.06 37.06 37.14 34.00 38.60 40.58 43.14 44.69 44.92 43.97 49.69 53.25 55.06 57.10 56.61 57.07 58.29 59.44 61.69 63.81 65.61 65.25 68.96 70.81 71.41 71.68 71.27 72.10 73.16 72.86 72.99 73.74 74.33 74.61 74.53 74.70 75.33 75.43 75.61 75.74 75.04
34.87 33.63 34.17 29.60 33.15 27.48 41.03 47.40 47.27 44.94 44.08 45.80 46.91 48.62 52.45 58.03 58.01 57.33 56.91 56.36 57.51 59.68 61.59 64.30 66.94 66.77 71.79 71.29 71.36 72.38 72.34 72.88 72.67 72.95 73.39 74.27 74.60 74.37 74.86 75.05 74.87 75.22 75.42 75.98
39.73 35.87 31.16 27.94 30.36 36.64 42.36 43.33 43.72 44.15 41.75 44.68 44.36 46.83 49.32 53.53 58.95 58.20 55.14 55.16 56.84 59.44 62.61 65.54 67.72 68.66 67.79 72.13 72.77 72.49 72.61 72.98 72.97 72.88 73.18 73.79 74.44 74.53 74.90 74.69 74.97 75.34 74.69 74.64
37.97 38.80 33.74 30.69 28.00 30.06 37.23 41.96 45.23 47.01 40.64 44.96 45.60 46.32 47.86 55.82 54.62 53.15 52.49 53.50 57.47 61.73 64.41 66.59 70.42 69.64 68.10 72.47 72.87 72.29 71.83 72.74 72.53 73.30 73.73 74.49 74.61 74.62 74.59 75.18 75.63 76.17 75.82 74.87
31.47 32.53 29.38 29.94 28.34 34.41 38.66 40.67 44.83 37.78 39.89 44.83 46.62 46.79 47.70 48.30 49.79 51.41 52.07 53.87 59.61 61.93 64.10 70.14 69.93 70.55 72.37 73.03 72.10 71.85 72.43 72.20 73.53 74.11 73.94 74.96 75.35 75.44 75.74 76.04 76.42 75.85 75.58 75.97
31.06 30.41 30.53 31.30 28.83 27.98 40.07 40.06 39.27 43.11 45.90 45.40 46.97 48.06 47.94 49.53 50.47 50.54 51.20 53.10 56.39 58.04 61.17 66.44 70.13 69.59 71.65 72.71 72.37 72.09 72.48 74.22 75.28 75.29 74.56 75.33 75.82 74.81 74.89 76.37 75.88 76.33 76.26 75.94
32.79 35.64 34.87 35.71 34.97 39.94 42.44 41.74 44.75 47.55 46.01 45.09 46.46 49.03 49.25 47.72 47.68 50.21 50.95 51.89 54.57 55.12 55.47 60.20 66.32 67.72 70.85 72.23 72.65 71.95 73.28 74.38 75.03 75.31 75.61 75.46 76.15 75.80 77.01 76.29 75.83 74.90 75.86 75.03
35.97 38.70 34.54 33.82 38.63 40.57 42.99 45.69 47.07 48.53 47.56 46.87 48.38 48.83 49.32 47.57 48.42 48.72 50.20 51.88 53.02 55.00 55.00 55.67 56.99 59.56 64.51 69.58 71.44 72.77 74.24 74.01 74.22 74.35 75.13 75.36 75.16 74.91 76.33 75.76 75.64 75.25 75.14 74.72
36.93 38.00 35.04 36.10 40.07 41.02 41.84 45.71 47.52 49.16 49.27 48.29 48.99 49.33 48.74 49.46 49.80 49.87 50.06 51.01 53.17 54.38 55.69 55.51 54.62 55.45 56.88 62.63 67.40 70.43 71.66 74.78 73.82 73.66 73.57 73.72 73.90 74.26 75.23 75.92 74.67 75.51 77.03 73.02
39.24 38.25 35.28 34.89 42.04 42.91 41.77 44.87 46.49 47.49 48.51 49.18 49.10 49.10 50.38 50.88 50.57 51.12 50.84 51.93 53.47 53.88 55.13 56.39 55.85 55.27 56.11 59.31 61.87 64.76 68.03 71.79 71.91 72.08 73.25 71.48 75.09 72.97 74.18 74.15 69.47 49.29 50.65 48.89

GFSCGP_sfc_wetblb_060.txt.gz
Wetbulb
52.09 49.81 47.78 49.98 51.37 51.59 51.33 51.78 51.53 57.85 62.87 62.52 62.24 62.38 65.49 66.92 67.59 67.15 67.84 68.01 67.93 68.45 70.28 71.10 71.36 71.90 71.79 72.92 73.48 73.96 73.55 74.51 74.08 73.08 72.31 73.00 73.25 74.88 75.61 76.37 77.71 78.42 78.29 78.76
49.23 46.25 51.10 52.35 51.36 50.18 49.97 50.78 52.05 55.02 60.72 61.82 62.18 61.49 64.02 66.95 66.63 67.67 67.74 68.12 68.15 68.79 69.45 70.13 71.41 71.67 71.51 72.20 73.17 73.84 74.16 74.67 74.56 73.11 74.16 73.80 74.74 75.13 75.88 76.90 78.05 78.70 78.42 78.89
47.97 49.57 51.03 49.93 49.55 48.13 48.90 48.64 50.93 52.63 56.33 58.97 61.03 60.06 61.87 65.50 67.48 67.91 68.65 69.35 69.31 68.97 69.12 69.28 70.61 71.19 71.53 71.94 73.07 73.75 74.66 74.91 75.05 75.72 73.86 75.25 75.88 76.14 75.72 76.29 76.51 77.97 78.70 78.87
50.23 52.78 49.42 48.81 47.63 48.95 46.57 50.15 49.33 51.55 52.27 51.25 59.57 53.49 59.88 62.84 65.14 66.67 67.67 68.38 68.94 69.22 69.91 70.13 70.32 70.86 71.50 72.18 73.74 74.55 74.96 75.32 75.35 75.75 75.30 76.09 74.05 72.82 73.65 75.37 75.81 76.82 78.73 78.73
49.57 49.88 50.00 47.84 48.81 50.19 47.84 50.82 49.55 48.98 50.84 52.03 54.18 54.03 57.56 62.21 62.17 65.32 67.29 68.05 68.76 69.64 69.82 69.68 70.33 71.71 72.28 72.68 73.17 74.58 75.66 76.59 77.01 76.67 76.66 74.71 75.31 73.50 74.30 74.84 77.46 78.43 78.99 78.96
50.99 54.57 52.91 51.85 52.34 51.43 51.67 49.55 49.29 48.96 47.38 44.86 51.36 53.07 54.95 58.37 61.46 64.20 67.40 68.48 69.11 69.47 69.84 70.23 71.15 72.16 72.54 73.09 73.17 74.19 75.94 76.94 77.09 76.31 75.11 76.78 76.79 76.25 74.09 75.47 74.99 75.25 75.95 77.40
47.92 48.75 52.60 53.86 50.56 52.65 50.48 47.87 43.42 41.79 41.29 40.28 50.35 50.50 54.38 59.76 63.21 64.13 65.81 68.09 69.62 70.69 70.32 69.98 69.98 70.44 72.04 72.47 73.08 73.56 75.47 76.09 76.73 75.77 75.35 75.40 75.95 77.07 76.58 76.02 74.92 76.61 74.14 75.09
42.88 41.83 48.24 52.42 51.68 49.69 49.02 48.73 44.06 39.40 41.09 42.70 47.55 46.32 52.12 59.56 62.25 64.84 66.39 68.66 70.25 70.68 71.22 71.26 71.00 71.11 71.30 72.40 73.00 73.65 74.72 75.97 76.36 75.87 76.92 77.48 77.84 74.85 75.25 76.16 75.29 74.84 74.32 74.88
42.43 42.12 49.79 50.90 52.62 52.70 50.20 46.82 50.94 46.86 48.22 45.43 46.63 48.25 53.98 58.52 59.78 61.59 63.52 66.20 67.71 69.52 70.83 71.51 72.32 72.73 72.32 72.22 73.71 74.46 75.35 75.40 75.94 75.23 77.25 77.59 77.48 77.01 75.88 78.21 76.61 75.37 77.64 75.44
43.39 38.51 46.40 49.13 50.93 52.13 51.03 53.50 46.03 47.08 41.16 40.90 45.95 47.25 46.56 54.49 57.53 60.30 61.59 62.75 66.32 68.77 70.62 71.51 72.19 72.90 73.43 73.18 73.38 73.92 74.42 75.22 75.61 75.62 76.11 76.02 76.21 77.09 77.42 77.11 77.23 77.20 76.47 77.01
44.04 41.18 41.69 44.50 46.71 46.80 48.47 47.98 49.36 49.36 47.39 42.77 42.54 46.37 53.69 54.01 56.38 59.16 61.23 63.44 64.82 68.32 70.44 71.35 72.32 73.07 73.81 73.80 73.51 73.66 73.96 74.33 74.74 75.56 76.44 76.41 75.91 76.10 76.51 76.06 76.58 76.90 77.01 77.27
44.39 41.86 38.61 40.94 47.05 51.18 49.72 48.65 49.57 45.24 44.77 47.01 47.21 47.38 55.10 55.94 56.79 59.35 61.30 63.06 64.90 66.65 69.41 71.38 72.04 72.96 73.29 73.66 73.43 73.24 73.99 74.02 74.51 76.20 77.19 76.34 76.67 76.76 75.55 76.11 76.66 77.32 77.11 77.42
44.42 39.34 35.19 38.24 42.31 45.90 45.04 48.51 50.53 49.70 50.44 47.29 44.64 46.80 56.31 57.50 58.64 59.15 59.97 62.32 64.92 66.21 67.72 70.14 71.51 72.38 72.98 73.42 73.57 73.24 73.80 73.98 74.51 75.63 74.92 75.27 75.42 75.43 76.26 76.68 76.78 77.57 77.04 77.44
44.02 40.00 37.61 35.59 38.82 41.50 40.79 45.42 47.43 48.11 45.33 46.90 48.39 50.71 53.97 55.81 56.76 59.22 61.51 62.33 63.15 65.67 68.25 69.62 71.02 71.86 73.25 74.00 75.28 75.20 73.76 74.21 74.48 74.65 74.51 75.56 75.78 76.05 75.84 77.52 77.72 76.87 78.11 77.37
43.79 37.44 39.51 39.83 40.03 39.97 39.81 40.64 42.81 43.30 46.97 45.33 49.28 50.31 54.69 56.39 56.94 58.58 60.59 62.34 62.13 61.85 64.91 68.33 70.44 71.97 74.00 74.63 75.70 75.66 74.43 75.13 75.35 76.29 74.47 75.67 77.30 77.43 77.34 77.80 78.09 77.84 77.99 77.31
43.89 37.07 39.01 36.57 39.26 39.15 37.61 40.45 42.08 42.86 45.42 46.51 48.43 49.81 56.60 59.00 59.74 61.19 61.75 63.18 63.50 64.24 65.16 65.66 69.53 71.33 72.60 73.67 74.99 75.92 76.24 75.71 76.16 76.99 75.96 77.10 77.78 77.91 77.99 78.36 78.40 78.74 78.48 77.99
39.31 38.42 36.71 33.37 38.52 38.74 35.97 41.04 43.34 44.51 46.72 47.23 45.51 51.16 56.15 56.62 58.14 61.24 61.15 61.89 62.39 63.55 65.60 67.42 68.92 69.43 71.51 72.92 74.33 74.92 76.54 76.60 76.64 76.94 76.98 77.53 78.03 77.92 78.04 78.41 78.63 78.57 78.35 78.17
37.28 38.00 37.37 33.87 36.95 28.81 39.92 45.87 47.27 45.99 47.77 49.86 50.80 52.64 55.52 57.54 61.69 61.97 61.71 61.40 62.56 63.97 65.29 66.71 68.02 69.66 70.94 72.30 73.06 74.99 75.33 76.99 76.89 77.16 77.25 77.76 78.11 77.75 78.29 78.41 78.57 78.84 78.12 78.04
40.53 37.70 34.20 31.63 33.22 37.28 41.23 43.56 43.45 41.78 45.57 51.20 51.31 53.25 55.02 57.01 61.82 62.33 61.49 61.87 62.92 64.86 66.57 68.00 69.64 70.45 71.64 71.87 73.11 74.26 74.23 75.45 75.62 76.78 77.05 77.71 78.11 77.61 77.67 77.59 78.06 78.26 77.42 77.70
40.52 40.89 35.28 33.92 28.14 28.59 38.51 42.26 45.51 47.48 43.37 50.96 50.87 52.32 53.53 56.41 53.25 58.32 58.26 59.42 62.68 65.72 67.34 68.80 70.58 72.19 72.60 72.92 72.35 73.11 73.64 74.16 75.49 76.32 76.89 78.03 78.44 78.19 77.79 77.98 78.21 78.52 77.38 76.93
34.13 34.03 32.11 32.97 30.96 36.02 43.06 42.98 44.79 37.64 42.24 50.13 51.23 52.02 53.63 56.07 55.83 55.71 54.02 56.73 59.75 62.00 65.78 69.34 72.55 73.23 73.42 74.16 72.06 74.65 74.35 74.15 75.89 75.81 76.01 77.53 77.93 78.48 78.57 79.07 78.74 78.24 77.54 77.77
33.91 33.36 33.09 34.36 31.65 29.12 44.78 43.60 37.06 41.55 47.04 48.18 49.08 51.35 51.09 53.86 53.15 52.40 52.85 54.70 56.73 57.82 61.00 66.31 72.28 73.02 73.59 73.13 72.69 76.19 75.23 76.43 76.86 77.02 76.35 77.80 78.33 76.70 76.73 79.12 78.48 78.18 78.21 77.89
33.14 37.48 35.13 36.83 37.63 43.87 44.12 43.15 45.11 45.66 46.10 47.28 47.44 50.60 51.01 51.71 50.61 50.40 51.30 53.94 54.58 56.30 57.26 57.81 66.08 70.95 74.30 74.28 74.62 73.99 77.38 77.43 77.26 77.14 77.39 77.32 77.21 76.88 78.46 77.26 77.40 76.50 77.65 76.61
34.73 38.43 37.09 35.47 39.93 40.86 43.19 45.43 47.78 48.50 48.12 49.58 49.38 50.21 50.19 50.68 51.40 50.69 51.34 52.03 52.23 53.48 55.53 56.44 58.14 61.28 67.52 72.99 74.80 75.31 76.02 76.79 76.62 76.66 76.98 76.84 76.44 76.33 77.04 77.11 77.24 76.61 76.21 75.97
34.19 36.14 33.89 34.70 38.58 41.01 42.86 44.61 47.06 48.15 50.19 49.49 50.59 50.64 50.57 51.26 51.54 50.94 50.76 51.41 52.22 53.54 54.71 57.61 56.75 57.74 60.83 66.43 68.67 72.26 75.45 76.21 75.48 76.05 76.27 76.56 76.63 76.37 76.92 77.76 76.55 77.11 78.67 73.82
39.08 37.63 35.16 34.05 40.31 40.78 41.07 44.24 45.97 45.49 45.99 46.64 46.76 47.24 48.88 49.32 50.16 51.48 51.85 52.92 53.66 53.72 56.15 57.62 57.48 57.83 58.98 60.50 62.98 65.85 69.40 75.72 75.37 74.81 75.15 75.19 75.78 76.45 76.69 76.69 75.53 50.64 53.25 50.94

GFSCGP_sfc_wetblb_063.txt.gz
Wetbulb
55.97 52.42 49.73 53.09 54.62 54.00 52.73 52.30 52.84 56.91 63.20 62.32 61.59 62.29 62.11 67.90 68.19 68.55 68.95 68.58 69.15 69.61 71.36 71.55 71.70 71.86 71.78 72.35 72.89 73.67 74.65 77.76 75.41 74.18 73.51 73.73 73.74 75.22 76.78 76.93 78.23 78.28 78.22 78.41
51.94 48.90 53.18 54.03 53.82 52.34 51.85 51.24 52.14 56.03 60.82 61.88 61.28 60.79 63.67 67.13 67.61 68.74 69.01 68.83 68.95 69.84 70.29 70.61 71.26 71.47 71.28 71.94 73.17 75.07 75.80 77.68 75.96 74.71 75.68 75.33 75.93 74.91 75.36 75.95 78.01 78.39 77.89 78.64
51.27 51.69 53.48 52.88 52.07 50.93 51.09 50.49 51.60 53.68 56.63 62.13 60.72 59.66 61.83 65.40 67.83 68.91 69.83 70.52 69.57 69.88 70.09 70.49 70.78 70.94 71.24 71.86 72.82 75.29 76.66 77.56 76.88 77.19 76.02 76.21 76.58 76.57 74.55 76.26 76.12 77.86 78.31 78.70
52.05 54.22 51.74 51.25 50.32 52.01 49.30 52.41 51.59 52.07 53.90 51.95 60.26 53.69 56.90 60.31 65.19 67.24 68.62 69.66 69.97 69.57 70.91 71.33 71.32 71.16 71.18 71.80 73.21 76.06 76.65 77.60 77.00 77.93 75.04 76.75 73.85 72.72 73.69 75.65 75.59 76.94 78.55 78.40
51.01 51.34 51.03 50.35 50.75 52.14 50.43 53.34 51.52 50.63 50.20 53.33 54.76 53.49 58.26 62.98 62.29 65.16 67.57 69.12 70.19 70.63 70.50 70.85 71.43 72.19 72.28 72.36 72.78 74.00 77.28 77.94 77.63 77.41 77.59 75.09 75.78 73.88 74.29 74.44 79.13 81.16 80.49 78.69
51.79 56.16 53.62 52.48 53.71 53.19 53.70 51.68 51.43 51.31 49.30 44.85 51.86 53.64 56.15 58.05 60.14 65.01 67.48 68.78 69.89 70.68 71.04 71.41 72.19 72.89 72.73 72.88 72.95 74.41 76.76 77.84 78.57 77.86 76.92 77.91 76.57 76.86 73.29 74.93 75.55 74.85 76.49 77.21
48.02 49.48 53.43 55.01 51.64 53.56 52.38 50.04 44.58 43.37 43.60 42.76 49.74 51.10 55.43 61.14 63.37 63.91 66.62 68.34 69.81 70.85 71.23 71.17 71.28 71.49 72.62 73.37 73.85 74.96 76.83 77.27 78.09 77.80 76.40 76.91 78.08 78.02 78.86 77.99 74.70 75.97 73.81 74.35
43.87 43.40 49.27 52.24 52.10 51.08 50.93 50.30 46.02 41.14 42.73 44.76 49.76 46.02 52.43 60.37 63.80 64.54 65.36 67.35 69.87 70.28 70.98 71.45 71.82 71.78 73.07 74.02 74.80 75.26 76.46 77.45 78.09 77.59 77.53 77.03 78.22 74.66 74.60 77.30 75.16 74.21 73.92 74.93
43.31 43.41 51.03 51.33 52.50 52.92 51.20 48.44 52.09 48.27 50.06 47.36 48.95 50.12 53.12 58.19 60.30 64.05 62.50 66.59 67.22 70.02 70.80 71.24 72.11 72.54 73.36 74.11 75.30 75.37 76.55 77.75 78.01 76.73 78.16 78.40 77.66 76.47 74.71 77.89 78.72 76.41 78.10 75.72
45.74 41.83 49.27 49.17 52.04 53.04 51.78 54.14 47.47 48.01 42.54 42.46 47.53 49.53 48.55 52.48 56.38 60.10 63.10 64.78 66.84 69.61 70.95 71.75 72.25 72.27 72.91 73.61 74.37 75.76 76.84 77.64 77.56 77.56 78.13 77.96 77.62 77.83 77.98 78.84 79.47 77.99 78.74 79.45
46.28 44.51 44.58 47.30 47.47 47.74 48.80 48.77 50.71 51.04 48.47 44.14 44.14 48.13 56.20 54.81 55.89 58.61 61.37 64.18 66.37 69.37 70.18 71.23 72.38 73.43 73.25 73.59 73.93 74.34 75.48 76.72 76.78 77.48 77.97 77.36 77.37 76.97 77.87 78.46 79.10 79.21 79.24 80.17
47.54 44.18 41.05 43.58 48.25 49.24 49.11 48.57 48.52 46.34 46.32 48.53 47.91 48.80 57.12 57.56 56.89 59.18 61.51 63.37 64.98 67.10 69.47 70.88 71.81 73.21 73.84 74.06 73.97 74.12 74.43 74.55 76.06 77.17 77.98 77.56 78.30 77.45 76.97 77.66 78.36 79.94 79.62 79.57
46.91 42.40 38.18 40.42 44.44 47.39 45.59 48.92 50.53 50.36 49.96 48.32 45.80 48.05 57.54 57.82 57.58 58.48 59.12 61.45 64.68 66.27 68.63 70.51 71.47 72.44 73.19 74.15 75.03 74.07 74.16 74.16 75.05 76.76 76.30 77.38 77.44 77.77 77.13 78.14 78.49 79.35 79.71 79.87
46.33 43.20 41.36 38.09 41.43 44.50 43.66 44.96 48.57 49.04 46.25 46.85 48.24 50.94 54.70 56.45 57.27 59.32 60.33 61.76 63.51 66.51 68.36 68.58 70.24 72.03 73.21 74.95 76.43 76.25 74.63 74.71 74.76 75.20 75.20 76.22 77.12 77.55 77.31 78.40 78.88 79.03 79.74 79.76
44.93 39.07 41.70 42.22 43.23 43.50 42.66 43.51 46.47 46.52 49.06 46.73 49.68 50.55 54.61 56.66 57.74 59.38 61.40 62.76 63.39 64.25 65.85 67.40 68.20 71.89 75.97 76.26 77.19 77.03 75.40 76.30 75.69 76.25 75.65 76.34 77.92 78.11 78.34 77.82 78.97 79.16 79.64 79.70
45.34 38.62 41.11 38.82 41.92 42.63 40.56 42.55 43.62 45.84 48.04 48.73 49.46 50.12 56.52 57.59 59.14 59.58 60.58 62.21 64.14 65.34 64.81 66.17 69.45 71.56 72.80 74.57 77.24 77.31 77.02 76.87 76.56 76.87 75.74 76.79 78.02 78.18 78.02 78.23 78.49 79.38 79.49 79.83
43.11 40.21 37.54 34.59 40.33 41.05 37.55 41.28 42.58 43.99 46.82 47.47 45.94 51.77 56.05 56.14 57.42 60.45 61.79 63.36 63.70 65.11 66.40 67.69 68.70 70.28 72.23 73.84 76.01 76.62 77.54 77.57 77.26 77.74 77.22 77.43 78.01 77.89 78.02 78.26 78.76 79.04 79.36 80.15
41.75 40.42 38.78 34.87 38.32 29.26 41.70 46.02 46.48 45.40 46.37 48.94 49.79 51.90 54.69 55.95 57.57 59.37 64.48 63.80 64.47 65.68 66.54 67.71 68.51 69.68 71.46 72.78 74.33 75.90 76.78 77.87 77.90 77.19 78.77 77.97 78.56 78.34 78.77 78.90 78.64 79.19 79.57 79.55
44.04 41.22 35.56 31.35 33.31 38.01 41.53 45.64 45.90 46.06 47.17 49.55 50.28 52.17 54.23 55.82 57.07 58.36 64.27 64.06 64.57 66.48 68.20 69.22 70.23 70.69 71.76 71.83 73.15 75.40 75.86 77.87 77.80 78.31 77.72 78.81 78.75 78.69 78.83 78.62 78.96 79.48 79.63 79.52
42.90 43.41 37.53 35.43 30.51 28.56 40.61 46.08 49.01 49.86 43.53 52.99 52.96 52.81 54.51 56.17 51.86 55.82 61.02 62.02 64.03 65.57 67.20 68.82 70.66 71.95 72.37 73.07 73.28 72.81 74.29 75.95 77.15 78.31 78.43 79.36 79.43 79.47 79.16 79.46 79.66 80.03 80.21 79.70
37.36 37.85 35.09 34.89 33.02 36.92 43.82 46.91 48.39 38.75 41.33 48.61 51.99 52.56 55.27 54.77 56.61 58.15 59.95 61.19 62.61 64.00 65.01 65.09 68.94 73.34 74.46 74.95 74.05 73.74 74.54 75.58 77.69 78.49 79.27 79.88 79.85 79.87 80.23 80.45 80.45 80.28 79.89 78.68
35.27 35.35 35.03 36.41 33.16 30.10 47.92 47.15 40.73 46.22 48.70 49.34 51.00 52.43 51.17 53.59 54.92 55.50 57.92 58.26 58.96 61.25 62.94 63.30 64.89 69.34 76.25 76.16 75.45 76.14 74.95 77.69 79.07 78.99 78.84 79.39 80.08 79.04 79.23 80.17 80.34 80.31 80.08 79.24
34.62 38.44 37.57 38.58 38.31 46.33 46.89 45.50 49.10 49.49 47.96 46.98 50.30 50.10 51.05 51.65 53.29 53.91 54.59 56.18 56.76 58.35 60.95 60.73 60.66 63.98 66.16 73.23 76.14 76.62 77.05 80.04 79.34 79.13 78.80 79.22 79.79 79.77 79.91 79.52 79.64 78.38 79.35 77.18
39.29 39.76 37.66 38.08 42.63 42.32 41.78 46.05 45.99 47.43 48.61 48.43 51.11 51.01 51.00 50.54 52.59 51.14 52.33 54.05 55.49 57.38 58.88 59.21 58.89 59.96 60.29 63.52 68.85 71.99 78.41 79.96 79.83 78.82 79.19 79.19 78.87 78.53 79.28 78.37 78.20 77.10 76.58 76.56
35.70 35.03 34.87 37.04 39.31 39.49 40.93 43.26 44.30 46.04 48.61 49.01 49.98 50.09 49.59 50.53 51.12 51.40 51.95 53.19 55.98 57.23 58.40 57.66 57.20 57.64 58.94 60.02 62.00 64.46 69.29 75.12 76.91 78.13 77.86 78.29 77.19 77.18 78.04 78.21 77.79 77.14 78.15 74.11
39.06 36.10 33.96 33.60 38.84 39.12 40.95 43.15 44.31 44.38 45.93 46.99 47.60 46.52 48.73 48.89 49.01 50.79 52.51 54.42 55.55 56.85 57.06 57.54 57.25 57.39 58.30 58.65 59.62 60.82 62.87 65.46 74.45 75.21 76.14 75.99 76.43 76.50 76.54 76.94 75.27 52.87 58.14 51.91

GFSCGP_sfc_wetblb_066.txt.gz
Wetbulb
57.14 53.42 50.94 53.32 53.38 54.18 52.80 51.10 51.58 54.46 57.94 60.16 59.46 59.69 59.79 63.04 63.15 62.70 67.03 68.29 67.74 68.10 70.89 71.83 71.78 70.98 71.91 72.15 72.55 73.42 75.06 76.12 75.41 75.13 74.63 74.11 73.64 76.05 73.32 73.85 76.08 79.34 78.13 77.93
53.87 50.71 54.87 53.92 54.63 53.57 52.97 51.40 50.46 53.42 56.59 61.04 61.17 56.69 58.78 60.17 61.35 61.81 66.91 67.55 68.61 68.31 69.38 70.73 71.44 70.69 71.03 71.72 72.15 74.22 74.59 75.90 75.08 75.80 75.98 75.98 74.21 75.24 74.00 75.08 77.25 78.76 79.00 79.26
49.66 51.99 54.64 53.27 51.92 51.34 51.42 50.17 50.42 50.96 55.03 60.67 59.84 55.70 57.50 59.72 61.96 64.18 67.79 68.22 68.88 69.35 69.20 70.07 70.48 70.59 71.06 71.41 72.36 73.81 74.64 75.62 75.52 76.69 75.83 77.52 78.75 76.62 75.28 76.93 77.09 78.64 79.06 79.59
53.06 54.87 53.14 51.26 50.76 51.86 48.75 52.76 51.61 51.01 50.68 49.40 56.92 52.19 54.49 59.86 60.51 59.77 60.94 67.32 67.82 69.45 70.36 70.36 70.44 70.62 70.53 71.68 73.66 74.00 75.11 76.20 75.30 77.21 74.86 76.46 74.17 73.05 74.69 74.84 76.94 77.39 79.44 79.23
50.63 52.14 51.66 50.86 51.00 52.52 50.39 53.75 52.37 51.13 49.47 49.69 51.94 51.17 57.62 60.30 56.56 58.71 60.20 66.43 67.46 69.37 70.23 70.25 70.23 71.05 71.34 72.77 73.13 74.14 74.91 76.08 75.03 75.23 76.83 75.41 74.56 74.47 76.35 75.54 76.96 77.44 79.86 80.22
50.76 54.74 53.70 52.41 53.38 53.28 53.58 51.58 51.81 51.53 49.28 44.29 48.07 49.61 52.30 58.36 57.45 56.95 59.94 65.00 68.08 68.51 70.14 71.24 71.56 72.06 71.70 72.79 72.92 74.19 74.27 74.91 75.57 74.93 75.17 76.01 74.11 76.50 75.48 75.60 74.47 76.36 77.16 78.06
46.38 48.53 53.02 55.05 51.13 52.99 52.37 48.94 43.33 42.63 42.67 42.88 49.01 46.89 52.05 59.18 61.78 59.68 60.88 64.93 69.07 69.81 69.96 70.94 71.20 71.48 71.70 71.53 72.17 73.18 74.05 73.91 74.97 74.90 74.00 76.17 75.00 75.23 77.12 78.18 74.77 74.59 75.47 75.30
43.55 42.68 47.63 52.19 52.24 50.17 50.46 49.30 44.37 39.54 41.23 43.70 50.01 45.46 49.30 56.09 65.03 65.03 64.65 64.66 65.86 70.11 70.67 70.86 71.54 71.91 72.03 72.08 72.09 72.64 73.81 73.92 74.68 75.59 73.83 74.58 76.64 74.79 75.25 77.55 75.57 77.66 75.05 75.96
43.16 42.90 50.07 51.10 51.70 52.30 50.18 48.12 51.22 46.75 48.17 45.44 47.80 50.53 53.48 55.26 56.90 65.32 63.19 63.87 63.20 66.84 70.12 71.09 71.98 72.15 73.00 72.81 72.40 72.96 73.77 74.41 75.24 75.02 75.55 73.73 76.01 75.75 74.02 76.79 78.53 76.50 78.05 77.69
45.56 40.44 47.56 49.46 51.87 51.82 50.07 52.33 46.73 47.30 41.12 40.96 45.86 48.67 49.38 53.45 54.81 58.83 63.96 63.58 64.57 65.40 64.93 68.41 72.05 72.39 73.35 73.67 73.88 73.84 74.81 74.66 75.63 75.27 75.85 75.08 73.66 75.47 75.88 74.28 77.81 76.72 78.20 77.81
46.71 43.90 43.52 47.32 46.97 46.78 48.29 47.42 49.09 49.28 48.23 42.99 42.27 46.66 55.94 57.87 56.56 57.33 64.28 64.43 62.07 63.78 64.81 66.69 65.79 72.94 73.18 73.93 74.46 74.11 74.21 75.33 75.97 76.24 75.83 75.63 75.02 74.61 74.36 75.24 74.72 76.33 76.86 80.45
47.28 43.76 40.30 42.90 48.13 49.52 48.22 48.15 48.73 45.34 45.02 47.97 47.44 47.06 56.62 57.87 58.07 57.95 58.74 64.73 64.55 65.76 64.26 64.55 64.89 70.59 72.97 73.35 73.74 74.31 74.40 75.20 76.12 76.65 76.27 75.77 76.52 75.46 74.63 73.28 76.29 77.61 78.50 78.22
46.31 42.44 37.83 40.07 44.31 47.34 45.46 46.63 47.49 47.72 47.94 46.90 45.30 47.10 56.26 57.92 58.55 59.97 58.70 60.83 66.20 66.64 64.34 66.05 68.20 71.37 72.49 72.92 73.65 73.98 74.50 74.61 76.46 76.71 76.35 76.19 75.82 75.99 75.27 73.84 75.20 77.11 76.49 77.71
46.24 42.05 39.56 36.70 41.54 44.74 42.96 44.99 45.91 45.27 43.60 44.59 45.90 48.73 54.57 56.44 57.02 58.88 59.87 62.16 63.50 67.90 68.04 69.59 70.97 69.63 73.24 73.24 73.23 73.80 74.32 75.09 75.39 76.30 76.17 75.75 75.63 75.95 75.47 75.80 74.30 76.05 77.80 77.06
44.48 38.48 41.02 41.53 42.87 43.15 42.82 43.27 44.45 43.64 45.26 44.52 47.54 48.06 53.10 57.82 57.70 58.64 60.53 63.28 63.56 63.96 66.18 67.41 71.62 67.93 70.96 74.02 74.21 74.29 74.51 74.50 75.05 75.15 75.07 75.50 76.36 76.31 76.37 75.66 76.05 75.91 76.08 76.94
46.06 38.63 40.73 38.37 41.94 42.49 41.13 43.14 44.03 43.98 45.22 46.05 47.10 48.51 54.89 57.40 57.60 58.41 60.45 62.66 64.59 66.13 67.00 69.11 69.93 72.63 72.40 74.25 75.13 75.08 74.84 74.92 74.96 74.44 74.62 75.71 75.87 76.22 76.30 76.10 76.05 76.35 76.39 76.95
42.76 41.30 38.43 34.38 40.27 39.76 36.55 41.81 43.36 43.96 45.67 46.25 44.75 49.96 54.87 54.55 56.97 57.80 60.06 61.04 61.91 65.24 66.83 67.77 68.48 69.94 71.57 71.59 75.47 75.78 75.52 76.00 75.05 74.94 75.29 75.13 75.96 75.66 75.88 76.41 75.50 76.42 76.06 76.89
40.85 40.03 39.64 34.21 37.18 28.05 40.52 46.43 45.92 44.51 45.44 46.71 47.57 49.64 51.94 53.16 57.53 58.63 60.26 60.63 61.01 65.34 66.74 68.16 68.07 69.45 70.92 70.96 71.28 76.84 76.86 76.32 76.30 74.87 75.92 75.44 75.93 75.36 76.21 75.98 76.05 75.45 76.62 76.24
43.98 40.95 36.82 32.77 31.70 36.73 40.04 44.12 45.22 44.65 45.47 48.11 50.65 52.18 51.86 51.94 53.43 56.67 60.79 62.52 61.88 63.90 66.10 67.37 68.98 70.21 71.83 72.82 72.94 73.06 76.75 76.16 75.58 76.26 75.39 76.09 75.47 75.77 75.94 75.80 75.82 75.95 76.09 76.65
43.98 43.83 38.06 35.06 30.15 27.97 39.39 44.59 48.73 48.19 40.30 50.80 51.27 52.44 53.71 55.59 46.93 51.09 58.70 61.06 61.76 63.15 64.71 65.91 65.62 66.88 70.55 73.15 73.37 72.87 72.91 76.67 75.16 75.24 76.81 77.18 76.16 76.30 76.05 76.15 76.14 76.62 76.68 76.49
38.18 39.69 34.92 34.77 32.69 36.23 43.91 45.95 47.88 36.86 40.30 49.32 49.62 49.96 52.17 51.17 53.79 55.66 57.92 59.43 60.12 60.69 62.85 64.69 65.03 65.87 69.16 69.70 72.15 72.81 73.34 73.52 77.26 77.07 76.80 77.56 78.42 76.61 77.42 77.33 77.39 77.17 77.00 77.13
36.61 34.91 35.23 35.53 32.85 29.92 47.06 46.18 39.38 43.95 47.64 48.05 49.38 49.15 50.52 51.89 53.80 55.44 56.59 57.07 57.97 58.61 60.72 62.91 62.17 62.96 66.30 67.74 68.53 70.58 73.97 74.69 76.89 78.06 77.14 78.38 77.40 78.26 77.98 77.84 77.97 77.87 77.59 77.17
35.67 37.50 36.45 38.59 38.03 46.37 46.56 44.13 46.71 47.25 45.80 47.69 48.26 50.63 51.39 51.84 52.45 53.79 54.04 54.74 56.32 57.91 59.86 60.25 59.61 60.10 62.01 63.34 65.03 66.31 72.50 76.97 76.50 77.93 77.16 77.66 78.92 78.22 78.21 77.93 77.77 77.53 77.59 76.87
38.54 39.44 37.12 37.71 42.53 43.10 44.13 46.45 45.85 45.51 45.80 48.46 50.72 51.17 51.37 51.71 52.81 53.46 54.19 54.71 55.76 57.17 57.70 57.95 58.12 57.12 58.16 60.20 61.65 63.46 67.96 70.57 76.85 76.66 78.02 77.61 78.42 77.66 77.95 78.03 78.02 77.50 77.19 76.83
36.93 36.77 34.68 35.99 40.42 40.60 42.28 42.63 42.69 43.77 45.50 46.25 48.03 49.17 49.71 50.77 51.47 51.63 53.03 54.21 55.46 56.44 57.53 57.88 57.34 56.98 57.38 58.40 58.58 60.64 64.10 67.15 72.85 78.25 77.79 77.30 77.65 76.78 77.52 77.26 77.67 77.55 78.10 76.35
39.08 36.22 33.95 33.59 37.46 38.18 38.64 42.50 42.85 42.24 43.55 45.63 46.91 46.92 48.67 49.60 50.59 50.69 52.00 53.97 55.30 56.43 56.60 57.30 57.60 56.84 56.77 57.20 57.36 59.72 62.77 65.25 69.12 76.06 76.83 76.74 76.60 77.02 76.92 76.60 73.99 53.12 57.03 52.67

GFSCGP_sfc_wetblb_069.txt.gz
Wetbulb
53.23 47.04 46.14 48.80 50.03 50.15 49.89 48.86 47.87 50.06 54.05 53.54 59.55 58.88 59.10 60.52 63.09 64.96 64.54 64.74 65.24 66.35 68.14 68.49 68.61 68.14 69.37 69.71 68.98 69.74 70.08 71.00 72.55 71.96 70.80 70.40 69.80 70.61 71.76 73.69 74.82 75.00 75.14 71.44
50.37 46.40 51.67 54.07 53.13 51.29 49.49 47.80 47.64 50.65 52.20 56.18 59.08 57.96 59.71 59.49 62.46 64.01 62.54 64.87 65.24 66.45 67.50 68.46 68.13 67.84 68.19 69.09 68.49 69.16 71.11 71.49 72.25 71.62 71.48 70.72 70.72 72.43 71.61 72.19 72.85 75.02 75.17 73.34
45.80 50.48 54.83 53.45 51.61 48.72 47.78 45.85 46.92 47.42 50.38 56.24 57.14 54.90 56.88 61.09 62.65 63.70 65.15 64.73 66.17 66.37 67.12 68.13 67.21 67.88 67.76 68.22 68.94 68.87 72.08 71.62 72.29 71.45 70.99 71.88 72.40 72.33 70.24 71.56 72.17 74.42 75.36 75.14
48.96 52.25 50.95 50.86 49.78 49.34 41.58 49.38 50.21 48.84 45.42 40.27 53.17 47.59 54.09 56.50 59.13 62.44 63.88 62.65 62.71 66.10 67.39 68.35 67.17 66.95 67.74 68.23 70.16 69.73 72.32 71.80 71.39 72.43 69.87 70.05 70.32 69.21 70.66 72.16 73.12 74.50 74.49 75.29
46.87 49.75 49.99 48.88 49.34 49.81 46.48 50.76 48.85 48.63 44.61 41.16 45.07 40.50 52.18 57.19 56.01 59.40 61.56 62.32 63.10 64.63 67.08 67.31 67.72 67.17 68.50 69.21 69.88 70.81 72.48 71.85 71.48 72.05 70.62 70.09 69.06 70.67 71.04 72.46 73.26 73.37 74.49 75.23
46.58 50.85 49.16 49.35 52.31 51.50 51.66 48.36 46.97 45.33 42.32 37.36 41.85 41.00 49.26 53.83 56.81 57.27 61.05 62.08 63.75 64.80 66.54 68.17 68.56 68.53 68.26 69.80 69.70 71.14 71.93 71.04 71.10 71.22 72.05 70.04 69.43 69.82 71.35 71.21 71.49 73.24 74.09 74.82
43.97 44.01 46.81 49.95 47.68 49.63 48.06 42.21 35.05 33.79 35.33 36.01 42.36 40.28 41.93 58.29 60.45 58.86 59.81 62.23 64.23 65.16 67.38 68.02 67.52 67.87 67.73 68.53 69.52 70.40 70.81 71.66 70.95 70.68 70.81 72.47 69.90 69.69 71.33 71.45 72.96 73.04 72.95 72.77
36.78 37.32 43.31 47.86 46.97 45.30 44.86 41.85 36.28 31.07 33.17 36.98 43.59 38.18 43.62 57.42 62.65 62.01 62.38 63.04 65.08 65.18 65.37 66.80 67.97 68.13 68.32 68.75 69.94 70.23 70.33 70.72 71.40 70.41 70.10 71.09 72.10 70.60 71.21 72.23 71.76 73.33 73.63 73.05
36.55 38.55 46.99 48.07 48.27 48.85 45.45 41.63 44.45 39.08 42.06 37.83 41.04 44.52 48.79 51.13 59.84 60.73 60.24 61.85 64.48 65.44 65.32 65.22 67.94 68.57 68.68 69.13 69.29 70.52 70.35 70.41 71.59 71.36 69.77 70.75 72.79 70.27 70.63 71.34 72.83 72.40 71.74 73.48
40.36 34.16 43.02 46.37 47.30 48.04 46.00 46.56 38.51 39.05 32.35 31.62 38.92 41.17 42.78 48.56 52.62 59.46 59.78 62.88 61.19 63.35 65.01 66.35 67.32 68.09 68.97 69.44 70.00 70.53 71.41 70.77 71.72 72.04 71.24 70.13 71.55 72.75 71.07 71.00 71.94 72.44 71.05 72.80
40.85 36.62 38.55 43.27 40.52 40.91 42.55 40.79 40.43 39.87 38.37 34.21 34.38 39.24 48.27 49.85 51.62 54.69 61.22 61.67 60.43 62.49 64.37 66.61 66.85 66.78 66.84 67.54 69.97 70.26 71.49 71.32 71.66 71.61 72.53 70.86 69.98 72.50 71.96 70.82 70.31 72.38 72.27 73.45
42.17 35.88 32.54 37.70 44.31 46.18 43.92 40.37 38.94 35.67 36.33 39.46 39.07 41.08 52.39 51.31 52.63 57.20 61.50 63.69 62.59 64.60 65.72 65.43 67.12 67.34 64.36 65.34 70.20 70.14 70.96 71.65 72.32 72.48 72.57 72.63 70.83 71.21 72.21 70.94 70.09 71.93 71.41 72.31
41.26 35.19 29.82 34.03 37.93 41.92 40.49 42.74 41.27 39.79 38.32 37.24 34.71 40.19 52.64 54.10 54.78 57.57 58.58 61.15 62.92 63.41 65.34 63.37 63.27 61.62 62.56 65.27 68.35 70.81 70.94 72.18 72.78 73.30 72.30 72.85 72.54 70.28 71.14 71.00 70.93 70.64 73.98 72.04
44.81 34.54 31.81 28.54 34.12 38.68 37.72 40.71 41.77 39.17 32.96 34.77 37.14 41.25 46.82 51.39 52.84 54.58 55.99 61.32 61.99 63.54 64.16 63.50 62.71 63.44 64.23 66.71 67.66 71.33 71.19 72.50 73.46 73.47 73.32 72.48 72.72 72.87 70.70 71.18 70.17 72.73 73.38 74.05
39.32 31.15 34.52 36.63 39.25 39.79 39.28 39.65 40.71 38.62 39.27 33.98 38.76 40.61 44.66 51.72 52.46 54.87 58.28 61.02 61.68 62.91 63.65 63.76 64.26 64.81 67.35 68.20 69.28 69.15 71.91 72.07 73.56 73.74 73.67 73.38 73.48 73.57 73.71 72.20 71.30 70.00 73.70 73.11
40.77 33.63 36.28 35.39 39.70 39.25 37.52 40.00 41.20 41.32 41.52 41.25 41.23 41.30 46.83 50.27 54.08 54.34 55.87 58.33 59.54 61.76 64.42 66.13 66.02 67.19 68.25 69.72 67.48 69.00 70.66 72.18 72.50 73.51 73.69 74.18 73.84 73.75 73.58 73.33 72.93 70.49 71.04 74.07
37.64 34.57 33.12 29.85 36.68 36.18 32.39 37.82 39.47 40.58 42.62 41.87 37.91 42.16 46.43 46.91 48.64 55.03 58.45 58.13 59.39 60.40 61.42 62.31 64.10 66.18 67.17 67.61 68.24 66.63 67.72 72.42 72.55 72.40 73.59 73.79 73.82 73.69 73.50 73.78 72.96 72.65 70.71 71.60
35.60 35.41 33.20 29.17 31.39 24.99 35.74 42.27 43.16 41.34 42.85 46.41 47.03 46.99 50.69 51.40 53.31 56.78 59.22 58.83 58.45 58.94 60.50 61.81 62.39 63.15 66.06 67.93 67.69 67.84 69.24 69.41 70.43 71.60 72.36 73.37 73.46 73.44 73.66 73.54 73.29 73.14 73.35 72.59
39.72 36.40 31.18 28.40 27.57 32.98 36.90 39.55 41.92 40.82 40.43 46.65 45.35 47.10 48.69 51.83 53.33 52.52 55.28 58.47 58.08 57.47 59.28 60.84 62.67 62.74 64.72 68.25 69.11 68.65 69.31 68.01 67.03 70.57 72.05 72.79 73.35 73.30 73.51 72.93 73.31 73.29 73.60 73.67
39.73 39.45 35.76 31.68 26.37 24.88 35.46 43.95 46.88 45.78 34.58 45.53 45.68 45.80 46.72 48.68 44.91 48.24 53.87 56.96 56.64 57.43 58.12 59.59 61.36 61.77 62.63 65.26 66.68 67.91 64.06 63.63 64.38 69.93 72.75 73.19 73.31 73.60 73.00 73.57 73.35 73.98 73.41 73.27
33.90 34.33 31.35 31.04 30.34 33.30 41.82 44.81 46.49 33.44 34.89 45.44 45.33 45.25 46.36 45.60 48.55 51.42 53.84 53.87 54.94 56.37 57.44 59.65 59.02 58.92 60.35 61.75 62.87 64.54 65.92 68.83 70.85 72.81 73.37 73.80 73.45 73.49 73.69 73.74 74.21 73.74 73.87 73.46
34.24 33.74 30.74 32.38 28.51 26.54 43.67 44.02 37.59 41.39 43.21 43.94 45.09 45.17 45.26 48.14 50.23 51.55 52.84 52.82 53.44 54.45 57.00 57.07 56.23 57.56 58.60 60.10 59.46 60.84 62.33 64.33 67.11 69.20 73.10 73.56 74.24 73.75 74.51 73.87 74.00 73.95 73.67 73.27
31.81 34.62 31.98 35.39 35.89 41.41 43.46 42.11 43.70 43.88 41.64 43.24 43.41 45.50 48.07 47.88 48.48 51.82 51.39 52.09 53.43 54.34 55.77 55.86 54.90 55.63 57.32 58.11 58.31 57.79 59.17 61.96 63.84 66.19 71.07 72.74 74.57 74.05 74.20 74.05 73.76 73.72 73.95 73.48
36.71 38.01 34.35 33.26 38.39 37.45 40.88 41.69 42.66 42.71 42.28 43.58 45.31 46.44 47.89 47.74 50.24 49.88 51.10 51.22 52.82 54.69 54.87 56.37 55.44 54.43 54.96 56.46 57.29 57.97 59.29 60.88 62.22 64.45 69.96 74.23 74.58 74.42 74.35 75.48 74.98 74.68 74.29 73.85
36.86 37.01 34.88 35.00 37.36 38.06 40.05 40.27 41.86 42.06 43.33 43.91 45.29 46.50 47.04 47.13 48.48 49.80 50.08 50.06 51.30 53.07 54.11 54.34 54.66 53.65 54.15 55.44 55.89 57.56 58.17 59.03 60.20 62.10 68.20 74.44 74.53 73.34 74.85 75.43 75.10 75.28 75.90 74.23
38.02 35.48 33.23 31.95 38.09 37.83 38.00 41.15 42.79 41.11 41.89 43.55 44.61 44.82 46.55 47.59 46.94 48.89 48.91 49.97 52.29 53.51 54.80 54.19 54.22 52.96 52.30 53.16 54.11 56.47 57.51 57.94 59.05 60.33 67.19 72.55 74.67 74.66 75.18 74.58 69.67 52.46 54.83 56.33

GFSCGP_sfc_wetblb_072.txt.gz
Wetbulb
49.74 44.74 41.83 46.96 48.62 48.49 47.26 44.86 45.08 49.14 52.02 49.96 59.06 59.60 61.49 63.19 63.29 64.38 64.26 64.52 64.65 65.55 67.24 67.34 66.91 68.59 68.13 68.09 67.30 68.08 68.96 68.60 69.39 69.76 69.02 68.72 69.28 70.30 72.33 72.36 73.14 73.60 73.17 72.25
47.41 43.11 49.02 51.91 51.71 49.70 47.90 45.15 44.60 48.16 51.43 56.91 58.36 58.35 60.28 62.03 63.10 64.30 64.68 64.73 65.07 65.52 66.47 67.21 66.08 67.66 67.79 67.45 67.52 67.71 69.52 68.77 70.22 70.11 69.41 69.77 69.43 69.77 72.39 72.20 73.59 73.70 73.18 69.84
45.39 49.19 53.17 51.53 49.96 48.65 45.99 43.33 45.48 45.30 54.27 58.02 56.97 54.76 56.08 59.21 63.40 64.80 65.86 65.93 66.14 65.51 65.81 66.44 66.15 67.50 67.61 67.21 67.69 68.41 69.53 69.27 70.63 70.25 70.28 69.85 70.30 70.10 69.95 69.95 71.22 73.46 74.08 72.34
46.51 51.01 49.86 49.35 48.73 48.12 40.11 47.67 48.12 47.34 43.06 38.78 52.62 47.50 54.36 56.82 59.51 62.86 64.10 63.51 64.57 65.79 67.00 67.58 65.57 65.87 67.31 67.29 68.55 69.17 70.06 69.76 70.91 69.93 69.23 69.37 69.48 68.17 68.70 69.66 70.81 72.35 74.25 73.40
43.86 47.82 47.94 47.19 47.42 49.51 46.84 50.06 46.86 46.47 41.63 38.93 41.74 39.14 45.18 56.20 55.69 59.85 62.88 63.15 64.78 65.46 66.94 67.41 65.84 66.11 67.71 68.09 67.81 70.34 70.50 70.13 71.11 70.41 68.68 69.48 67.82 68.46 69.73 70.20 71.09 71.95 72.41 73.65
43.45 47.67 47.57 47.82 50.47 50.08 50.85 46.56 43.74 41.30 39.25 34.21 38.33 39.10 42.21 51.38 55.58 58.09 62.93 64.19 64.79 64.68 66.27 67.71 68.11 66.93 66.73 68.51 68.02 70.69 70.00 69.83 70.47 70.33 68.20 68.19 68.51 68.06 69.57 69.96 71.15 71.69 72.21 72.84
41.73 43.53 44.00 46.52 43.25 47.32 45.59 39.12 33.07 33.22 32.93 32.43 38.26 38.22 40.78 54.62 58.25 58.90 61.05 63.64 64.85 64.38 65.91 67.10 66.47 66.08 66.25 67.10 67.91 69.51 70.10 69.25 69.73 70.07 70.41 68.15 69.00 67.87 69.08 69.62 71.47 71.14 71.82 72.54
34.45 35.21 42.30 45.97 41.77 41.44 42.49 39.46 34.26 29.41 30.30 33.45 40.49 35.44 42.37 52.38 60.02 60.91 61.29 63.56 64.89 64.19 64.28 65.79 66.70 65.94 66.85 67.00 68.05 68.55 69.73 69.34 69.71 70.06 70.11 70.40 68.94 69.08 69.44 70.72 71.34 71.89 72.55 73.29
33.12 35.86 45.19 46.54 45.58 43.69 42.61 39.26 41.61 35.85 33.25 33.96 36.89 41.62 47.18 48.71 55.50 60.00 59.43 61.54 63.24 64.73 65.37 66.27 66.87 66.64 66.96 67.55 67.50 68.71 69.27 69.37 69.57 69.61 69.50 69.93 71.07 69.34 69.01 70.46 71.33 72.11 72.40 72.45
36.94 32.62 39.31 45.24 45.02 44.54 40.28 42.93 37.17 34.87 29.82 29.08 35.32 36.95 39.81 45.47 51.26 56.53 58.86 59.76 62.05 64.95 65.18 66.06 67.14 67.84 67.81 67.76 68.38 68.71 69.47 69.55 70.08 69.89 69.48 69.24 69.77 71.32 68.90 70.03 70.00 71.60 71.33 71.65
36.20 33.84 36.11 40.83 37.27 36.57 38.11 36.52 36.02 35.35 35.18 31.37 30.49 35.76 45.03 48.28 52.74 54.79 58.18 60.88 61.45 64.45 65.32 66.47 67.16 67.87 68.02 67.45 68.32 68.92 69.06 69.25 70.12 70.69 70.01 68.97 69.12 70.02 70.20 69.43 69.81 70.56 70.29 71.42
38.05 32.34 30.07 33.44 41.24 43.45 40.19 36.55 33.51 30.18 30.72 33.79 35.06 36.95 49.07 51.48 53.41 57.54 59.39 60.12 62.13 64.54 66.03 66.14 67.22 67.88 67.37 66.65 66.72 68.72 69.79 69.50 69.71 71.11 70.72 69.59 68.76 69.62 70.70 70.22 69.21 70.15 70.63 71.54
38.61 30.67 26.74 31.40 34.54 38.44 37.07 38.63 35.23 33.89 30.87 30.89 31.66 34.98 47.76 52.28 55.28 58.02 59.15 60.65 62.07 62.94 63.71 64.62 65.30 65.58 66.87 67.46 66.16 67.42 69.44 70.17 70.28 70.86 70.79 70.76 69.10 68.43 69.59 71.13 70.66 68.51 70.61 70.51
42.66 30.60 29.14 25.56 29.53 34.50 34.10 37.56 38.41 33.03 27.80 29.51 31.29 36.59 40.78 45.53 50.13 53.94 58.41 60.46 61.23 62.24 63.87 63.86 63.54 64.76 64.49 64.65 65.85 65.87 69.05 70.83 71.02 70.91 70.68 70.70 70.88 69.43 68.52 70.45 70.56 70.15 69.13 70.42
36.46 28.68 31.17 32.04 37.24 38.17 37.41 37.39 38.22 34.44 34.20 30.26 35.17 35.68 39.69 43.36 46.08 53.15 57.07 59.76 60.81 62.73 63.86 64.37 64.36 64.73 64.91 66.26 66.34 68.82 69.04 70.06 71.51 71.12 70.97 70.52 71.92 71.95 70.30 68.76 70.39 69.78 70.55 70.63
36.85 30.96 33.04 32.26 37.83 36.94 34.99 37.71 38.89 38.60 38.53 37.68 38.28 36.85 48.32 50.06 54.47 55.97 56.45 58.80 59.70 61.18 61.75 62.20 64.70 66.80 66.61 66.70 67.76 68.69 68.39 69.17 71.82 71.33 71.29 71.71 71.26 72.22 71.95 70.23 69.14 69.46 69.16 71.23
33.07 31.70 29.74 23.97 34.50 34.14 29.22 34.46 36.92 38.11 39.42 40.46 38.83 41.56 47.07 47.50 50.57 50.58 53.00 56.63 58.20 60.16 61.03 61.38 62.54 63.48 65.95 67.68 68.10 67.29 67.34 68.59 69.07 71.06 72.20 72.26 72.32 71.78 72.00 72.38 70.76 69.92 68.99 68.77
31.77 29.77 29.68 25.13 29.18 22.54 33.11 38.86 40.84 40.11 42.92 44.06 44.01 44.88 46.32 46.98 49.23 50.88 52.81 54.41 55.05 57.65 59.27 61.06 62.31 63.58 66.27 66.91 67.12 67.83 68.25 69.44 69.06 69.70 71.57 73.11 73.05 72.72 72.51 72.38 72.27 71.66 71.12 68.89
33.91 31.09 27.07 24.78 24.90 30.51 35.19 37.96 37.51 38.44 38.82 43.51 42.29 43.94 45.79 47.53 50.13 48.65 51.86 53.34 53.50 54.91 57.80 60.26 61.37 62.05 63.86 63.11 63.73 66.31 68.62 68.62 67.83 67.33 67.35 70.18 73.43 73.14 72.88 72.24 72.27 72.55 72.11 71.14
35.67 34.49 31.45 27.50 22.30 22.61 32.27 41.60 44.86 42.55 33.68 43.71 43.96 43.06 43.03 44.78 40.66 44.21 49.81 52.62 53.46 54.54 57.80 58.33 59.77 59.74 60.17 60.06 61.51 63.69 65.43 66.51 66.36 67.34 67.23 69.56 71.06 72.90 72.84 73.11 72.88 73.13 72.92 72.40
29.08 31.25 26.33 27.11 26.80 31.52 39.01 41.21 43.80 30.57 32.09 42.15 43.49 43.21 42.91 41.32 44.16 47.00 50.19 51.49 53.57 55.56 56.92 57.38 57.86 57.48 58.50 59.44 59.75 60.10 61.41 62.53 63.25 65.12 65.62 66.95 69.05 72.59 73.50 73.61 73.32 73.38 73.17 72.75
29.79 30.01 28.94 27.43 22.99 24.71 40.24 41.51 35.32 39.09 40.42 40.94 41.77 42.30 42.76 44.26 46.95 48.86 49.66 50.47 52.69 53.67 55.76 56.26 55.89 56.99 57.87 58.22 57.75 57.31 57.81 60.07 62.42 63.60 64.25 65.49 68.09 73.01 73.46 73.25 73.35 73.08 72.92 72.42
30.51 31.72 26.30 32.59 35.45 39.46 41.56 40.62 42.02 41.16 38.14 39.35 40.39 42.30 43.78 43.25 45.45 47.64 48.44 48.83 50.57 53.43 54.46 55.61 55.19 55.44 55.69 56.57 56.01 55.50 57.25 58.97 59.90 61.52 63.35 64.51 66.85 71.67 73.09 72.76 72.53 72.38 72.56 72.24
33.30 37.09 32.62 30.55 35.35 37.42 39.37 40.33 40.20 41.64 40.35 41.03 41.85 42.69 43.63 43.14 45.45 45.54 47.17 48.56 48.76 51.16 53.01 54.55 54.36 53.85 53.77 54.28 55.16 55.03 56.40 57.61 58.33 59.92 61.43 63.67 66.48 70.56 72.67 73.37 72.96 72.62 72.30 71.87
32.09 35.17 32.27 33.42 34.83 37.62 39.55 40.48 40.28 41.82 42.01 42.13 43.41 43.51 44.64 45.17 45.41 45.62 45.76 47.02 48.22 49.44 52.02 54.14 52.22 51.90 51.89 52.72 53.21 54.22 55.95 56.90 57.32 58.58 60.25 62.18 66.91 70.09 73.25 72.72 72.45 72.88 73.46 72.03
38.01 33.16 30.54 27.44 34.03 37.83 38.37 41.33 42.61 41.79 40.91 41.84 41.21 42.10 44.64 45.69 45.40 46.34 45.68 47.35 48.12 48.72 52.66 53.83 53.00 51.82 50.36 50.74 51.71 53.50 54.52 55.94 56.34 56.96 58.46 60.33 62.62 65.60 73.19 72.85 67.38 52.87 55.46 56.58

GFSCGP_sfc_wetblb_075.txt.gz
Wetbulb
47.52 43.69 40.92 44.83 47.40 48.61 46.71 43.98 43.38 46.73 51.00 47.38 57.18 57.98 60.53 63.23 63.12 63.35 63.41 63.67 64.15 64.87 66.40 65.59 66.75 67.82 68.36 68.34 68.44 68.98 68.89 67.82 69.05 68.27 68.43 68.15 68.37 69.78 71.03 71.58 72.07 72.78 72.29 71.84
45.46 41.56 47.18 50.09 50.32 48.63 46.86 44.46 42.75 46.94 53.24 52.33 57.10 57.12 60.28 63.03 62.39 63.96 63.92 63.45 64.20 64.72 65.36 64.39 66.55 67.54 67.37 68.01 68.15 69.02 69.02 68.10 69.02 68.88 68.76 68.81 69.10 69.51 70.00 70.99 72.35 72.66 72.28 70.85
43.19 48.07 52.33 50.09 47.71 46.89 43.78 42.63 43.14 44.60 50.20 57.55 56.54 56.37 58.62 61.21 62.74 64.04 65.03 65.41 65.18 64.60 65.12 63.86 65.66 66.36 66.61 67.23 67.56 68.94 68.70 68.25 68.95 68.78 68.94 69.13 69.80 69.47 69.68 69.79 71.47 72.57 72.53 70.24
45.98 50.76 50.44 47.69 47.20 46.85 39.56 47.21 47.81 45.83 41.43 37.61 52.78 47.21 55.31 56.98 58.61 61.49 63.75 64.68 65.08 65.08 66.11 65.17 65.03 65.72 66.31 66.45 67.75 69.34 68.92 68.65 68.82 68.78 68.75 68.28 67.87 67.28 68.63 69.07 69.71 71.91 73.50 71.53
45.20 45.28 46.20 44.89 46.12 48.44 45.69 49.03 46.33 44.99 40.21 37.57 41.26 39.69 46.47 55.89 55.44 59.11 62.63 64.55 65.40 66.16 66.29 65.89 64.32 66.01 66.81 66.94 67.10 67.89 68.65 68.62 68.98 68.91 69.08 68.21 67.89 68.32 68.54 68.98 69.16 70.57 72.18 72.52
42.53 45.81 47.24 47.36 49.75 48.98 49.94 45.71 42.07 38.93 37.07 33.05 37.35 37.51 38.82 50.68 55.18 57.62 62.13 64.27 65.43 64.73 65.77 66.71 65.75 66.68 66.66 67.38 67.59 68.00 68.23 68.38 69.20 68.91 68.09 68.34 67.75 67.58 68.02 68.30 68.90 69.81 70.72 71.93
40.24 41.58 43.44 44.80 40.71 44.74 42.76 38.08 32.25 31.41 31.39 32.09 35.26 36.89 40.15 52.26 56.86 58.10 59.89 63.08 65.36 65.14 65.39 66.13 64.92 64.58 66.11 66.25 66.80 68.06 68.52 67.82 69.18 68.98 67.77 67.89 68.32 67.72 67.98 68.42 68.94 69.77 70.25 70.95
33.51 33.97 41.22 45.00 40.21 38.21 40.31 38.41 33.13 28.65 28.78 32.95 36.23 34.57 40.99 46.46 50.75 58.50 60.72 62.74 65.08 65.26 65.79 65.85 66.11 64.94 65.73 66.59 66.52 68.48 68.25 67.96 68.94 69.38 68.73 67.61 67.56 68.37 68.19 69.22 69.47 70.41 71.04 71.80
31.97 34.30 43.34 44.99 44.12 41.72 39.20 36.23 38.45 33.04 31.28 33.21 34.80 39.56 44.70 51.51 54.53 56.38 57.71 60.93 63.74 65.17 65.21 66.03 66.62 65.25 65.55 66.42 66.51 67.92 68.59 68.34 68.87 69.18 69.27 68.86 67.86 67.56 67.93 69.49 69.83 70.54 70.85 72.51
34.69 31.56 37.57 43.16 43.65 43.12 38.89 39.98 34.82 33.28 28.79 28.12 33.29 35.45 39.43 46.79 50.51 55.27 57.05 58.25 61.87 64.52 64.34 64.97 66.57 65.31 65.88 66.44 67.21 67.39 69.00 68.63 68.95 69.35 69.58 69.53 69.59 69.29 68.03 68.41 70.02 70.46 70.64 70.78
33.67 33.19 34.83 38.32 36.79 35.90 36.04 34.13 32.20 32.59 32.05 29.41 29.52 33.59 45.74 47.49 50.61 55.38 57.47 59.10 59.67 63.30 64.05 64.90 66.22 66.05 66.35 66.90 67.00 67.38 67.69 68.44 68.56 69.04 69.36 69.15 68.90 69.26 69.05 68.30 68.84 69.71 70.79 70.72
36.73 30.43 28.78 32.12 38.63 41.65 39.44 33.85 30.95 28.04 27.78 29.59 31.90 34.39 43.70 45.09 51.04 56.14 57.98 59.72 60.52 63.45 64.26 65.29 66.48 66.71 65.83 66.67 66.92 66.90 67.85 68.14 68.79 69.24 69.08 68.49 68.53 68.62 69.26 69.03 68.55 68.90 69.32 69.87
37.73 30.93 28.11 29.46 33.56 36.67 34.69 35.70 32.69 30.68 28.09 27.15 26.67 32.07 44.70 46.83 47.11 53.51 57.41 59.93 61.07 62.69 64.05 64.95 65.64 65.39 65.33 64.92 65.57 67.14 67.60 68.25 68.96 69.42 69.01 68.48 68.11 67.92 68.19 69.28 69.60 68.29 68.97 69.46
40.93 28.96 29.37 26.52 28.07 32.38 32.38 36.28 35.59 30.99 27.41 27.98 30.08 32.86 40.34 46.20 48.64 53.83 57.12 59.20 61.13 62.37 62.72 63.32 62.77 63.68 65.51 65.06 65.19 65.77 67.37 68.63 68.98 69.35 69.46 68.84 68.36 67.84 68.31 68.62 69.13 69.77 68.45 69.18
34.34 28.16 30.41 30.33 35.80 35.75 35.16 35.11 36.48 32.28 31.65 29.65 33.51 33.56 42.56 45.87 49.68 51.18 55.16 58.10 59.75 60.01 60.53 62.25 63.38 64.31 65.84 65.75 64.71 65.53 67.79 68.16 69.64 68.68 69.22 69.44 69.60 69.08 68.26 67.96 68.53 68.90 69.51 69.18
34.84 29.50 30.48 29.86 35.71 35.20 32.80 35.54 36.73 36.63 36.49 35.36 36.41 36.69 44.91 47.46 50.32 49.88 51.39 54.49 56.39 58.67 60.62 61.22 62.17 64.82 66.70 66.98 66.36 66.95 67.79 68.68 69.81 69.47 69.08 69.86 70.03 70.14 68.93 67.88 67.57 68.44 68.60 69.33
31.17 29.81 27.86 23.59 32.47 32.40 27.23 32.58 34.91 35.30 39.07 37.99 35.69 39.87 45.08 44.79 48.11 48.30 49.04 50.05 51.76 53.96 58.50 59.57 60.78 61.75 64.77 65.18 65.62 65.99 66.61 67.69 68.17 70.00 70.00 70.07 69.49 69.59 70.32 69.64 67.69 67.22 68.12 68.23
30.02 28.59 27.38 23.84 27.48 21.34 30.28 37.04 39.29 40.98 42.17 42.70 42.22 42.96 44.31 44.80 48.44 49.84 50.46 50.09 50.54 52.44 56.46 57.94 59.23 59.35 61.60 62.38 62.77 64.12 68.02 67.37 68.09 68.33 69.61 70.69 70.82 69.64 70.45 71.01 69.86 68.37 68.06 68.04
31.69 28.89 25.47 24.03 22.84 28.21 33.71 36.94 36.95 35.68 37.56 42.33 40.83 42.87 43.38 44.36 46.06 48.94 48.92 50.74 51.28 53.04 55.41 56.59 57.96 58.87 59.47 59.51 60.09 62.50 66.54 67.42 67.39 67.33 67.46 69.06 71.54 71.33 70.66 70.58 70.99 70.99 69.78 68.85
34.13 32.33 29.44 25.05 20.51 22.35 30.79 39.75 42.66 40.94 32.91 42.25 42.40 41.67 42.01 42.51 39.62 44.16 47.14 49.07 51.35 54.05 55.66 55.85 57.04 57.41 57.50 58.15 58.92 60.49 60.90 62.98 62.38 64.79 67.22 68.65 69.98 71.97 72.48 72.15 71.31 71.85 71.97 71.07
25.50 29.54 25.50 24.67 22.63 29.28 37.84 39.85 42.16 29.73 30.17 40.61 41.62 40.89 40.01 38.80 40.99 44.40 47.60 48.99 51.33 52.87 55.16 56.08 56.38 56.29 56.08 56.85 56.69 57.05 58.90 58.23 60.76 62.68 64.08 65.45 66.76 68.72 69.51 71.80 73.02 72.45 71.84 72.17
26.34 27.57 25.82 29.45 21.93 23.01 40.05 39.84 33.60 36.68 37.42 39.14 39.77 39.74 39.58 40.58 42.66 43.70 46.00 49.00 49.64 50.55 53.60 55.21 54.99 55.45 56.55 56.02 55.00 54.41 55.36 57.90 59.25 60.29 62.53 63.67 65.22 67.35 69.96 71.08 72.35 72.85 72.27 71.41
25.15 29.89 24.55 30.51 29.10 39.59 39.27 38.16 38.99 39.45 36.54 37.36 38.20 39.37 40.16 40.08 41.30 42.90 43.77 45.41 48.34 49.67 51.36 53.84 53.73 54.68 54.81 54.88 52.94 52.05 53.57 56.35 57.85 58.55 58.94 61.10 63.32 65.31 67.46 70.78 71.32 71.96 72.18 71.83
29.99 37.60 30.52 30.49 31.24 35.27 37.16 38.81 39.08 38.59 38.84 41.21 41.23 40.21 42.09 41.23 42.81 42.54 44.50 45.84 46.27 47.81 49.26 51.72 53.05 53.39 51.70 52.80 52.62 52.87 53.14 54.92 55.60 57.21 57.49 58.89 61.17 62.66 66.70 70.12 72.14 71.89 71.67 71.46
30.15 36.67 29.73 28.50 32.14 34.18 37.34 38.57 40.82 40.82 42.58 42.27 42.62 42.10 41.39 41.62 41.57 42.90 43.97 45.14 45.88 46.64 48.24 50.25 52.35 50.88 51.22 51.30 51.40 52.39 52.79 53.98 53.55 54.59 55.04 57.67 60.44 61.31 63.35 66.30 72.04 71.96 72.58 71.22
35.61 33.11 28.47 27.58 32.30 32.78 33.90 38.12 39.90 40.56 41.73 42.89 42.19 42.42 42.87 42.56 42.51 44.29 44.57 45.41 45.31 45.83 47.42 49.13 52.10 51.24 49.83 50.22 50.16 51.22 52.40 52.46 52.66 51.28 53.37 55.75 57.35 59.35 61.87 65.09 70.39 54.17 56.43 56.17

GFSCGP_sfc_wetblb_078.txt.gz
Wetbulb
45.49 41.69 39.16 42.94 46.23 47.51 46.04 43.85 42.93 45.92 48.78 46.73 53.20 55.98 60.66 63.65 63.23 63.51 63.64 63.52 63.55 64.52 65.79 65.94 66.42 67.34 67.97 68.19 67.83 68.10 68.76 69.00 69.23 68.82 68.33 68.55 68.88 70.51 71.93 72.15 72.43 72.74 73.08 72.54
43.21 39.57 45.86 48.48 48.43 47.66 46.04 43.90 42.75 47.70 52.17 50.78 54.82 55.03 59.75 61.58 61.83 63.65 63.75 63.58 63.89 64.32 64.62 64.49 65.78 65.96 67.15 67.55 67.96 68.05 69.11 68.42 69.71 69.68 69.22 69.75 69.66 70.87 72.16 72.65 72.70 73.70 73.54 72.51
41.51 46.29 50.01 48.70 47.07 45.91 42.95 42.02 42.62 45.60 47.64 56.85 54.78 54.35 58.43 61.54 62.51 63.35 64.70 65.08 64.44 64.41 64.03 63.55 64.23 65.01 66.89 67.13 67.72 68.19 69.07 68.61 69.87 69.64 69.36 69.75 70.52 70.53 70.96 71.37 71.97 73.38 73.57 72.46
44.56 49.30 49.99 47.33 46.39 45.99 37.10 46.80 47.45 45.65 40.55 36.76 51.33 41.58 52.41 57.51 59.47 61.47 62.58 64.32 63.90 64.23 65.32 63.76 64.47 65.08 66.15 67.15 68.56 69.00 69.12 68.77 69.69 69.26 69.27 69.14 68.71 68.45 70.13 70.87 71.65 73.29 74.18 72.39
45.17 45.76 45.99 44.37 45.37 47.59 44.89 47.61 46.20 44.75 39.44 36.75 40.78 40.91 46.05 54.49 54.15 57.47 61.19 63.46 65.30 65.45 65.25 63.44 64.52 65.85 66.49 67.45 68.08 69.00 69.17 68.81 69.28 69.12 69.62 68.97 68.56 69.39 69.98 70.56 70.69 71.95 73.36 73.25
42.82 44.37 45.59 46.91 48.29 48.87 48.64 43.22 39.88 37.61 35.95 32.52 35.81 38.22 38.15 50.15 54.24 56.10 59.79 62.37 65.35 65.94 65.96 65.31 65.14 66.59 66.30 67.34 67.99 68.93 68.56 68.43 69.14 69.31 68.43 68.74 68.72 68.68 68.90 69.40 69.83 70.40 71.87 73.07
39.26 40.39 42.38 43.74 39.67 43.61 42.36 37.31 30.66 30.33 30.69 31.73 34.71 36.59 38.89 44.51 49.94 54.78 56.80 61.68 64.97 66.67 66.32 65.28 63.68 65.13 65.81 65.79 66.71 67.76 68.19 67.84 68.56 68.83 68.48 68.56 68.97 69.07 69.11 69.54 69.62 70.09 71.09 71.88
33.02 32.98 39.83 43.50 39.08 37.78 38.46 37.45 32.26 27.60 27.86 32.15 36.32 34.34 41.04 50.42 54.53 57.73 58.82 60.35 64.45 66.20 66.14 66.28 65.11 64.89 65.67 66.04 66.10 66.86 67.42 67.84 68.59 68.97 68.34 68.54 68.87 69.09 69.31 70.00 70.24 70.65 71.23 72.25
32.43 33.25 42.05 43.44 42.27 39.99 38.59 34.70 36.82 31.92 29.54 32.17 34.05 40.08 45.09 48.43 51.68 56.77 58.14 59.09 61.60 65.35 66.44 65.56 66.57 64.87 65.90 66.10 66.37 66.86 67.11 67.59 68.27 69.04 68.91 67.99 68.17 68.58 68.89 69.84 70.90 71.20 72.12 72.96
33.34 31.23 36.63 41.66 42.27 41.77 38.37 38.45 34.54 33.30 28.91 27.80 32.56 35.40 36.17 40.27 42.82 49.60 56.26 57.90 59.36 61.46 65.25 65.82 66.34 65.03 65.71 66.64 66.84 67.47 67.89 67.70 68.15 69.03 69.27 68.95 68.20 68.52 68.96 69.74 70.38 71.05 72.14 72.44
33.14 32.20 33.56 37.30 34.48 32.74 34.78 32.69 32.03 32.15 30.68 29.41 28.70 32.75 41.18 40.38 44.97 45.91 55.33 58.20 60.29 60.79 64.38 65.35 66.17 65.79 65.58 66.65 66.94 66.80 68.04 68.10 68.15 68.84 69.46 69.30 69.04 68.79 68.25 68.90 70.22 71.34 72.22 72.16
37.66 31.92 27.75 29.88 37.40 38.90 35.57 32.08 29.90 30.17 29.24 28.15 30.58 31.75 41.58 46.82 50.65 53.69 56.38 59.18 60.93 62.37 63.41 64.76 65.59 65.68 65.63 65.33 66.49 66.52 67.25 68.35 68.69 68.90 69.27 69.34 69.49 69.78 69.10 68.56 69.25 70.20 71.27 72.06
38.40 31.01 25.64 28.15 32.36 35.51 34.22 34.91 29.71 28.94 28.06 27.17 29.94 32.14 43.02 49.00 50.86 51.69 53.71 58.76 59.75 61.92 62.72 63.47 65.28 65.44 65.88 66.46 66.49 66.47 66.94 67.60 68.79 68.98 69.09 69.22 68.98 68.70 69.64 69.72 69.57 69.81 70.29 70.82
40.74 31.53 28.94 25.63 27.90 31.73 32.33 35.08 34.84 29.52 27.83 27.52 29.45 33.10 40.61 45.55 48.23 49.75 51.51 56.26 59.37 60.18 61.05 63.56 64.67 64.37 65.33 65.89 66.72 67.10 67.47 68.21 68.47 68.59 68.62 68.42 68.52 68.47 68.88 69.78 70.03 69.68 70.09 70.26
33.54 29.26 30.59 31.27 34.89 34.69 34.07 33.93 35.50 31.60 30.90 29.44 31.89 34.69 41.71 44.61 47.56 48.76 50.20 52.18 54.40 58.12 58.44 59.55 60.83 65.25 66.01 67.04 66.88 66.98 67.61 68.09 68.62 68.54 68.80 68.54 69.03 69.05 69.05 69.03 69.27 70.35 69.93 70.13
33.26 29.86 29.53 28.81 34.37 33.88 32.50 34.82 35.86 35.54 35.65 34.91 35.77 37.01 44.35 46.84 49.32 48.61 48.86 50.05 51.66 54.82 56.53 57.53 58.75 58.98 61.85 61.95 63.47 65.68 67.51 68.26 69.00 68.47 68.53 69.58 69.73 69.53 68.73 68.65 68.77 69.11 69.98 69.92
30.53 29.11 26.81 22.65 30.54 30.36 26.82 31.56 33.66 35.51 38.10 35.86 31.97 38.30 44.15 43.81 46.58 46.78 47.83 49.19 49.99 52.60 55.29 55.71 57.35 57.89 59.33 60.22 60.99 62.20 64.30 68.14 68.16 69.19 69.19 69.42 70.12 69.87 69.84 68.94 68.57 68.15 68.63 69.77
29.24 27.83 26.33 23.78 24.74 21.09 28.90 35.97 38.10 39.25 41.86 42.42 42.04 42.53 43.01 43.11 44.20 47.14 47.60 47.25 48.65 50.65 53.84 55.35 56.32 57.90 58.27 59.67 58.96 61.18 64.22 67.63 67.96 68.43 69.71 69.68 69.72 69.71 70.34 70.40 68.71 68.21 68.34 68.55
30.23 28.61 24.72 23.72 22.53 27.41 33.41 37.53 37.63 35.61 36.55 41.96 40.99 42.05 42.35 42.86 44.13 45.88 46.34 46.99 48.49 50.07 52.96 55.37 56.21 57.44 58.31 58.40 57.88 59.65 62.13 61.99 63.02 65.03 67.58 69.63 71.20 70.11 70.18 70.21 70.73 69.98 68.84 68.11
32.80 31.02 27.94 24.86 21.22 22.07 30.11 39.10 41.39 40.12 31.64 41.01 41.63 40.15 39.39 40.89 35.18 44.13 44.34 45.87 47.94 50.58 52.21 54.46 55.84 56.55 57.18 57.55 57.21 57.42 59.33 59.08 59.30 60.61 62.17 64.25 66.35 69.06 70.80 70.34 70.70 71.39 71.26 69.80
25.21 27.43 24.83 25.07 22.30 28.22 37.22 39.21 41.38 29.45 30.28 40.44 39.89 39.76 38.53 37.22 39.65 41.95 43.63 44.48 46.45 48.64 50.31 53.15 54.32 55.00 55.91 57.18 55.83 55.26 56.13 56.47 58.28 59.98 61.13 63.35 64.80 66.11 68.43 70.18 72.58 71.84 71.93 71.54
25.42 22.96 27.62 28.52 23.73 22.85 39.74 38.94 34.61 36.19 38.05 38.83 38.99 38.97 38.21 39.06 40.40 41.52 42.19 42.91 44.53 45.73 48.07 50.33 50.90 52.85 55.35 56.54 54.23 53.20 53.75 55.77 57.82 58.93 60.51 61.84 63.16 64.69 66.66 67.63 69.43 71.72 72.59 71.63
24.40 28.25 25.46 28.19 28.34 36.74 39.01 37.07 39.66 39.11 36.96 37.78 38.14 39.44 40.34 38.92 39.55 41.14 41.65 42.69 43.68 45.34 47.16 49.32 49.17 50.38 53.80 55.15 54.37 51.85 53.24 55.18 56.31 57.11 58.52 59.61 61.84 63.45 65.67 66.34 67.26 68.75 71.82 72.16
29.31 32.78 26.11 27.79 30.50 33.51 37.17 37.88 39.46 39.36 38.47 39.66 41.32 41.44 41.44 40.08 41.18 41.10 41.19 41.65 42.80 44.52 45.93 47.87 48.26 48.49 50.58 53.94 53.65 52.95 53.79 54.16 54.31 54.52 56.17 57.03 59.10 60.18 62.11 65.33 67.01 67.20 70.78 71.86
29.33 32.85 29.95 27.33 31.08 33.22 35.93 38.17 38.94 40.03 41.79 42.72 43.14 42.68 42.23 42.55 42.04 42.09 41.48 42.09 43.03 44.39 45.94 46.69 47.21 47.79 48.86 52.62 52.45 52.58 52.91 53.57 52.38 53.35 53.34 54.84 57.13 57.99 59.64 61.94 64.19 65.66 68.41 70.65
33.04 31.15 27.45 27.28 32.70 33.26 33.96 38.59 39.95 39.36 39.69 41.01 42.81 42.37 43.83 43.58 42.62 42.69 41.84 43.34 43.92 44.44 45.68 45.86 46.46 47.22 48.54 51.72 50.69 50.92 52.28 51.69 51.30 50.64 51.54 53.25 54.69 57.21 58.21 59.70 61.33 58.00 55.00 54.30

GFSCGP_sfc_wetblb_081.txt.gz
Wetbulb
50.11 49.11 47.49 52.38 53.75 52.43 51.61 50.48 49.81 50.80 55.45 55.85 55.99 57.73 61.78 65.47 63.66 64.15 64.11 65.05 65.67 66.43 69.03 70.32 70.60 70.97 70.60 70.91 70.84 72.02 72.98 74.10 73.75 73.17 72.22 72.99 73.47 74.27 75.22 75.72 76.02 75.94 76.49 76.57
47.41 46.19 51.12 54.00 52.54 52.00 52.01 50.57 49.83 51.31 58.00 54.10 58.69 58.46 62.01 64.01 64.29 64.18 64.90 64.68 66.43 67.18 67.98 68.86 69.76 70.34 70.19 70.50 71.06 71.98 73.11 74.05 73.87 73.53 73.90 74.35 74.39 74.85 75.77 76.10 76.22 75.94 76.50 76.73
45.65 49.20 52.82 52.12 51.24 51.16 51.24 51.19 49.85 49.49 50.86 60.38 58.76 57.09 59.28 62.92 65.10 66.01 66.97 66.73 66.76 67.25 67.55 68.24 68.62 69.39 70.62 70.50 71.03 71.94 73.33 73.88 74.36 74.86 74.27 74.36 74.67 75.08 74.58 75.00 75.60 76.18 76.69 76.69
48.66 53.11 51.94 50.57 50.50 52.29 50.14 52.29 51.77 50.13 49.26 46.25 57.73 48.12 57.01 59.54 61.52 63.70 65.64 66.50 67.06 67.57 68.60 69.11 68.89 68.84 69.78 70.78 71.89 72.77 73.24 73.80 74.23 74.87 74.11 74.22 72.91 72.32 73.69 74.81 75.85 76.20 77.20 76.58
48.77 51.02 52.00 51.04 51.65 52.84 50.44 52.18 51.60 50.51 49.09 46.93 50.19 50.95 48.91 59.26 57.86 61.46 63.59 65.62 66.07 67.58 68.28 68.77 69.14 69.26 69.80 70.95 71.43 72.19 73.31 73.63 74.68 74.49 75.36 73.97 74.52 73.94 74.98 74.85 75.68 76.68 77.53 77.06
47.78 50.23 52.01 52.77 53.21 53.41 52.39 49.02 47.73 47.36 47.31 43.48 47.23 49.48 48.94 52.05 54.12 57.61 61.40 64.66 66.61 67.24 67.90 69.14 70.15 70.35 70.02 70.87 71.21 71.93 72.61 73.50 74.32 74.24 74.58 74.68 75.12 74.41 73.99 74.58 74.28 74.87 75.78 76.77
44.83 44.97 46.82 47.58 49.31 51.38 50.86 48.42 42.28 41.66 41.56 42.44 44.84 47.67 49.43 53.97 56.71 59.37 60.48 62.05 64.55 68.20 69.16 68.71 68.71 69.18 70.10 70.22 70.61 71.32 72.14 72.57 73.29 73.63 73.81 74.25 74.96 75.56 75.16 75.14 74.38 74.99 74.59 74.99
42.82 39.76 44.50 47.10 45.28 47.29 49.27 48.91 43.64 38.27 39.24 42.47 44.79 44.66 47.28 50.51 54.36 57.47 62.02 63.31 64.86 66.61 68.81 69.66 69.03 69.35 69.98 70.07 70.64 71.07 71.64 72.95 73.02 73.34 74.32 74.77 74.85 74.18 74.38 75.38 74.55 74.57 74.93 75.59
41.40 39.98 45.25 45.97 46.36 45.85 45.50 44.97 46.61 42.97 42.00 43.44 44.16 47.29 50.83 52.76 55.28 58.00 60.73 62.58 63.37 64.35 68.32 69.46 69.86 69.32 70.07 70.29 70.34 71.19 71.99 72.62 72.64 73.01 74.02 74.11 74.26 74.35 74.49 75.44 75.97 75.15 76.45 75.76
42.56 39.59 42.99 44.34 46.01 46.55 46.08 45.76 43.83 45.08 38.96 38.82 41.66 42.54 43.78 49.57 53.35 57.03 57.56 59.24 62.66 65.47 65.17 69.11 70.51 69.45 69.95 70.68 70.84 71.17 71.71 72.16 73.29 73.07 73.43 73.48 73.28 74.11 74.69 74.83 75.22 75.86 76.31 76.72
43.50 43.01 41.28 43.83 41.17 39.40 44.04 43.84 43.05 45.11 42.38 41.43 39.58 41.13 48.96 52.08 54.46 53.58 56.02 59.60 61.64 65.78 65.39 67.71 70.17 70.97 69.83 70.70 70.66 70.63 70.99 71.29 71.93 72.61 73.78 73.70 73.45 73.12 73.73 73.45 74.42 75.55 76.21 76.81
43.29 42.08 38.02 38.59 42.74 43.25 42.29 40.67 41.22 43.82 40.32 41.43 44.34 40.28 52.54 54.33 54.92 54.47 55.83 59.37 60.99 63.86 66.52 68.26 69.07 70.24 69.63 69.88 70.47 70.27 70.78 71.00 71.41 72.41 72.74 73.05 73.61 73.45 72.84 73.15 73.73 75.11 75.63 76.44
44.24 39.96 36.64 37.57 41.47 43.32 40.95 41.72 40.92 40.38 42.95 41.04 41.78 39.69 52.28 54.86 55.49 54.92 55.67 58.03 59.46 60.10 60.42 61.11 66.99 68.62 69.03 69.18 70.02 70.34 70.54 71.25 71.72 71.92 70.85 71.31 71.63 72.51 72.90 73.34 73.65 74.20 74.47 75.42
44.95 39.77 39.14 38.09 38.25 40.69 38.83 39.59 41.11 41.07 41.61 39.94 41.17 40.94 47.09 51.75 53.18 54.35 55.90 57.85 58.38 58.50 57.94 58.54 58.96 61.68 63.34 68.31 69.92 69.64 70.31 71.07 71.50 72.00 71.82 71.73 71.65 71.63 72.08 74.39 74.25 73.90 74.24 74.63
43.82 38.08 39.72 39.78 39.99 39.86 39.04 38.70 39.48 39.45 40.03 40.23 40.86 42.56 46.99 50.37 51.80 52.92 55.34 56.84 56.98 57.31 57.47 57.09 57.93 58.32 60.55 61.12 63.10 66.82 69.72 70.38 71.25 71.33 71.55 71.65 73.51 73.70 72.45 71.63 74.16 74.30 74.35 74.11
42.23 37.77 39.28 36.18 38.65 38.58 37.19 39.14 39.31 39.51 39.89 40.08 40.93 42.50 49.16 51.62 52.90 52.47 52.78 54.09 54.49 55.69 56.84 57.46 57.99 58.01 58.33 59.06 59.61 62.78 65.55 68.42 71.25 70.77 70.88 72.90 72.93 73.74 73.52 73.46 73.04 74.69 74.23 73.95
39.76 39.27 37.53 33.49 36.85 36.65 34.56 38.14 38.75 39.76 42.14 41.66 38.88 44.56 48.54 48.21 49.03 49.80 51.27 51.68 52.02 53.58 55.39 57.09 57.57 58.23 59.14 58.82 58.62 59.80 62.89 66.63 69.84 69.93 71.37 72.41 72.87 72.72 73.20 73.38 73.46 73.87 73.79 74.27
38.70 38.07 38.07 34.53 35.41 29.20 37.33 42.10 42.01 40.62 43.62 46.01 46.07 46.33 46.62 46.44 47.49 50.23 49.94 49.62 50.79 52.64 54.20 55.68 57.27 57.70 59.18 60.08 59.24 59.73 61.85 62.63 64.59 69.58 70.43 72.22 72.41 72.42 73.29 73.19 72.74 73.35 73.02 73.15
40.67 39.42 34.36 33.23 33.12 34.81 37.46 40.90 41.51 40.78 40.70 45.54 45.38 45.55 46.03 47.24 48.27 49.24 49.44 48.86 49.22 50.19 53.06 54.65 56.22 57.15 58.44 59.41 60.05 59.09 59.59 59.84 60.31 61.27 64.70 65.65 66.88 71.26 72.63 72.69 72.85 72.99 72.71 72.56
40.82 41.09 39.07 34.66 29.85 29.08 37.34 42.17 44.16 44.40 36.80 43.94 44.62 43.24 43.60 45.81 43.87 48.73 47.92 47.92 48.39 49.53 50.85 51.77 53.74 55.78 56.80 58.05 59.53 58.62 56.28 58.16 56.95 58.01 60.13 63.67 66.03 67.18 67.60 72.47 73.63 74.06 74.05 73.03
37.30 38.27 35.63 35.07 33.80 36.11 40.85 43.07 45.17 34.74 38.29 43.95 43.79 43.44 43.02 42.63 44.26 45.99 47.17 47.45 48.54 49.18 49.72 51.30 52.37 52.98 54.65 56.83 58.21 57.92 56.95 54.78 57.43 58.75 59.06 61.24 63.44 64.89 66.91 68.39 69.92 73.05 74.02 74.42
36.29 35.44 34.58 34.73 33.24 30.61 43.88 42.61 38.75 42.64 43.63 43.75 43.38 43.18 42.18 43.52 44.43 45.10 46.21 46.50 47.12 47.51 48.59 49.99 50.70 51.95 53.39 54.70 56.52 56.79 57.14 56.26 56.46 57.96 58.05 59.58 61.84 63.10 65.12 66.21 68.02 68.77 69.79 72.29
34.19 37.96 37.70 38.53 38.63 43.44 45.07 43.41 44.68 43.85 42.21 42.88 42.65 43.42 43.70 43.32 43.79 44.89 45.05 45.91 46.67 47.47 48.02 49.22 49.44 50.63 52.31 53.59 54.99 55.59 57.09 58.07 55.50 55.47 57.19 58.43 59.88 61.03 63.65 64.04 65.42 67.73 69.07 69.77
38.43 39.39 38.52 36.74 40.42 42.11 43.71 44.04 44.02 44.45 43.41 43.87 44.15 44.18 44.16 43.20 43.93 43.79 45.36 45.88 46.21 46.73 47.48 48.65 48.92 49.33 50.28 52.34 53.44 54.60 56.90 57.96 56.82 54.53 54.99 56.88 57.46 58.41 61.03 64.70 65.17 66.08 68.25 68.64
40.20 39.94 38.09 37.40 38.82 39.88 41.84 43.15 44.06 44.18 44.49 44.12 45.07 45.00 44.32 45.03 44.89 45.26 45.33 46.01 46.23 45.82 47.53 48.60 48.28 48.57 49.43 51.24 52.17 53.50 55.88 56.65 55.60 55.63 55.07 54.96 55.63 57.35 58.40 61.08 62.48 64.81 66.79 66.10
40.15 39.15 37.64 39.85 43.65 43.03 42.35 44.38 45.12 43.94 43.96 45.28 45.30 45.05 46.21 46.28 45.43 45.37 44.88 45.28 45.84 44.56 46.54 48.42 49.61 49.54 49.88 50.45 51.20 52.68 55.84 56.11 53.58 52.95 53.80 54.76 54.75 55.32 55.82 58.11 59.44 55.27 53.75 53.18

GFSCGP_sfc_wetblb_084.txt.gz
Wetbulb
52.92 51.38 49.44 53.21 55.84 58.09 58.08 57.00 55.88 60.64 63.65 60.26 59.21 61.68 65.24 66.60 66.15 65.44 65.63 66.79 67.44 66.70 69.52 71.74 72.34 72.13 71.25 71.84 72.24 73.90 74.39 75.44 75.33 74.74 74.14 75.14 74.64 75.94 76.26 77.02 77.18 77.34 77.53 77.76
49.69 48.91 52.65 56.22 57.48 56.65 56.89 55.43 53.75 56.67 57.94 56.84 57.81 57.88 64.99 65.53 65.11 66.93 66.80 66.07 66.96 67.13 69.37 71.24 72.06 72.49 71.68 71.31 71.85 73.36 74.59 75.61 75.27 74.73 75.41 75.78 76.18 76.36 76.53 76.67 77.85 77.61 77.50 77.39
48.71 50.83 54.50 55.15 56.45 54.73 56.38 55.64 54.00 54.32 55.68 59.19 59.65 58.12 60.79 64.46 64.42 65.89 65.89 68.43 67.85 67.02 68.29 70.64 71.40 71.84 72.17 70.70 72.28 73.08 74.82 75.54 75.95 76.64 76.23 76.76 77.09 77.53 76.52 76.60 76.63 77.14 78.07 77.90
50.23 54.21 53.04 53.82 54.36 55.68 53.08 57.43 55.13 53.36 52.66 52.97 59.76 53.51 59.59 61.30 61.97 64.31 65.81 66.21 68.59 68.79 68.30 69.89 71.33 71.72 72.09 71.78 72.52 73.93 74.94 75.58 76.04 76.91 76.37 76.39 74.20 73.20 74.43 75.66 76.21 77.32 78.30 77.88
49.91 51.76 53.12 53.05 54.08 56.26 53.57 57.22 56.10 54.43 53.12 51.48 53.70 53.61 57.83 60.52 59.45 62.91 64.88 66.33 67.55 69.06 69.91 69.80 71.16 72.14 72.59 73.29 72.90 73.39 74.97 76.02 76.35 76.85 77.08 75.63 75.54 74.54 75.24 75.18 77.20 78.03 78.32 78.25
53.08 55.39 56.76 56.04 56.99 56.75 56.34 54.64 54.53 54.61 53.33 47.93 52.29 53.35 53.29 57.04 58.53 61.18 63.45 65.86 67.91 69.98 70.67 71.27 71.89 72.59 72.64 73.29 73.70 73.98 74.86 75.96 76.55 76.72 77.02 76.88 76.23 75.87 74.83 75.57 75.17 75.51 76.31 77.05
50.25 51.93 52.50 53.63 55.52 56.91 54.77 51.98 46.78 46.58 46.32 46.48 52.95 52.04 54.19 56.80 57.42 60.70 62.72 64.70 66.42 70.15 69.24 71.04 71.70 71.86 72.34 72.48 73.03 73.80 74.71 75.27 76.25 76.13 76.39 76.81 76.87 77.04 76.79 75.73 74.68 75.92 75.06 75.61
45.58 42.93 49.07 50.07 52.24 52.83 52.69 51.99 47.40 42.84 44.24 46.87 51.35 49.60 50.39 57.21 60.90 63.87 65.25 66.49 67.18 68.60 71.08 70.37 70.50 72.32 72.40 72.77 73.27 74.01 74.30 75.02 75.92 75.97 76.31 77.06 77.37 76.06 75.92 76.14 74.66 75.00 75.44 76.02
47.49 43.70 48.29 48.55 50.26 50.80 52.01 50.12 52.88 48.55 50.87 47.87 49.45 51.34 54.66 58.16 59.94 61.77 62.71 64.09 66.61 67.67 69.46 70.52 71.62 72.34 72.48 73.04 73.76 74.30 74.76 75.24 75.77 75.79 76.23 76.70 77.11 76.76 75.86 76.44 76.71 75.69 76.87 76.44
48.60 43.76 47.04 47.33 49.50 50.45 51.92 54.35 47.90 48.53 44.16 43.50 46.61 49.23 49.71 54.52 56.71 59.31 59.41 60.81 63.98 68.69 68.35 69.96 72.27 72.90 73.00 73.53 74.06 74.76 75.25 75.22 75.78 75.91 75.94 76.14 76.51 77.09 76.93 76.64 76.32 76.77 76.12 77.49
49.35 48.25 45.55 47.90 46.96 47.29 48.86 49.22 50.21 50.72 48.84 45.45 44.52 47.13 54.52 55.89 56.14 56.63 58.57 59.94 61.72 63.72 68.37 70.03 72.21 71.99 73.37 73.68 73.98 74.04 74.65 75.17 75.55 75.75 75.77 75.94 75.93 76.20 76.58 76.09 76.22 76.31 77.02 77.66
48.49 48.47 44.75 45.24 46.86 47.94 48.06 48.98 50.29 47.22 46.67 48.91 48.72 45.52 56.43 58.30 57.69 58.90 59.25 58.81 59.81 61.78 65.30 63.74 65.38 69.31 71.86 72.38 73.21 73.57 74.02 74.11 75.06 75.99 75.84 75.78 76.22 76.38 75.67 75.74 75.98 76.35 76.60 77.05
48.78 47.28 42.31 42.63 45.54 47.30 47.04 47.64 48.63 49.56 50.75 48.40 45.82 44.77 57.05 59.05 58.83 59.85 59.12 59.94 58.13 58.72 60.38 60.47 63.43 64.03 65.40 67.87 70.65 72.84 73.68 73.85 74.52 75.08 74.37 74.96 74.96 75.53 74.74 75.38 76.10 76.35 76.36 76.78
49.32 47.40 45.18 43.67 44.47 47.30 44.32 44.60 46.53 48.10 47.36 48.52 48.59 48.19 53.37 55.90 56.87 59.39 58.94 60.40 59.17 57.89 58.28 59.34 59.30 60.06 60.45 64.73 67.80 68.19 71.05 73.50 74.18 74.49 74.43 74.02 73.95 73.75 74.20 74.63 75.91 76.07 76.52 76.30
48.65 43.64 45.91 45.12 44.79 44.72 43.86 43.00 43.92 46.13 47.19 46.91 47.97 49.17 52.43 54.84 55.90 57.51 59.64 59.72 60.16 60.25 58.99 57.97 58.24 59.38 60.61 61.16 61.51 65.08 68.35 70.45 72.57 73.11 73.87 74.42 75.37 75.29 74.42 75.10 74.80 75.69 76.22 76.46
48.03 43.78 45.55 42.64 42.92 43.25 42.10 43.06 42.85 43.77 44.91 47.00 49.18 48.72 54.58 55.97 57.11 56.25 57.01 57.63 57.55 58.53 59.28 60.54 60.36 59.62 59.64 59.78 59.94 60.99 63.41 65.16 69.38 72.10 72.95 74.33 75.15 75.49 75.61 75.80 75.37 75.08 75.95 76.40
46.02 45.30 43.00 40.27 41.98 41.27 39.37 43.55 43.42 44.09 45.27 46.68 45.76 50.37 53.58 53.11 53.38 54.17 55.26 56.08 55.97 56.98 58.21 58.81 60.07 60.67 61.46 62.17 61.59 60.31 61.48 62.81 63.93 65.67 71.95 72.65 74.11 74.22 74.83 75.42 75.67 75.63 75.18 75.59
44.39 44.76 44.30 42.96 41.23 34.35 42.68 46.34 45.57 44.54 46.91 47.93 49.05 49.92 51.03 51.40 52.45 54.13 54.38 53.65 53.42 53.93 55.00 57.11 58.48 59.45 60.88 61.96 62.71 63.28 61.92 60.77 60.34 60.53 61.69 64.67 69.85 72.01 74.52 74.89 75.09 75.49 75.59 75.49
47.72 45.32 41.46 38.71 38.54 40.63 41.43 43.91 44.31 44.30 44.95 48.63 49.29 49.47 50.17 51.30 52.21 53.06 53.07 53.29 53.24 53.73 54.51 55.18 56.22 57.10 59.41 60.30 61.52 62.49 62.78 61.80 60.74 59.36 59.33 60.34 62.29 65.89 69.28 72.94 74.49 75.38 74.61 75.37
44.82 46.56 42.75 40.26 36.12 34.29 43.42 46.31 48.26 47.64 41.77 48.99 49.58 49.01 49.49 50.93 47.10 50.53 52.06 52.48 52.96 53.79 54.29 54.47 55.22 56.26 57.11 58.22 59.24 60.23 61.31 61.68 61.00 60.01 60.93 60.48 61.62 63.47 64.23 69.16 72.95 75.35 77.22 75.02
41.20 42.07 39.44 40.12 38.19 41.53 46.30 47.00 49.13 38.82 42.82 48.55 49.28 49.18 49.77 48.41 50.51 51.27 52.11 52.23 53.05 53.22 53.63 54.07 54.86 55.15 56.54 57.64 57.69 57.97 59.66 59.89 61.24 61.71 62.00 62.07 61.15 61.45 62.84 64.12 68.47 72.90 75.43 76.06
41.20 40.10 39.81 41.28 38.11 35.89 48.58 46.91 42.68 47.61 49.66 49.05 48.54 49.09 48.50 48.88 49.15 49.92 50.88 51.59 52.03 52.18 53.02 53.69 53.58 54.13 55.85 56.84 56.96 56.74 57.89 60.44 61.27 61.75 61.55 61.45 62.14 62.92 62.74 64.03 65.51 67.29 71.16 73.00
39.75 44.46 43.84 43.14 44.59 48.77 49.95 49.31 50.79 49.14 46.95 48.34 48.20 49.07 48.43 47.61 48.07 48.96 49.46 50.43 51.15 51.93 52.31 52.65 52.99 53.54 54.69 55.97 56.63 55.81 57.56 58.91 60.17 60.66 60.89 61.39 60.70 61.12 62.65 62.94 64.58 65.25 68.27 70.02
44.09 45.40 42.73 42.34 46.06 47.69 47.74 47.75 48.46 48.44 48.05 48.36 48.51 48.41 48.55 47.78 47.97 48.59 49.77 50.02 50.55 51.34 51.39 51.72 52.07 52.34 53.07 54.92 55.41 55.93 56.96 57.94 58.78 59.23 59.82 60.29 60.31 56.92 60.37 62.23 63.21 64.04 66.63 67.37
47.31 45.43 43.46 43.71 45.24 46.16 48.03 48.13 48.51 48.33 48.82 48.08 48.48 48.06 47.98 48.39 48.07 48.78 48.63 49.12 49.46 49.36 50.28 50.22 49.95 51.01 52.07 54.29 55.03 55.54 56.17 56.83 56.43 58.07 58.47 58.53 59.16 60.30 56.75 59.55 61.45 62.13 63.97 63.41
46.01 44.88 42.75 43.83 47.63 47.04 47.43 49.07 49.59 48.36 48.15 48.48 47.80 47.35 48.59 48.88 47.92 48.57 48.62 49.13 48.56 48.48 48.37 48.78 47.47 48.81 50.94 51.75 53.27 55.90 56.68 56.32 54.59 56.21 56.79 56.86 57.05 57.91 58.59 56.41 58.89 54.73 51.91 50.18

GFSCGP_sfc_wetblb_087.txt.gz
Wetbulb
54.27 52.27 51.12 54.07 56.26 58.68 58.66 57.75 56.97 59.45 64.41 62.05 60.77 63.06 65.19 64.57 65.97 65.71 66.05 66.45 66.31 66.87 69.67 69.91 70.94 70.99 70.71 72.37 73.73 74.57 74.63 75.70 75.58 74.66 74.07 75.54 74.51 76.46 77.94 77.46 77.67 77.60 77.24 77.55
51.72 49.56 54.15 55.23 55.83 57.05 58.47 57.29 56.59 60.03 63.51 61.54 61.71 61.17 65.49 66.37 66.37 66.75 66.56 65.97 66.25 67.58 67.88 69.04 70.41 70.60 70.19 71.12 72.63 74.43 75.06 75.97 76.02 75.46 76.83 75.63 74.23 75.21 76.27 76.89 77.65 78.43 77.19 77.55
50.59 52.15 54.71 53.75 54.59 55.87 57.99 57.45 57.38 57.08 58.92 59.51 59.16 59.28 63.44 64.76 67.30 67.63 67.47 67.93 67.40 66.89 66.24 68.74 69.93 70.35 71.04 71.16 71.67 73.89 75.23 76.15 76.15 77.66 76.09 76.40 77.61 76.10 75.33 75.45 75.91 76.81 77.27 77.27
52.45 54.46 53.50 52.80 54.99 56.92 54.71 58.92 57.59 57.23 56.70 53.98 60.52 53.05 60.56 63.52 63.93 66.07 66.01 66.84 67.68 67.95 67.62 69.63 69.15 70.62 71.14 70.51 72.07 73.94 75.32 75.87 75.98 77.72 76.60 78.37 73.93 73.73 73.59 77.19 75.51 76.96 77.33 77.63
50.96 52.35 52.10 52.34 54.86 56.86 54.68 59.46 57.53 56.35 55.64 55.77 57.11 54.28 55.08 64.24 62.47 64.44 66.70 67.46 67.95 67.99 68.52 68.98 70.02 70.42 71.62 71.64 72.32 73.89 75.67 76.72 77.85 77.72 78.17 76.08 76.80 73.31 74.13 74.59 76.80 78.44 78.44 77.68
53.21 55.16 55.24 54.92 56.82 56.97 58.20 57.65 57.81 56.89 55.23 50.32 54.05 55.40 53.01 59.08 61.84 63.55 65.88 66.46 69.17 69.41 68.67 69.94 71.05 71.23 72.30 72.17 72.47 73.63 75.50 76.93 77.07 76.92 77.20 77.62 76.75 75.27 73.13 75.02 74.59 75.15 75.89 76.62
52.73 52.54 56.35 57.90 55.15 57.19 56.93 54.74 49.63 48.17 48.54 48.08 54.10 54.46 53.68 60.03 62.25 63.81 64.04 66.60 68.44 70.06 69.00 70.44 68.86 70.91 72.34 71.92 72.33 73.25 75.25 75.73 76.46 76.55 76.72 77.05 77.06 77.10 76.78 76.20 75.20 72.97 74.09 75.03
48.10 46.76 53.92 57.46 56.60 54.43 54.76 54.22 49.61 44.28 45.99 48.30 53.95 51.98 54.17 60.92 64.30 65.47 65.98 67.66 67.97 69.18 71.03 69.86 71.22 71.25 71.81 72.43 72.50 73.51 75.15 76.23 76.58 76.52 77.71 78.44 78.00 76.19 75.38 76.20 76.86 74.23 77.33 75.93
48.40 47.89 52.75 53.63 56.69 55.05 54.45 51.49 54.68 50.63 52.25 49.17 52.02 54.05 58.77 61.75 62.28 62.99 62.04 65.34 68.87 68.52 70.62 71.48 72.55 69.63 71.19 72.63 73.45 74.08 75.67 75.99 76.77 76.72 77.36 78.31 78.23 78.05 77.02 79.18 77.44 75.70 77.46 74.94
51.69 46.77 50.71 51.11 53.06 54.61 53.36 56.39 50.48 50.87 45.99 45.23 49.98 51.33 52.77 57.45 59.31 59.44 60.03 62.53 66.45 69.64 69.72 71.43 71.06 70.65 69.68 71.97 72.89 74.16 75.00 75.70 76.84 77.30 77.09 76.90 77.28 77.81 77.85 77.24 77.42 77.62 78.03 77.15
52.75 50.64 48.54 50.48 49.90 50.92 52.10 51.67 53.33 52.89 51.13 47.54 46.40 49.93 59.10 58.62 59.67 58.51 58.87 59.99 61.90 66.27 68.68 71.06 70.49 69.28 72.21 73.29 72.74 73.78 74.78 75.48 76.31 77.03 77.37 77.34 77.03 77.43 77.66 77.03 76.94 77.19 77.11 77.55
52.85 50.63 46.93 47.88 51.40 52.16 52.59 52.55 53.27 48.86 48.60 50.42 49.05 49.59 60.52 60.22 61.58 60.26 58.58 58.78 61.84 63.75 65.38 65.87 67.44 68.10 68.81 70.17 70.27 70.16 72.95 74.39 75.82 76.86 77.35 76.98 77.02 77.35 76.74 77.25 77.22 78.02 78.04 77.44
51.41 48.84 45.59 45.68 48.56 50.95 49.75 52.04 52.73 53.05 52.74 50.35 47.57 49.57 60.05 60.61 61.37 61.87 58.71 59.49 59.74 62.06 63.98 62.86 64.03 64.60 64.75 67.45 70.28 69.14 70.36 70.22 74.27 76.13 76.34 76.75 76.61 76.52 76.54 77.10 77.38 78.31 77.81 77.68
52.68 49.74 48.12 44.00 47.12 49.80 48.16 49.08 50.89 51.11 48.74 50.03 50.95 52.23 56.80 58.27 58.94 58.34 59.45 59.43 59.24 59.42 61.70 62.73 62.58 61.86 63.47 63.52 64.72 67.42 67.44 69.81 71.67 71.99 74.68 75.92 76.15 76.72 76.74 77.81 77.86 77.02 78.45 78.07
50.54 46.40 48.31 48.08 47.38 48.78 49.10 48.43 48.05 49.01 50.83 48.85 51.76 53.53 56.36 57.95 59.17 59.50 58.79 59.71 59.79 59.79 59.88 60.00 60.26 61.37 61.81 62.29 62.77 64.16 65.54 68.12 69.76 71.94 73.11 72.02 76.31 76.73 76.65 76.91 76.96 76.71 78.43 78.10
50.69 47.63 48.07 45.83 46.28 46.24 45.11 46.36 46.44 48.38 49.34 50.89 52.59 51.94 57.00 59.26 59.80 59.37 59.79 59.36 58.06 58.96 60.05 61.35 61.67 61.89 61.73 61.92 61.23 61.50 62.64 64.03 66.85 68.41 68.48 71.50 73.49 74.45 76.39 76.99 76.39 76.64 76.16 78.04
49.43 48.30 46.56 42.99 45.99 44.70 42.50 46.44 46.91 47.52 49.54 51.35 50.74 54.51 57.30 56.68 56.82 57.28 57.96 58.24 57.92 58.61 59.29 60.24 60.86 61.75 62.55 63.15 63.74 61.94 61.10 61.63 62.02 62.78 62.56 66.27 68.85 69.38 70.39 74.52 76.34 76.88 77.21 77.05
48.57 48.65 47.72 43.13 45.43 37.38 46.32 49.75 49.17 47.79 48.95 52.06 54.45 55.67 56.48 56.38 56.76 56.47 57.01 56.42 56.06 56.43 57.16 58.00 58.36 59.33 61.25 62.30 62.69 64.46 65.01 61.91 61.43 60.83 61.34 62.52 64.47 66.61 67.91 70.10 74.20 76.17 76.17 75.79
49.96 48.86 44.91 41.91 41.84 44.10 44.86 47.14 46.36 46.93 47.67 51.31 52.70 53.49 54.47 54.78 55.78 54.30 55.45 56.05 56.01 56.45 57.26 57.90 58.27 58.92 60.00 60.44 60.84 61.87 63.36 64.37 64.33 62.71 62.91 62.11 61.82 62.35 64.60 67.32 68.17 72.79 75.60 76.99
48.63 49.90 45.77 43.93 39.81 37.93 46.23 49.01 51.72 50.22 44.66 51.88 53.13 52.72 52.56 52.95 48.64 52.70 55.49 55.14 55.13 55.81 56.71 56.89 57.45 58.25 58.65 59.62 60.03 59.78 60.62 61.81 62.48 63.12 63.62 64.64 64.70 63.11 61.61 62.71 64.93 67.65 71.77 74.88
43.99 45.02 42.43 42.91 41.20 44.48 49.84 49.69 50.05 40.68 45.99 52.49 52.98 53.20 51.96 51.52 53.43 54.15 54.62 54.37 55.14 55.20 55.50 56.33 57.13 56.85 57.95 58.98 59.18 58.96 59.46 59.78 61.60 62.47 63.13 64.04 64.52 64.68 64.36 63.51 64.56 65.20 66.88 70.05
43.85 42.51 42.43 43.68 41.70 39.19 51.48 49.09 44.64 50.64 52.92 52.74 52.86 52.13 51.29 51.98 52.24 52.41 52.88 53.12 53.75 54.09 54.77 55.36 55.47 55.98 57.25 57.99 57.94 57.98 58.59 60.23 61.11 61.42 62.09 63.01 63.78 63.73 63.63 64.88 66.17 65.55 66.26 67.13
43.25 47.17 45.35 45.27 46.48 52.53 53.05 51.77 54.36 54.30 52.34 51.47 51.27 51.73 51.08 50.50 50.85 51.25 52.09 52.43 53.19 53.66 54.58 55.16 54.46 55.10 56.41 57.50 57.62 56.71 58.21 59.43 59.64 59.97 60.48 61.88 62.75 63.05 63.98 63.07 64.51 63.95 67.03 67.22
47.66 49.46 46.68 46.57 49.68 50.03 51.56 52.11 52.03 51.39 51.29 51.32 51.53 50.87 50.58 50.20 50.44 50.89 51.50 51.92 52.52 52.75 52.46 53.56 53.08 53.27 54.18 55.42 55.97 57.14 58.41 58.72 58.33 58.48 58.96 60.00 60.95 60.75 62.01 62.75 62.28 62.46 62.91 64.53
49.26 49.06 46.02 46.58 49.27 50.34 50.86 50.72 50.93 50.66 51.38 50.83 51.21 50.86 50.44 50.17 50.28 50.95 50.80 50.97 51.25 51.71 52.17 52.61 52.19 51.54 51.84 53.32 54.04 55.95 57.15 57.94 57.56 57.40 57.54 58.18 59.45 60.08 61.62 62.41 61.91 61.52 62.74 60.29
49.11 47.89 45.91 45.76 49.82 49.84 50.34 52.40 52.24 51.04 50.68 51.40 50.77 50.02 50.95 50.82 50.76 51.12 52.04 51.76 51.45 51.16 51.68 51.47 51.56 51.40 51.09 50.31 51.71 53.80 54.74 55.87 56.81 56.37 56.72 56.76 57.77 58.46 58.61 58.73 59.22 52.48 51.69 49.97

GFSCGP_sfc_wetblb_090.txt.gz
Wetbulb
55.24 50.79 49.63 52.99 56.46 58.46 58.41 57.84 58.17 58.95 64.25 63.24 61.91 61.35 62.60 64.97 64.43 64.09 64.34 64.92 65.59 66.19 68.65 69.07 69.13 69.70 71.42 73.17 74.00 75.54 75.22 76.56 76.05 75.63 74.19 75.93 73.74 77.54 77.86 72.80 74.34 78.16 78.89 76.51
51.68 48.14 53.67 55.37 56.11 56.43 57.30 56.14 57.08 58.28 60.22 58.93 61.71 60.64 63.79 64.68 64.00 64.17 64.49 65.02 65.75 65.96 67.20 68.36 68.92 68.98 70.04 72.51 73.91 75.46 75.95 76.69 77.37 76.13 77.31 76.78 75.26 77.62 76.69 76.30 78.37 79.10 78.24 78.82
50.25 51.17 53.74 53.67 53.29 52.96 54.98 55.41 57.89 57.18 58.85 58.42 58.21 58.04 60.97 63.75 66.12 66.11 66.37 66.66 66.95 66.55 66.27 67.96 69.47 69.58 70.07 71.81 73.25 74.73 76.31 76.18 77.06 78.55 76.72 71.75 72.41 71.63 72.67 76.90 76.91 77.41 78.11 78.73
51.74 54.07 52.37 52.49 51.58 53.30 51.94 58.39 58.45 57.13 53.68 53.14 61.08 52.77 59.43 62.30 62.69 64.81 65.88 65.90 66.28 67.40 67.45 69.14 69.43 69.08 69.57 71.24 73.03 75.11 76.64 75.92 75.95 78.63 78.67 75.93 71.97 71.03 74.73 76.56 74.19 77.01 78.52 78.73
50.50 51.93 51.58 51.16 51.82 54.89 54.15 59.46 58.14 57.99 55.47 54.39 55.17 55.21 54.90 53.69 61.01 62.88 65.41 66.48 66.25 66.82 68.18 68.88 69.75 70.56 70.50 71.73 71.99 74.67 76.03 76.68 76.05 77.28 78.38 76.51 75.59 72.87 71.90 73.71 74.56 77.35 78.23 78.94
52.51 55.21 54.09 53.76 54.75 57.45 58.23 56.47 57.91 57.33 55.23 49.64 53.68 53.32 54.79 53.26 55.63 63.19 65.73 66.67 67.39 68.44 67.75 69.37 70.47 70.01 70.20 70.34 71.58 74.13 75.53 76.46 77.79 76.99 77.14 76.30 75.23 71.55 73.85 75.41 76.26 75.55 76.61 77.30
51.26 51.89 54.01 55.13 53.16 56.38 55.60 53.63 49.61 47.81 47.60 46.85 55.08 52.95 55.51 56.61 58.22 58.67 65.52 66.82 68.26 69.14 69.22 68.50 68.90 70.01 70.76 68.93 71.80 73.90 75.22 75.69 76.42 76.74 76.75 77.01 76.06 76.61 72.46 73.84 71.55 73.63 72.05 75.09
46.57 46.76 51.54 55.16 54.07 53.37 53.58 54.25 49.60 44.02 45.13 47.63 53.75 51.46 53.61 57.45 63.14 65.06 66.94 67.16 65.62 65.18 69.91 69.37 69.54 71.32 71.83 71.14 71.32 73.30 74.95 75.54 76.20 76.70 77.16 78.41 78.42 77.20 75.64 76.30 75.78 73.09 75.01 74.63
47.76 48.38 53.84 56.18 57.53 56.83 53.08 51.30 55.76 51.10 51.65 48.54 51.97 55.11 58.58 62.15 61.85 63.29 64.26 66.36 67.18 66.49 69.34 71.01 70.93 71.49 72.15 71.30 70.61 72.97 74.90 75.82 76.33 76.39 77.47 77.96 78.18 77.73 76.46 78.27 79.05 78.46 76.88 73.44
52.00 46.62 53.49 54.43 55.09 56.17 54.39 55.99 50.06 51.67 45.29 44.35 49.76 51.59 53.35 58.34 58.67 60.43 61.36 61.83 64.53 66.75 68.49 69.30 69.18 70.83 72.06 72.84 71.12 74.44 75.04 75.78 76.84 76.71 76.98 77.45 77.82 78.42 78.68 79.21 76.13 79.88 76.24 72.71
52.67 50.69 49.21 51.75 51.00 50.78 52.10 51.18 52.71 52.60 50.70 46.26 46.10 49.42 59.55 59.52 59.72 59.43 60.73 62.31 63.26 63.72 65.06 66.63 67.86 68.60 70.66 69.83 68.13 68.73 71.42 75.31 76.59 77.15 77.41 77.11 77.17 77.73 78.49 78.24 79.37 79.20 80.20 74.58
53.26 50.52 46.86 47.99 51.52 53.52 53.98 52.87 52.93 48.40 48.90 50.93 49.22 48.71 59.01 60.73 60.73 60.70 60.08 61.34 62.95 62.29 62.32 64.42 65.75 67.16 67.44 66.38 68.75 69.83 70.46 71.25 74.84 76.75 77.50 77.38 77.44 77.66 77.47 77.73 78.21 79.22 78.95 79.47
51.55 49.24 45.55 46.20 48.96 51.26 50.08 52.07 52.83 52.94 52.96 49.87 45.51 48.80 59.52 61.10 60.25 60.11 59.50 59.89 61.06 61.96 61.83 62.35 63.34 64.07 64.99 65.57 64.94 67.65 68.85 69.54 70.40 75.06 76.91 77.24 77.00 77.25 77.20 77.81 77.93 78.83 78.90 78.53
54.68 48.68 47.46 42.22 46.48 49.80 47.72 50.05 51.96 51.37 48.13 49.69 49.11 52.47 55.67 57.47 57.78 58.43 59.35 59.25 59.81 60.76 61.30 61.07 61.74 61.99 62.71 62.56 64.30 65.51 66.93 68.32 70.13 70.48 73.80 73.11 76.48 76.64 77.03 78.18 77.80 78.18 78.70 77.99
50.33 45.58 48.12 49.42 48.79 49.19 49.07 48.83 50.03 49.14 50.65 48.56 51.83 52.72 55.91 56.86 57.46 58.30 59.43 60.45 60.42 60.42 60.52 61.54 61.62 62.34 63.12 62.71 62.68 64.29 64.31 65.89 67.97 68.58 68.56 71.14 72.07 75.61 78.77 78.83 77.58 78.57 79.27 78.18
50.89 45.68 48.34 46.42 47.65 47.70 47.01 48.45 48.79 49.24 49.73 51.90 52.03 51.49 57.34 58.49 59.83 59.11 59.07 58.99 58.84 59.38 60.06 61.14 61.84 62.73 63.52 63.46 62.14 62.91 63.41 63.90 65.51 65.97 65.69 68.09 69.39 71.28 72.96 74.84 77.05 77.55 78.02 77.85
49.19 47.16 45.86 43.27 47.36 46.19 42.80 46.65 47.11 48.35 50.74 54.26 50.74 52.34 56.50 57.22 57.40 57.93 58.45 58.72 58.39 58.44 58.55 58.85 59.65 60.51 61.22 62.02 64.87 62.57 62.30 63.40 63.76 64.49 64.67 65.68 67.46 68.33 69.30 70.74 73.01 75.63 76.67 77.70
49.53 48.89 47.43 43.60 45.82 37.76 47.07 50.88 50.13 48.68 49.60 55.12 56.05 56.63 56.80 56.82 57.39 58.11 58.33 56.65 56.55 57.25 57.51 57.82 58.27 59.28 60.97 60.39 61.15 63.87 65.07 64.52 64.24 63.69 63.67 64.33 64.33 64.86 66.12 67.47 69.05 69.94 72.28 75.66
50.93 49.11 45.03 41.59 41.18 45.34 46.51 48.17 47.47 47.39 47.57 55.23 55.65 55.55 55.52 56.19 55.82 54.51 56.71 57.24 56.59 56.99 57.34 57.47 57.83 58.70 61.05 59.98 61.82 62.66 63.28 64.82 64.03 63.76 64.61 64.63 64.37 64.36 64.38 64.04 65.31 67.44 68.66 70.43
48.75 49.46 45.83 44.64 39.92 37.43 45.87 49.85 51.74 50.06 44.42 53.31 56.00 55.28 54.88 55.33 49.90 51.46 55.11 56.09 55.80 56.17 56.56 56.39 57.31 58.02 58.48 59.35 59.93 59.86 60.08 61.56 61.57 62.17 63.34 64.88 65.83 65.40 65.25 65.35 64.81 66.68 68.26 69.30
43.72 44.80 42.31 43.05 41.69 44.76 50.03 50.23 50.80 41.65 45.60 53.67 55.15 54.82 54.17 52.04 54.09 55.41 56.33 55.62 56.01 55.79 55.95 56.50 56.91 56.81 57.61 58.42 58.30 59.16 59.53 59.00 60.41 61.77 62.47 63.88 64.75 65.19 66.37 66.57 67.02 66.10 66.04 67.83
43.88 42.32 42.00 43.02 41.22 39.17 52.17 49.74 44.84 51.73 54.70 54.06 54.90 54.87 54.04 54.12 54.40 54.48 54.34 54.54 54.26 54.32 55.07 55.83 55.52 55.74 57.02 58.10 57.83 57.48 58.65 60.37 61.02 61.21 61.44 62.35 63.82 63.36 63.19 65.92 65.30 65.64 66.73 66.89
43.54 46.97 45.55 46.19 46.51 52.61 53.54 53.29 54.82 54.58 53.13 53.41 53.58 53.55 53.69 52.58 52.50 52.86 52.95 53.42 53.79 54.30 54.63 54.81 54.06 54.77 56.32 57.62 56.61 55.29 57.99 59.36 60.23 60.07 59.93 60.67 61.66 62.57 63.97 64.34 63.52 63.54 64.30 67.15
49.06 50.81 47.15 47.74 50.71 51.71 52.44 54.29 54.61 54.61 53.90 53.32 53.24 52.45 52.11 51.57 52.05 52.25 52.56 52.51 52.76 52.60 52.43 53.47 52.94 52.66 52.82 54.61 54.88 55.95 57.54 58.32 58.38 58.57 59.48 59.72 59.55 59.53 61.49 61.89 61.83 62.68 62.06 62.32
49.75 50.11 47.20 47.41 50.01 51.18 51.91 51.70 51.93 52.22 52.83 52.03 52.00 51.70 51.45 51.36 51.13 51.69 51.54 51.82 51.39 51.54 52.04 52.52 52.01 51.70 52.06 53.02 53.03 53.61 54.86 54.88 54.47 55.89 57.52 58.23 58.40 59.09 59.82 61.77 61.64 61.43 62.91 61.14
50.13 47.52 46.91 45.34 51.00 51.18 51.36 52.69 52.45 51.08 50.55 51.61 51.07 50.95 51.72 52.11 51.55 51.63 51.32 52.01 51.56 51.12 51.91 51.65 51.75 51.65 51.58 51.94 51.89 52.40 52.75 52.69 51.29 51.71 53.13 54.90 55.73 56.90 57.53 57.97 58.83 55.30 51.23 49.12

GFSCGP_sfc_wetblb_093.txt.gz
Wetbulb
51.60 45.43 42.92 46.69 49.75 51.68 54.05 55.07 55.38 56.55 59.78 58.13 59.24 59.41 61.32 63.49 63.43 62.11 62.37 61.88 62.30 63.22 64.42 66.32 68.80 70.30 70.94 69.97 69.71 70.89 69.78 71.85 70.71 72.04 71.14 70.76 69.90 72.41 71.71 72.16 72.16 73.98 72.53 71.11
47.41 44.12 49.63 51.64 51.86 51.72 53.10 52.67 54.86 57.25 59.63 58.69 59.73 58.77 61.67 62.90 62.30 62.70 61.97 61.51 62.97 63.56 64.17 65.07 66.70 69.02 70.10 69.73 69.51 71.64 70.65 71.80 70.23 71.13 72.58 72.23 71.92 72.28 72.30 71.96 73.28 73.97 73.70 72.64
45.74 48.43 52.75 50.12 50.25 49.94 50.57 48.60 55.25 54.95 57.61 59.30 57.16 55.48 59.18 62.57 63.56 64.68 64.57 64.22 63.53 63.36 64.01 64.05 64.59 68.01 69.56 69.71 70.21 71.80 71.60 71.38 72.22 71.19 71.22 70.81 70.71 68.69 71.35 71.16 72.72 74.32 74.64 73.93
47.80 51.89 50.66 48.76 48.43 49.41 43.55 53.05 56.97 56.19 54.14 48.92 57.15 47.15 52.93 59.17 60.27 62.44 63.01 63.45 64.04 64.46 64.92 65.17 64.49 67.22 68.73 69.90 71.59 72.56 72.22 71.35 71.59 73.00 70.23 69.97 65.91 65.52 69.80 71.53 72.69 73.15 73.87 74.49
46.28 48.82 48.66 47.76 48.86 50.56 47.92 58.42 58.25 57.13 53.34 53.37 53.64 50.17 54.21 57.99 58.19 60.11 61.88 64.14 64.40 65.61 65.89 65.49 65.52 66.25 68.99 70.46 71.04 72.54 72.28 71.45 70.10 72.09 71.45 69.25 68.61 70.42 69.78 70.82 71.56 73.22 73.37 74.18
48.94 52.60 50.99 49.58 51.80 51.60 53.08 54.00 54.53 53.03 50.19 44.20 52.04 52.26 51.62 54.70 58.30 61.12 63.96 64.70 65.35 65.63 65.68 67.07 67.27 66.91 68.59 70.13 71.09 71.95 72.53 71.54 71.21 71.89 71.87 71.07 69.68 69.01 69.65 69.89 71.17 71.63 72.97 73.18
47.25 48.29 50.88 52.17 48.36 50.60 50.94 47.40 41.17 42.50 41.48 41.83 49.36 51.44 50.95 57.52 58.47 60.58 60.75 61.45 66.27 65.81 66.20 66.63 67.27 67.21 67.61 68.15 70.28 71.35 72.01 72.16 72.69 72.02 72.16 71.54 71.56 70.01 70.41 70.38 69.88 70.50 71.71 71.89
41.05 40.48 48.80 51.85 47.89 46.73 47.50 45.92 40.92 40.69 39.22 42.78 49.75 46.81 50.58 58.25 60.34 62.82 65.01 65.20 65.10 65.27 64.70 65.69 67.29 67.73 68.14 67.43 69.54 70.88 71.45 71.46 71.85 72.41 72.53 72.60 71.96 71.32 70.34 71.55 71.09 71.78 71.47 71.89
42.32 43.55 51.47 51.98 52.29 50.71 48.99 45.37 48.88 44.98 45.51 41.43 47.17 49.76 54.46 57.35 57.16 61.17 63.01 62.78 63.51 65.56 68.19 67.28 66.89 67.94 68.86 67.70 69.44 70.93 71.68 71.98 72.31 73.27 72.98 73.82 72.66 72.05 72.52 72.26 73.92 72.12 72.44 74.54
49.15 40.73 50.25 51.25 53.31 53.73 51.15 50.57 42.71 43.02 39.46 36.94 45.71 46.93 49.31 55.64 58.14 60.75 61.15 61.66 62.58 64.97 67.72 67.67 68.70 69.11 68.50 69.72 69.79 71.57 70.93 71.80 73.01 72.98 73.99 74.00 73.29 73.10 73.31 73.44 73.06 71.92 71.96 72.19
48.01 44.19 46.63 51.01 46.53 46.33 47.49 44.82 45.93 44.77 43.15 40.80 40.66 45.77 56.82 56.43 57.88 58.58 59.96 60.47 60.92 62.64 64.27 66.88 66.70 66.99 68.03 69.55 69.55 68.65 68.83 69.55 70.03 72.76 73.83 73.36 73.84 74.07 73.97 73.47 73.95 73.27 71.02 72.02
47.36 44.08 41.74 43.32 48.06 52.68 49.46 46.74 45.78 40.75 39.94 45.43 45.49 45.47 58.44 58.65 58.56 58.97 59.48 59.76 60.95 62.12 62.95 64.22 65.69 66.48 66.56 67.19 69.27 68.81 69.66 69.51 70.34 70.01 70.86 74.26 74.41 73.90 73.04 73.90 74.40 73.36 72.04 71.80
45.71 44.06 39.26 41.49 42.41 45.57 44.07 47.15 45.26 44.55 45.05 45.00 41.71 45.96 59.22 59.05 57.99 58.59 58.33 59.65 59.60 60.46 61.46 61.86 62.26 62.94 64.02 64.98 66.34 68.05 68.32 69.11 69.97 69.51 69.76 71.24 73.38 74.42 72.81 73.75 74.38 74.72 74.20 72.89
51.20 44.03 41.92 37.20 39.84 43.06 42.69 46.55 47.37 44.37 41.30 45.40 44.06 50.16 54.40 55.68 55.17 56.50 57.60 59.02 59.24 59.51 60.03 60.03 59.38 59.51 61.49 63.14 62.95 64.36 65.86 68.21 68.84 68.52 69.11 69.31 69.54 70.59 72.38 74.54 74.62 75.06 75.07 74.57
45.91 41.43 41.69 45.23 47.63 45.71 45.10 46.11 47.18 42.98 49.69 44.77 47.96 51.52 54.17 56.01 55.49 56.84 57.85 58.32 58.43 59.09 59.37 59.58 59.75 60.14 60.35 61.15 61.96 62.33 63.72 66.19 66.05 66.72 67.85 68.23 69.54 70.24 69.62 70.28 73.22 74.31 73.87 75.14
46.77 40.92 43.56 41.89 46.89 45.75 43.82 46.91 47.37 47.33 52.14 49.67 50.53 51.87 56.80 57.71 57.42 57.29 57.62 57.96 57.56 57.96 58.63 59.54 60.38 60.60 60.19 60.39 60.98 61.85 62.68 64.24 64.27 64.37 65.86 67.73 67.78 68.21 68.48 69.43 69.99 72.92 72.70 73.12
43.88 42.74 41.04 36.00 44.45 44.29 38.91 43.79 44.69 44.73 51.73 52.65 48.84 52.02 56.47 55.29 55.38 55.84 56.36 56.62 55.40 54.95 55.51 55.53 56.05 55.43 55.47 59.18 61.12 60.45 60.60 62.47 62.94 63.50 64.03 64.98 65.80 65.58 65.87 67.71 68.12 68.30 68.73 72.02
43.61 41.87 40.29 37.47 41.08 31.33 41.44 47.19 47.97 46.25 52.82 54.45 54.21 54.83 56.04 56.57 56.68 54.95 54.62 53.78 53.92 54.03 53.88 53.92 54.83 55.31 55.78 56.72 57.46 61.14 61.89 62.09 62.20 62.04 62.65 63.43 64.29 64.38 64.58 64.96 65.51 65.91 66.99 67.91
45.51 43.33 39.21 35.79 33.94 40.95 45.27 46.54 45.10 44.92 51.02 55.23 54.17 56.22 54.53 53.88 52.85 52.07 54.45 54.14 53.42 52.90 52.60 52.68 54.50 55.51 55.19 55.45 56.08 57.76 58.79 58.97 58.37 58.68 60.05 61.89 62.94 62.77 63.71 63.57 64.43 64.78 65.75 66.59
43.92 44.21 39.23 38.34 36.35 34.07 41.34 47.66 49.68 48.38 45.50 54.05 53.59 52.04 52.21 52.68 46.28 46.59 52.26 53.18 52.35 52.54 52.24 52.40 53.56 54.19 53.86 53.37 55.00 55.13 55.89 55.79 56.01 56.97 57.63 59.86 60.42 60.13 60.90 62.22 62.47 63.64 64.21 64.86
37.41 38.95 35.25 36.08 35.78 41.84 46.77 47.62 48.82 39.01 42.16 54.55 54.11 52.85 51.73 47.46 49.67 50.61 52.15 51.91 52.27 52.11 51.97 52.65 53.05 52.51 52.91 53.92 54.05 53.68 54.29 53.96 55.62 56.66 57.08 58.15 58.69 59.61 58.77 60.40 60.45 60.67 61.46 63.74
39.00 36.57 36.80 36.67 33.41 34.09 50.18 47.55 43.39 47.36 49.90 51.42 51.65 52.21 50.64 50.70 51.36 51.20 51.31 50.41 50.94 50.80 51.79 52.17 51.26 51.80 53.03 52.75 52.43 51.64 51.27 53.24 54.89 55.71 55.56 56.01 56.62 57.84 58.80 59.00 59.99 60.51 59.75 60.37
38.45 42.10 40.09 42.01 41.46 47.47 50.03 48.98 50.30 50.29 49.20 49.69 50.06 51.14 51.26 50.26 49.44 49.65 48.92 49.53 50.04 49.94 50.06 50.06 49.31 49.95 50.38 51.22 50.74 49.67 51.52 52.27 52.62 53.85 54.51 55.39 55.57 56.23 57.22 57.45 56.77 56.50 58.25 57.19
44.59 47.47 42.01 42.94 47.11 49.00 49.97 50.87 51.22 50.67 49.30 50.05 50.04 49.26 50.13 48.46 49.31 48.58 48.50 48.03 47.74 48.29 48.08 49.16 48.61 48.08 48.41 49.52 49.71 49.26 49.61 50.20 49.66 49.29 50.40 52.03 53.36 53.67 53.94 55.37 56.64 56.20 55.41 55.81
46.04 46.81 42.90 42.79 47.59 49.10 50.12 49.88 49.25 50.40 50.70 50.09 49.85 49.34 49.49 49.02 48.62 48.23 47.32 46.73 47.08 47.37 48.00 48.16 47.11 47.00 47.27 48.27 48.42 48.26 48.46 48.84 47.27 47.31 48.15 49.15 50.26 50.26 51.57 53.49 53.76 54.82 55.12 52.79
46.89 43.90 41.44 41.03 46.59 46.88 49.19 48.91 50.01 48.76 48.86 48.54 48.14 48.35 49.42 49.57 48.01 48.67 47.66 47.80 46.87 46.78 47.46 47.16 46.78 47.01 47.29 47.04 46.03 47.21 47.55 47.81 47.13 46.38 46.99 47.45 47.43 48.49 49.72 50.92 51.60 51.88 49.88 48.72

GFSCGP_sfc_wetblb_096.txt.gz
Wetbulb
50.39 43.97 41.60 44.60 46.11 47.93 47.61 47.37 54.22 56.78 60.77 58.31 58.52 59.21 61.38 62.91 63.74 63.27 62.07 59.63 62.57 64.60 66.02 67.21 68.90 69.51 69.22 69.00 67.63 67.75 69.88 70.33 70.90 70.09 69.36 69.49 69.06 70.32 70.63 71.38 72.98 72.95 71.93 69.83
45.43 41.68 47.24 49.62 49.53 48.52 47.92 49.60 55.03 57.72 59.64 59.25 57.30 58.85 61.21 62.36 61.60 63.67 61.88 59.74 61.29 63.36 64.52 66.57 68.18 68.48 68.22 68.17 67.49 68.38 70.21 69.64 70.18 70.55 70.52 71.01 70.11 70.55 71.07 71.02 70.90 72.89 71.50 70.13
42.80 46.61 51.02 49.76 48.13 46.32 45.04 44.10 54.26 55.04 55.63 56.68 56.47 55.26 58.07 62.38 63.24 63.04 63.81 62.50 62.04 62.36 62.29 65.25 67.03 67.49 67.75 68.23 69.22 68.35 69.84 68.38 69.29 71.14 70.64 70.26 68.86 68.56 69.60 70.28 71.10 72.30 72.92 72.95
45.61 49.91 49.77 47.88 46.97 45.86 39.79 48.93 56.77 56.46 53.63 50.08 55.67 46.82 53.09 56.98 59.87 62.02 63.05 63.66 62.55 62.94 63.23 65.67 66.74 67.15 67.50 68.61 70.61 69.59 70.01 69.58 70.75 70.42 69.11 68.55 67.37 66.22 68.26 69.27 71.04 71.79 73.26 72.73
44.44 46.48 46.79 46.36 47.12 47.32 45.37 51.47 56.98 56.50 51.25 52.73 51.81 47.37 51.86 55.31 57.06 59.84 62.63 63.60 63.81 64.08 63.76 63.66 66.24 67.54 68.44 69.41 70.65 70.29 70.04 69.14 71.02 70.83 69.34 67.99 65.31 67.00 69.40 70.22 70.47 71.21 71.04 73.14
46.53 50.33 48.23 47.73 50.21 49.51 50.85 54.98 54.72 54.10 48.96 43.24 49.62 50.69 51.37 53.50 56.94 60.11 62.45 63.38 65.04 64.92 65.09 64.72 66.09 68.23 68.40 69.65 71.12 70.46 69.57 68.27 69.34 71.22 70.07 68.29 67.94 68.49 68.61 68.97 70.12 70.79 71.23 71.76
46.50 46.99 48.89 49.52 45.21 47.48 48.42 43.43 38.05 41.61 41.11 40.56 51.03 50.29 50.57 57.25 60.30 61.26 62.04 63.21 63.77 65.94 65.71 65.86 65.14 66.94 67.76 68.72 70.17 71.21 69.43 68.11 68.91 70.23 70.65 70.14 69.40 68.72 69.57 69.08 70.19 69.93 70.65 71.29
39.30 39.60 45.68 49.35 46.62 44.89 44.62 44.23 38.32 36.51 37.06 40.39 51.67 47.55 49.47 59.58 62.83 63.45 64.47 64.92 64.98 64.94 65.61 66.15 66.31 66.56 67.55 68.76 69.79 71.46 70.19 68.88 70.08 70.38 70.75 70.48 70.78 70.49 70.05 69.76 69.35 70.23 70.85 71.40
39.27 40.43 49.15 50.74 50.10 48.45 43.88 42.46 45.66 41.84 41.04 41.58 47.24 49.72 55.47 58.17 59.42 62.55 62.54 62.21 63.17 65.28 65.89 65.92 66.33 66.90 67.31 68.06 69.81 70.37 70.90 70.65 70.17 71.05 70.83 70.83 71.24 70.59 69.47 69.99 70.69 69.53 71.06 72.41
44.71 39.56 44.71 50.11 49.95 50.68 47.32 49.01 42.09 39.79 36.95 37.95 44.21 45.90 47.26 52.22 56.89 60.54 60.29 60.92 63.05 65.31 67.58 67.77 67.97 68.24 68.70 69.13 69.37 70.19 71.13 70.08 70.05 71.46 71.26 72.26 71.70 71.00 71.11 71.16 71.20 72.15 71.55 72.64
43.97 40.61 42.94 46.20 43.78 45.03 46.05 43.60 44.11 42.33 40.81 41.38 40.72 46.13 57.49 56.65 59.20 59.19 59.90 61.24 62.01 63.06 65.28 65.90 67.13 68.19 68.48 68.97 68.52 68.91 68.80 69.36 69.43 70.07 69.90 70.09 72.24 72.12 71.29 71.99 72.09 71.22 71.28 71.21
43.84 39.74 36.63 41.41 47.19 50.50 47.63 44.77 42.54 39.45 40.92 43.21 42.43 47.96 59.07 58.49 59.25 59.11 59.83 60.49 61.33 62.28 63.60 65.09 66.10 67.11 67.52 68.03 69.00 68.82 68.76 68.84 69.32 69.59 70.04 70.62 71.61 71.41 72.00 72.40 72.54 72.06 70.69 70.79
42.65 38.34 35.29 39.52 41.37 44.18 41.83 43.96 41.96 41.97 43.85 40.74 40.56 47.54 58.77 58.51 58.27 59.23 58.62 59.51 60.59 60.84 60.85 61.61 62.65 63.66 65.19 66.55 68.35 68.53 68.76 68.96 69.14 69.07 69.23 69.25 69.46 71.54 71.76 72.10 72.70 72.44 70.39 70.27
50.11 37.91 39.00 35.65 38.00 41.20 40.08 43.62 44.62 40.86 40.91 40.60 43.57 50.65 54.78 55.75 56.21 57.36 57.89 58.89 59.17 58.96 58.68 59.42 59.87 61.02 62.01 63.19 64.49 65.66 67.67 69.36 69.27 69.00 68.12 67.94 69.09 69.41 69.05 70.20 71.73 71.93 72.35 71.31
43.99 36.81 38.66 43.02 44.36 44.35 42.04 42.92 45.04 44.83 44.78 41.50 49.76 50.79 52.08 54.41 55.77 56.89 58.06 58.29 57.78 58.22 58.16 57.35 57.65 58.65 59.49 59.95 62.22 64.03 65.65 65.87 67.70 67.99 67.74 67.74 68.17 69.14 67.65 68.37 69.12 70.40 72.29 72.67
41.81 41.55 38.98 41.80 44.19 45.13 41.72 44.14 47.36 50.23 49.76 50.52 51.65 51.87 55.63 56.83 56.91 56.62 57.20 57.72 57.48 58.01 58.91 59.22 58.71 58.54 58.93 59.12 60.24 62.31 63.42 63.66 64.86 65.60 66.20 67.49 66.93 66.95 67.36 68.03 68.37 68.69 68.89 71.61
40.25 37.67 39.43 36.59 42.56 41.39 36.98 41.28 42.41 47.29 50.68 52.47 48.98 53.14 56.21 55.51 56.28 56.43 56.62 55.97 55.06 55.12 55.16 55.31 56.49 57.43 59.44 60.03 60.59 60.64 61.85 62.62 62.43 62.67 63.84 64.75 64.69 64.53 64.92 65.26 65.61 66.30 66.77 67.97
39.52 37.92 36.36 35.41 39.43 30.51 39.45 44.46 47.29 51.54 53.05 53.76 54.21 54.94 55.72 55.50 56.45 55.84 55.58 53.82 53.65 53.68 53.31 53.17 53.46 54.34 55.04 55.78 59.59 60.65 61.03 60.79 61.32 62.25 63.17 64.15 64.55 64.40 63.83 64.29 64.06 64.35 65.83 66.54
42.06 36.95 34.97 32.36 33.05 40.79 44.47 44.20 43.06 45.29 48.75 55.18 53.86 54.47 55.00 52.98 52.72 51.84 53.95 52.95 51.14 50.56 50.90 52.43 52.78 52.43 52.80 54.15 55.48 56.36 55.83 56.06 56.15 56.32 58.39 60.56 61.68 61.72 63.67 63.29 63.73 64.28 64.20 64.61
39.99 38.75 35.86 32.95 30.42 31.85 42.21 47.37 48.10 50.34 45.58 55.24 55.86 52.97 51.62 51.68 45.37 47.67 52.21 51.96 51.32 51.41 51.45 51.76 51.84 52.17 52.33 52.39 54.68 53.69 53.18 53.53 53.49 54.05 55.65 56.76 57.83 58.41 59.57 60.09 61.12 62.94 63.48 64.55
33.25 34.53 33.53 33.52 32.38 37.76 44.74 47.38 49.81 38.04 39.84 51.83 52.55 51.82 51.24 48.59 49.30 49.28 50.82 50.22 50.83 51.05 51.38 51.95 51.85 50.85 50.26 51.16 51.77 50.48 50.92 50.78 52.58 54.29 54.91 55.02 54.80 55.71 56.33 56.83 58.07 59.77 59.27 59.50
35.58 31.84 31.46 33.56 30.71 29.62 48.55 47.37 43.46 44.44 46.07 52.01 51.24 49.86 49.26 50.69 50.30 49.77 49.30 48.58 49.26 49.55 50.60 50.64 49.33 48.70 48.88 49.64 50.16 48.36 47.93 50.05 50.87 51.62 51.61 52.13 53.72 54.76 55.69 54.82 55.49 55.29 55.49 56.64
36.25 38.87 37.41 38.87 38.07 44.54 46.81 46.47 48.26 47.82 48.15 47.85 49.47 50.86 51.14 49.91 48.88 48.69 48.02 47.68 47.89 48.05 48.01 48.65 47.94 47.34 47.72 48.38 48.56 46.52 46.88 48.42 47.86 48.01 48.14 49.21 49.86 50.80 51.84 52.01 53.01 54.28 54.49 54.34
41.21 42.70 39.63 40.53 43.89 44.78 46.35 47.40 48.77 48.93 47.40 48.29 49.78 49.57 49.92 47.83 48.33 46.79 46.50 46.30 46.40 47.20 46.96 46.85 46.70 45.87 45.45 46.42 46.63 46.40 47.09 47.03 46.21 45.41 45.78 46.75 47.05 47.26 48.11 50.61 51.50 51.36 51.05 50.69
41.72 41.67 38.98 39.09 43.47 45.38 48.46 47.18 47.75 47.71 48.06 47.88 48.66 48.87 48.18 47.86 46.70 46.16 45.44 45.24 45.44 45.29 45.67 45.67 45.36 44.82 45.02 45.16 45.11 45.31 45.92 46.22 45.35 45.21 45.23 44.65 44.89 44.91 46.57 48.28 48.78 49.93 49.66 47.31
42.54 40.34 37.26 36.00 42.85 42.80 44.64 46.41 48.44 47.05 46.81 46.95 47.23 46.79 47.92 48.06 46.36 46.29 45.23 45.67 45.89 45.35 45.02 44.75 44.92 44.81 44.22 43.76 44.65 44.99 45.34 45.25 43.66 43.47 44.29 44.26 43.70 44.21 44.80 44.91 46.24 47.79 46.96 46.52

GFSCGP_sfc_wetblb_099.txt.gz
Wetbulb
48.62 44.42 41.33 44.71 45.93 47.14 47.30 48.04 54.56 57.36 61.35 58.48 58.23 58.88 59.38 61.99 62.91 60.90 60.44 61.27 63.52 64.10 67.61 68.28 68.30 69.70 68.00 67.52 67.99 68.66 69.18 69.71 69.90 69.33 68.71 68.53 68.10 70.04 71.29 71.50 72.24 71.83 71.22 70.69
44.05 41.74 46.12 48.52 48.77 48.61 47.52 52.23 54.29 57.30 59.03 58.97 58.76 57.98 60.72 61.76 61.95 61.91 61.22 60.67 62.06 64.14 65.55 67.20 67.21 68.20 67.51 66.65 67.22 67.81 69.26 69.67 69.20 69.47 69.21 69.37 69.49 69.85 69.67 70.25 70.74 72.01 71.07 68.84
42.38 45.14 49.42 48.71 46.82 45.81 44.27 44.11 54.47 54.70 57.08 57.71 57.05 55.22 58.82 61.85 63.29 63.89 63.09 61.22 63.38 63.32 63.85 66.02 66.05 67.03 67.47 66.31 66.64 68.10 68.81 69.25 69.41 70.11 69.86 68.80 68.62 68.89 69.38 69.73 69.86 71.51 71.12 71.00
43.96 48.86 48.53 45.81 45.85 45.39 38.56 48.18 54.92 55.46 50.99 47.54 54.50 47.01 53.35 57.86 59.08 61.51 62.39 60.54 62.31 63.27 64.75 66.19 65.86 65.95 67.02 66.94 67.99 68.67 68.86 67.56 69.67 70.01 69.15 68.30 67.44 66.29 68.08 68.88 69.90 71.05 72.13 72.06
43.49 45.20 45.49 44.83 45.98 46.53 44.27 50.78 56.01 54.92 51.39 48.67 49.62 47.37 51.18 54.49 54.61 58.53 60.98 62.56 60.77 62.82 65.10 65.30 65.95 66.24 67.58 68.17 68.11 69.36 68.17 68.07 69.07 69.50 68.80 67.72 66.64 67.05 67.72 69.29 69.66 70.17 70.84 71.78
45.54 48.33 46.94 46.53 48.38 47.99 50.89 53.67 52.52 50.56 48.47 42.80 47.66 48.14 49.97 51.81 55.13 58.84 62.31 63.27 62.70 62.62 64.66 66.47 67.06 66.93 67.20 69.12 68.68 69.20 68.23 68.43 69.14 69.03 68.70 67.41 65.99 66.64 67.67 67.92 69.13 69.38 70.20 70.73
44.25 45.88 47.45 48.40 43.39 45.03 45.34 46.81 42.07 39.74 41.28 40.55 47.84 47.93 48.57 56.12 58.45 60.98 61.56 62.67 63.23 63.33 63.91 64.44 65.74 66.40 66.62 68.19 68.71 68.65 68.07 67.32 69.31 69.92 69.15 68.23 67.57 68.22 67.91 68.07 69.27 69.18 69.38 70.53
37.25 37.95 45.19 46.97 44.89 42.32 42.03 44.39 39.50 35.91 36.86 40.06 49.25 44.36 49.54 58.30 60.96 62.71 63.40 64.08 65.15 64.23 65.51 64.62 65.31 66.86 67.34 67.83 69.48 69.07 68.52 67.01 68.02 69.30 69.36 69.50 69.06 68.23 68.98 68.97 69.69 69.83 69.92 70.69
36.96 39.70 47.73 48.02 47.68 47.47 42.55 40.59 44.16 40.73 38.42 41.00 45.09 47.70 55.11 59.70 60.64 61.50 61.69 63.25 63.59 64.54 65.70 66.08 66.13 66.89 67.13 67.69 69.63 69.90 69.05 67.55 68.17 68.49 69.53 69.35 69.69 69.86 69.13 69.33 69.32 69.85 70.24 71.28
40.49 37.74 43.46 48.56 48.35 48.26 45.07 47.18 40.65 38.17 33.63 34.46 42.12 43.12 46.10 55.09 58.45 59.28 59.22 60.64 62.75 65.14 66.29 66.98 66.62 66.17 67.22 67.50 68.52 70.63 70.80 69.59 68.66 69.40 69.46 69.64 69.75 70.74 70.11 69.37 69.37 70.17 70.04 70.58
41.67 39.17 41.62 44.15 41.97 43.94 45.32 41.80 40.37 40.10 39.58 36.44 38.10 44.25 54.66 53.68 58.17 58.16 59.85 61.28 62.31 63.41 65.63 66.64 67.70 67.76 67.61 68.98 68.87 68.76 69.32 68.93 69.64 70.35 69.72 69.89 70.75 70.22 69.94 70.46 70.92 71.51 71.08 71.27
42.11 38.51 36.65 40.87 45.54 46.09 44.55 43.67 41.73 37.75 37.73 40.84 42.56 45.71 59.00 58.93 58.93 59.08 58.95 60.83 61.71 63.17 64.38 65.17 66.86 67.74 67.52 67.85 68.08 68.06 68.21 68.71 68.89 68.82 69.63 70.38 70.77 70.77 70.61 70.34 70.76 71.92 71.15 70.78
41.18 37.79 35.25 39.14 40.71 43.74 40.45 41.61 40.27 40.87 41.29 40.67 40.66 45.86 58.98 58.62 58.29 59.16 58.56 60.22 60.73 61.17 61.66 62.80 63.50 64.80 67.15 67.88 68.24 68.51 68.28 68.80 68.98 68.35 68.08 69.14 69.57 69.39 70.13 70.35 70.35 71.77 71.01 69.84
47.33 37.38 37.76 34.15 37.74 39.85 38.30 40.57 41.56 40.36 37.67 39.90 42.94 50.61 55.34 56.72 57.14 57.58 58.35 58.86 58.57 59.22 60.30 61.16 61.60 62.27 63.85 65.73 66.86 68.01 68.15 68.91 69.32 68.85 67.90 67.47 68.51 66.05 66.81 67.83 69.09 70.27 71.72 69.70
42.11 36.41 38.45 42.28 42.03 42.77 40.55 41.05 43.22 40.04 41.45 42.26 47.48 50.92 54.23 55.35 56.21 56.44 57.90 57.86 57.30 57.00 57.67 58.66 58.54 59.05 61.13 62.93 63.95 65.17 65.98 67.78 68.91 68.19 67.76 67.38 67.58 68.19 67.81 67.38 67.72 68.21 69.52 71.51
39.58 37.61 37.57 39.46 44.34 43.21 40.44 43.03 44.00 48.65 50.16 49.46 51.48 51.45 56.98 57.25 56.42 55.64 56.88 57.11 56.28 56.50 57.29 57.97 58.89 59.44 59.27 61.24 61.96 62.76 63.50 64.53 66.21 66.59 67.20 67.33 67.26 67.20 66.95 66.30 66.48 66.55 66.98 68.03
40.08 36.48 37.04 33.83 40.70 41.48 37.14 40.33 40.18 47.41 51.39 51.81 48.64 52.02 56.08 54.98 55.32 55.54 55.59 56.72 54.93 55.16 56.03 56.49 57.47 58.82 59.09 59.92 61.04 61.18 61.84 62.88 63.30 63.64 64.39 64.32 64.67 64.19 64.06 64.48 64.57 64.62 64.94 66.16
38.04 38.04 35.85 36.35 38.66 32.22 39.61 43.87 51.06 51.52 52.79 52.83 53.14 54.35 55.23 55.23 55.84 55.74 54.99 53.52 53.52 54.04 54.07 54.07 54.53 56.10 58.97 59.31 57.33 57.41 57.69 57.59 58.08 59.58 61.01 61.62 62.66 63.78 63.99 63.59 63.36 63.52 64.09 64.34
38.60 36.07 32.97 32.23 34.29 41.09 44.18 44.25 42.03 44.58 49.67 54.40 54.00 54.85 55.96 55.48 52.50 51.62 53.64 54.38 53.17 53.14 52.81 52.19 53.42 54.40 54.70 54.37 54.62 54.35 54.52 55.08 55.30 55.27 55.85 57.18 58.86 61.18 60.22 59.51 61.00 62.67 63.18 63.78
38.34 37.86 35.88 32.36 30.58 31.55 42.05 46.03 48.35 51.44 46.61 56.50 55.64 54.88 51.75 52.44 46.62 48.57 51.63 52.43 52.27 51.77 51.60 52.07 52.91 52.92 51.75 51.01 52.25 51.81 51.65 51.87 52.07 53.08 54.05 54.82 55.48 56.07 56.12 57.84 58.42 60.23 60.30 60.81
31.92 31.97 30.44 31.23 30.85 36.20 44.72 48.26 49.93 36.39 38.70 55.62 55.93 52.48 51.84 50.09 49.20 49.00 49.30 50.59 51.46 51.58 51.77 51.62 51.27 49.66 49.18 49.40 49.67 48.72 49.16 49.11 50.09 51.07 51.05 51.38 51.50 53.08 53.12 54.40 55.14 55.51 57.18 57.69
34.01 30.52 29.72 30.48 28.06 28.94 46.40 46.31 40.79 42.91 48.09 52.09 52.48 52.45 50.31 49.27 50.08 49.48 49.26 48.72 50.35 50.18 50.15 49.74 48.11 47.73 48.25 48.03 47.52 45.79 46.32 47.80 48.60 48.92 49.01 48.80 48.47 49.95 51.31 50.81 52.87 53.30 52.90 52.58
34.80 37.06 35.80 36.07 35.81 42.77 44.92 43.01 45.23 47.40 48.58 49.02 50.94 51.26 50.65 50.29 49.57 49.05 46.85 47.99 49.07 48.99 48.08 47.66 47.14 46.29 46.20 46.64 46.36 45.15 45.34 46.20 46.44 46.22 46.13 46.15 46.77 47.66 48.18 48.96 48.87 50.10 50.36 50.06
39.47 40.52 38.99 39.19 42.36 43.18 44.48 45.66 46.16 48.80 48.31 49.77 50.64 50.97 50.49 49.11 50.03 48.02 47.37 47.17 46.36 46.27 46.02 46.49 45.41 44.72 44.24 44.88 45.24 44.78 45.18 45.60 45.07 44.32 44.18 44.55 44.40 44.89 45.90 47.58 48.96 48.31 46.96 47.29
39.58 40.26 37.72 38.29 41.70 43.28 45.21 45.44 45.92 47.41 50.06 50.61 51.35 51.23 50.36 49.51 48.63 48.05 47.09 46.47 46.75 45.72 45.08 45.18 44.83 44.06 43.13 43.70 43.66 44.45 44.98 44.48 43.61 43.66 43.66 43.03 43.24 42.74 43.19 44.06 45.51 46.60 46.18 46.02
40.83 39.14 36.51 36.09 41.24 40.98 42.60 45.06 46.88 46.16 47.13 48.18 48.28 47.72 49.31 48.60 46.66 46.81 45.61 45.63 45.31 44.84 44.86 44.45 43.33 42.91 42.37 43.30 43.24 43.57 43.54 43.12 42.01 41.71 42.14 42.12 40.70 40.78 41.57 41.69 41.93 45.24 45.31 44.85

GFSCGP_sfc_wetblb_102.txt.gz
Wetbulb
46.77 44.19 42.86 43.68 45.15 46.50 45.74 51.13 54.42 56.44 61.06 58.08 57.26 57.93 58.48 61.71 61.59 61.33 61.35 61.84 62.12 64.15 66.79 67.56 68.60 68.64 68.66 68.43 68.97 69.24 69.66 70.24 69.93 69.51 68.99 68.93 68.79 71.30 72.07 71.83 72.51 72.28 72.64 72.67
43.56 42.12 46.78 48.67 47.69 47.90 47.71 53.03 54.48 57.33 59.29 58.64 57.48 57.61 59.30 61.12 60.31 61.30 60.81 61.55 62.47 64.58 64.95 66.98 67.18 68.04 67.49 67.22 68.69 68.75 69.79 69.81 69.73 69.72 69.65 69.87 70.12 70.90 71.48 71.80 72.34 72.76 72.19 71.19
42.36 44.96 48.62 47.50 46.01 45.62 44.16 48.60 53.82 54.26 57.91 58.85 56.96 55.46 57.33 61.07 62.00 61.63 62.01 62.30 63.19 63.52 64.42 64.90 66.29 66.84 67.10 66.82 67.86 68.37 69.18 69.79 69.78 70.64 70.09 69.49 69.91 70.50 70.56 71.12 71.41 72.53 72.07 70.78
43.83 47.80 47.09 45.10 45.04 45.92 40.54 48.66 57.12 54.94 52.33 48.05 55.51 46.59 55.15 58.27 59.51 61.51 61.22 60.24 62.08 63.84 65.66 65.37 66.07 66.41 66.45 67.27 68.15 68.56 69.09 69.42 69.71 70.51 70.36 69.41 68.39 68.03 69.82 70.44 71.38 72.52 73.21 72.87
43.24 44.51 44.47 43.61 45.12 45.68 45.26 50.03 55.81 55.17 50.96 48.61 50.63 46.50 50.32 57.59 56.94 58.77 60.47 61.87 61.73 63.17 65.30 64.96 65.96 66.86 67.41 67.65 67.25 68.47 68.94 68.43 69.87 70.05 70.01 69.28 68.68 68.98 69.42 70.97 71.45 72.48 73.30 73.59
44.99 47.09 46.27 45.99 47.33 47.49 50.76 53.97 51.13 50.88 48.24 43.00 47.11 46.89 46.61 51.97 55.96 58.91 60.16 61.15 61.18 63.16 64.82 65.96 66.68 67.35 67.52 67.70 67.46 68.65 68.24 67.85 69.32 69.29 69.21 69.07 68.76 68.34 68.88 69.25 70.29 71.13 72.18 72.79
42.55 43.86 45.65 46.99 42.37 43.74 45.19 44.05 39.98 40.13 40.47 40.89 45.24 47.25 46.54 55.54 57.93 60.47 60.79 61.97 60.81 63.16 64.48 65.55 65.82 66.16 66.53 67.34 67.33 68.59 68.18 67.70 68.71 69.09 69.02 68.71 68.61 68.31 68.53 69.10 70.02 70.47 71.31 72.15
36.78 36.44 44.26 46.10 44.49 41.38 42.54 42.59 39.76 34.58 36.59 39.47 48.38 44.07 48.67 57.60 60.60 61.98 63.39 63.30 61.91 62.72 64.69 65.54 66.21 66.23 66.41 67.81 68.08 68.24 68.14 67.90 68.98 69.38 69.04 69.12 68.45 69.47 69.09 70.50 70.41 70.90 71.17 72.17
35.64 38.47 46.80 46.31 45.11 46.11 41.30 40.32 45.23 39.98 37.53 41.36 44.81 47.94 53.98 59.17 59.17 61.05 62.03 63.13 62.56 62.39 63.71 64.18 65.88 66.68 66.65 67.24 68.97 68.29 68.49 68.05 68.85 69.62 69.69 69.74 69.70 69.66 69.50 70.42 70.93 71.44 71.95 72.46
39.16 35.83 42.48 47.24 47.59 46.88 44.02 45.37 39.24 36.81 33.46 34.42 41.48 44.15 45.68 55.49 58.01 59.58 60.52 61.39 62.96 65.01 65.09 65.56 65.10 66.60 67.47 67.72 68.57 70.32 69.27 68.00 68.86 69.06 69.97 70.08 70.12 70.77 71.01 70.90 70.67 70.47 71.30 71.85
40.58 38.43 41.11 42.72 40.81 42.64 42.91 40.34 38.82 39.10 38.13 36.37 37.35 42.25 53.76 54.88 58.91 59.07 60.18 61.50 62.51 63.93 65.46 66.28 66.84 66.82 67.26 69.02 69.08 70.14 69.66 69.43 69.73 69.92 69.79 70.37 70.43 70.99 71.39 71.10 71.08 71.62 72.78 72.26
41.08 37.71 36.05 41.00 43.57 44.80 43.20 41.47 40.45 37.49 36.61 39.48 39.80 42.94 57.56 58.64 59.64 60.09 60.37 61.51 62.99 64.32 65.62 67.06 67.51 66.91 66.98 68.23 69.02 68.73 68.93 69.75 69.81 70.07 70.67 70.86 71.43 71.85 70.97 71.30 71.49 72.52 72.70 72.57
41.16 36.45 34.61 38.39 39.07 42.50 39.01 39.52 39.31 39.41 42.15 40.60 39.18 42.03 58.75 58.50 58.79 59.66 59.81 60.96 61.56 62.38 63.33 64.03 65.70 66.48 67.04 67.49 67.71 68.14 68.19 68.35 68.91 68.98 68.73 69.04 67.99 68.66 68.96 70.24 71.31 72.18 72.44 72.41
46.62 36.79 37.52 34.60 35.93 38.18 38.76 39.84 41.20 38.69 37.14 39.73 41.05 49.49 55.73 56.21 56.04 58.46 59.30 59.53 60.17 61.05 61.82 62.23 62.47 64.07 67.06 67.31 66.88 67.22 68.12 68.62 68.71 68.41 67.94 68.08 66.97 67.69 68.30 68.77 69.07 69.58 71.54 72.50
40.71 36.90 36.64 39.45 41.70 41.61 39.80 39.59 41.06 39.54 40.22 42.30 44.91 49.20 53.62 55.35 56.37 57.43 58.06 58.13 58.33 58.90 59.56 60.38 60.32 61.39 63.47 65.21 65.73 66.59 67.40 68.68 68.75 68.41 68.14 67.40 68.17 68.19 67.96 67.65 67.85 68.21 69.00 69.72
39.19 36.57 36.32 40.16 42.99 41.80 39.80 43.89 42.38 48.05 46.86 48.72 49.64 48.79 55.20 57.51 57.25 57.14 57.08 56.78 56.75 57.06 57.75 58.72 59.37 60.90 61.58 61.97 62.51 63.37 64.51 65.70 67.69 68.17 67.67 67.60 67.12 67.06 66.10 66.30 66.40 66.75 67.27 67.87
39.26 36.39 35.51 33.77 40.09 41.13 36.30 39.97 42.24 42.82 50.64 50.46 47.38 50.59 55.73 54.94 55.17 56.30 56.25 56.07 56.01 56.39 57.31 57.94 58.83 59.52 60.53 60.71 61.10 60.46 62.08 63.18 63.06 63.36 64.24 64.78 64.97 64.50 63.86 64.62 64.49 64.98 65.47 66.73
41.27 36.73 34.73 34.38 36.58 31.88 42.29 44.34 48.49 50.80 52.08 52.71 52.16 54.72 56.08 55.60 55.53 56.87 57.04 54.59 54.86 55.14 56.11 57.38 58.16 57.26 57.08 56.96 57.00 57.04 56.97 56.92 57.12 57.26 58.29 61.53 63.39 61.94 62.11 62.28 62.94 63.07 63.67 65.13
38.89 38.73 35.87 34.24 33.50 39.17 42.59 43.57 42.54 45.21 48.80 54.29 53.63 55.29 54.96 54.04 53.37 52.42 55.30 55.11 53.70 53.58 53.99 55.64 55.65 55.25 55.00 54.98 55.45 55.03 55.07 55.27 55.01 54.86 55.05 56.62 58.82 58.85 58.90 58.51 59.98 61.72 61.08 60.97
38.40 37.80 37.55 32.37 31.04 32.08 41.56 46.32 48.56 50.19 39.63 55.32 55.05 54.41 51.97 53.97 48.82 49.41 53.21 52.95 52.23 53.16 54.43 53.99 53.48 52.76 52.34 51.89 52.85 52.27 51.58 52.04 51.77 52.42 52.80 54.71 55.53 55.75 57.12 58.12 58.92 60.19 60.02 60.05
33.08 32.38 30.38 31.81 31.44 35.95 43.23 46.80 48.51 38.11 38.69 54.86 55.86 54.71 53.62 51.42 51.33 49.16 52.42 50.94 51.36 52.56 52.37 52.06 51.62 50.50 49.87 50.04 50.29 48.78 48.96 48.68 50.34 51.56 51.09 51.18 52.10 52.74 53.36 54.46 55.30 56.07 57.24 57.30
34.37 30.91 30.17 29.86 29.27 29.11 45.06 45.83 40.87 43.01 48.75 54.86 53.20 52.95 50.09 49.79 49.85 49.92 49.39 49.71 49.97 49.60 50.26 50.43 48.96 48.14 47.84 48.46 48.08 46.66 46.47 48.09 49.29 49.44 49.35 49.86 50.28 51.29 51.49 52.01 52.41 52.37 52.82 52.67
34.07 36.34 35.39 35.98 34.48 41.50 44.30 43.94 46.10 45.86 48.60 50.96 51.88 51.78 51.53 50.05 49.79 51.06 50.68 49.87 49.33 48.32 47.88 48.31 47.15 46.54 46.89 47.34 47.36 45.89 46.37 47.69 47.53 46.89 46.75 47.30 48.27 48.61 50.21 49.97 49.37 48.81 49.87 50.29
38.47 39.76 38.51 38.89 41.43 43.09 44.61 46.15 47.41 49.01 49.10 51.11 51.87 51.91 52.00 49.69 50.33 50.21 49.44 48.20 47.72 48.08 47.21 46.88 46.45 45.75 45.02 46.21 46.36 46.17 46.72 46.84 46.17 45.36 45.36 45.32 45.75 45.49 46.69 48.12 48.24 47.69 47.46 47.66
38.80 38.89 37.83 38.11 41.91 43.63 45.58 45.56 46.36 49.56 50.86 51.01 52.03 52.17 51.05 49.78 49.82 50.00 48.03 47.37 47.27 46.70 46.42 46.62 45.82 44.65 44.51 45.36 45.48 45.85 45.87 46.01 44.88 44.58 43.95 43.27 43.34 43.61 44.08 44.97 45.36 46.27 46.65 46.35
40.60 38.47 36.69 37.32 41.26 41.08 42.27 45.21 46.88 47.32 49.01 50.36 50.41 50.83 51.79 51.12 49.55 49.73 48.62 48.44 47.36 46.37 46.58 46.21 45.13 44.50 44.20 44.46 44.60 44.76 45.17 45.07 44.00 42.75 42.76 42.48 42.40 42.85 43.00 43.04 43.15 44.04 44.30 43.30

GFSCGP_sfc_wetblb_105.txt.gz
Wetbulb
52.23 52.20 51.90 54.83 52.03 52.20 55.86 54.16 55.49 59.13 60.78 59.33 58.69 60.08 60.17 60.83 62.40 63.31 63.78 64.67 66.32 66.94 69.71 70.86 71.48 72.07 72.35 72.85 73.19 73.66 74.19 75.29 74.47 73.59 73.03 73.05 72.71 74.43 75.11 76.21 75.70 75.69 76.29 75.93
49.88 49.34 54.29 53.30 51.52 51.70 58.13 57.12 55.88 57.62 58.98 59.10 57.58 57.88 61.60 62.18 62.29 63.85 63.95 65.21 65.85 66.23 68.09 69.63 70.75 71.61 71.73 72.35 73.30 73.97 74.59 75.18 74.83 74.35 74.18 73.96 74.10 74.06 76.37 76.45 76.42 76.32 76.07 75.75
47.83 50.95 53.76 51.38 50.03 50.39 50.82 52.97 55.62 56.05 58.14 59.27 56.46 55.46 57.55 61.14 61.94 63.14 63.34 65.90 66.63 66.78 67.32 68.75 68.80 70.70 71.64 71.91 72.78 73.59 74.66 74.95 74.89 75.27 74.59 74.34 74.54 74.82 74.79 75.20 75.40 76.12 75.87 74.92
52.22 51.64 52.08 49.58 49.37 50.64 48.94 52.39 58.61 55.53 54.18 50.98 56.35 47.05 55.36 58.80 59.27 61.27 62.54 63.01 65.66 67.00 68.26 69.32 69.74 70.25 71.01 71.92 73.21 73.85 74.65 75.07 74.86 75.33 74.72 74.82 73.30 74.48 76.64 77.24 75.36 75.50 76.04 75.35
48.95 49.89 49.44 48.49 49.50 50.73 49.19 53.56 58.10 57.64 55.00 54.10 53.51 49.81 54.06 58.75 57.72 59.37 60.83 64.03 64.99 66.76 67.94 68.64 69.53 70.19 71.47 72.26 72.43 73.20 74.26 75.03 74.90 75.15 75.63 74.36 73.82 74.32 75.78 74.76 75.87 75.63 77.32 76.45
49.83 51.68 52.07 51.76 52.02 51.74 57.94 57.19 56.90 56.37 54.33 47.86 53.26 52.25 50.97 55.94 59.02 61.13 62.06 63.02 65.08 66.13 67.71 68.24 70.08 70.38 70.80 72.23 72.09 72.72 73.34 74.04 74.99 74.56 74.99 75.09 74.74 74.02 73.16 73.85 74.34 76.59 75.65 77.20
48.09 48.64 50.70 51.18 48.95 50.82 54.42 52.84 47.23 45.86 46.31 44.44 51.35 52.05 54.64 58.48 60.52 62.52 62.49 63.76 64.68 66.07 67.37 68.37 68.96 69.64 70.22 70.37 71.30 71.89 72.81 73.08 74.12 74.18 74.41 74.71 74.76 75.04 74.60 74.24 73.76 74.34 74.32 75.13
43.88 42.04 48.85 50.78 49.91 47.95 51.06 52.07 47.37 41.19 42.98 45.83 52.05 49.37 54.66 59.39 62.17 63.53 65.13 65.60 65.59 65.74 66.78 68.15 69.12 69.62 69.52 70.34 70.94 71.48 72.15 72.81 73.72 73.88 74.26 74.58 74.71 74.04 73.68 74.20 73.96 74.44 75.29 76.64
43.86 43.89 50.61 49.88 51.39 51.18 47.56 45.67 52.12 48.41 49.64 48.33 51.00 52.94 57.01 60.46 61.73 62.54 63.40 64.76 63.79 63.95 66.43 67.71 69.13 69.67 69.59 68.67 70.96 71.43 71.48 72.38 73.26 73.08 73.99 74.26 74.25 74.17 74.32 74.88 75.17 74.95 75.93 75.41
47.65 43.05 49.09 50.99 50.77 50.76 50.39 51.93 45.82 48.54 43.35 42.74 48.60 50.00 51.95 57.26 58.71 61.63 62.88 63.58 64.24 65.53 66.33 66.79 67.14 69.35 70.15 69.73 70.94 71.25 72.20 71.70 72.15 73.41 74.04 74.23 74.64 74.65 74.92 75.03 74.92 75.08 75.59 76.32
48.93 47.05 47.86 49.57 48.80 47.99 48.26 47.94 48.43 50.34 48.31 45.65 45.31 49.64 57.44 58.83 60.61 61.63 63.21 64.54 64.80 64.80 66.12 67.06 68.29 69.73 69.59 70.20 71.25 72.03 72.69 72.63 70.43 72.86 74.16 74.55 74.56 74.86 75.28 75.05 75.23 75.38 75.65 75.72
48.33 48.03 45.58 47.48 50.08 50.50 50.96 49.97 50.74 45.76 45.92 49.59 49.54 50.48 60.36 60.60 62.12 61.61 62.48 64.42 66.29 66.84 67.18 68.49 68.65 68.73 69.33 68.65 69.77 71.17 71.76 71.82 72.80 72.67 73.63 73.58 74.37 74.66 74.44 74.62 75.29 75.57 75.32 76.17
48.93 46.05 43.78 45.56 47.09 48.74 47.99 47.71 49.95 50.75 52.18 49.43 46.52 49.96 60.18 61.73 61.15 62.34 62.10 63.70 63.81 65.32 66.54 67.11 68.55 68.47 68.55 68.56 68.46 70.26 70.36 70.70 72.32 72.50 72.29 73.43 74.20 74.33 74.73 74.74 75.05 76.06 75.82 76.26
52.16 46.42 46.23 42.81 44.84 47.18 45.24 45.40 48.18 50.44 47.40 49.15 49.89 52.44 56.53 58.33 59.13 60.54 61.60 62.49 62.89 63.57 64.11 64.73 66.96 67.54 67.45 67.63 67.70 68.33 69.22 69.40 70.14 69.85 69.93 70.27 72.28 72.62 72.50 73.22 73.44 74.39 75.87 76.17
48.78 45.47 45.90 45.78 45.57 46.29 46.22 48.79 46.17 47.85 49.31 49.13 52.14 53.99 57.30 57.50 58.10 59.18 60.48 60.41 60.80 61.43 62.42 62.23 63.09 67.11 68.11 68.23 66.51 65.72 68.17 68.91 68.82 68.62 68.28 67.65 68.73 70.71 71.21 71.58 71.78 72.65 73.79 74.30
47.89 45.16 45.84 45.06 46.46 46.01 44.57 49.31 50.07 50.41 49.83 52.31 53.18 54.69 60.60 59.48 60.28 58.92 59.01 59.57 59.65 60.00 60.42 60.75 61.94 63.07 64.64 66.67 66.61 66.92 67.79 68.92 68.89 68.40 67.92 68.84 68.82 70.36 69.33 70.19 70.19 70.69 71.51 72.30
47.10 46.99 45.39 42.68 45.76 46.55 43.14 45.37 50.56 51.50 53.79 54.03 52.46 56.14 60.28 57.15 57.55 57.72 58.26 59.01 59.11 59.47 59.65 59.68 60.52 60.44 60.82 62.08 63.23 63.15 64.39 65.21 64.80 65.42 66.59 67.27 65.73 65.65 66.53 67.87 68.43 68.84 69.52 70.52
46.81 46.17 44.44 43.77 45.74 38.79 46.02 49.01 51.54 53.34 54.47 56.13 56.25 57.31 58.91 57.97 58.08 58.82 60.53 58.61 58.04 58.65 58.90 58.38 57.40 57.63 58.21 58.22 57.93 58.02 58.46 58.79 59.55 60.20 61.91 63.06 63.51 63.77 65.17 64.77 63.80 64.73 66.72 67.74
47.46 46.90 42.99 40.77 42.08 44.60 46.09 46.83 47.51 48.73 49.91 56.70 56.35 57.07 57.14 57.55 57.26 56.12 58.86 60.72 60.74 60.47 57.30 55.55 55.57 56.09 56.37 56.04 57.12 57.14 56.68 58.10 57.73 56.78 57.29 58.61 60.89 61.56 62.86 61.57 61.53 62.90 63.90 65.52
46.33 47.79 44.91 42.27 38.13 37.42 46.03 49.09 51.87 53.52 46.69 57.42 57.77 56.04 55.71 55.72 51.21 51.27 56.36 56.98 58.31 57.37 55.59 54.79 54.37 54.23 54.01 54.55 55.20 54.09 54.33 54.02 52.92 53.69 54.82 56.78 58.97 60.98 61.15 62.16 62.53 62.23 63.30 61.77
42.56 42.47 41.51 40.29 39.76 42.49 47.91 50.35 51.47 43.22 45.55 55.48 59.10 58.17 56.36 56.78 58.71 55.34 54.61 55.36 56.92 55.39 53.97 54.15 53.51 52.64 52.48 54.39 54.26 53.57 53.92 52.69 53.37 53.95 53.61 54.62 56.64 56.35 57.28 57.95 59.03 59.72 59.31 57.71
42.28 40.59 41.18 39.13 39.08 37.55 50.21 50.68 46.94 50.33 53.24 56.37 60.02 59.24 58.73 55.94 56.26 55.01 53.50 54.49 56.05 55.45 53.66 53.33 54.04 54.48 54.69 55.24 55.04 53.83 53.52 54.55 54.46 55.15 55.53 56.04 56.79 56.44 56.58 55.95 55.59 57.11 58.66 57.72
42.31 44.88 44.36 43.78 43.77 49.38 50.91 49.96 52.37 52.32 51.99 55.59 58.62 58.03 55.99 54.98 54.94 54.08 54.51 54.73 55.90 56.17 55.41 55.34 54.13 53.17 53.42 54.09 54.29 52.63 52.60 53.56 53.72 53.74 53.38 53.44 54.35 54.80 55.03 55.03 54.83 54.43 56.07 53.98
46.12 46.51 46.81 46.01 47.72 49.31 50.91 53.14 54.12 54.29 54.02 55.51 57.64 55.84 55.91 54.52 54.76 53.92 53.33 52.65 53.35 54.10 53.65 53.67 53.25 51.93 51.33 52.20 52.49 52.14 52.27 52.62 52.49 51.46 51.22 51.65 51.67 51.63 52.81 52.87 52.81 52.36 52.19 51.88
47.67 47.03 45.95 46.53 49.21 49.89 50.31 51.46 52.46 54.12 55.23 55.84 56.39 56.16 55.55 55.21 54.09 53.10 51.66 50.21 49.12 50.29 52.46 53.23 52.54 51.71 50.92 51.65 51.41 51.60 51.81 52.15 50.29 49.61 49.36 49.52 49.55 49.76 49.12 49.30 50.12 49.32 47.31 47.47
48.65 47.73 47.40 46.90 48.74 49.95 49.50 51.27 51.80 52.55 53.66 55.41 55.30 54.02 54.97 55.65 53.96 52.66 50.76 50.00 49.07 49.03 49.85 50.60 51.73 51.58 50.60 50.88 50.60 51.04 51.92 51.57 49.84 48.61 48.37 48.14 48.32 48.38 48.17 47.46 46.44 43.48 42.44 41.44

GFSCGP_sfc_wetblb_108.txt.gz
Wetbulb
53.40 52.59 55.58 59.24 58.22 56.92 59.66 58.76 56.19 59.40 62.59 59.57 59.08 58.94 60.16 61.96 64.87 65.19 66.03 66.79 67.38 68.22 70.69 72.16 72.46 72.64 73.42 74.50 74.94 75.32 75.17 76.11 75.73 74.94 73.92 73.77 73.62 74.68 75.58 76.05 77.06 77.27 77.83 77.86
50.94 49.65 56.61 60.76 57.48 55.33 58.05 57.51 57.99 59.54 61.15 59.36 57.43 58.56 58.75 60.59 62.16 65.77 65.95 66.34 67.11 67.55 69.51 71.29 72.25 72.71 72.80 73.66 74.48 75.22 75.52 76.57 77.28 75.34 75.34 74.85 75.11 75.07 75.34 76.28 76.55 77.12 77.63 77.83
49.52 51.24 58.80 57.43 55.11 54.09 58.42 57.33 58.42 57.46 58.62 58.46 56.40 54.76 58.54 59.88 62.18 65.38 66.58 67.47 68.07 68.37 68.81 70.28 71.58 72.58 72.83 73.37 74.51 75.29 75.89 75.89 76.65 76.81 76.35 75.76 78.06 77.54 77.04 76.76 75.05 76.08 77.13 77.12
51.30 54.40 55.36 56.72 53.79 54.90 53.33 57.51 59.93 58.62 57.29 51.07 56.79 49.87 55.81 57.97 58.72 63.31 65.18 66.67 67.67 68.06 69.75 70.65 71.31 72.02 72.82 73.45 74.97 75.98 76.26 76.31 76.07 77.45 76.20 76.18 74.56 74.28 73.57 74.39 75.45 76.47 77.44 76.58
51.03 52.10 54.21 54.52 55.57 54.36 52.85 54.66 57.61 58.94 56.53 56.21 55.02 51.94 53.03 58.84 57.40 59.54 62.33 65.59 67.57 68.88 69.14 70.05 71.44 72.13 73.17 73.86 74.34 75.63 76.52 76.75 76.65 77.38 77.26 76.40 74.47 73.64 74.39 74.68 76.26 77.08 77.12 76.97
53.15 57.09 56.22 55.19 55.94 53.55 56.05 55.31 56.32 57.68 55.84 50.23 55.38 54.59 51.49 56.23 60.76 61.01 62.94 65.83 67.03 68.33 69.41 70.36 71.86 72.67 72.98 73.91 74.31 75.09 76.13 76.54 76.65 76.87 76.22 76.04 75.14 74.82 75.87 74.48 76.54 74.52 75.22 76.23
51.33 52.37 55.02 55.46 53.95 55.57 54.97 54.56 48.30 45.86 47.58 48.02 55.87 53.99 55.24 59.76 62.16 64.83 63.46 64.36 66.64 68.14 69.04 69.93 70.77 71.54 72.68 73.39 73.97 74.39 75.52 75.84 76.35 76.03 75.95 75.93 75.63 75.62 75.35 75.44 74.54 75.63 74.71 75.80
46.87 45.51 51.90 54.13 53.36 51.90 53.41 53.83 49.30 43.09 44.77 49.29 54.42 51.76 56.24 61.49 64.50 66.13 67.41 66.83 67.12 68.23 68.75 69.11 70.99 71.97 71.49 73.27 73.97 74.29 74.88 75.37 75.98 76.05 76.06 76.70 76.76 74.66 76.91 75.94 75.63 74.84 77.18 75.29
46.87 46.94 53.09 53.80 54.37 53.52 52.99 51.18 56.32 52.04 53.41 49.28 51.29 55.17 59.98 61.35 62.85 64.72 66.13 67.12 66.96 67.50 68.49 68.95 70.81 72.05 72.75 73.20 74.11 74.35 74.77 75.40 75.48 75.44 76.25 76.27 76.36 75.52 77.47 75.72 78.18 76.10 77.13 76.70
50.48 46.08 51.29 52.44 53.83 53.90 53.15 55.80 50.77 51.78 46.12 45.54 51.29 51.88 53.61 59.00 60.37 63.72 64.56 66.00 67.43 67.04 67.75 69.12 70.39 71.98 73.06 73.62 73.83 74.48 75.07 75.10 75.35 75.25 75.67 75.13 75.54 76.39 76.30 76.29 75.48 76.80 77.81 77.97
52.07 50.05 49.87 52.21 50.04 49.27 50.37 50.17 51.58 52.05 51.39 47.54 47.24 50.72 60.56 60.96 62.62 63.71 64.83 66.56 67.89 68.10 67.52 67.96 70.41 72.10 72.78 73.26 71.64 72.07 74.78 74.97 74.49 75.27 75.50 75.38 75.37 75.07 76.53 76.42 75.83 76.67 77.14 78.27
53.43 51.13 48.25 49.29 53.08 53.62 53.10 51.01 51.62 47.15 47.86 51.27 50.99 51.77 62.78 62.70 64.60 65.40 66.39 67.48 68.85 69.01 68.83 69.22 68.19 69.37 70.05 72.06 72.99 71.69 72.89 73.44 74.91 75.03 75.01 75.67 75.38 75.26 74.67 75.40 75.50 76.38 75.93 77.63
53.64 49.86 45.88 47.83 51.26 52.94 51.19 52.37 52.71 52.43 51.72 49.99 48.01 50.77 62.89 64.10 64.16 65.09 64.59 66.98 68.25 68.61 68.99 69.63 68.43 68.79 71.21 70.53 70.31 71.89 72.65 73.27 74.79 75.04 74.84 75.13 75.24 74.53 74.81 75.22 75.97 76.21 76.48 76.19
52.57 51.09 49.06 45.19 48.12 51.40 49.66 50.59 52.07 52.08 48.97 49.75 50.84 53.72 60.71 61.80 62.99 63.89 64.66 66.09 67.06 67.81 67.94 69.56 70.52 69.09 68.64 70.78 69.39 69.68 69.99 70.69 73.12 73.93 74.13 74.75 74.81 74.59 75.23 75.73 76.30 75.81 76.10 76.42
52.71 48.87 50.19 50.74 50.25 50.19 49.99 50.28 50.83 50.72 51.74 49.83 51.35 52.82 58.37 62.99 62.87 63.42 63.88 63.80 64.75 65.40 65.40 66.50 68.80 69.53 69.40 69.91 68.98 68.77 69.36 70.13 70.20 70.11 72.58 73.37 74.90 75.49 75.43 75.54 75.68 75.93 76.43 76.50
52.30 49.55 50.87 48.18 49.51 49.48 48.54 51.49 52.02 51.68 52.16 52.76 53.59 54.13 62.81 65.33 64.42 62.09 62.37 62.71 63.02 63.63 64.12 63.99 65.12 69.53 69.56 69.36 69.11 68.98 68.54 69.22 69.94 69.18 68.70 68.37 69.98 70.37 72.45 73.99 74.20 74.42 74.81 76.28
50.50 50.44 49.11 46.02 49.52 49.29 46.33 49.67 52.94 53.92 55.49 56.00 52.01 58.71 63.71 62.14 60.82 60.71 61.65 63.02 61.94 62.62 63.39 62.58 61.40 64.12 68.18 68.73 68.89 67.82 69.56 70.69 69.64 69.39 68.73 67.99 68.19 67.26 68.10 69.07 71.19 72.67 73.11 73.81
50.33 49.98 49.76 45.33 48.90 41.34 49.66 53.56 53.86 55.36 56.66 58.16 59.01 60.23 63.09 61.72 61.90 62.47 63.54 62.32 61.79 61.93 60.59 59.78 59.68 58.64 63.37 65.54 67.83 67.07 67.50 66.38 65.72 65.20 66.30 67.11 67.02 66.87 66.09 66.73 67.20 68.82 71.53 72.43
53.02 50.89 46.69 43.86 44.27 48.03 49.58 50.73 51.11 51.74 53.27 59.20 59.48 60.19 61.38 60.46 60.53 59.53 62.58 63.00 63.04 60.97 60.36 58.19 57.28 57.78 58.36 58.99 59.76 60.19 59.50 60.22 60.47 61.23 62.05 63.45 63.79 65.13 66.49 66.23 66.92 67.31 66.20 69.89
50.36 52.29 48.02 46.45 41.37 40.09 48.25 51.98 54.60 54.58 49.97 60.12 60.71 59.90 59.24 58.79 54.93 55.42 62.85 62.68 60.99 59.79 56.21 55.25 56.05 56.00 55.53 56.66 57.66 56.65 56.52 57.42 56.38 57.66 60.60 62.60 63.16 64.08 64.45 65.04 66.66 68.36 65.40 62.69
46.72 47.27 42.45 44.87 43.06 46.45 51.65 53.47 54.74 46.56 48.92 56.22 60.57 60.11 58.63 57.53 61.23 61.69 62.27 61.02 60.55 57.55 56.16 55.53 54.15 53.35 54.41 55.53 55.38 54.52 54.80 54.20 54.82 55.49 58.06 59.77 62.57 63.25 64.75 65.03 67.15 65.69 61.50 60.41
46.50 44.52 44.33 46.36 41.67 40.70 53.96 53.81 50.34 53.85 57.13 57.87 60.88 61.70 59.22 58.35 59.36 60.20 59.73 57.84 59.02 57.83 57.35 56.37 53.77 53.58 55.18 56.09 56.64 55.02 54.45 56.21 57.84 57.40 57.06 58.19 60.05 61.12 61.36 62.89 63.61 62.68 61.07 60.17
45.56 49.23 47.79 47.06 47.57 52.95 54.74 54.37 57.10 58.33 57.67 57.53 60.98 62.17 60.05 59.78 59.56 58.35 58.54 56.79 55.97 54.99 55.41 56.15 54.30 54.07 55.88 57.47 57.68 56.15 56.41 58.77 59.54 59.00 59.11 59.83 60.13 60.52 61.25 61.01 61.47 60.42 61.44 59.91
50.21 52.42 50.45 49.08 51.82 52.52 53.45 56.36 57.31 58.35 58.81 60.22 61.67 61.54 60.98 59.22 57.92 57.00 58.26 56.56 55.82 55.16 53.70 54.63 55.12 54.57 54.41 56.69 58.09 57.97 57.97 58.46 57.89 57.44 57.32 57.94 58.25 57.91 58.16 58.26 58.33 58.58 58.78 58.13
52.21 52.03 48.88 49.08 52.87 53.60 54.14 55.58 56.76 57.85 59.31 59.77 60.07 60.37 60.67 60.32 57.75 57.93 58.86 57.91 57.62 56.79 56.94 56.05 55.86 54.81 55.67 56.42 56.10 56.41 56.69 56.78 55.91 56.10 55.75 55.15 55.45 55.78 54.83 51.87 53.28 51.85 48.24 49.07
52.88 50.25 48.95 49.65 53.82 54.98 53.94 55.11 56.32 56.51 57.74 59.32 59.10 58.18 59.34 59.57 57.80 56.96 55.99 54.88 53.44 55.63 56.48 55.88 55.91 55.89 55.60 55.55 55.08 55.76 56.23 55.79 54.74 53.70 53.64 53.52 53.49 53.35 52.51 50.37 46.60 42.22 42.27 40.85

GFSCGP_sfc_wetblb_111.txt.gz
Wetbulb
54.02 51.94 53.90 59.52 61.04 57.89 57.35 57.39 55.62 58.61 62.08 58.40 57.49 58.25 57.95 63.61 64.14 63.25 64.13 65.31 66.51 66.83 68.97 70.12 71.14 71.88 72.84 73.74 73.97 74.09 75.01 76.02 75.81 74.71 73.90 73.50 75.28 74.14 75.06 75.12 77.00 77.07 77.46 77.60
51.75 49.60 55.91 59.74 60.33 58.43 55.92 56.21 55.86 59.54 60.93 57.36 56.83 57.90 59.37 60.95 64.81 64.40 64.00 65.08 66.43 67.12 67.83 70.11 70.57 71.56 72.01 73.11 74.31 74.18 75.66 76.36 77.01 75.48 76.10 74.94 73.50 76.00 75.04 75.09 76.89 77.39 77.48 77.87
50.87 52.18 55.43 58.37 58.72 56.50 56.83 57.48 57.12 57.88 58.31 58.95 55.71 55.04 56.85 60.39 63.78 65.03 64.70 65.47 65.75 66.68 67.35 68.86 70.30 70.93 72.21 72.59 73.86 74.63 76.22 76.24 76.91 75.86 76.74 76.41 76.74 77.77 75.29 76.20 75.39 76.57 77.17 77.44
52.39 54.60 53.66 56.46 57.58 58.06 53.03 61.42 59.09 58.49 56.66 51.79 58.49 47.57 53.82 57.87 59.87 61.46 63.79 65.12 65.56 68.03 67.33 69.35 70.91 71.07 71.16 72.85 74.02 75.37 75.81 76.80 76.07 77.96 76.77 77.00 73.59 73.52 74.22 74.69 75.60 77.14 77.32 76.75
50.90 52.05 52.80 55.26 57.37 58.24 55.57 58.56 59.36 59.59 56.72 55.51 53.89 51.50 52.51 56.42 55.16 58.80 63.18 64.48 66.39 67.96 68.94 68.97 69.67 71.05 71.68 73.39 73.73 74.70 75.92 77.01 77.22 77.13 76.51 75.34 75.11 74.51 74.68 76.25 76.90 77.43 77.52 77.37
53.31 56.18 55.45 56.48 59.31 58.47 58.25 57.09 58.73 58.29 55.63 50.59 53.84 52.73 51.93 55.77 56.90 59.63 62.79 65.77 65.61 66.17 69.00 68.74 71.59 70.74 71.10 72.84 73.30 74.36 75.45 76.29 76.90 76.68 76.17 76.29 74.86 74.77 74.06 75.25 74.90 74.94 75.33 75.93
52.41 53.22 56.13 57.80 55.78 56.51 56.40 55.58 51.55 47.84 48.84 49.82 55.59 53.96 54.34 59.42 61.73 62.95 63.28 64.22 67.39 67.36 67.12 68.45 69.57 68.98 71.50 72.24 72.43 73.79 75.16 75.41 75.99 76.02 75.74 75.82 76.24 75.04 75.09 75.63 74.76 74.40 73.76 74.62
47.71 47.04 53.91 56.07 55.75 53.72 55.51 55.76 50.18 44.27 46.32 48.43 56.52 51.29 54.02 60.83 63.81 64.40 65.76 65.20 66.45 68.01 68.63 68.42 68.81 69.27 72.07 72.43 72.91 73.04 74.81 75.51 75.79 75.56 76.02 76.39 76.37 74.89 75.20 75.55 73.36 74.67 76.31 74.85
48.15 48.13 54.89 55.17 55.67 56.32 54.26 53.19 58.81 51.34 52.91 51.07 53.01 57.17 61.28 63.55 63.39 65.57 65.30 65.22 65.33 68.15 68.27 69.41 70.66 71.94 72.17 72.60 73.32 73.83 75.05 75.62 75.56 75.47 76.06 76.39 76.40 75.87 75.91 75.98 76.85 76.14 77.64 76.44
52.35 47.86 53.17 53.87 55.23 54.99 53.72 57.14 51.91 53.84 45.88 43.25 49.85 50.66 53.38 59.56 62.32 64.76 65.70 63.88 66.12 67.66 67.98 68.98 69.77 70.75 72.17 72.94 73.41 74.34 75.24 75.46 75.62 75.40 75.59 75.49 75.61 76.22 76.10 76.57 75.96 76.60 72.59 77.74
53.34 51.11 50.86 52.74 51.57 51.03 51.40 51.19 53.65 53.96 52.31 46.89 45.73 50.31 61.26 61.20 62.55 63.33 65.68 67.37 66.40 67.68 68.89 70.19 70.03 70.91 73.10 73.09 73.46 74.20 74.72 75.69 75.59 75.55 75.95 75.66 75.11 75.20 75.96 75.87 76.13 76.79 76.98 77.03
53.57 51.68 48.03 50.32 53.90 54.44 53.59 52.01 52.23 48.70 49.54 51.64 49.58 49.26 60.28 64.37 64.83 65.73 66.26 67.70 68.90 68.66 69.24 70.14 70.66 72.55 73.86 74.01 74.62 74.58 74.93 75.01 75.90 76.56 77.14 75.80 76.11 75.64 74.58 75.08 75.73 76.94 76.80 77.06
54.31 50.11 47.17 47.75 51.63 53.08 50.67 52.39 52.88 52.62 52.35 49.85 47.82 52.10 63.73 65.33 65.65 66.79 66.78 68.10 69.10 68.84 69.65 68.71 68.35 71.87 73.05 73.22 73.62 73.87 74.38 75.02 75.94 76.20 75.68 75.48 76.64 75.03 74.96 74.91 75.32 76.32 77.11 77.21
56.15 51.00 49.83 44.85 48.04 52.02 50.52 50.88 52.84 51.77 48.60 49.54 50.13 56.48 61.50 63.67 63.80 65.92 67.34 67.83 69.31 70.04 70.19 69.47 69.39 69.15 70.72 71.66 72.62 73.22 72.92 74.60 74.56 73.95 73.64 76.35 76.42 75.84 75.20 76.01 75.66 75.66 76.54 76.64
54.01 49.60 50.56 50.56 51.57 53.30 52.02 50.87 51.01 51.03 52.06 50.05 51.84 52.76 59.64 64.12 64.96 65.71 66.71 67.41 68.47 68.81 69.69 69.88 69.76 70.38 71.33 71.25 70.56 69.73 69.94 69.90 71.02 70.98 72.49 72.74 76.40 77.25 76.97 76.52 76.47 75.84 76.00 76.38
54.34 49.54 51.25 49.68 50.52 51.18 50.68 51.98 51.95 51.66 51.81 52.21 52.95 52.90 61.48 65.65 67.31 66.07 65.11 65.62 65.93 66.15 66.81 69.72 70.34 70.79 70.38 71.41 70.06 69.58 69.48 71.84 71.40 71.03 71.16 72.69 74.71 73.09 75.75 75.77 74.34 76.46 75.98 76.12
52.34 51.02 48.71 47.10 50.35 49.65 47.46 50.65 51.79 52.74 53.69 52.99 51.55 57.72 60.76 64.06 64.39 64.20 63.18 64.18 64.08 65.72 64.84 65.35 67.48 68.97 71.52 70.94 70.82 70.48 71.17 72.22 71.55 71.27 70.99 69.66 71.14 68.80 69.70 70.63 73.44 74.56 74.04 75.26
51.86 51.58 51.02 47.37 49.90 42.03 50.55 56.11 55.60 55.01 56.30 58.16 58.48 60.73 64.02 64.84 65.08 64.30 65.37 65.11 64.84 64.71 63.75 63.83 61.39 65.02 68.17 69.92 70.38 69.82 70.38 70.09 71.14 70.14 69.63 69.12 68.23 67.07 67.07 67.25 67.36 68.22 70.67 73.21
53.93 52.25 47.98 45.57 45.96 45.27 48.32 53.37 53.05 53.43 54.63 59.76 59.92 61.74 64.21 64.40 63.77 61.89 64.72 66.28 65.19 64.40 62.66 61.54 60.46 59.47 61.54 64.84 67.42 68.10 69.18 67.65 65.82 64.22 65.29 67.47 68.11 68.17 67.92 66.13 65.67 67.18 69.07 67.97
53.29 53.68 49.56 47.49 43.68 37.51 45.51 52.70 56.45 56.16 50.46 56.14 61.43 61.87 61.84 61.22 58.90 59.46 63.78 63.49 63.49 64.24 61.14 57.80 57.77 57.59 57.55 58.95 62.99 61.70 60.30 60.93 59.97 61.94 63.08 64.64 65.73 65.82 67.45 69.06 69.26 69.99 67.72 65.60
46.35 46.77 46.11 46.38 45.15 47.62 52.69 52.17 55.71 45.59 49.80 57.92 61.00 62.00 60.42 59.24 61.90 64.48 62.96 62.52 61.50 58.91 56.65 57.31 56.61 54.80 55.32 56.39 57.22 55.40 55.04 54.62 56.55 57.94 61.32 63.95 65.89 66.43 66.66 67.50 67.97 65.48 62.42 62.10
48.03 45.18 44.83 47.17 40.37 40.57 55.68 54.98 50.46 55.56 58.56 58.82 61.18 62.15 61.92 59.61 62.62 61.89 59.64 60.79 57.79 56.02 55.33 54.59 54.16 55.49 56.12 56.47 55.64 55.16 54.98 57.13 57.49 58.43 58.88 60.42 63.39 63.86 65.14 66.52 65.79 63.71 61.19 59.89
45.82 49.86 48.86 49.59 48.94 55.09 56.77 56.63 58.14 59.58 59.38 60.31 60.58 62.49 62.98 62.03 60.93 59.10 58.97 58.88 56.96 56.83 56.09 56.10 54.78 54.41 56.66 57.96 56.80 54.89 57.44 60.05 59.73 58.74 58.72 59.98 60.89 62.45 64.34 64.03 63.89 62.00 63.15 63.22
51.76 53.82 49.75 50.76 53.76 54.21 55.49 57.31 58.69 59.37 59.94 61.73 62.21 62.51 63.03 60.44 60.02 58.40 58.91 58.45 58.65 59.12 58.56 57.63 56.91 55.76 54.91 58.19 56.95 57.40 57.77 59.98 60.35 59.39 59.72 60.43 60.45 60.71 61.92 62.18 62.54 61.65 61.50 61.38
53.01 54.10 50.51 51.43 54.95 55.26 55.74 56.88 57.50 58.41 60.01 60.72 62.50 61.85 60.87 61.03 59.39 57.54 57.34 56.91 55.91 54.92 54.80 56.75 56.53 56.82 55.56 57.44 56.62 57.51 58.75 59.52 58.94 58.90 58.78 59.17 57.92 59.19 54.36 49.88 51.28 54.18 47.10 45.05
54.06 51.60 50.27 49.36 55.69 55.89 56.02 57.24 57.25 57.25 58.07 59.85 60.29 60.36 60.57 60.22 58.73 58.65 56.32 56.66 55.85 54.88 55.25 55.24 55.19 56.03 55.73 56.02 56.50 57.43 59.24 58.83 57.53 56.83 56.78 56.64 56.83 56.57 55.25 52.33 46.78 41.51 41.35 40.59

GFSCGP_sfc_wetblb_114.txt.gz
Wetbulb
55.06 51.45 49.52 54.12 59.92 58.86 57.85 56.82 55.54 57.75 60.65 58.11 55.80 56.17 59.24 62.55 63.42 63.98 64.02 63.78 65.59 66.56 68.50 69.22 70.77 72.18 71.63 72.72 73.90 75.23 73.38 77.20 75.87 75.29 71.52 74.07 75.45 75.45 72.81 77.20 77.92 78.66 78.02 78.89
51.59 48.53 53.06 56.55 59.38 57.95 58.33 57.65 55.58 58.74 59.65 57.49 55.89 56.16 59.16 60.77 62.28 64.39 64.09 64.98 65.66 65.81 66.28 68.81 69.80 71.30 71.18 73.18 73.49 75.00 75.74 77.12 76.34 76.64 74.55 73.42 76.16 73.62 75.45 77.94 78.43 74.47 78.01 79.14
50.32 51.26 53.99 54.64 56.90 56.76 57.67 57.23 56.31 55.80 57.72 57.86 55.68 53.42 55.06 58.21 61.48 63.35 65.08 65.91 66.20 66.34 65.05 68.33 69.45 70.61 72.19 73.06 73.19 74.85 75.30 76.98 77.40 77.24 75.82 72.26 73.67 76.18 74.80 75.56 76.22 77.15 77.97 78.68
51.28 54.65 52.88 52.63 56.08 58.48 54.93 60.66 57.81 57.11 53.69 50.38 56.40 47.27 53.55 55.98 58.17 60.93 63.31 65.43 65.20 64.61 68.30 68.46 68.50 68.86 71.33 73.32 73.84 75.01 76.14 77.04 76.37 77.38 77.02 73.33 73.42 73.67 75.90 75.62 76.00 75.51 78.36 76.99
49.20 51.56 51.84 51.06 53.71 59.49 54.52 60.02 59.05 56.80 54.41 53.38 53.39 50.17 53.13 55.51 54.53 58.86 62.27 64.34 66.08 67.47 67.03 67.90 68.41 69.47 69.77 72.07 73.94 75.04 75.78 77.16 77.63 78.74 75.54 76.02 77.59 76.54 76.56 76.20 75.38 79.54 78.99 76.90
51.46 55.30 53.96 53.56 57.54 58.87 59.26 59.16 56.29 54.44 53.23 48.31 52.60 51.78 50.79 53.35 55.44 58.43 62.95 64.62 65.82 65.77 67.81 68.71 68.75 70.20 72.37 72.31 73.74 74.25 75.36 75.81 76.65 77.50 76.44 77.54 73.86 71.12 75.24 74.99 74.98 75.14 76.21 77.14
50.00 52.35 54.98 56.01 53.90 58.99 57.03 55.57 49.83 46.67 48.11 47.67 54.67 52.54 53.13 57.76 60.71 60.51 60.94 63.73 66.02 65.75 67.63 67.56 68.66 69.77 70.94 70.60 73.07 74.53 75.46 75.02 76.01 76.72 76.54 75.93 73.72 72.16 75.59 76.03 75.84 72.98 75.28 75.69
46.50 46.18 52.97 55.77 54.94 54.92 54.33 53.90 50.37 43.33 44.96 47.58 53.96 49.51 53.31 59.97 62.46 63.09 63.67 64.11 66.70 66.99 67.82 67.99 67.92 69.25 69.21 70.71 71.62 73.68 75.18 75.22 75.46 76.09 77.02 76.93 76.43 75.46 75.57 77.35 74.63 73.22 73.01 76.89
48.12 46.90 54.48 55.67 56.41 56.32 53.47 51.57 56.39 52.76 50.02 48.83 48.79 52.29 58.46 60.96 60.66 61.56 62.60 64.22 65.15 65.70 66.58 68.10 70.44 69.99 69.79 70.53 71.31 74.92 75.12 75.23 75.51 75.69 76.79 77.09 77.56 77.15 77.56 76.94 71.79 74.02 76.65 76.04
52.16 48.14 52.55 54.36 55.19 55.16 54.27 56.04 50.51 53.33 44.66 42.55 47.53 49.62 51.04 57.36 59.00 62.64 62.76 64.13 65.71 66.33 65.73 67.28 68.54 70.30 68.56 69.46 71.32 74.98 75.50 75.39 75.37 75.25 75.85 75.72 76.48 77.23 78.24 78.42 76.52 75.74 75.29 72.48
53.13 50.92 50.29 53.46 51.33 50.36 50.70 50.27 51.90 52.62 52.28 45.46 44.29 50.71 58.43 58.32 56.88 63.00 63.36 65.03 65.61 65.30 66.21 68.26 68.05 69.55 70.69 72.08 73.31 73.90 74.72 75.05 74.89 75.24 75.35 75.71 75.22 75.80 77.29 77.07 77.79 77.89 72.93 70.78
53.39 50.91 47.86 49.97 53.66 54.69 53.14 51.38 50.86 47.42 48.56 51.26 50.58 50.41 59.05 60.34 62.25 64.39 64.68 65.57 67.33 67.63 68.82 69.98 70.64 68.61 70.19 72.85 72.28 69.41 73.48 73.37 74.51 75.29 74.62 75.95 75.61 76.04 75.73 76.40 76.98 76.87 77.11 76.48
54.41 50.20 45.29 47.67 51.13 53.89 50.80 51.74 52.20 51.39 51.24 49.74 46.26 50.55 61.16 61.72 62.84 65.15 65.48 66.54 67.01 68.00 68.71 69.80 68.59 68.90 68.87 71.38 69.61 68.77 67.27 72.00 75.59 73.82 75.88 74.16 74.77 75.31 76.48 76.03 76.98 77.74 77.59 78.32
57.52 51.30 48.97 44.19 48.39 52.10 51.03 52.47 50.86 50.48 47.23 48.08 48.93 54.32 57.41 59.81 63.90 65.17 66.84 67.77 66.14 65.76 69.15 69.07 71.04 70.59 66.09 67.66 73.23 74.43 74.68 75.09 76.36 75.39 75.00 75.41 75.34 73.64 73.68 75.70 77.04 76.79 78.20 77.19
52.73 48.19 50.20 50.03 51.72 51.72 51.44 51.82 52.48 49.43 51.12 48.45 50.48 55.56 58.90 62.31 64.59 66.38 67.96 68.78 66.34 67.74 67.53 67.23 68.98 70.80 71.94 71.64 71.24 71.27 71.58 70.00 70.02 70.82 70.50 73.78 73.50 73.05 73.97 73.39 75.07 77.71 76.57 77.51
53.80 48.63 50.26 48.23 50.92 52.00 49.66 51.87 52.63 51.82 50.89 51.24 51.95 52.58 61.03 63.34 57.68 57.54 67.00 68.11 67.71 67.40 66.55 68.87 70.78 70.42 70.97 71.62 71.23 69.84 69.67 70.21 69.80 69.28 70.98 72.67 73.95 73.79 71.71 72.02 72.68 75.69 77.28 76.60
49.96 50.86 49.49 46.09 49.85 49.31 46.69 50.86 51.29 52.80 53.00 53.34 50.59 58.01 60.55 57.16 54.77 55.84 64.01 67.06 66.29 66.54 67.73 67.91 68.32 70.70 71.20 70.65 71.33 70.16 70.51 71.48 71.27 71.32 72.20 72.46 71.89 70.93 70.73 70.17 71.16 69.99 74.04 75.17
51.84 51.58 49.91 46.55 47.82 40.93 49.70 55.03 54.41 52.77 56.19 57.93 58.35 61.66 62.06 58.97 56.75 61.78 65.85 65.56 65.31 65.66 65.26 64.68 65.21 66.50 70.80 71.01 70.78 71.26 71.81 71.14 71.85 71.27 70.68 70.51 69.55 68.29 67.71 67.53 67.76 68.73 69.92 70.96
53.76 51.74 47.50 43.91 39.86 47.11 50.20 52.99 51.44 50.12 49.43 56.83 56.68 60.88 57.04 62.48 62.87 61.80 65.52 67.03 64.34 64.27 63.51 61.73 60.59 62.75 62.76 66.30 68.51 70.23 68.31 69.28 68.73 68.45 69.32 69.45 69.50 68.33 67.05 65.79 66.46 67.73 67.05 65.09
53.07 53.90 48.96 47.32 42.02 37.46 47.62 53.53 55.97 54.64 48.18 57.51 57.32 58.97 55.96 60.46 55.46 59.50 63.92 64.22 63.11 62.57 61.18 59.52 58.11 58.00 59.52 61.52 62.59 62.87 61.49 60.74 61.13 63.13 65.39 66.48 66.97 68.10 68.81 68.31 67.62 67.51 65.46 61.90
46.66 49.29 45.29 45.98 43.51 45.80 51.30 54.07 55.07 43.08 49.34 57.66 58.91 59.36 58.52 57.17 60.21 62.20 62.98 61.05 60.24 59.56 57.23 56.88 56.84 56.13 56.27 57.77 57.88 56.67 58.30 57.29 58.60 60.49 61.37 64.79 64.84 65.19 66.02 66.14 66.81 65.19 63.83 61.42
42.33 42.06 45.88 47.05 44.66 41.44 54.15 52.58 47.21 55.41 57.73 58.38 58.96 60.08 60.70 62.56 62.02 61.75 60.53 58.68 56.68 54.95 56.16 56.04 55.12 54.90 55.57 56.44 56.05 54.92 55.62 57.75 58.57 58.87 59.54 60.72 62.24 64.57 64.98 63.62 63.16 63.03 62.20 60.73
46.03 49.91 47.85 46.64 47.57 55.23 56.92 55.94 57.88 58.32 58.54 58.99 59.98 62.64 61.19 61.11 59.80 60.19 57.88 56.86 56.14 54.94 54.17 54.95 55.46 56.04 56.58 56.25 56.08 55.80 57.89 59.16 58.91 58.97 59.70 59.53 60.79 62.46 63.87 63.32 63.69 60.90 60.98 58.63
51.43 54.11 49.50 50.40 53.64 54.42 56.03 57.49 58.20 58.18 58.01 59.33 61.32 62.11 62.63 60.21 60.32 58.35 56.89 56.37 55.55 55.94 55.31 55.67 54.66 54.87 55.49 56.74 57.38 56.94 57.57 59.42 58.60 58.10 58.75 58.95 59.00 53.34 50.90 53.68 60.80 55.63 54.64 60.84
53.14 54.52 50.73 50.53 54.53 56.11 56.15 57.27 57.21 57.83 59.14 59.51 61.56 62.19 62.11 61.24 59.54 58.10 57.46 57.08 57.19 56.71 56.36 57.14 56.74 55.91 55.96 56.73 56.79 57.95 58.76 58.74 57.63 58.05 58.85 57.55 57.72 54.75 49.15 43.10 44.05 47.64 42.46 42.60
53.57 51.94 49.31 49.28 56.51 56.41 56.17 57.91 57.42 56.54 57.24 58.56 59.42 61.02 62.12 60.72 58.88 57.46 55.67 55.05 54.82 55.50 56.50 55.75 56.65 56.88 56.14 56.36 56.04 57.02 58.94 60.72 58.89 57.78 57.13 57.34 58.49 57.48 55.38 51.02 44.57 41.57 41.38 40.80

GFSCGP_sfc_wetblb_117.txt.gz
Wetbulb
51.60 45.12 43.01 47.03 50.64 52.24 57.87 56.68 54.94 57.38 60.14 57.74 57.16 56.24 57.51 60.00 62.30 62.39 62.49 61.70 62.51 63.99 66.20 66.59 69.62 69.87 69.70 69.84 70.82 70.70 69.78 71.35 70.52 71.19 68.11 68.55 68.38 70.47 72.15 72.76 73.82 73.03 72.99 74.17
47.02 43.84 49.72 52.03 57.72 57.27 56.11 55.27 54.37 57.62 58.89 57.76 55.87 55.10 57.86 60.08 60.58 62.77 63.01 62.37 63.11 63.82 63.73 67.77 68.29 68.75 68.53 69.81 72.14 70.23 72.29 71.29 71.12 71.87 71.52 71.41 69.81 70.42 72.43 73.86 72.82 72.77 73.81 73.11
44.81 48.01 52.30 50.80 52.67 55.66 54.75 54.22 54.66 54.92 57.52 57.57 54.78 53.28 55.73 59.67 60.20 61.95 63.42 64.87 64.65 64.73 63.18 66.75 67.87 68.01 69.40 70.43 71.36 71.26 72.06 71.83 72.14 70.78 70.84 69.86 72.05 71.71 71.04 71.99 72.47 72.86 73.53 74.45
46.67 51.28 50.74 49.16 48.56 54.10 52.43 58.46 57.69 56.51 53.92 49.48 55.28 46.45 53.42 56.09 57.22 59.22 61.29 63.11 62.62 63.59 65.47 65.67 66.88 67.84 69.29 69.86 71.49 71.78 72.00 71.69 71.93 71.91 70.13 68.15 68.99 67.97 69.72 70.79 72.40 72.57 74.14 73.63
44.52 47.69 48.07 48.10 49.53 57.82 54.79 58.41 57.10 55.31 52.22 52.17 51.61 49.25 51.94 56.28 54.57 57.01 59.86 63.00 64.41 64.08 64.92 64.67 67.09 68.34 69.70 71.02 71.36 71.84 71.81 71.87 71.70 71.70 71.30 69.55 69.60 70.32 71.27 72.34 72.49 72.46 73.27 72.97
47.04 51.19 50.04 49.88 53.95 58.58 60.51 57.76 55.33 54.56 53.08 46.34 50.69 50.37 50.10 52.52 54.25 57.01 59.76 62.30 64.35 64.20 65.36 66.37 67.39 69.15 70.05 71.11 71.27 71.80 71.64 72.31 72.32 72.06 71.79 70.99 68.97 68.83 70.33 71.30 71.67 71.47 71.98 72.82
46.24 47.29 50.82 52.36 53.71 57.74 56.49 51.76 44.81 42.89 45.57 45.65 52.56 50.48 52.14 55.77 57.69 58.54 59.54 61.10 64.07 64.96 63.99 65.64 65.95 65.76 69.00 70.23 71.18 71.90 70.52 70.64 71.53 72.28 71.50 71.55 69.90 68.94 69.57 70.24 70.31 70.18 71.05 71.61
40.52 39.79 49.03 52.85 49.88 52.80 53.98 51.54 45.18 39.63 42.93 46.12 51.12 48.36 51.84 57.84 59.69 60.66 61.72 61.85 64.28 64.55 65.70 65.86 64.85 67.82 68.07 69.74 70.22 71.77 71.19 70.99 70.52 72.21 72.14 71.93 70.54 69.68 71.44 71.69 70.84 70.08 71.08 71.76
41.23 43.29 51.45 53.18 53.18 53.37 50.45 45.60 49.70 46.34 48.40 45.72 49.03 51.66 55.13 57.92 59.50 59.01 60.05 62.29 62.92 64.56 64.78 66.43 67.30 67.20 68.64 68.31 68.52 71.67 71.62 71.79 70.77 71.89 72.46 72.00 72.57 72.15 71.32 72.15 70.00 70.73 73.17 74.35
46.81 41.74 49.06 52.36 52.90 52.27 49.72 52.12 45.72 47.17 41.24 40.16 47.00 46.37 48.13 53.35 56.94 59.75 59.47 61.08 63.25 64.13 64.91 65.72 67.29 67.88 68.18 69.26 68.25 72.15 72.43 71.91 71.61 72.02 72.69 72.11 72.22 72.54 72.66 72.50 69.22 71.88 71.57 69.43
46.72 44.35 45.90 49.64 46.19 45.65 45.49 43.58 44.65 47.45 47.33 42.31 41.46 46.79 55.58 55.56 58.60 59.19 60.83 61.63 62.89 64.53 64.11 65.32 67.07 68.07 68.58 68.95 68.64 72.38 72.26 71.74 71.75 72.24 72.13 71.61 72.16 72.67 72.55 72.88 72.65 72.74 70.62 67.45
49.28 43.91 40.33 44.32 51.01 51.91 48.78 44.57 44.33 38.47 38.63 45.63 44.89 46.32 59.21 58.24 60.60 60.97 61.45 63.11 63.41 65.20 64.87 64.87 66.43 67.05 66.79 66.42 68.56 71.61 72.52 72.08 71.63 71.63 72.12 72.05 72.03 71.64 72.59 71.96 72.55 72.34 68.24 68.62
48.35 44.07 38.27 42.74 47.93 51.70 48.35 47.84 46.96 44.04 41.60 39.54 40.63 45.84 58.81 60.16 58.41 59.27 61.15 63.58 64.03 63.94 65.11 65.54 66.02 67.14 68.85 67.44 69.33 68.97 70.19 69.84 70.60 71.81 71.81 71.67 71.44 71.65 71.66 72.08 71.85 72.58 72.21 72.39
52.76 43.54 40.99 37.27 40.91 47.01 46.50 49.18 50.00 45.46 37.70 40.05 41.75 50.43 54.05 56.01 57.78 59.90 62.21 63.96 64.57 64.16 64.40 66.07 66.42 66.73 68.06 68.69 68.77 67.51 67.66 68.97 67.86 67.67 69.19 69.99 70.02 70.04 70.87 71.65 71.90 72.25 73.09 72.88
46.60 40.74 43.51 45.49 48.03 48.44 48.69 48.79 49.54 47.04 49.57 42.71 46.41 50.71 54.74 57.34 59.28 59.23 63.69 63.38 63.67 64.66 64.58 65.98 66.18 66.08 66.60 66.66 67.44 69.73 70.02 68.89 69.93 69.81 69.88 69.26 70.42 70.94 70.90 72.12 71.55 71.92 72.71 72.63
48.63 43.05 45.43 44.66 49.32 49.95 47.88 50.53 50.60 52.51 51.07 50.13 51.66 54.09 58.41 60.10 58.78 58.75 58.92 64.49 63.02 64.75 66.15 67.50 65.93 66.03 65.44 66.08 66.34 69.73 68.97 69.20 69.69 69.55 68.43 70.00 69.47 69.52 69.28 69.55 70.18 71.43 71.46 71.09
45.75 44.56 43.10 38.97 47.36 47.15 44.63 47.82 49.17 50.97 52.59 50.82 51.06 54.26 55.30 54.85 56.69 57.00 58.68 64.52 64.68 63.81 65.40 66.61 68.17 67.89 65.74 66.85 68.63 68.29 68.58 69.15 68.16 68.30 69.65 69.87 67.95 67.00 66.82 68.41 68.74 69.83 70.89 70.80
45.90 45.89 44.11 38.98 42.26 34.77 47.19 51.90 52.26 51.71 53.03 55.50 55.68 58.15 55.47 54.65 54.79 56.16 61.25 63.68 63.75 63.71 62.93 62.72 63.41 65.74 69.06 69.93 69.15 69.15 69.70 69.07 68.90 69.31 68.07 67.69 67.08 66.49 66.33 66.28 68.13 69.40 68.90 67.23
51.41 46.47 41.27 39.75 38.78 42.51 47.77 49.78 48.94 47.59 50.05 54.95 56.55 57.16 58.14 60.29 61.26 60.92 63.55 63.38 61.85 60.96 60.06 60.39 60.63 62.62 64.93 68.83 68.94 68.47 67.03 68.11 68.00 67.19 66.90 66.69 66.15 65.16 65.64 66.46 66.55 64.74 62.75 60.91
48.82 47.06 43.16 41.03 39.60 35.29 43.91 51.49 53.52 52.85 46.66 56.00 57.69 55.05 54.67 56.66 51.99 57.01 60.96 60.35 59.26 59.44 59.58 58.55 58.43 60.66 60.92 62.20 63.59 62.59 61.36 61.70 62.50 64.81 65.87 66.88 66.61 65.84 65.36 64.82 65.87 64.30 61.91 59.60
41.45 41.89 39.45 40.39 38.98 44.05 51.27 51.94 53.62 43.00 46.53 55.86 58.36 57.20 55.32 52.59 58.43 58.30 58.10 57.30 57.45 56.35 56.67 57.09 56.33 56.15 57.53 58.73 59.87 58.45 58.73 57.97 59.34 61.86 64.39 64.25 64.90 64.86 65.09 65.33 64.34 62.33 59.07 56.88
40.01 39.68 40.52 41.10 38.35 38.51 53.67 53.36 46.83 50.03 54.04 56.51 59.32 58.44 57.87 59.24 59.15 57.80 56.23 55.14 55.26 55.81 55.79 55.87 54.78 55.51 57.33 57.36 57.47 56.95 56.45 58.48 59.47 60.33 60.94 62.15 64.05 65.08 63.44 62.30 62.18 61.50 59.03 56.72
41.87 44.57 43.46 43.96 42.57 51.74 53.75 52.42 52.37 54.22 53.33 54.14 58.26 59.15 57.47 58.41 57.78 57.38 55.53 54.76 54.53 54.86 55.08 56.07 55.87 55.19 56.09 57.32 57.14 56.19 57.35 59.05 59.10 59.61 59.68 59.81 55.02 54.55 60.12 61.68 61.04 60.15 59.14 58.44
49.53 50.79 44.62 46.45 49.05 52.27 53.68 55.03 55.36 55.84 55.33 56.99 59.95 59.58 59.86 57.74 57.22 55.87 54.87 54.33 53.55 53.96 54.49 55.97 55.65 54.92 55.00 56.28 56.71 57.00 58.46 58.44 57.89 57.69 58.01 53.80 49.92 47.48 47.68 50.67 48.05 47.90 47.48 52.30
50.04 49.93 47.12 45.91 50.48 52.28 54.51 54.01 54.04 55.81 57.01 57.91 60.14 60.67 60.31 57.78 56.19 55.38 54.90 55.10 55.18 55.10 55.63 55.57 54.52 53.94 53.92 55.06 55.85 57.41 58.04 58.51 57.49 57.86 56.98 55.40 50.12 45.79 41.69 40.89 44.79 44.72 41.16 41.61
50.89 48.93 45.26 45.95 52.82 51.92 52.71 54.77 56.29 54.81 54.69 56.51 59.41 58.96 59.12 58.24 56.88 56.16 55.12 54.55 54.53 54.90 55.88 55.31 53.99 53.67 53.41 53.66 53.50 54.96 57.06 57.64 56.42 56.36 56.03 56.45 54.51 51.68 48.88 45.60 42.16 42.81 42.28 42.24